<?xml version="1.0" encoding="UTF-8" standalone="no" ?>
<gpx xmlns="http://www.topografix.com/GPX/1/1" xmlns:xsi="http://www.w3.org/2001/XMLSchema-instance" xsi:schemaLocation="http://www.topografix.com/GPX/1/1 http://www.topografix.com/GPX/1/1/gpx.xsd" version="1.1" creator="VisuGPX - https://www.visugpx.com">
  <metadata>
    <name>Balade gourmande</name>
  </metadata>
  <trk>
    <name><![CDATA[2023 06 02 balade gourmande]]></name>
    <trkseg>
      <trkpt lat="46.19043" lon="-1.39673">
        <ele>6.25536</ele>
        <time>2023-06-02T08:32:10.000Z</time>
      </trkpt>
      <trkpt lat="46.19044" lon="-1.39678">
        <ele>6.19512</ele>
        <time>2023-06-02T08:32:11.000Z</time>
      </trkpt>
      <trkpt lat="46.19046" lon="-1.39683">
        <ele>6.20454</ele>
        <time>2023-06-02T08:32:12.000Z</time>
      </trkpt>
      <trkpt lat="46.19047" lon="-1.39689">
        <ele>6.19794</ele>
        <time>2023-06-02T08:32:13.000Z</time>
      </trkpt>
      <trkpt lat="46.19049" lon="-1.39694">
        <ele>6.2245</ele>
        <time>2023-06-02T08:32:14.000Z</time>
      </trkpt>
      <trkpt lat="46.19051" lon="-1.397">
        <ele>6.25172</ele>
        <time>2023-06-02T08:32:15.000Z</time>
      </trkpt>
      <trkpt lat="46.19053" lon="-1.39705">
        <ele>6.23674</ele>
        <time>2023-06-02T08:32:16.000Z</time>
      </trkpt>
      <trkpt lat="46.19055" lon="-1.3971">
        <ele>6.24372</ele>
        <time>2023-06-02T08:32:17.000Z</time>
      </trkpt>
      <trkpt lat="46.19057" lon="-1.39716">
        <ele>6.24016</ele>
        <time>2023-06-02T08:32:18.000Z</time>
      </trkpt>
      <trkpt lat="46.19059" lon="-1.39721">
        <ele>6.21943</ele>
        <time>2023-06-02T08:32:19.000Z</time>
      </trkpt>
      <trkpt lat="46.19062" lon="-1.39727">
        <ele>6.19996</ele>
        <time>2023-06-02T08:32:20.000Z</time>
      </trkpt>
      <trkpt lat="46.19064" lon="-1.39732">
        <ele>6.18894</ele>
        <time>2023-06-02T08:32:21.000Z</time>
      </trkpt>
      <trkpt lat="46.19066" lon="-1.39738">
        <ele>6.18634</ele>
        <time>2023-06-02T08:32:22.000Z</time>
      </trkpt>
      <trkpt lat="46.19068" lon="-1.39744">
        <ele>6.17986</ele>
        <time>2023-06-02T08:32:23.000Z</time>
      </trkpt>
      <trkpt lat="46.1907" lon="-1.39749">
        <ele>6.16888</ele>
        <time>2023-06-02T08:32:24.000Z</time>
      </trkpt>
      <trkpt lat="46.19073" lon="-1.39755">
        <ele>6.15761</ele>
        <time>2023-06-02T08:32:25.000Z</time>
      </trkpt>
      <trkpt lat="46.19075" lon="-1.3976">
        <ele>6.14674</ele>
        <time>2023-06-02T08:32:26.000Z</time>
      </trkpt>
      <trkpt lat="46.19077" lon="-1.39766">
        <ele>6.1295</ele>
        <time>2023-06-02T08:32:27.000Z</time>
      </trkpt>
      <trkpt lat="46.19079" lon="-1.39772">
        <ele>6.09732</ele>
        <time>2023-06-02T08:32:28.000Z</time>
      </trkpt>
      <trkpt lat="46.19081" lon="-1.39776">
        <ele>6.07299</ele>
        <time>2023-06-02T08:32:29.000Z</time>
      </trkpt>
      <trkpt lat="46.19082" lon="-1.3978">
        <ele>6.02645</ele>
        <time>2023-06-02T08:32:30.000Z</time>
      </trkpt>
      <trkpt lat="46.19084" lon="-1.39785">
        <ele>5.96151</ele>
        <time>2023-06-02T08:32:31.000Z</time>
      </trkpt>
      <trkpt lat="46.19086" lon="-1.3979">
        <ele>5.86959</ele>
        <time>2023-06-02T08:32:32.000Z</time>
      </trkpt>
      <trkpt lat="46.19088" lon="-1.39795">
        <ele>5.73306</ele>
        <time>2023-06-02T08:32:33.000Z</time>
      </trkpt>
      <trkpt lat="46.1909" lon="-1.39801">
        <ele>5.60634</ele>
        <time>2023-06-02T08:32:34.000Z</time>
      </trkpt>
      <trkpt lat="46.19092" lon="-1.39806">
        <ele>5.46851</ele>
        <time>2023-06-02T08:32:35.000Z</time>
      </trkpt>
      <trkpt lat="46.19094" lon="-1.39812">
        <ele>5.33049</ele>
        <time>2023-06-02T08:32:36.000Z</time>
      </trkpt>
      <trkpt lat="46.19095" lon="-1.39818">
        <ele>5.22275</ele>
        <time>2023-06-02T08:32:37.000Z</time>
      </trkpt>
      <trkpt lat="46.19098" lon="-1.39824">
        <ele>5.1295</ele>
        <time>2023-06-02T08:32:38.000Z</time>
      </trkpt>
      <trkpt lat="46.191" lon="-1.39831">
        <ele>5.06066</ele>
        <time>2023-06-02T08:32:39.000Z</time>
      </trkpt>
      <trkpt lat="46.19102" lon="-1.39837">
        <ele>5.01149</ele>
        <time>2023-06-02T08:32:40.000Z</time>
      </trkpt>
      <trkpt lat="46.19104" lon="-1.39843">
        <ele>4.95692</ele>
        <time>2023-06-02T08:32:41.000Z</time>
      </trkpt>
      <trkpt lat="46.19106" lon="-1.39849">
        <ele>4.92553</ele>
        <time>2023-06-02T08:32:42.000Z</time>
      </trkpt>
      <trkpt lat="46.19108" lon="-1.39856">
        <ele>4.89454</ele>
        <time>2023-06-02T08:32:43.000Z</time>
      </trkpt>
      <trkpt lat="46.1911" lon="-1.39862">
        <ele>4.8932</ele>
        <time>2023-06-02T08:32:44.000Z</time>
      </trkpt>
      <trkpt lat="46.19112" lon="-1.39868">
        <ele>4.88719</ele>
        <time>2023-06-02T08:32:45.000Z</time>
      </trkpt>
      <trkpt lat="46.19114" lon="-1.39874">
        <ele>4.87541</ele>
        <time>2023-06-02T08:32:46.000Z</time>
      </trkpt>
      <trkpt lat="46.19116" lon="-1.39881">
        <ele>4.87071</ele>
        <time>2023-06-02T08:32:47.000Z</time>
      </trkpt>
      <trkpt lat="46.19119" lon="-1.39887">
        <ele>4.93446</ele>
        <time>2023-06-02T08:32:48.000Z</time>
      </trkpt>
      <trkpt lat="46.1912" lon="-1.39894">
        <ele>4.99844</ele>
        <time>2023-06-02T08:32:49.000Z</time>
      </trkpt>
      <trkpt lat="46.19122" lon="-1.399">
        <ele>5.07084</ele>
        <time>2023-06-02T08:32:50.000Z</time>
      </trkpt>
      <trkpt lat="46.19125" lon="-1.39906">
        <ele>5.13458</ele>
        <time>2023-06-02T08:32:51.000Z</time>
      </trkpt>
      <trkpt lat="46.19127" lon="-1.39911">
        <ele>5.20858</ele>
        <time>2023-06-02T08:32:52.000Z</time>
      </trkpt>
      <trkpt lat="46.19129" lon="-1.39918">
        <ele>5.30133</ele>
        <time>2023-06-02T08:32:53.000Z</time>
      </trkpt>
      <trkpt lat="46.19131" lon="-1.39924">
        <ele>5.3577</ele>
        <time>2023-06-02T08:32:54.000Z</time>
      </trkpt>
      <trkpt lat="46.19133" lon="-1.39931">
        <ele>5.36803</ele>
        <time>2023-06-02T08:32:55.000Z</time>
      </trkpt>
      <trkpt lat="46.19135" lon="-1.39936">
        <ele>5.39827</ele>
        <time>2023-06-02T08:32:56.000Z</time>
      </trkpt>
      <trkpt lat="46.19138" lon="-1.39943">
        <ele>5.40427</ele>
        <time>2023-06-02T08:32:57.000Z</time>
      </trkpt>
      <trkpt lat="46.19139" lon="-1.39949">
        <ele>5.35851</ele>
        <time>2023-06-02T08:32:58.000Z</time>
      </trkpt>
      <trkpt lat="46.19141" lon="-1.39956">
        <ele>5.28084</ele>
        <time>2023-06-02T08:32:59.000Z</time>
      </trkpt>
      <trkpt lat="46.19143" lon="-1.39963">
        <ele>5.1742</ele>
        <time>2023-06-02T08:33:00.000Z</time>
      </trkpt>
      <trkpt lat="46.19145" lon="-1.39968">
        <ele>5.06568</ele>
        <time>2023-06-02T08:33:01.000Z</time>
      </trkpt>
      <trkpt lat="46.19147" lon="-1.39975">
        <ele>4.9039</ele>
        <time>2023-06-02T08:33:02.000Z</time>
      </trkpt>
      <trkpt lat="46.19149" lon="-1.39981">
        <ele>4.73348</ele>
        <time>2023-06-02T08:33:03.000Z</time>
      </trkpt>
      <trkpt lat="46.1915" lon="-1.39987">
        <ele>4.53209</ele>
        <time>2023-06-02T08:33:04.000Z</time>
      </trkpt>
      <trkpt lat="46.19152" lon="-1.39994">
        <ele>4.32368</ele>
        <time>2023-06-02T08:33:05.000Z</time>
      </trkpt>
      <trkpt lat="46.19154" lon="-1.4">
        <ele>4.18241</ele>
        <time>2023-06-02T08:33:06.000Z</time>
      </trkpt>
      <trkpt lat="46.19156" lon="-1.40006">
        <ele>4.04454</ele>
        <time>2023-06-02T08:33:07.000Z</time>
      </trkpt>
      <trkpt lat="46.19158" lon="-1.40012">
        <ele>3.86764</ele>
        <time>2023-06-02T08:33:08.000Z</time>
      </trkpt>
      <trkpt lat="46.19159" lon="-1.40018">
        <ele>3.69381</ele>
        <time>2023-06-02T08:33:09.000Z</time>
      </trkpt>
      <trkpt lat="46.19161" lon="-1.40024">
        <ele>3.54837</ele>
        <time>2023-06-02T08:33:10.000Z</time>
      </trkpt>
      <trkpt lat="46.19163" lon="-1.40031">
        <ele>3.42261</ele>
        <time>2023-06-02T08:33:11.000Z</time>
      </trkpt>
      <trkpt lat="46.19165" lon="-1.40037">
        <ele>3.31059</ele>
        <time>2023-06-02T08:33:12.000Z</time>
      </trkpt>
      <trkpt lat="46.19166" lon="-1.40044">
        <ele>3.19232</ele>
        <time>2023-06-02T08:33:13.000Z</time>
      </trkpt>
      <trkpt lat="46.19168" lon="-1.40051">
        <ele>3.0968</ele>
        <time>2023-06-02T08:33:14.000Z</time>
      </trkpt>
      <trkpt lat="46.1917" lon="-1.40057">
        <ele>3.05022</ele>
        <time>2023-06-02T08:33:15.000Z</time>
      </trkpt>
      <trkpt lat="46.19172" lon="-1.40064">
        <ele>3.00565</ele>
        <time>2023-06-02T08:33:16.000Z</time>
      </trkpt>
      <trkpt lat="46.19174" lon="-1.4007">
        <ele>2.95556</ele>
        <time>2023-06-02T08:33:17.000Z</time>
      </trkpt>
      <trkpt lat="46.19176" lon="-1.40077">
        <ele>2.94533</ele>
        <time>2023-06-02T08:33:18.000Z</time>
      </trkpt>
      <trkpt lat="46.19177" lon="-1.40082">
        <ele>2.93225</ele>
        <time>2023-06-02T08:33:19.000Z</time>
      </trkpt>
      <trkpt lat="46.19179" lon="-1.40089">
        <ele>2.93298</ele>
        <time>2023-06-02T08:33:20.000Z</time>
      </trkpt>
      <trkpt lat="46.19181" lon="-1.40095">
        <ele>2.9353</ele>
        <time>2023-06-02T08:33:21.000Z</time>
      </trkpt>
      <trkpt lat="46.19183" lon="-1.40102">
        <ele>2.94477</ele>
        <time>2023-06-02T08:33:22.000Z</time>
      </trkpt>
      <trkpt lat="46.19184" lon="-1.40109">
        <ele>2.95432</ele>
        <time>2023-06-02T08:33:23.000Z</time>
      </trkpt>
      <trkpt lat="46.19186" lon="-1.40115">
        <ele>2.96283</ele>
        <time>2023-06-02T08:33:24.000Z</time>
      </trkpt>
      <trkpt lat="46.19187" lon="-1.40121">
        <ele>3.01771</ele>
        <time>2023-06-02T08:33:25.000Z</time>
      </trkpt>
      <trkpt lat="46.19188" lon="-1.40128">
        <ele>3.01621</ele>
        <time>2023-06-02T08:33:26.000Z</time>
      </trkpt>
      <trkpt lat="46.1919" lon="-1.40134">
        <ele>2.99687</ele>
        <time>2023-06-02T08:33:27.000Z</time>
      </trkpt>
      <trkpt lat="46.19191" lon="-1.4014">
        <ele>2.9774</ele>
        <time>2023-06-02T08:33:28.000Z</time>
      </trkpt>
      <trkpt lat="46.19193" lon="-1.40146">
        <ele>2.95186</ele>
        <time>2023-06-02T08:33:29.000Z</time>
      </trkpt>
      <trkpt lat="46.19195" lon="-1.40152">
        <ele>2.89087</ele>
        <time>2023-06-02T08:33:30.000Z</time>
      </trkpt>
      <trkpt lat="46.19196" lon="-1.40158">
        <ele>2.84655</ele>
        <time>2023-06-02T08:33:31.000Z</time>
      </trkpt>
      <trkpt lat="46.19198" lon="-1.40165">
        <ele>2.79303</ele>
        <time>2023-06-02T08:33:32.000Z</time>
      </trkpt>
      <trkpt lat="46.192" lon="-1.40172">
        <ele>2.78164</ele>
        <time>2023-06-02T08:33:33.000Z</time>
      </trkpt>
      <trkpt lat="46.19201" lon="-1.40179">
        <ele>2.77435</ele>
        <time>2023-06-02T08:33:34.000Z</time>
      </trkpt>
      <trkpt lat="46.19203" lon="-1.40186">
        <ele>2.77563</ele>
        <time>2023-06-02T08:33:35.000Z</time>
      </trkpt>
      <trkpt lat="46.19205" lon="-1.40191">
        <ele>2.74636</ele>
        <time>2023-06-02T08:33:36.000Z</time>
      </trkpt>
      <trkpt lat="46.19206" lon="-1.40198">
        <ele>2.69813</ele>
        <time>2023-06-02T08:33:37.000Z</time>
      </trkpt>
      <trkpt lat="46.19208" lon="-1.40205">
        <ele>2.64567</ele>
        <time>2023-06-02T08:33:38.000Z</time>
      </trkpt>
      <trkpt lat="46.1921" lon="-1.40212">
        <ele>2.62009</ele>
        <time>2023-06-02T08:33:39.000Z</time>
      </trkpt>
      <trkpt lat="46.19212" lon="-1.40219">
        <ele>2.59948</ele>
        <time>2023-06-02T08:33:40.000Z</time>
      </trkpt>
      <trkpt lat="46.19214" lon="-1.40226">
        <ele>2.58919</ele>
        <time>2023-06-02T08:33:41.000Z</time>
      </trkpt>
      <trkpt lat="46.19215" lon="-1.40233">
        <ele>2.64838</ele>
        <time>2023-06-02T08:33:42.000Z</time>
      </trkpt>
      <trkpt lat="46.19218" lon="-1.4024">
        <ele>2.71872</ele>
        <time>2023-06-02T08:33:43.000Z</time>
      </trkpt>
      <trkpt lat="46.19219" lon="-1.40247">
        <ele>2.8444</ele>
        <time>2023-06-02T08:33:44.000Z</time>
      </trkpt>
      <trkpt lat="46.19221" lon="-1.40254">
        <ele>2.94325</ele>
        <time>2023-06-02T08:33:45.000Z</time>
      </trkpt>
      <trkpt lat="46.19223" lon="-1.40261">
        <ele>3.02794</ele>
        <time>2023-06-02T08:33:46.000Z</time>
      </trkpt>
      <trkpt lat="46.19224" lon="-1.40268">
        <ele>3.12238</ele>
        <time>2023-06-02T08:33:47.000Z</time>
      </trkpt>
      <trkpt lat="46.19226" lon="-1.40275">
        <ele>3.20912</ele>
        <time>2023-06-02T08:33:48.000Z</time>
      </trkpt>
      <trkpt lat="46.19228" lon="-1.40282">
        <ele>3.28706</ele>
        <time>2023-06-02T08:33:49.000Z</time>
      </trkpt>
      <trkpt lat="46.1923" lon="-1.4029">
        <ele>3.33067</ele>
        <time>2023-06-02T08:33:50.000Z</time>
      </trkpt>
      <trkpt lat="46.19232" lon="-1.40295">
        <ele>3.35428</ele>
        <time>2023-06-02T08:33:51.000Z</time>
      </trkpt>
      <trkpt lat="46.19233" lon="-1.40303">
        <ele>3.37816</ele>
        <time>2023-06-02T08:33:52.000Z</time>
      </trkpt>
      <trkpt lat="46.19235" lon="-1.4031">
        <ele>3.38635</ele>
        <time>2023-06-02T08:33:53.000Z</time>
      </trkpt>
      <trkpt lat="46.19237" lon="-1.40316">
        <ele>3.38204</ele>
        <time>2023-06-02T08:33:54.000Z</time>
      </trkpt>
      <trkpt lat="46.19239" lon="-1.40323">
        <ele>3.36762</ele>
        <time>2023-06-02T08:33:55.000Z</time>
      </trkpt>
      <trkpt lat="46.19241" lon="-1.40329">
        <ele>3.36828</ele>
        <time>2023-06-02T08:33:56.000Z</time>
      </trkpt>
      <trkpt lat="46.19242" lon="-1.40336">
        <ele>3.37875</ele>
        <time>2023-06-02T08:33:57.000Z</time>
      </trkpt>
      <trkpt lat="46.19244" lon="-1.40343">
        <ele>3.38295</ele>
        <time>2023-06-02T08:33:58.000Z</time>
      </trkpt>
      <trkpt lat="46.19245" lon="-1.4035">
        <ele>3.38748</ele>
        <time>2023-06-02T08:33:59.000Z</time>
      </trkpt>
      <trkpt lat="46.19247" lon="-1.40357">
        <ele>3.37186</ele>
        <time>2023-06-02T08:34:00.000Z</time>
      </trkpt>
      <trkpt lat="46.1925" lon="-1.40365">
        <ele>3.35969</ele>
        <time>2023-06-02T08:34:01.000Z</time>
      </trkpt>
      <trkpt lat="46.19252" lon="-1.40371">
        <ele>3.29201</ele>
        <time>2023-06-02T08:34:02.000Z</time>
      </trkpt>
      <trkpt lat="46.19254" lon="-1.40378">
        <ele>3.22081</ele>
        <time>2023-06-02T08:34:03.000Z</time>
      </trkpt>
      <trkpt lat="46.19255" lon="-1.40385">
        <ele>3.10487</ele>
        <time>2023-06-02T08:34:04.000Z</time>
      </trkpt>
      <trkpt lat="46.19257" lon="-1.40393">
        <ele>3.00144</ele>
        <time>2023-06-02T08:34:05.000Z</time>
      </trkpt>
      <trkpt lat="46.19259" lon="-1.40399">
        <ele>2.90906</ele>
        <time>2023-06-02T08:34:06.000Z</time>
      </trkpt>
      <trkpt lat="46.19261" lon="-1.40407">
        <ele>2.81965</ele>
        <time>2023-06-02T08:34:07.000Z</time>
      </trkpt>
      <trkpt lat="46.19263" lon="-1.40413">
        <ele>2.71354</ele>
        <time>2023-06-02T08:34:08.000Z</time>
      </trkpt>
      <trkpt lat="46.19265" lon="-1.4042">
        <ele>2.60338</ele>
        <time>2023-06-02T08:34:09.000Z</time>
      </trkpt>
      <trkpt lat="46.19266" lon="-1.40427">
        <ele>2.54879</ele>
        <time>2023-06-02T08:34:10.000Z</time>
      </trkpt>
      <trkpt lat="46.19268" lon="-1.40433">
        <ele>2.51581</ele>
        <time>2023-06-02T08:34:11.000Z</time>
      </trkpt>
      <trkpt lat="46.19269" lon="-1.40438">
        <ele>2.49003</ele>
        <time>2023-06-02T08:34:12.000Z</time>
      </trkpt>
      <trkpt lat="46.1927" lon="-1.40445">
        <ele>2.45456</ele>
        <time>2023-06-02T08:34:13.000Z</time>
      </trkpt>
      <trkpt lat="46.19272" lon="-1.4045">
        <ele>2.44265</ele>
        <time>2023-06-02T08:34:14.000Z</time>
      </trkpt>
      <trkpt lat="46.19272" lon="-1.40455">
        <ele>2.43992</ele>
        <time>2023-06-02T08:34:15.000Z</time>
      </trkpt>
      <trkpt lat="46.19274" lon="-1.40461">
        <ele>2.43793</ele>
        <time>2023-06-02T08:34:16.000Z</time>
      </trkpt>
      <trkpt lat="46.19275" lon="-1.40468">
        <ele>2.4598</ele>
        <time>2023-06-02T08:34:17.000Z</time>
      </trkpt>
      <trkpt lat="46.19277" lon="-1.40474">
        <ele>2.48989</ele>
        <time>2023-06-02T08:34:18.000Z</time>
      </trkpt>
      <trkpt lat="46.19279" lon="-1.40481">
        <ele>2.51106</ele>
        <time>2023-06-02T08:34:19.000Z</time>
      </trkpt>
      <trkpt lat="46.1928" lon="-1.40488">
        <ele>2.54654</ele>
        <time>2023-06-02T08:34:20.000Z</time>
      </trkpt>
      <trkpt lat="46.19282" lon="-1.40495">
        <ele>2.5648</ele>
        <time>2023-06-02T08:34:21.000Z</time>
      </trkpt>
      <trkpt lat="46.19283" lon="-1.40501">
        <ele>2.57727</ele>
        <time>2023-06-02T08:34:22.000Z</time>
      </trkpt>
      <trkpt lat="46.19285" lon="-1.40508">
        <ele>2.59902</ele>
        <time>2023-06-02T08:34:23.000Z</time>
      </trkpt>
      <trkpt lat="46.19287" lon="-1.40515">
        <ele>2.60845</ele>
        <time>2023-06-02T08:34:24.000Z</time>
      </trkpt>
      <trkpt lat="46.19289" lon="-1.40521">
        <ele>2.60009</ele>
        <time>2023-06-02T08:34:25.000Z</time>
      </trkpt>
      <trkpt lat="46.19291" lon="-1.40528">
        <ele>2.5851</ele>
        <time>2023-06-02T08:34:26.000Z</time>
      </trkpt>
      <trkpt lat="46.19293" lon="-1.40536">
        <ele>2.5633</ele>
        <time>2023-06-02T08:34:27.000Z</time>
      </trkpt>
      <trkpt lat="46.19295" lon="-1.40543">
        <ele>2.60271</ele>
        <time>2023-06-02T08:34:28.000Z</time>
      </trkpt>
      <trkpt lat="46.19297" lon="-1.40551">
        <ele>2.6552</ele>
        <time>2023-06-02T08:34:29.000Z</time>
      </trkpt>
      <trkpt lat="46.19298" lon="-1.40558">
        <ele>2.69059</ele>
        <time>2023-06-02T08:34:30.000Z</time>
      </trkpt>
      <trkpt lat="46.193" lon="-1.40565">
        <ele>2.71311</ele>
        <time>2023-06-02T08:34:31.000Z</time>
      </trkpt>
      <trkpt lat="46.19302" lon="-1.40572">
        <ele>2.7283</ele>
        <time>2023-06-02T08:34:32.000Z</time>
      </trkpt>
      <trkpt lat="46.19305" lon="-1.40579">
        <ele>2.76382</ele>
        <time>2023-06-02T08:34:33.000Z</time>
      </trkpt>
      <trkpt lat="46.19306" lon="-1.40586">
        <ele>2.77746</ele>
        <time>2023-06-02T08:34:34.000Z</time>
      </trkpt>
      <trkpt lat="46.19308" lon="-1.40594">
        <ele>2.78509</ele>
        <time>2023-06-02T08:34:35.000Z</time>
      </trkpt>
      <trkpt lat="46.19309" lon="-1.40601">
        <ele>2.79645</ele>
        <time>2023-06-02T08:34:36.000Z</time>
      </trkpt>
      <trkpt lat="46.19311" lon="-1.40608">
        <ele>2.73581</ele>
        <time>2023-06-02T08:34:37.000Z</time>
      </trkpt>
      <trkpt lat="46.19313" lon="-1.40615">
        <ele>2.67298</ele>
        <time>2023-06-02T08:34:38.000Z</time>
      </trkpt>
      <trkpt lat="46.19315" lon="-1.40623">
        <ele>2.60356</ele>
        <time>2023-06-02T08:34:39.000Z</time>
      </trkpt>
      <trkpt lat="46.19317" lon="-1.40631">
        <ele>2.50939</ele>
        <time>2023-06-02T08:34:40.000Z</time>
      </trkpt>
      <trkpt lat="46.19318" lon="-1.40639">
        <ele>2.42349</ele>
        <time>2023-06-02T08:34:41.000Z</time>
      </trkpt>
      <trkpt lat="46.19319" lon="-1.40646">
        <ele>2.3462</ele>
        <time>2023-06-02T08:34:42.000Z</time>
      </trkpt>
      <trkpt lat="46.1932" lon="-1.40655">
        <ele>2.27061</ele>
        <time>2023-06-02T08:34:43.000Z</time>
      </trkpt>
      <trkpt lat="46.19322" lon="-1.40663">
        <ele>2.2139</ele>
        <time>2023-06-02T08:34:44.000Z</time>
      </trkpt>
      <trkpt lat="46.19324" lon="-1.40672">
        <ele>2.15577</ele>
        <time>2023-06-02T08:34:45.000Z</time>
      </trkpt>
      <trkpt lat="46.19325" lon="-1.4068">
        <ele>2.10768</ele>
        <time>2023-06-02T08:34:46.000Z</time>
      </trkpt>
      <trkpt lat="46.19327" lon="-1.40688">
        <ele>2.08309</ele>
        <time>2023-06-02T08:34:47.000Z</time>
      </trkpt>
      <trkpt lat="46.19329" lon="-1.40694">
        <ele>2.00315</ele>
        <time>2023-06-02T08:34:48.000Z</time>
      </trkpt>
      <trkpt lat="46.19331" lon="-1.40702">
        <ele>1.91262</ele>
        <time>2023-06-02T08:34:49.000Z</time>
      </trkpt>
      <trkpt lat="46.19333" lon="-1.40709">
        <ele>1.83048</ele>
        <time>2023-06-02T08:34:50.000Z</time>
      </trkpt>
      <trkpt lat="46.19335" lon="-1.40716">
        <ele>1.74642</ele>
        <time>2023-06-02T08:34:51.000Z</time>
      </trkpt>
      <trkpt lat="46.19336" lon="-1.40723">
        <ele>1.67014</ele>
        <time>2023-06-02T08:34:52.000Z</time>
      </trkpt>
      <trkpt lat="46.19338" lon="-1.4073">
        <ele>1.58728</ele>
        <time>2023-06-02T08:34:53.000Z</time>
      </trkpt>
      <trkpt lat="46.1934" lon="-1.40738">
        <ele>1.50473</ele>
        <time>2023-06-02T08:34:54.000Z</time>
      </trkpt>
      <trkpt lat="46.19342" lon="-1.40745">
        <ele>1.4293</ele>
        <time>2023-06-02T08:34:55.000Z</time>
      </trkpt>
      <trkpt lat="46.19344" lon="-1.40753">
        <ele>1.35483</ele>
        <time>2023-06-02T08:34:56.000Z</time>
      </trkpt>
      <trkpt lat="46.19346" lon="-1.4076">
        <ele>1.32808</ele>
        <time>2023-06-02T08:34:57.000Z</time>
      </trkpt>
      <trkpt lat="46.19348" lon="-1.40768">
        <ele>1.31605</ele>
        <time>2023-06-02T08:34:58.000Z</time>
      </trkpt>
      <trkpt lat="46.1935" lon="-1.40775">
        <ele>1.26011</ele>
        <time>2023-06-02T08:34:59.000Z</time>
      </trkpt>
      <trkpt lat="46.19352" lon="-1.40782">
        <ele>1.22531</ele>
        <time>2023-06-02T08:35:00.000Z</time>
      </trkpt>
      <trkpt lat="46.19354" lon="-1.4079">
        <ele>1.18405</ele>
        <time>2023-06-02T08:35:01.000Z</time>
      </trkpt>
      <trkpt lat="46.19355" lon="-1.40798">
        <ele>1.15334</ele>
        <time>2023-06-02T08:35:02.000Z</time>
      </trkpt>
      <trkpt lat="46.19357" lon="-1.40805">
        <ele>1.10112</ele>
        <time>2023-06-02T08:35:03.000Z</time>
      </trkpt>
      <trkpt lat="46.19359" lon="-1.40812">
        <ele>1.04134</ele>
        <time>2023-06-02T08:35:04.000Z</time>
      </trkpt>
      <trkpt lat="46.19361" lon="-1.40819">
        <ele>0.96469</ele>
        <time>2023-06-02T08:35:05.000Z</time>
      </trkpt>
      <trkpt lat="46.19364" lon="-1.40827">
        <ele>0.9017</ele>
        <time>2023-06-02T08:35:06.000Z</time>
      </trkpt>
      <trkpt lat="46.19365" lon="-1.40833">
        <ele>0.84924</ele>
        <time>2023-06-02T08:35:07.000Z</time>
      </trkpt>
      <trkpt lat="46.19367" lon="-1.4084">
        <ele>0.80807</ele>
        <time>2023-06-02T08:35:08.000Z</time>
      </trkpt>
      <trkpt lat="46.19368" lon="-1.40847">
        <ele>0.77523</ele>
        <time>2023-06-02T08:35:09.000Z</time>
      </trkpt>
      <trkpt lat="46.1937" lon="-1.40854">
        <ele>0.7482</ele>
        <time>2023-06-02T08:35:10.000Z</time>
      </trkpt>
      <trkpt lat="46.19371" lon="-1.40861">
        <ele>0.74972</ele>
        <time>2023-06-02T08:35:11.000Z</time>
      </trkpt>
      <trkpt lat="46.19372" lon="-1.40867">
        <ele>0.71884</ele>
        <time>2023-06-02T08:35:12.000Z</time>
      </trkpt>
      <trkpt lat="46.19374" lon="-1.40875">
        <ele>0.79347</ele>
        <time>2023-06-02T08:35:13.000Z</time>
      </trkpt>
      <trkpt lat="46.19376" lon="-1.4088">
        <ele>0.87326</ele>
        <time>2023-06-02T08:35:14.000Z</time>
      </trkpt>
      <trkpt lat="46.19378" lon="-1.40887">
        <ele>0.97562</ele>
        <time>2023-06-02T08:35:15.000Z</time>
      </trkpt>
      <trkpt lat="46.19379" lon="-1.40894">
        <ele>1.09438</ele>
        <time>2023-06-02T08:35:16.000Z</time>
      </trkpt>
      <trkpt lat="46.19381" lon="-1.40901">
        <ele>1.20662</ele>
        <time>2023-06-02T08:35:17.000Z</time>
      </trkpt>
      <trkpt lat="46.19383" lon="-1.40908">
        <ele>1.27559</ele>
        <time>2023-06-02T08:35:18.000Z</time>
      </trkpt>
      <trkpt lat="46.19384" lon="-1.40915">
        <ele>1.39506</ele>
        <time>2023-06-02T08:35:19.000Z</time>
      </trkpt>
      <trkpt lat="46.19386" lon="-1.40922">
        <ele>1.49206</ele>
        <time>2023-06-02T08:35:20.000Z</time>
      </trkpt>
      <trkpt lat="46.19388" lon="-1.4093">
        <ele>1.57457</ele>
        <time>2023-06-02T08:35:21.000Z</time>
      </trkpt>
      <trkpt lat="46.19389" lon="-1.40937">
        <ele>1.65018</ele>
        <time>2023-06-02T08:35:22.000Z</time>
      </trkpt>
      <trkpt lat="46.19391" lon="-1.40944">
        <ele>1.74541</ele>
        <time>2023-06-02T08:35:23.000Z</time>
      </trkpt>
      <trkpt lat="46.19392" lon="-1.40952">
        <ele>1.84375</ele>
        <time>2023-06-02T08:35:24.000Z</time>
      </trkpt>
      <trkpt lat="46.19394" lon="-1.4096">
        <ele>1.97214</ele>
        <time>2023-06-02T08:35:25.000Z</time>
      </trkpt>
      <trkpt lat="46.19396" lon="-1.40967">
        <ele>2.11704</ele>
        <time>2023-06-02T08:35:26.000Z</time>
      </trkpt>
      <trkpt lat="46.19398" lon="-1.40973">
        <ele>2.2187</ele>
        <time>2023-06-02T08:35:27.000Z</time>
      </trkpt>
      <trkpt lat="46.19399" lon="-1.4098">
        <ele>2.30346</ele>
        <time>2023-06-02T08:35:28.000Z</time>
      </trkpt>
      <trkpt lat="46.19401" lon="-1.40986">
        <ele>2.38963</ele>
        <time>2023-06-02T08:35:29.000Z</time>
      </trkpt>
      <trkpt lat="46.19402" lon="-1.40993">
        <ele>2.47144</ele>
        <time>2023-06-02T08:35:30.000Z</time>
      </trkpt>
      <trkpt lat="46.19404" lon="-1.41">
        <ele>2.51674</ele>
        <time>2023-06-02T08:35:31.000Z</time>
      </trkpt>
      <trkpt lat="46.19406" lon="-1.41007">
        <ele>2.61149</ele>
        <time>2023-06-02T08:35:32.000Z</time>
      </trkpt>
      <trkpt lat="46.19407" lon="-1.41014">
        <ele>2.5797</ele>
        <time>2023-06-02T08:35:33.000Z</time>
      </trkpt>
      <trkpt lat="46.19409" lon="-1.41021">
        <ele>2.54868</ele>
        <time>2023-06-02T08:35:34.000Z</time>
      </trkpt>
      <trkpt lat="46.1941" lon="-1.41027">
        <ele>2.47337</ele>
        <time>2023-06-02T08:35:35.000Z</time>
      </trkpt>
      <trkpt lat="46.19412" lon="-1.41033">
        <ele>2.3884</ele>
        <time>2023-06-02T08:35:36.000Z</time>
      </trkpt>
      <trkpt lat="46.19413" lon="-1.41039">
        <ele>2.31065</ele>
        <time>2023-06-02T08:35:37.000Z</time>
      </trkpt>
      <trkpt lat="46.19415" lon="-1.41045">
        <ele>2.27245</ele>
        <time>2023-06-02T08:35:38.000Z</time>
      </trkpt>
      <trkpt lat="46.19416" lon="-1.41051">
        <ele>2.2422</ele>
        <time>2023-06-02T08:35:39.000Z</time>
      </trkpt>
      <trkpt lat="46.19416" lon="-1.41057">
        <ele>2.24827</ele>
        <time>2023-06-02T08:35:40.000Z</time>
      </trkpt>
      <trkpt lat="46.19416" lon="-1.41064">
        <ele>2.25724</ele>
        <time>2023-06-02T08:35:41.000Z</time>
      </trkpt>
      <trkpt lat="46.19414" lon="-1.41071">
        <ele>2.27266</ele>
        <time>2023-06-02T08:35:42.000Z</time>
      </trkpt>
      <trkpt lat="46.19413" lon="-1.41077">
        <ele>2.28667</ele>
        <time>2023-06-02T08:35:43.000Z</time>
      </trkpt>
      <trkpt lat="46.19411" lon="-1.41084">
        <ele>2.29675</ele>
        <time>2023-06-02T08:35:44.000Z</time>
      </trkpt>
      <trkpt lat="46.19409" lon="-1.41091">
        <ele>2.30963</ele>
        <time>2023-06-02T08:35:45.000Z</time>
      </trkpt>
      <trkpt lat="46.19407" lon="-1.41099">
        <ele>2.27909</ele>
        <time>2023-06-02T08:35:46.000Z</time>
      </trkpt>
      <trkpt lat="46.19405" lon="-1.41106">
        <ele>2.26541</ele>
        <time>2023-06-02T08:35:47.000Z</time>
      </trkpt>
      <trkpt lat="46.19403" lon="-1.41113">
        <ele>2.24635</ele>
        <time>2023-06-02T08:35:48.000Z</time>
      </trkpt>
      <trkpt lat="46.19401" lon="-1.4112">
        <ele>2.253</ele>
        <time>2023-06-02T08:35:49.000Z</time>
      </trkpt>
      <trkpt lat="46.19399" lon="-1.41127">
        <ele>2.27017</ele>
        <time>2023-06-02T08:35:50.000Z</time>
      </trkpt>
      <trkpt lat="46.19397" lon="-1.41135">
        <ele>2.30008</ele>
        <time>2023-06-02T08:35:51.000Z</time>
      </trkpt>
      <trkpt lat="46.19394" lon="-1.41142">
        <ele>2.29636</ele>
        <time>2023-06-02T08:35:52.000Z</time>
      </trkpt>
      <trkpt lat="46.19392" lon="-1.41149">
        <ele>2.3315</ele>
        <time>2023-06-02T08:35:53.000Z</time>
      </trkpt>
      <trkpt lat="46.1939" lon="-1.41157">
        <ele>2.38087</ele>
        <time>2023-06-02T08:35:54.000Z</time>
      </trkpt>
      <trkpt lat="46.19389" lon="-1.41164">
        <ele>2.45172</ele>
        <time>2023-06-02T08:35:55.000Z</time>
      </trkpt>
      <trkpt lat="46.19388" lon="-1.41171">
        <ele>2.51627</ele>
        <time>2023-06-02T08:35:56.000Z</time>
      </trkpt>
      <trkpt lat="46.19386" lon="-1.41178">
        <ele>2.59402</ele>
        <time>2023-06-02T08:35:57.000Z</time>
      </trkpt>
      <trkpt lat="46.19385" lon="-1.41185">
        <ele>2.656</ele>
        <time>2023-06-02T08:35:58.000Z</time>
      </trkpt>
      <trkpt lat="46.19385" lon="-1.41192">
        <ele>2.71828</ele>
        <time>2023-06-02T08:35:59.000Z</time>
      </trkpt>
      <trkpt lat="46.19383" lon="-1.41199">
        <ele>2.77132</ele>
        <time>2023-06-02T08:36:00.000Z</time>
      </trkpt>
      <trkpt lat="46.19383" lon="-1.41206">
        <ele>2.84371</ele>
        <time>2023-06-02T08:36:01.000Z</time>
      </trkpt>
      <trkpt lat="46.19382" lon="-1.41214">
        <ele>2.91064</ele>
        <time>2023-06-02T08:36:02.000Z</time>
      </trkpt>
      <trkpt lat="46.19381" lon="-1.41221">
        <ele>2.97557</ele>
        <time>2023-06-02T08:36:03.000Z</time>
      </trkpt>
      <trkpt lat="46.1938" lon="-1.41228">
        <ele>3.04798</ele>
        <time>2023-06-02T08:36:04.000Z</time>
      </trkpt>
      <trkpt lat="46.19379" lon="-1.41234">
        <ele>3.13016</ele>
        <time>2023-06-02T08:36:05.000Z</time>
      </trkpt>
      <trkpt lat="46.19379" lon="-1.41242">
        <ele>3.22928</ele>
        <time>2023-06-02T08:36:06.000Z</time>
      </trkpt>
      <trkpt lat="46.19378" lon="-1.41249">
        <ele>3.35809</ele>
        <time>2023-06-02T08:36:07.000Z</time>
      </trkpt>
      <trkpt lat="46.19377" lon="-1.41257">
        <ele>3.50607</ele>
        <time>2023-06-02T08:36:08.000Z</time>
      </trkpt>
      <trkpt lat="46.19375" lon="-1.41264">
        <ele>3.60989</ele>
        <time>2023-06-02T08:36:09.000Z</time>
      </trkpt>
      <trkpt lat="46.19374" lon="-1.41273">
        <ele>3.70061</ele>
        <time>2023-06-02T08:36:10.000Z</time>
      </trkpt>
      <trkpt lat="46.19372" lon="-1.4128">
        <ele>3.80168</ele>
        <time>2023-06-02T08:36:11.000Z</time>
      </trkpt>
      <trkpt lat="46.19369" lon="-1.41288">
        <ele>3.91249</ele>
        <time>2023-06-02T08:36:12.000Z</time>
      </trkpt>
      <trkpt lat="46.19367" lon="-1.41296">
        <ele>4.00498</ele>
        <time>2023-06-02T08:36:13.000Z</time>
      </trkpt>
      <trkpt lat="46.19365" lon="-1.41303">
        <ele>4.08762</ele>
        <time>2023-06-02T08:36:14.000Z</time>
      </trkpt>
      <trkpt lat="46.19361" lon="-1.41309">
        <ele>4.17704</ele>
        <time>2023-06-02T08:36:15.000Z</time>
      </trkpt>
      <trkpt lat="46.19358" lon="-1.41315">
        <ele>4.27463</ele>
        <time>2023-06-02T08:36:16.000Z</time>
      </trkpt>
      <trkpt lat="46.19354" lon="-1.41321">
        <ele>4.33429</ele>
        <time>2023-06-02T08:36:17.000Z</time>
      </trkpt>
      <trkpt lat="46.19351" lon="-1.41327">
        <ele>4.39881</ele>
        <time>2023-06-02T08:36:18.000Z</time>
      </trkpt>
      <trkpt lat="46.19348" lon="-1.41334">
        <ele>4.45112</ele>
        <time>2023-06-02T08:36:19.000Z</time>
      </trkpt>
      <trkpt lat="46.19345" lon="-1.4134">
        <ele>4.49317</ele>
        <time>2023-06-02T08:36:20.000Z</time>
      </trkpt>
      <trkpt lat="46.19342" lon="-1.41348">
        <ele>4.53358</ele>
        <time>2023-06-02T08:36:21.000Z</time>
      </trkpt>
      <trkpt lat="46.19341" lon="-1.41355">
        <ele>4.55193</ele>
        <time>2023-06-02T08:36:22.000Z</time>
      </trkpt>
      <trkpt lat="46.1934" lon="-1.41363">
        <ele>4.56508</ele>
        <time>2023-06-02T08:36:23.000Z</time>
      </trkpt>
      <trkpt lat="46.1934" lon="-1.41371">
        <ele>4.54633</ele>
        <time>2023-06-02T08:36:24.000Z</time>
      </trkpt>
      <trkpt lat="46.1934" lon="-1.41378">
        <ele>4.4993</ele>
        <time>2023-06-02T08:36:25.000Z</time>
      </trkpt>
      <trkpt lat="46.1934" lon="-1.41386">
        <ele>4.44009</ele>
        <time>2023-06-02T08:36:26.000Z</time>
      </trkpt>
      <trkpt lat="46.19341" lon="-1.41394">
        <ele>4.36261</ele>
        <time>2023-06-02T08:36:27.000Z</time>
      </trkpt>
      <trkpt lat="46.19341" lon="-1.41401">
        <ele>4.28605</ele>
        <time>2023-06-02T08:36:28.000Z</time>
      </trkpt>
      <trkpt lat="46.19341" lon="-1.41409">
        <ele>4.23126</ele>
        <time>2023-06-02T08:36:29.000Z</time>
      </trkpt>
      <trkpt lat="46.19341" lon="-1.41417">
        <ele>4.17545</ele>
        <time>2023-06-02T08:36:30.000Z</time>
      </trkpt>
      <trkpt lat="46.19343" lon="-1.41425">
        <ele>4.11304</ele>
        <time>2023-06-02T08:36:31.000Z</time>
      </trkpt>
      <trkpt lat="46.19343" lon="-1.41431">
        <ele>4.04831</ele>
        <time>2023-06-02T08:36:32.000Z</time>
      </trkpt>
      <trkpt lat="46.19346" lon="-1.41439">
        <ele>3.97485</ele>
        <time>2023-06-02T08:36:33.000Z</time>
      </trkpt>
      <trkpt lat="46.19347" lon="-1.41447">
        <ele>3.90028</ele>
        <time>2023-06-02T08:36:34.000Z</time>
      </trkpt>
      <trkpt lat="46.19349" lon="-1.41455">
        <ele>3.80759</ele>
        <time>2023-06-02T08:36:35.000Z</time>
      </trkpt>
      <trkpt lat="46.19351" lon="-1.41462">
        <ele>3.67651</ele>
        <time>2023-06-02T08:36:36.000Z</time>
      </trkpt>
      <trkpt lat="46.19351" lon="-1.41469">
        <ele>3.57701</ele>
        <time>2023-06-02T08:36:37.000Z</time>
      </trkpt>
      <trkpt lat="46.19353" lon="-1.41476">
        <ele>3.49789</ele>
        <time>2023-06-02T08:36:38.000Z</time>
      </trkpt>
      <trkpt lat="46.19355" lon="-1.41483">
        <ele>3.4147</ele>
        <time>2023-06-02T08:36:39.000Z</time>
      </trkpt>
      <trkpt lat="46.19357" lon="-1.4149">
        <ele>3.33805</ele>
        <time>2023-06-02T08:36:40.000Z</time>
      </trkpt>
      <trkpt lat="46.19358" lon="-1.41497">
        <ele>3.24397</ele>
        <time>2023-06-02T08:36:41.000Z</time>
      </trkpt>
      <trkpt lat="46.1936" lon="-1.41504">
        <ele>3.17797</ele>
        <time>2023-06-02T08:36:42.000Z</time>
      </trkpt>
      <trkpt lat="46.19361" lon="-1.4151">
        <ele>3.11373</ele>
        <time>2023-06-02T08:36:43.000Z</time>
      </trkpt>
      <trkpt lat="46.19362" lon="-1.41517">
        <ele>3.08128</ele>
        <time>2023-06-02T08:36:44.000Z</time>
      </trkpt>
      <trkpt lat="46.19363" lon="-1.41524">
        <ele>3.05242</ele>
        <time>2023-06-02T08:36:45.000Z</time>
      </trkpt>
      <trkpt lat="46.19364" lon="-1.4153">
        <ele>2.9921</ele>
        <time>2023-06-02T08:36:46.000Z</time>
      </trkpt>
      <trkpt lat="46.19365" lon="-1.41538">
        <ele>2.92475</ele>
        <time>2023-06-02T08:36:47.000Z</time>
      </trkpt>
      <trkpt lat="46.19366" lon="-1.41545">
        <ele>2.8542</ele>
        <time>2023-06-02T08:36:48.000Z</time>
      </trkpt>
      <trkpt lat="46.19367" lon="-1.41551">
        <ele>2.77606</ele>
        <time>2023-06-02T08:36:49.000Z</time>
      </trkpt>
      <trkpt lat="46.19367" lon="-1.41559">
        <ele>2.70472</ele>
        <time>2023-06-02T08:36:50.000Z</time>
      </trkpt>
      <trkpt lat="46.19367" lon="-1.41567">
        <ele>2.65291</ele>
        <time>2023-06-02T08:36:51.000Z</time>
      </trkpt>
      <trkpt lat="46.19368" lon="-1.41574">
        <ele>2.60655</ele>
        <time>2023-06-02T08:36:52.000Z</time>
      </trkpt>
      <trkpt lat="46.19369" lon="-1.41581">
        <ele>2.56153</ele>
        <time>2023-06-02T08:36:53.000Z</time>
      </trkpt>
      <trkpt lat="46.1937" lon="-1.41588">
        <ele>2.50893</ele>
        <time>2023-06-02T08:36:54.000Z</time>
      </trkpt>
      <trkpt lat="46.1937" lon="-1.41596">
        <ele>2.47021</ele>
        <time>2023-06-02T08:36:55.000Z</time>
      </trkpt>
      <trkpt lat="46.1937" lon="-1.41603">
        <ele>2.47305</ele>
        <time>2023-06-02T08:36:56.000Z</time>
      </trkpt>
      <trkpt lat="46.19371" lon="-1.4161">
        <ele>2.49261</ele>
        <time>2023-06-02T08:36:57.000Z</time>
      </trkpt>
      <trkpt lat="46.19372" lon="-1.41617">
        <ele>2.52257</ele>
        <time>2023-06-02T08:36:58.000Z</time>
      </trkpt>
      <trkpt lat="46.19374" lon="-1.41623">
        <ele>2.54449</ele>
        <time>2023-06-02T08:36:59.000Z</time>
      </trkpt>
      <trkpt lat="46.19375" lon="-1.4163">
        <ele>2.57689</ele>
        <time>2023-06-02T08:37:00.000Z</time>
      </trkpt>
      <trkpt lat="46.19377" lon="-1.41637">
        <ele>2.63401</ele>
        <time>2023-06-02T08:37:01.000Z</time>
      </trkpt>
      <trkpt lat="46.19378" lon="-1.41644">
        <ele>2.68463</ele>
        <time>2023-06-02T08:37:02.000Z</time>
      </trkpt>
      <trkpt lat="46.1938" lon="-1.41651">
        <ele>2.73464</ele>
        <time>2023-06-02T08:37:03.000Z</time>
      </trkpt>
      <trkpt lat="46.19382" lon="-1.41658">
        <ele>2.76996</ele>
        <time>2023-06-02T08:37:04.000Z</time>
      </trkpt>
      <trkpt lat="46.19385" lon="-1.41665">
        <ele>2.81789</ele>
        <time>2023-06-02T08:37:05.000Z</time>
      </trkpt>
      <trkpt lat="46.19388" lon="-1.41671">
        <ele>2.90106</ele>
        <time>2023-06-02T08:37:06.000Z</time>
      </trkpt>
      <trkpt lat="46.1939" lon="-1.41678">
        <ele>2.98009</ele>
        <time>2023-06-02T08:37:07.000Z</time>
      </trkpt>
      <trkpt lat="46.19392" lon="-1.41684">
        <ele>3.06806</ele>
        <time>2023-06-02T08:37:08.000Z</time>
      </trkpt>
      <trkpt lat="46.19395" lon="-1.4169">
        <ele>3.17631</ele>
        <time>2023-06-02T08:37:09.000Z</time>
      </trkpt>
      <trkpt lat="46.19397" lon="-1.41696">
        <ele>3.26736</ele>
        <time>2023-06-02T08:37:10.000Z</time>
      </trkpt>
      <trkpt lat="46.194" lon="-1.41702">
        <ele>3.33587</ele>
        <time>2023-06-02T08:37:11.000Z</time>
      </trkpt>
      <trkpt lat="46.19403" lon="-1.41708">
        <ele>3.39747</ele>
        <time>2023-06-02T08:37:12.000Z</time>
      </trkpt>
      <trkpt lat="46.19405" lon="-1.41714">
        <ele>3.46972</ele>
        <time>2023-06-02T08:37:13.000Z</time>
      </trkpt>
      <trkpt lat="46.19407" lon="-1.4172">
        <ele>3.53398</ele>
        <time>2023-06-02T08:37:14.000Z</time>
      </trkpt>
      <trkpt lat="46.19408" lon="-1.41726">
        <ele>3.59657</ele>
        <time>2023-06-02T08:37:15.000Z</time>
      </trkpt>
      <trkpt lat="46.1941" lon="-1.41731">
        <ele>3.65655</ele>
        <time>2023-06-02T08:37:16.000Z</time>
      </trkpt>
      <trkpt lat="46.19411" lon="-1.41737">
        <ele>3.69244</ele>
        <time>2023-06-02T08:37:17.000Z</time>
      </trkpt>
      <trkpt lat="46.19413" lon="-1.41744">
        <ele>3.71275</ele>
        <time>2023-06-02T08:37:18.000Z</time>
      </trkpt>
      <trkpt lat="46.19413" lon="-1.41751">
        <ele>3.76803</ele>
        <time>2023-06-02T08:37:19.000Z</time>
      </trkpt>
      <trkpt lat="46.19414" lon="-1.41757">
        <ele>3.80067</ele>
        <time>2023-06-02T08:37:20.000Z</time>
      </trkpt>
      <trkpt lat="46.19415" lon="-1.41765">
        <ele>3.82077</ele>
        <time>2023-06-02T08:37:21.000Z</time>
      </trkpt>
      <trkpt lat="46.19415" lon="-1.41772">
        <ele>3.8231</ele>
        <time>2023-06-02T08:37:22.000Z</time>
      </trkpt>
      <trkpt lat="46.19416" lon="-1.4178">
        <ele>3.83698</ele>
        <time>2023-06-02T08:37:23.000Z</time>
      </trkpt>
      <trkpt lat="46.19417" lon="-1.41787">
        <ele>3.8496</ele>
        <time>2023-06-02T08:37:24.000Z</time>
      </trkpt>
      <trkpt lat="46.19417" lon="-1.41794">
        <ele>3.84785</ele>
        <time>2023-06-02T08:37:25.000Z</time>
      </trkpt>
      <trkpt lat="46.19418" lon="-1.41801">
        <ele>3.83692</ele>
        <time>2023-06-02T08:37:26.000Z</time>
      </trkpt>
      <trkpt lat="46.19418" lon="-1.41808">
        <ele>3.84195</ele>
        <time>2023-06-02T08:37:27.000Z</time>
      </trkpt>
      <trkpt lat="46.19417" lon="-1.41816">
        <ele>3.82788</ele>
        <time>2023-06-02T08:37:28.000Z</time>
      </trkpt>
      <trkpt lat="46.19417" lon="-1.41823">
        <ele>3.79509</ele>
        <time>2023-06-02T08:37:29.000Z</time>
      </trkpt>
      <trkpt lat="46.19416" lon="-1.4183">
        <ele>3.78068</ele>
        <time>2023-06-02T08:37:30.000Z</time>
      </trkpt>
      <trkpt lat="46.19415" lon="-1.41838">
        <ele>3.74533</ele>
        <time>2023-06-02T08:37:31.000Z</time>
      </trkpt>
      <trkpt lat="46.19413" lon="-1.41845">
        <ele>3.7094</ele>
        <time>2023-06-02T08:37:32.000Z</time>
      </trkpt>
      <trkpt lat="46.19412" lon="-1.4185">
        <ele>3.66762</ele>
        <time>2023-06-02T08:37:33.000Z</time>
      </trkpt>
      <trkpt lat="46.1941" lon="-1.41856">
        <ele>3.65568</ele>
        <time>2023-06-02T08:37:34.000Z</time>
      </trkpt>
      <trkpt lat="46.19408" lon="-1.41862">
        <ele>3.64</ele>
        <time>2023-06-02T08:37:35.000Z</time>
      </trkpt>
      <trkpt lat="46.19405" lon="-1.41868">
        <ele>3.63136</ele>
        <time>2023-06-02T08:37:36.000Z</time>
      </trkpt>
      <trkpt lat="46.19403" lon="-1.41872">
        <ele>3.61106</ele>
        <time>2023-06-02T08:37:37.000Z</time>
      </trkpt>
      <trkpt lat="46.19401" lon="-1.41878">
        <ele>3.58641</ele>
        <time>2023-06-02T08:37:38.000Z</time>
      </trkpt>
      <trkpt lat="46.194" lon="-1.41881">
        <ele>3.54285</ele>
        <time>2023-06-02T08:37:39.000Z</time>
      </trkpt>
      <trkpt lat="46.19398" lon="-1.41884">
        <ele>3.53112</ele>
        <time>2023-06-02T08:37:40.000Z</time>
      </trkpt>
      <trkpt lat="46.19397" lon="-1.41888">
        <ele>3.52825</ele>
        <time>2023-06-02T08:37:41.000Z</time>
      </trkpt>
      <trkpt lat="46.19396" lon="-1.41892">
        <ele>3.53437</ele>
        <time>2023-06-02T08:37:42.000Z</time>
      </trkpt>
      <trkpt lat="46.19397" lon="-1.41896">
        <ele>3.49527</ele>
        <time>2023-06-02T08:37:43.000Z</time>
      </trkpt>
      <trkpt lat="46.19398" lon="-1.419">
        <ele>3.48134</ele>
        <time>2023-06-02T08:37:44.000Z</time>
      </trkpt>
      <trkpt lat="46.19399" lon="-1.41904">
        <ele>3.48245</ele>
        <time>2023-06-02T08:37:45.000Z</time>
      </trkpt>
      <trkpt lat="46.19401" lon="-1.41906">
        <ele>3.48905</ele>
        <time>2023-06-02T08:37:46.000Z</time>
      </trkpt>
      <trkpt lat="46.19404" lon="-1.41908">
        <ele>3.48123</ele>
        <time>2023-06-02T08:37:47.000Z</time>
      </trkpt>
      <trkpt lat="46.19408" lon="-1.41909">
        <ele>3.49841</ele>
        <time>2023-06-02T08:37:48.000Z</time>
      </trkpt>
      <trkpt lat="46.19411" lon="-1.41911">
        <ele>3.53241</ele>
        <time>2023-06-02T08:37:49.000Z</time>
      </trkpt>
      <trkpt lat="46.19414" lon="-1.41912">
        <ele>3.55983</ele>
        <time>2023-06-02T08:37:50.000Z</time>
      </trkpt>
      <trkpt lat="46.19418" lon="-1.41913">
        <ele>3.6116</ele>
        <time>2023-06-02T08:37:51.000Z</time>
      </trkpt>
      <trkpt lat="46.19422" lon="-1.41915">
        <ele>3.67714</ele>
        <time>2023-06-02T08:37:52.000Z</time>
      </trkpt>
      <trkpt lat="46.19425" lon="-1.41916">
        <ele>3.70894</ele>
        <time>2023-06-02T08:37:53.000Z</time>
      </trkpt>
      <trkpt lat="46.19429" lon="-1.41917">
        <ele>3.69591</ele>
        <time>2023-06-02T08:37:54.000Z</time>
      </trkpt>
      <trkpt lat="46.19432" lon="-1.41917">
        <ele>3.6676</ele>
        <time>2023-06-02T08:37:55.000Z</time>
      </trkpt>
      <trkpt lat="46.19436" lon="-1.41918">
        <ele>3.6315</ele>
        <time>2023-06-02T08:37:56.000Z</time>
      </trkpt>
      <trkpt lat="46.1944" lon="-1.41919">
        <ele>3.60396</ele>
        <time>2023-06-02T08:37:57.000Z</time>
      </trkpt>
      <trkpt lat="46.19444" lon="-1.41919">
        <ele>3.57483</ele>
        <time>2023-06-02T08:37:58.000Z</time>
      </trkpt>
      <trkpt lat="46.19448" lon="-1.4192">
        <ele>3.55575</ele>
        <time>2023-06-02T08:37:59.000Z</time>
      </trkpt>
      <trkpt lat="46.19452" lon="-1.41921">
        <ele>3.49655</ele>
        <time>2023-06-02T08:38:00.000Z</time>
      </trkpt>
      <trkpt lat="46.19456" lon="-1.41921">
        <ele>3.44509</ele>
        <time>2023-06-02T08:38:01.000Z</time>
      </trkpt>
      <trkpt lat="46.1946" lon="-1.41922">
        <ele>3.41106</ele>
        <time>2023-06-02T08:38:02.000Z</time>
      </trkpt>
      <trkpt lat="46.19464" lon="-1.41922">
        <ele>3.41253</ele>
        <time>2023-06-02T08:38:03.000Z</time>
      </trkpt>
      <trkpt lat="46.19467" lon="-1.41923">
        <ele>3.40167</ele>
        <time>2023-06-02T08:38:04.000Z</time>
      </trkpt>
      <trkpt lat="46.19471" lon="-1.41924">
        <ele>3.39607</ele>
        <time>2023-06-02T08:38:05.000Z</time>
      </trkpt>
      <trkpt lat="46.19476" lon="-1.41924">
        <ele>3.38906</ele>
        <time>2023-06-02T08:38:06.000Z</time>
      </trkpt>
      <trkpt lat="46.1948" lon="-1.41924">
        <ele>3.38183</ele>
        <time>2023-06-02T08:38:07.000Z</time>
      </trkpt>
      <trkpt lat="46.19484" lon="-1.41924">
        <ele>3.35693</ele>
        <time>2023-06-02T08:38:08.000Z</time>
      </trkpt>
      <trkpt lat="46.19488" lon="-1.41924">
        <ele>3.31204</ele>
        <time>2023-06-02T08:38:09.000Z</time>
      </trkpt>
      <trkpt lat="46.19493" lon="-1.41925">
        <ele>3.30128</ele>
        <time>2023-06-02T08:38:10.000Z</time>
      </trkpt>
      <trkpt lat="46.19496" lon="-1.41926">
        <ele>3.28871</ele>
        <time>2023-06-02T08:38:11.000Z</time>
      </trkpt>
      <trkpt lat="46.195" lon="-1.41927">
        <ele>3.27565</ele>
        <time>2023-06-02T08:38:12.000Z</time>
      </trkpt>
      <trkpt lat="46.19504" lon="-1.41927">
        <ele>3.33241</ele>
        <time>2023-06-02T08:38:13.000Z</time>
      </trkpt>
      <trkpt lat="46.19508" lon="-1.41928">
        <ele>3.41954</ele>
        <time>2023-06-02T08:38:14.000Z</time>
      </trkpt>
      <trkpt lat="46.19511" lon="-1.41928">
        <ele>3.53161</ele>
        <time>2023-06-02T08:38:15.000Z</time>
      </trkpt>
      <trkpt lat="46.19514" lon="-1.41928">
        <ele>3.63553</ele>
        <time>2023-06-02T08:38:16.000Z</time>
      </trkpt>
      <trkpt lat="46.19518" lon="-1.41929">
        <ele>3.74439</ele>
        <time>2023-06-02T08:38:17.000Z</time>
      </trkpt>
      <trkpt lat="46.19521" lon="-1.41929">
        <ele>3.84644</ele>
        <time>2023-06-02T08:38:18.000Z</time>
      </trkpt>
      <trkpt lat="46.19524" lon="-1.41929">
        <ele>3.94198</ele>
        <time>2023-06-02T08:38:19.000Z</time>
      </trkpt>
      <trkpt lat="46.19527" lon="-1.4193">
        <ele>4.06846</ele>
        <time>2023-06-02T08:38:20.000Z</time>
      </trkpt>
      <trkpt lat="46.1953" lon="-1.41932">
        <ele>4.18127</ele>
        <time>2023-06-02T08:38:21.000Z</time>
      </trkpt>
      <trkpt lat="46.19533" lon="-1.41935">
        <ele>4.28817</ele>
        <time>2023-06-02T08:38:22.000Z</time>
      </trkpt>
      <trkpt lat="46.19535" lon="-1.41939">
        <ele>4.41355</ele>
        <time>2023-06-02T08:38:23.000Z</time>
      </trkpt>
      <trkpt lat="46.19536" lon="-1.41943">
        <ele>4.50158</ele>
        <time>2023-06-02T08:38:24.000Z</time>
      </trkpt>
      <trkpt lat="46.19536" lon="-1.41948">
        <ele>4.57663</ele>
        <time>2023-06-02T08:38:25.000Z</time>
      </trkpt>
      <trkpt lat="46.19536" lon="-1.41953">
        <ele>4.65706</ele>
        <time>2023-06-02T08:38:26.000Z</time>
      </trkpt>
      <trkpt lat="46.19535" lon="-1.41957">
        <ele>4.74245</ele>
        <time>2023-06-02T08:38:27.000Z</time>
      </trkpt>
      <trkpt lat="46.19535" lon="-1.41962">
        <ele>4.82256</ele>
        <time>2023-06-02T08:38:28.000Z</time>
      </trkpt>
      <trkpt lat="46.19534" lon="-1.41966">
        <ele>4.90007</ele>
        <time>2023-06-02T08:38:29.000Z</time>
      </trkpt>
      <trkpt lat="46.19534" lon="-1.41971">
        <ele>4.94846</ele>
        <time>2023-06-02T08:38:30.000Z</time>
      </trkpt>
      <trkpt lat="46.19533" lon="-1.41976">
        <ele>5.00346</ele>
        <time>2023-06-02T08:38:31.000Z</time>
      </trkpt>
      <trkpt lat="46.19533" lon="-1.41981">
        <ele>5.05466</ele>
        <time>2023-06-02T08:38:32.000Z</time>
      </trkpt>
      <trkpt lat="46.19533" lon="-1.41986">
        <ele>5.07094</ele>
        <time>2023-06-02T08:38:33.000Z</time>
      </trkpt>
      <trkpt lat="46.19533" lon="-1.4199">
        <ele>5.06933</ele>
        <time>2023-06-02T08:38:34.000Z</time>
      </trkpt>
      <trkpt lat="46.19533" lon="-1.41993">
        <ele>5.06116</ele>
        <time>2023-06-02T08:38:35.000Z</time>
      </trkpt>
      <trkpt lat="46.19534" lon="-1.41998">
        <ele>5.04648</ele>
        <time>2023-06-02T08:38:36.000Z</time>
      </trkpt>
      <trkpt lat="46.19534" lon="-1.42002">
        <ele>5.03567</ele>
        <time>2023-06-02T08:38:37.000Z</time>
      </trkpt>
      <trkpt lat="46.19534" lon="-1.42007">
        <ele>5.02389</ele>
        <time>2023-06-02T08:38:38.000Z</time>
      </trkpt>
      <trkpt lat="46.19534" lon="-1.42011">
        <ele>5.00504</ele>
        <time>2023-06-02T08:38:39.000Z</time>
      </trkpt>
      <trkpt lat="46.19535" lon="-1.42016">
        <ele>4.97923</ele>
        <time>2023-06-02T08:38:40.000Z</time>
      </trkpt>
      <trkpt lat="46.19535" lon="-1.42021">
        <ele>4.94876</ele>
        <time>2023-06-02T08:38:41.000Z</time>
      </trkpt>
      <trkpt lat="46.19535" lon="-1.42025">
        <ele>4.90557</ele>
        <time>2023-06-02T08:38:42.000Z</time>
      </trkpt>
      <trkpt lat="46.19536" lon="-1.42028">
        <ele>4.84816</ele>
        <time>2023-06-02T08:38:43.000Z</time>
      </trkpt>
      <trkpt lat="46.19537" lon="-1.42032">
        <ele>4.82489</ele>
        <time>2023-06-02T08:38:45.000Z</time>
      </trkpt>
      <trkpt lat="46.19537" lon="-1.42037">
        <ele>4.76478</ele>
        <time>2023-06-02T08:38:47.000Z</time>
      </trkpt>
      <trkpt lat="46.19538" lon="-1.42041">
        <ele>4.72394</ele>
        <time>2023-06-02T08:38:49.000Z</time>
      </trkpt>
      <trkpt lat="46.19539" lon="-1.42045">
        <ele>4.67394</ele>
        <time>2023-06-02T08:38:51.000Z</time>
      </trkpt>
      <trkpt lat="46.19541" lon="-1.42048">
        <ele>4.64937</ele>
        <time>2023-06-02T08:38:52.000Z</time>
      </trkpt>
      <trkpt lat="46.19542" lon="-1.42051">
        <ele>4.63247</ele>
        <time>2023-06-02T08:38:53.000Z</time>
      </trkpt>
      <trkpt lat="46.19543" lon="-1.42055">
        <ele>4.60332</ele>
        <time>2023-06-02T08:38:54.000Z</time>
      </trkpt>
      <trkpt lat="46.19544" lon="-1.42059">
        <ele>4.58686</ele>
        <time>2023-06-02T08:38:55.000Z</time>
      </trkpt>
      <trkpt lat="46.19544" lon="-1.42063">
        <ele>4.5706</ele>
        <time>2023-06-02T08:38:56.000Z</time>
      </trkpt>
      <trkpt lat="46.19543" lon="-1.42067">
        <ele>4.56969</ele>
        <time>2023-06-02T08:38:57.000Z</time>
      </trkpt>
      <trkpt lat="46.19541" lon="-1.42072">
        <ele>4.59861</ele>
        <time>2023-06-02T08:38:58.000Z</time>
      </trkpt>
      <trkpt lat="46.19539" lon="-1.42076">
        <ele>4.62577</ele>
        <time>2023-06-02T08:38:59.000Z</time>
      </trkpt>
      <trkpt lat="46.19536" lon="-1.42081">
        <ele>4.64846</ele>
        <time>2023-06-02T08:39:00.000Z</time>
      </trkpt>
      <trkpt lat="46.19534" lon="-1.42085">
        <ele>4.67411</ele>
        <time>2023-06-02T08:39:01.000Z</time>
      </trkpt>
      <trkpt lat="46.19531" lon="-1.4209">
        <ele>4.71357</ele>
        <time>2023-06-02T08:39:02.000Z</time>
      </trkpt>
      <trkpt lat="46.19528" lon="-1.42095">
        <ele>4.74844</ele>
        <time>2023-06-02T08:39:03.000Z</time>
      </trkpt>
      <trkpt lat="46.19526" lon="-1.421">
        <ele>4.77751</ele>
        <time>2023-06-02T08:39:04.000Z</time>
      </trkpt>
      <trkpt lat="46.19524" lon="-1.42104">
        <ele>4.79857</ele>
        <time>2023-06-02T08:39:05.000Z</time>
      </trkpt>
      <trkpt lat="46.19522" lon="-1.4211">
        <ele>4.84207</ele>
        <time>2023-06-02T08:39:06.000Z</time>
      </trkpt>
      <trkpt lat="46.19519" lon="-1.42115">
        <ele>4.87819</ele>
        <time>2023-06-02T08:39:07.000Z</time>
      </trkpt>
      <trkpt lat="46.19517" lon="-1.42121">
        <ele>4.91303</ele>
        <time>2023-06-02T08:39:08.000Z</time>
      </trkpt>
      <trkpt lat="46.19515" lon="-1.42127">
        <ele>4.97345</ele>
        <time>2023-06-02T08:39:09.000Z</time>
      </trkpt>
      <trkpt lat="46.19513" lon="-1.42134">
        <ele>5.00678</ele>
        <time>2023-06-02T08:39:10.000Z</time>
      </trkpt>
      <trkpt lat="46.19512" lon="-1.42139">
        <ele>5.0382</ele>
        <time>2023-06-02T08:39:11.000Z</time>
      </trkpt>
      <trkpt lat="46.1951" lon="-1.42143">
        <ele>5.06217</ele>
        <time>2023-06-02T08:39:12.000Z</time>
      </trkpt>
      <trkpt lat="46.19508" lon="-1.42147">
        <ele>5.09823</ele>
        <time>2023-06-02T08:39:13.000Z</time>
      </trkpt>
      <trkpt lat="46.19508" lon="-1.42151">
        <ele>5.12773</ele>
        <time>2023-06-02T08:39:14.000Z</time>
      </trkpt>
      <trkpt lat="46.19507" lon="-1.42153">
        <ele>5.13739</ele>
        <time>2023-06-02T08:39:15.000Z</time>
      </trkpt>
      <trkpt lat="46.19505" lon="-1.42156">
        <ele>5.14284</ele>
        <time>2023-06-02T08:39:16.000Z</time>
      </trkpt>
      <trkpt lat="46.19504" lon="-1.42159">
        <ele>5.14085</ele>
        <time>2023-06-02T08:39:17.000Z</time>
      </trkpt>
      <trkpt lat="46.19504" lon="-1.42165">
        <ele>5.09381</ele>
        <time>2023-06-02T08:39:19.000Z</time>
      </trkpt>
      <trkpt lat="46.19506" lon="-1.42168">
        <ele>5.04043</ele>
        <time>2023-06-02T08:39:20.000Z</time>
      </trkpt>
      <trkpt lat="46.19507" lon="-1.42171">
        <ele>4.99644</ele>
        <time>2023-06-02T08:39:21.000Z</time>
      </trkpt>
      <trkpt lat="46.19508" lon="-1.42174">
        <ele>4.95433</ele>
        <time>2023-06-02T08:39:22.000Z</time>
      </trkpt>
      <trkpt lat="46.19509" lon="-1.42177">
        <ele>4.91478</ele>
        <time>2023-06-02T08:39:23.000Z</time>
      </trkpt>
      <trkpt lat="46.19511" lon="-1.4218">
        <ele>4.88288</ele>
        <time>2023-06-02T08:39:24.000Z</time>
      </trkpt>
      <trkpt lat="46.19514" lon="-1.42183">
        <ele>4.838</ele>
        <time>2023-06-02T08:39:25.000Z</time>
      </trkpt>
      <trkpt lat="46.19516" lon="-1.42185">
        <ele>4.81163</ele>
        <time>2023-06-02T08:39:26.000Z</time>
      </trkpt>
      <trkpt lat="46.19518" lon="-1.42188">
        <ele>4.78109</ele>
        <time>2023-06-02T08:39:27.000Z</time>
      </trkpt>
      <trkpt lat="46.1952" lon="-1.42191">
        <ele>4.75328</ele>
        <time>2023-06-02T08:39:28.000Z</time>
      </trkpt>
      <trkpt lat="46.19522" lon="-1.42194">
        <ele>4.72276</ele>
        <time>2023-06-02T08:39:29.000Z</time>
      </trkpt>
      <trkpt lat="46.19525" lon="-1.42197">
        <ele>4.70646</ele>
        <time>2023-06-02T08:39:30.000Z</time>
      </trkpt>
      <trkpt lat="46.19527" lon="-1.422">
        <ele>4.69968</ele>
        <time>2023-06-02T08:39:31.000Z</time>
      </trkpt>
      <trkpt lat="46.1953" lon="-1.42203">
        <ele>4.6947</ele>
        <time>2023-06-02T08:39:32.000Z</time>
      </trkpt>
      <trkpt lat="46.19533" lon="-1.42207">
        <ele>4.66441</ele>
        <time>2023-06-02T08:39:33.000Z</time>
      </trkpt>
      <trkpt lat="46.19536" lon="-1.4221">
        <ele>4.61121</ele>
        <time>2023-06-02T08:39:34.000Z</time>
      </trkpt>
      <trkpt lat="46.19539" lon="-1.42214">
        <ele>4.56817</ele>
        <time>2023-06-02T08:39:35.000Z</time>
      </trkpt>
      <trkpt lat="46.19542" lon="-1.42219">
        <ele>4.51886</ele>
        <time>2023-06-02T08:39:36.000Z</time>
      </trkpt>
      <trkpt lat="46.19545" lon="-1.42223">
        <ele>4.474</ele>
        <time>2023-06-02T08:39:37.000Z</time>
      </trkpt>
      <trkpt lat="46.19548" lon="-1.42227">
        <ele>4.41223</ele>
        <time>2023-06-02T08:39:38.000Z</time>
      </trkpt>
      <trkpt lat="46.19551" lon="-1.42232">
        <ele>4.36834</ele>
        <time>2023-06-02T08:39:39.000Z</time>
      </trkpt>
      <trkpt lat="46.19555" lon="-1.42237">
        <ele>4.31738</ele>
        <time>2023-06-02T08:39:40.000Z</time>
      </trkpt>
      <trkpt lat="46.19557" lon="-1.42241">
        <ele>4.27159</ele>
        <time>2023-06-02T08:39:41.000Z</time>
      </trkpt>
      <trkpt lat="46.1956" lon="-1.42246">
        <ele>4.2239</ele>
        <time>2023-06-02T08:39:42.000Z</time>
      </trkpt>
      <trkpt lat="46.19563" lon="-1.4225">
        <ele>4.16487</ele>
        <time>2023-06-02T08:39:43.000Z</time>
      </trkpt>
      <trkpt lat="46.19566" lon="-1.42254">
        <ele>4.10528</ele>
        <time>2023-06-02T08:39:44.000Z</time>
      </trkpt>
      <trkpt lat="46.19569" lon="-1.42258">
        <ele>4.08027</ele>
        <time>2023-06-02T08:39:45.000Z</time>
      </trkpt>
      <trkpt lat="46.19573" lon="-1.42262">
        <ele>4.06533</ele>
        <time>2023-06-02T08:39:46.000Z</time>
      </trkpt>
      <trkpt lat="46.19575" lon="-1.42266">
        <ele>4.04341</ele>
        <time>2023-06-02T08:39:47.000Z</time>
      </trkpt>
      <trkpt lat="46.19578" lon="-1.4227">
        <ele>4.01755</ele>
        <time>2023-06-02T08:39:48.000Z</time>
      </trkpt>
      <trkpt lat="46.19581" lon="-1.42273">
        <ele>3.99166</ele>
        <time>2023-06-02T08:39:49.000Z</time>
      </trkpt>
      <trkpt lat="46.19583" lon="-1.42277">
        <ele>3.96074</ele>
        <time>2023-06-02T08:39:50.000Z</time>
      </trkpt>
      <trkpt lat="46.19586" lon="-1.42282">
        <ele>3.93345</ele>
        <time>2023-06-02T08:39:51.000Z</time>
      </trkpt>
      <trkpt lat="46.19588" lon="-1.42286">
        <ele>3.89749</ele>
        <time>2023-06-02T08:39:52.000Z</time>
      </trkpt>
      <trkpt lat="46.1959" lon="-1.42289">
        <ele>3.88271</ele>
        <time>2023-06-02T08:39:53.000Z</time>
      </trkpt>
      <trkpt lat="46.19593" lon="-1.42293">
        <ele>3.87667</ele>
        <time>2023-06-02T08:39:54.000Z</time>
      </trkpt>
      <trkpt lat="46.19595" lon="-1.42296">
        <ele>3.86476</ele>
        <time>2023-06-02T08:39:55.000Z</time>
      </trkpt>
      <trkpt lat="46.19597" lon="-1.423">
        <ele>3.75405</ele>
        <time>2023-06-02T08:39:56.000Z</time>
      </trkpt>
      <trkpt lat="46.196" lon="-1.42304">
        <ele>3.68507</ele>
        <time>2023-06-02T08:39:57.000Z</time>
      </trkpt>
      <trkpt lat="46.19602" lon="-1.42307">
        <ele>3.62747</ele>
        <time>2023-06-02T08:39:58.000Z</time>
      </trkpt>
      <trkpt lat="46.19605" lon="-1.42312">
        <ele>3.5805</ele>
        <time>2023-06-02T08:39:59.000Z</time>
      </trkpt>
      <trkpt lat="46.19608" lon="-1.42316">
        <ele>3.54384</ele>
        <time>2023-06-02T08:40:00.000Z</time>
      </trkpt>
      <trkpt lat="46.19611" lon="-1.4232">
        <ele>3.50474</ele>
        <time>2023-06-02T08:40:01.000Z</time>
      </trkpt>
      <trkpt lat="46.19615" lon="-1.42324">
        <ele>3.45175</ele>
        <time>2023-06-02T08:40:02.000Z</time>
      </trkpt>
      <trkpt lat="46.19618" lon="-1.42328">
        <ele>3.36438</ele>
        <time>2023-06-02T08:40:03.000Z</time>
      </trkpt>
      <trkpt lat="46.19621" lon="-1.42332">
        <ele>3.27995</ele>
        <time>2023-06-02T08:40:04.000Z</time>
      </trkpt>
      <trkpt lat="46.19623" lon="-1.42336">
        <ele>3.17261</ele>
        <time>2023-06-02T08:40:05.000Z</time>
      </trkpt>
      <trkpt lat="46.19626" lon="-1.4234">
        <ele>3.0575</ele>
        <time>2023-06-02T08:40:06.000Z</time>
      </trkpt>
      <trkpt lat="46.19629" lon="-1.42344">
        <ele>2.93598</ele>
        <time>2023-06-02T08:40:07.000Z</time>
      </trkpt>
      <trkpt lat="46.19632" lon="-1.42348">
        <ele>2.80303</ele>
        <time>2023-06-02T08:40:08.000Z</time>
      </trkpt>
      <trkpt lat="46.19635" lon="-1.42352">
        <ele>2.67013</ele>
        <time>2023-06-02T08:40:09.000Z</time>
      </trkpt>
      <trkpt lat="46.19638" lon="-1.42356">
        <ele>2.5344</ele>
        <time>2023-06-02T08:40:10.000Z</time>
      </trkpt>
      <trkpt lat="46.19641" lon="-1.4236">
        <ele>2.39583</ele>
        <time>2023-06-02T08:40:11.000Z</time>
      </trkpt>
      <trkpt lat="46.19644" lon="-1.42364">
        <ele>2.2724</ele>
        <time>2023-06-02T08:40:12.000Z</time>
      </trkpt>
      <trkpt lat="46.19646" lon="-1.42369">
        <ele>2.15465</ele>
        <time>2023-06-02T08:40:13.000Z</time>
      </trkpt>
      <trkpt lat="46.19649" lon="-1.42373">
        <ele>2.04402</ele>
        <time>2023-06-02T08:40:14.000Z</time>
      </trkpt>
      <trkpt lat="46.19652" lon="-1.42377">
        <ele>1.94212</ele>
        <time>2023-06-02T08:40:15.000Z</time>
      </trkpt>
      <trkpt lat="46.19655" lon="-1.42381">
        <ele>1.94457</ele>
        <time>2023-06-02T08:40:16.000Z</time>
      </trkpt>
      <trkpt lat="46.19658" lon="-1.42386">
        <ele>1.91646</ele>
        <time>2023-06-02T08:40:17.000Z</time>
      </trkpt>
      <trkpt lat="46.19661" lon="-1.4239">
        <ele>1.89008</ele>
        <time>2023-06-02T08:40:18.000Z</time>
      </trkpt>
      <trkpt lat="46.19664" lon="-1.42394">
        <ele>1.86395</ele>
        <time>2023-06-02T08:40:19.000Z</time>
      </trkpt>
      <trkpt lat="46.19667" lon="-1.42398">
        <ele>1.82269</ele>
        <time>2023-06-02T08:40:20.000Z</time>
      </trkpt>
      <trkpt lat="46.19671" lon="-1.42402">
        <ele>1.78757</ele>
        <time>2023-06-02T08:40:21.000Z</time>
      </trkpt>
      <trkpt lat="46.19674" lon="-1.42406">
        <ele>1.77861</ele>
        <time>2023-06-02T08:40:22.000Z</time>
      </trkpt>
      <trkpt lat="46.19677" lon="-1.42409">
        <ele>1.91272</ele>
        <time>2023-06-02T08:40:23.000Z</time>
      </trkpt>
      <trkpt lat="46.19681" lon="-1.42413">
        <ele>2.03053</ele>
        <time>2023-06-02T08:40:24.000Z</time>
      </trkpt>
      <trkpt lat="46.19684" lon="-1.42417">
        <ele>2.01485</ele>
        <time>2023-06-02T08:40:25.000Z</time>
      </trkpt>
      <trkpt lat="46.19688" lon="-1.42421">
        <ele>1.99986</ele>
        <time>2023-06-02T08:40:26.000Z</time>
      </trkpt>
      <trkpt lat="46.1969" lon="-1.42426">
        <ele>1.99534</ele>
        <time>2023-06-02T08:40:27.000Z</time>
      </trkpt>
      <trkpt lat="46.19693" lon="-1.4243">
        <ele>1.99201</ele>
        <time>2023-06-02T08:40:28.000Z</time>
      </trkpt>
      <trkpt lat="46.19696" lon="-1.42435">
        <ele>1.9719</ele>
        <time>2023-06-02T08:40:29.000Z</time>
      </trkpt>
      <trkpt lat="46.197" lon="-1.42438">
        <ele>1.9631</ele>
        <time>2023-06-02T08:40:30.000Z</time>
      </trkpt>
      <trkpt lat="46.19704" lon="-1.42442">
        <ele>1.93371</ele>
        <time>2023-06-02T08:40:31.000Z</time>
      </trkpt>
      <trkpt lat="46.19708" lon="-1.42447">
        <ele>1.91359</ele>
        <time>2023-06-02T08:40:32.000Z</time>
      </trkpt>
      <trkpt lat="46.19711" lon="-1.4245">
        <ele>1.88291</ele>
        <time>2023-06-02T08:40:33.000Z</time>
      </trkpt>
      <trkpt lat="46.19715" lon="-1.42455">
        <ele>1.84664</ele>
        <time>2023-06-02T08:40:34.000Z</time>
      </trkpt>
      <trkpt lat="46.19719" lon="-1.42458">
        <ele>1.80836</ele>
        <time>2023-06-02T08:40:35.000Z</time>
      </trkpt>
      <trkpt lat="46.19723" lon="-1.42463">
        <ele>1.79408</ele>
        <time>2023-06-02T08:40:36.000Z</time>
      </trkpt>
      <trkpt lat="46.19726" lon="-1.42466">
        <ele>1.78811</ele>
        <time>2023-06-02T08:40:37.000Z</time>
      </trkpt>
      <trkpt lat="46.1973" lon="-1.4247">
        <ele>1.76572</ele>
        <time>2023-06-02T08:40:38.000Z</time>
      </trkpt>
      <trkpt lat="46.19733" lon="-1.42474">
        <ele>1.73647</ele>
        <time>2023-06-02T08:40:39.000Z</time>
      </trkpt>
      <trkpt lat="46.19737" lon="-1.42477">
        <ele>1.7337</ele>
        <time>2023-06-02T08:40:40.000Z</time>
      </trkpt>
      <trkpt lat="46.1974" lon="-1.42481">
        <ele>1.72999</ele>
        <time>2023-06-02T08:40:41.000Z</time>
      </trkpt>
      <trkpt lat="46.19742" lon="-1.42486">
        <ele>1.71763</ele>
        <time>2023-06-02T08:40:42.000Z</time>
      </trkpt>
      <trkpt lat="46.19745" lon="-1.4249">
        <ele>1.58281</ele>
        <time>2023-06-02T08:40:43.000Z</time>
      </trkpt>
      <trkpt lat="46.19748" lon="-1.42493">
        <ele>1.46862</ele>
        <time>2023-06-02T08:40:44.000Z</time>
      </trkpt>
      <trkpt lat="46.19751" lon="-1.42497">
        <ele>1.50087</ele>
        <time>2023-06-02T08:40:45.000Z</time>
      </trkpt>
      <trkpt lat="46.19754" lon="-1.425">
        <ele>1.61101</ele>
        <time>2023-06-02T08:40:46.000Z</time>
      </trkpt>
      <trkpt lat="46.19757" lon="-1.42504">
        <ele>1.70034</ele>
        <time>2023-06-02T08:40:47.000Z</time>
      </trkpt>
      <trkpt lat="46.1976" lon="-1.42508">
        <ele>1.79083</ele>
        <time>2023-06-02T08:40:48.000Z</time>
      </trkpt>
      <trkpt lat="46.19763" lon="-1.42511">
        <ele>1.91096</ele>
        <time>2023-06-02T08:40:49.000Z</time>
      </trkpt>
      <trkpt lat="46.19766" lon="-1.42515">
        <ele>2.03927</ele>
        <time>2023-06-02T08:40:50.000Z</time>
      </trkpt>
      <trkpt lat="46.19768" lon="-1.4252">
        <ele>2.18487</ele>
        <time>2023-06-02T08:40:51.000Z</time>
      </trkpt>
      <trkpt lat="46.1977" lon="-1.42524">
        <ele>2.3234</ele>
        <time>2023-06-02T08:40:52.000Z</time>
      </trkpt>
      <trkpt lat="46.19773" lon="-1.42528">
        <ele>2.44012</ele>
        <time>2023-06-02T08:40:53.000Z</time>
      </trkpt>
      <trkpt lat="46.19776" lon="-1.42532">
        <ele>2.54493</ele>
        <time>2023-06-02T08:40:54.000Z</time>
      </trkpt>
      <trkpt lat="46.19779" lon="-1.42536">
        <ele>2.66022</ele>
        <time>2023-06-02T08:40:55.000Z</time>
      </trkpt>
      <trkpt lat="46.19782" lon="-1.42539">
        <ele>2.768</ele>
        <time>2023-06-02T08:40:56.000Z</time>
      </trkpt>
      <trkpt lat="46.19785" lon="-1.42543">
        <ele>2.80201</ele>
        <time>2023-06-02T08:40:57.000Z</time>
      </trkpt>
      <trkpt lat="46.19788" lon="-1.42547">
        <ele>2.8745</ele>
        <time>2023-06-02T08:40:58.000Z</time>
      </trkpt>
      <trkpt lat="46.19791" lon="-1.4255">
        <ele>2.99419</ele>
        <time>2023-06-02T08:40:59.000Z</time>
      </trkpt>
      <trkpt lat="46.19794" lon="-1.42554">
        <ele>3.06527</ele>
        <time>2023-06-02T08:41:00.000Z</time>
      </trkpt>
      <trkpt lat="46.19797" lon="-1.42557">
        <ele>3.15021</ele>
        <time>2023-06-02T08:41:01.000Z</time>
      </trkpt>
      <trkpt lat="46.198" lon="-1.42561">
        <ele>3.24067</ele>
        <time>2023-06-02T08:41:02.000Z</time>
      </trkpt>
      <trkpt lat="46.19803" lon="-1.42565">
        <ele>3.33797</ele>
        <time>2023-06-02T08:41:03.000Z</time>
      </trkpt>
      <trkpt lat="46.19806" lon="-1.42568">
        <ele>3.42871</ele>
        <time>2023-06-02T08:41:04.000Z</time>
      </trkpt>
      <trkpt lat="46.19809" lon="-1.42572">
        <ele>3.50812</ele>
        <time>2023-06-02T08:41:05.000Z</time>
      </trkpt>
      <trkpt lat="46.19812" lon="-1.42575">
        <ele>3.4938</ele>
        <time>2023-06-02T08:41:06.000Z</time>
      </trkpt>
      <trkpt lat="46.19815" lon="-1.42579">
        <ele>3.49016</ele>
        <time>2023-06-02T08:41:07.000Z</time>
      </trkpt>
      <trkpt lat="46.19817" lon="-1.42582">
        <ele>3.49613</ele>
        <time>2023-06-02T08:41:08.000Z</time>
      </trkpt>
      <trkpt lat="46.1982" lon="-1.42585">
        <ele>3.48979</ele>
        <time>2023-06-02T08:41:09.000Z</time>
      </trkpt>
      <trkpt lat="46.19823" lon="-1.42589">
        <ele>3.46684</ele>
        <time>2023-06-02T08:41:10.000Z</time>
      </trkpt>
      <trkpt lat="46.19825" lon="-1.42592">
        <ele>3.43358</ele>
        <time>2023-06-02T08:41:11.000Z</time>
      </trkpt>
      <trkpt lat="46.19827" lon="-1.42595">
        <ele>3.38009</ele>
        <time>2023-06-02T08:41:12.000Z</time>
      </trkpt>
      <trkpt lat="46.19828" lon="-1.42598">
        <ele>3.34064</ele>
        <time>2023-06-02T08:41:13.000Z</time>
      </trkpt>
      <trkpt lat="46.1983" lon="-1.426">
        <ele>3.31196</ele>
        <time>2023-06-02T08:41:14.000Z</time>
      </trkpt>
      <trkpt lat="46.19832" lon="-1.42602">
        <ele>3.28333</ele>
        <time>2023-06-02T08:41:15.000Z</time>
      </trkpt>
      <trkpt lat="46.19833" lon="-1.42604">
        <ele>3.24104</ele>
        <time>2023-06-02T08:41:16.000Z</time>
      </trkpt>
      <trkpt lat="46.19834" lon="-1.42607">
        <ele>3.26723</ele>
        <time>2023-06-02T08:41:17.000Z</time>
      </trkpt>
      <trkpt lat="46.19834" lon="-1.4261">
        <ele>3.26133</ele>
        <time>2023-06-02T08:41:18.000Z</time>
      </trkpt>
      <trkpt lat="46.19833" lon="-1.42612">
        <ele>3.21013</ele>
        <time>2023-06-02T08:41:19.000Z</time>
      </trkpt>
      <trkpt lat="46.19831" lon="-1.42615">
        <ele>3.21683</ele>
        <time>2023-06-02T08:41:20.000Z</time>
      </trkpt>
      <trkpt lat="46.19829" lon="-1.42618">
        <ele>3.18601</ele>
        <time>2023-06-02T08:41:21.000Z</time>
      </trkpt>
      <trkpt lat="46.19828" lon="-1.42622">
        <ele>3.15363</ele>
        <time>2023-06-02T08:41:22.000Z</time>
      </trkpt>
      <trkpt lat="46.19828" lon="-1.42626">
        <ele>3.12763</ele>
        <time>2023-06-02T08:41:23.000Z</time>
      </trkpt>
      <trkpt lat="46.19831" lon="-1.42628">
        <ele>3.10269</ele>
        <time>2023-06-02T08:41:25.000Z</time>
      </trkpt>
      <trkpt lat="46.19833" lon="-1.42629">
        <ele>3.10645</ele>
        <time>2023-06-02T08:41:26.000Z</time>
      </trkpt>
      <trkpt lat="46.19835" lon="-1.42628">
        <ele>3.12832</ele>
        <time>2023-06-02T08:41:27.000Z</time>
      </trkpt>
      <trkpt lat="46.19837" lon="-1.42625">
        <ele>3.15377</ele>
        <time>2023-06-02T08:41:28.000Z</time>
      </trkpt>
      <trkpt lat="46.19838" lon="-1.42622">
        <ele>3.1853</ele>
        <time>2023-06-02T08:41:29.000Z</time>
      </trkpt>
      <trkpt lat="46.19841" lon="-1.42619">
        <ele>3.23334</ele>
        <time>2023-06-02T08:41:30.000Z</time>
      </trkpt>
      <trkpt lat="46.19844" lon="-1.42617">
        <ele>3.25401</ele>
        <time>2023-06-02T08:41:31.000Z</time>
      </trkpt>
      <trkpt lat="46.19847" lon="-1.42618">
        <ele>3.25037</ele>
        <time>2023-06-02T08:41:32.000Z</time>
      </trkpt>
      <trkpt lat="46.1985" lon="-1.4262">
        <ele>3.22515</ele>
        <time>2023-06-02T08:41:33.000Z</time>
      </trkpt>
      <trkpt lat="46.19853" lon="-1.42623">
        <ele>3.22103</ele>
        <time>2023-06-02T08:41:34.000Z</time>
      </trkpt>
      <trkpt lat="46.19855" lon="-1.42626">
        <ele>3.21192</ele>
        <time>2023-06-02T08:41:35.000Z</time>
      </trkpt>
      <trkpt lat="46.19856" lon="-1.42629">
        <ele>3.1924</ele>
        <time>2023-06-02T08:41:36.000Z</time>
      </trkpt>
      <trkpt lat="46.19858" lon="-1.42632">
        <ele>3.15792</ele>
        <time>2023-06-02T08:41:37.000Z</time>
      </trkpt>
      <trkpt lat="46.1986" lon="-1.42635">
        <ele>3.11272</ele>
        <time>2023-06-02T08:41:38.000Z</time>
      </trkpt>
      <trkpt lat="46.19862" lon="-1.42637">
        <ele>3.06337</ele>
        <time>2023-06-02T08:41:39.000Z</time>
      </trkpt>
      <trkpt lat="46.19864" lon="-1.42641">
        <ele>3.00716</ele>
        <time>2023-06-02T08:41:40.000Z</time>
      </trkpt>
      <trkpt lat="46.19865" lon="-1.42644">
        <ele>2.91601</ele>
        <time>2023-06-02T08:41:41.000Z</time>
      </trkpt>
      <trkpt lat="46.19866" lon="-1.42648">
        <ele>2.91287</ele>
        <time>2023-06-02T08:41:42.000Z</time>
      </trkpt>
      <trkpt lat="46.19867" lon="-1.42652">
        <ele>2.8688</ele>
        <time>2023-06-02T08:41:43.000Z</time>
      </trkpt>
      <trkpt lat="46.19868" lon="-1.42656">
        <ele>2.8213</ele>
        <time>2023-06-02T08:41:44.000Z</time>
      </trkpt>
      <trkpt lat="46.19869" lon="-1.42659">
        <ele>2.76018</ele>
        <time>2023-06-02T08:41:45.000Z</time>
      </trkpt>
      <trkpt lat="46.1987" lon="-1.42663">
        <ele>2.67745</ele>
        <time>2023-06-02T08:41:46.000Z</time>
      </trkpt>
      <trkpt lat="46.1987" lon="-1.42667">
        <ele>2.58867</ele>
        <time>2023-06-02T08:41:47.000Z</time>
      </trkpt>
      <trkpt lat="46.19871" lon="-1.42672">
        <ele>2.49658</ele>
        <time>2023-06-02T08:41:48.000Z</time>
      </trkpt>
      <trkpt lat="46.19872" lon="-1.42676">
        <ele>2.40675</ele>
        <time>2023-06-02T08:41:49.000Z</time>
      </trkpt>
      <trkpt lat="46.19872" lon="-1.42681">
        <ele>2.29348</ele>
        <time>2023-06-02T08:41:50.000Z</time>
      </trkpt>
      <trkpt lat="46.19872" lon="-1.42685">
        <ele>2.19407</ele>
        <time>2023-06-02T08:41:51.000Z</time>
      </trkpt>
      <trkpt lat="46.19873" lon="-1.4269">
        <ele>2.13833</ele>
        <time>2023-06-02T08:41:52.000Z</time>
      </trkpt>
      <trkpt lat="46.19874" lon="-1.42694">
        <ele>2.12461</ele>
        <time>2023-06-02T08:41:53.000Z</time>
      </trkpt>
      <trkpt lat="46.19874" lon="-1.42699">
        <ele>2.09813</ele>
        <time>2023-06-02T08:41:54.000Z</time>
      </trkpt>
      <trkpt lat="46.19875" lon="-1.42703">
        <ele>2.08725</ele>
        <time>2023-06-02T08:41:55.000Z</time>
      </trkpt>
      <trkpt lat="46.19876" lon="-1.42707">
        <ele>2.06009</ele>
        <time>2023-06-02T08:41:56.000Z</time>
      </trkpt>
      <trkpt lat="46.19877" lon="-1.42712">
        <ele>2.04927</ele>
        <time>2023-06-02T08:41:57.000Z</time>
      </trkpt>
      <trkpt lat="46.19878" lon="-1.42716">
        <ele>2.0442</ele>
        <time>2023-06-02T08:41:58.000Z</time>
      </trkpt>
      <trkpt lat="46.1988" lon="-1.42721">
        <ele>2.03274</ele>
        <time>2023-06-02T08:41:59.000Z</time>
      </trkpt>
      <trkpt lat="46.19882" lon="-1.42725">
        <ele>2.01553</ele>
        <time>2023-06-02T08:42:00.000Z</time>
      </trkpt>
      <trkpt lat="46.19885" lon="-1.42729">
        <ele>2.0224</ele>
        <time>2023-06-02T08:42:01.000Z</time>
      </trkpt>
      <trkpt lat="46.19887" lon="-1.42732">
        <ele>1.97394</ele>
        <time>2023-06-02T08:42:02.000Z</time>
      </trkpt>
      <trkpt lat="46.1989" lon="-1.42735">
        <ele>1.94687</ele>
        <time>2023-06-02T08:42:03.000Z</time>
      </trkpt>
      <trkpt lat="46.19893" lon="-1.42738">
        <ele>1.90977</ele>
        <time>2023-06-02T08:42:04.000Z</time>
      </trkpt>
      <trkpt lat="46.19896" lon="-1.42741">
        <ele>1.89378</ele>
        <time>2023-06-02T08:42:05.000Z</time>
      </trkpt>
      <trkpt lat="46.19899" lon="-1.42744">
        <ele>1.86742</ele>
        <time>2023-06-02T08:42:06.000Z</time>
      </trkpt>
      <trkpt lat="46.19902" lon="-1.42746">
        <ele>1.83568</ele>
        <time>2023-06-02T08:42:07.000Z</time>
      </trkpt>
      <trkpt lat="46.19906" lon="-1.42748">
        <ele>1.87963</ele>
        <time>2023-06-02T08:42:08.000Z</time>
      </trkpt>
      <trkpt lat="46.1991" lon="-1.42749">
        <ele>1.92041</ele>
        <time>2023-06-02T08:42:09.000Z</time>
      </trkpt>
      <trkpt lat="46.19914" lon="-1.4275">
        <ele>1.93004</ele>
        <time>2023-06-02T08:42:10.000Z</time>
      </trkpt>
      <trkpt lat="46.19918" lon="-1.4275">
        <ele>1.94064</ele>
        <time>2023-06-02T08:42:11.000Z</time>
      </trkpt>
      <trkpt lat="46.19921" lon="-1.42749">
        <ele>1.95291</ele>
        <time>2023-06-02T08:42:12.000Z</time>
      </trkpt>
      <trkpt lat="46.19925" lon="-1.42748">
        <ele>1.96974</ele>
        <time>2023-06-02T08:42:13.000Z</time>
      </trkpt>
      <trkpt lat="46.19929" lon="-1.42747">
        <ele>1.99831</ele>
        <time>2023-06-02T08:42:14.000Z</time>
      </trkpt>
      <trkpt lat="46.19932" lon="-1.42746">
        <ele>2.0204</ele>
        <time>2023-06-02T08:42:15.000Z</time>
      </trkpt>
      <trkpt lat="46.19935" lon="-1.42745">
        <ele>2.06258</ele>
        <time>2023-06-02T08:42:16.000Z</time>
      </trkpt>
      <trkpt lat="46.19939" lon="-1.42743">
        <ele>2.10136</ele>
        <time>2023-06-02T08:42:17.000Z</time>
      </trkpt>
      <trkpt lat="46.19942" lon="-1.42742">
        <ele>2.12499</ele>
        <time>2023-06-02T08:42:18.000Z</time>
      </trkpt>
      <trkpt lat="46.19945" lon="-1.4274">
        <ele>2.14639</ele>
        <time>2023-06-02T08:42:19.000Z</time>
      </trkpt>
      <trkpt lat="46.19947" lon="-1.42739">
        <ele>2.13584</ele>
        <time>2023-06-02T08:42:20.000Z</time>
      </trkpt>
      <trkpt lat="46.1995" lon="-1.42739">
        <ele>2.11981</ele>
        <time>2023-06-02T08:42:21.000Z</time>
      </trkpt>
      <trkpt lat="46.19953" lon="-1.42738">
        <ele>2.10636</ele>
        <time>2023-06-02T08:42:22.000Z</time>
      </trkpt>
      <trkpt lat="46.19956" lon="-1.42738">
        <ele>2.0867</ele>
        <time>2023-06-02T08:42:23.000Z</time>
      </trkpt>
      <trkpt lat="46.19959" lon="-1.42737">
        <ele>2.07203</ele>
        <time>2023-06-02T08:42:24.000Z</time>
      </trkpt>
      <trkpt lat="46.19962" lon="-1.42737">
        <ele>2.03915</ele>
        <time>2023-06-02T08:42:25.000Z</time>
      </trkpt>
      <trkpt lat="46.19965" lon="-1.42737">
        <ele>2.00384</ele>
        <time>2023-06-02T08:42:26.000Z</time>
      </trkpt>
      <trkpt lat="46.19967" lon="-1.42737">
        <ele>2.01899</ele>
        <time>2023-06-02T08:42:27.000Z</time>
      </trkpt>
      <trkpt lat="46.1997" lon="-1.42737">
        <ele>1.94832</ele>
        <time>2023-06-02T08:42:28.000Z</time>
      </trkpt>
      <trkpt lat="46.19973" lon="-1.42738">
        <ele>1.88408</ele>
        <time>2023-06-02T08:42:29.000Z</time>
      </trkpt>
      <trkpt lat="46.19975" lon="-1.42738">
        <ele>1.85133</ele>
        <time>2023-06-02T08:42:30.000Z</time>
      </trkpt>
      <trkpt lat="46.19978" lon="-1.42739">
        <ele>1.82935</ele>
        <time>2023-06-02T08:42:31.000Z</time>
      </trkpt>
      <trkpt lat="46.19981" lon="-1.4274">
        <ele>1.81196</ele>
        <time>2023-06-02T08:42:32.000Z</time>
      </trkpt>
      <trkpt lat="46.19984" lon="-1.42741">
        <ele>1.79914</ele>
        <time>2023-06-02T08:42:33.000Z</time>
      </trkpt>
      <trkpt lat="46.19987" lon="-1.42742">
        <ele>1.79614</ele>
        <time>2023-06-02T08:42:34.000Z</time>
      </trkpt>
      <trkpt lat="46.1999" lon="-1.42743">
        <ele>1.80124</ele>
        <time>2023-06-02T08:42:35.000Z</time>
      </trkpt>
      <trkpt lat="46.19993" lon="-1.42744">
        <ele>1.79208</ele>
        <time>2023-06-02T08:42:36.000Z</time>
      </trkpt>
      <trkpt lat="46.19996" lon="-1.42745">
        <ele>1.76191</ele>
        <time>2023-06-02T08:42:37.000Z</time>
      </trkpt>
      <trkpt lat="46.19999" lon="-1.42746">
        <ele>1.7416</ele>
        <time>2023-06-02T08:42:38.000Z</time>
      </trkpt>
      <trkpt lat="46.20002" lon="-1.42747">
        <ele>1.76127</ele>
        <time>2023-06-02T08:42:39.000Z</time>
      </trkpt>
      <trkpt lat="46.20005" lon="-1.42748">
        <ele>1.84286</ele>
        <time>2023-06-02T08:42:40.000Z</time>
      </trkpt>
      <trkpt lat="46.20007" lon="-1.42749">
        <ele>1.91447</ele>
        <time>2023-06-02T08:42:41.000Z</time>
      </trkpt>
      <trkpt lat="46.20011" lon="-1.4275">
        <ele>1.9809</ele>
        <time>2023-06-02T08:42:42.000Z</time>
      </trkpt>
      <trkpt lat="46.20014" lon="-1.42751">
        <ele>2.05185</ele>
        <time>2023-06-02T08:42:43.000Z</time>
      </trkpt>
      <trkpt lat="46.20017" lon="-1.42752">
        <ele>2.14332</ele>
        <time>2023-06-02T08:42:44.000Z</time>
      </trkpt>
      <trkpt lat="46.2002" lon="-1.42753">
        <ele>2.24113</ele>
        <time>2023-06-02T08:42:45.000Z</time>
      </trkpt>
      <trkpt lat="46.20023" lon="-1.42754">
        <ele>2.33364</ele>
        <time>2023-06-02T08:42:46.000Z</time>
      </trkpt>
      <trkpt lat="46.20026" lon="-1.42754">
        <ele>2.3827</ele>
        <time>2023-06-02T08:42:47.000Z</time>
      </trkpt>
      <trkpt lat="46.20029" lon="-1.42755">
        <ele>2.47358</ele>
        <time>2023-06-02T08:42:48.000Z</time>
      </trkpt>
      <trkpt lat="46.20033" lon="-1.42756">
        <ele>2.52439</ele>
        <time>2023-06-02T08:42:49.000Z</time>
      </trkpt>
      <trkpt lat="46.20036" lon="-1.42757">
        <ele>2.57325</ele>
        <time>2023-06-02T08:42:50.000Z</time>
      </trkpt>
      <trkpt lat="46.2004" lon="-1.42758">
        <ele>2.61606</ele>
        <time>2023-06-02T08:42:51.000Z</time>
      </trkpt>
      <trkpt lat="46.20043" lon="-1.42759">
        <ele>2.60309</ele>
        <time>2023-06-02T08:42:52.000Z</time>
      </trkpt>
      <trkpt lat="46.20047" lon="-1.42759">
        <ele>2.55587</ele>
        <time>2023-06-02T08:42:53.000Z</time>
      </trkpt>
      <trkpt lat="46.2005" lon="-1.4276">
        <ele>2.48582</ele>
        <time>2023-06-02T08:42:54.000Z</time>
      </trkpt>
      <trkpt lat="46.20054" lon="-1.42761">
        <ele>2.40211</ele>
        <time>2023-06-02T08:42:55.000Z</time>
      </trkpt>
      <trkpt lat="46.20058" lon="-1.42761">
        <ele>2.35154</ele>
        <time>2023-06-02T08:42:56.000Z</time>
      </trkpt>
      <trkpt lat="46.20061" lon="-1.42762">
        <ele>2.40726</ele>
        <time>2023-06-02T08:42:57.000Z</time>
      </trkpt>
      <trkpt lat="46.20065" lon="-1.42762">
        <ele>2.45689</ele>
        <time>2023-06-02T08:42:58.000Z</time>
      </trkpt>
      <trkpt lat="46.20069" lon="-1.42762">
        <ele>2.50093</ele>
        <time>2023-06-02T08:42:59.000Z</time>
      </trkpt>
      <trkpt lat="46.20073" lon="-1.42763">
        <ele>2.5212</ele>
        <time>2023-06-02T08:43:00.000Z</time>
      </trkpt>
      <trkpt lat="46.20076" lon="-1.42763">
        <ele>2.51838</ele>
        <time>2023-06-02T08:43:01.000Z</time>
      </trkpt>
      <trkpt lat="46.2008" lon="-1.42764">
        <ele>2.50802</ele>
        <time>2023-06-02T08:43:02.000Z</time>
      </trkpt>
      <trkpt lat="46.20083" lon="-1.42764">
        <ele>2.49689</ele>
        <time>2023-06-02T08:43:03.000Z</time>
      </trkpt>
      <trkpt lat="46.20087" lon="-1.42765">
        <ele>2.48848</ele>
        <time>2023-06-02T08:43:04.000Z</time>
      </trkpt>
      <trkpt lat="46.20091" lon="-1.42765">
        <ele>2.49598</ele>
        <time>2023-06-02T08:43:05.000Z</time>
      </trkpt>
      <trkpt lat="46.20095" lon="-1.42765">
        <ele>2.50122</ele>
        <time>2023-06-02T08:43:06.000Z</time>
      </trkpt>
      <trkpt lat="46.20098" lon="-1.42765">
        <ele>2.52362</ele>
        <time>2023-06-02T08:43:07.000Z</time>
      </trkpt>
      <trkpt lat="46.20102" lon="-1.42765">
        <ele>2.51688</ele>
        <time>2023-06-02T08:43:08.000Z</time>
      </trkpt>
      <trkpt lat="46.20106" lon="-1.42765">
        <ele>2.55568</ele>
        <time>2023-06-02T08:43:09.000Z</time>
      </trkpt>
      <trkpt lat="46.20109" lon="-1.42766">
        <ele>2.60757</ele>
        <time>2023-06-02T08:43:10.000Z</time>
      </trkpt>
      <trkpt lat="46.20112" lon="-1.42766">
        <ele>2.66135</ele>
        <time>2023-06-02T08:43:11.000Z</time>
      </trkpt>
      <trkpt lat="46.20116" lon="-1.42767">
        <ele>2.77161</ele>
        <time>2023-06-02T08:43:12.000Z</time>
      </trkpt>
      <trkpt lat="46.20119" lon="-1.42767">
        <ele>2.87231</ele>
        <time>2023-06-02T08:43:13.000Z</time>
      </trkpt>
      <trkpt lat="46.20123" lon="-1.42768">
        <ele>2.9804</ele>
        <time>2023-06-02T08:43:14.000Z</time>
      </trkpt>
      <trkpt lat="46.20126" lon="-1.42769">
        <ele>3.10631</ele>
        <time>2023-06-02T08:43:15.000Z</time>
      </trkpt>
      <trkpt lat="46.2013" lon="-1.4277">
        <ele>3.19584</ele>
        <time>2023-06-02T08:43:16.000Z</time>
      </trkpt>
      <trkpt lat="46.20133" lon="-1.42772">
        <ele>3.14775</ele>
        <time>2023-06-02T08:43:17.000Z</time>
      </trkpt>
      <trkpt lat="46.20135" lon="-1.42774">
        <ele>3.11072</ele>
        <time>2023-06-02T08:43:18.000Z</time>
      </trkpt>
      <trkpt lat="46.20138" lon="-1.42777">
        <ele>3.14479</ele>
        <time>2023-06-02T08:43:19.000Z</time>
      </trkpt>
      <trkpt lat="46.20141" lon="-1.4278">
        <ele>3.16502</ele>
        <time>2023-06-02T08:43:20.000Z</time>
      </trkpt>
      <trkpt lat="46.20144" lon="-1.42783">
        <ele>3.21964</ele>
        <time>2023-06-02T08:43:21.000Z</time>
      </trkpt>
      <trkpt lat="46.20146" lon="-1.42787">
        <ele>3.27769</ele>
        <time>2023-06-02T08:43:22.000Z</time>
      </trkpt>
      <trkpt lat="46.20149" lon="-1.4279">
        <ele>3.34172</ele>
        <time>2023-06-02T08:43:23.000Z</time>
      </trkpt>
      <trkpt lat="46.20152" lon="-1.42794">
        <ele>3.38104</ele>
        <time>2023-06-02T08:43:24.000Z</time>
      </trkpt>
      <trkpt lat="46.20155" lon="-1.42798">
        <ele>3.38481</ele>
        <time>2023-06-02T08:43:25.000Z</time>
      </trkpt>
      <trkpt lat="46.20157" lon="-1.42803">
        <ele>3.41815</ele>
        <time>2023-06-02T08:43:26.000Z</time>
      </trkpt>
      <trkpt lat="46.2016" lon="-1.42807">
        <ele>3.43567</ele>
        <time>2023-06-02T08:43:27.000Z</time>
      </trkpt>
      <trkpt lat="46.20163" lon="-1.42811">
        <ele>3.46462</ele>
        <time>2023-06-02T08:43:28.000Z</time>
      </trkpt>
      <trkpt lat="46.20166" lon="-1.42815">
        <ele>3.49903</ele>
        <time>2023-06-02T08:43:29.000Z</time>
      </trkpt>
      <trkpt lat="46.20168" lon="-1.4282">
        <ele>3.55562</ele>
        <time>2023-06-02T08:43:30.000Z</time>
      </trkpt>
      <trkpt lat="46.20171" lon="-1.42823">
        <ele>3.61854</ele>
        <time>2023-06-02T08:43:31.000Z</time>
      </trkpt>
      <trkpt lat="46.20174" lon="-1.42827">
        <ele>3.64907</ele>
        <time>2023-06-02T08:43:32.000Z</time>
      </trkpt>
      <trkpt lat="46.20176" lon="-1.42831">
        <ele>3.68159</ele>
        <time>2023-06-02T08:43:33.000Z</time>
      </trkpt>
      <trkpt lat="46.20179" lon="-1.42835">
        <ele>3.71392</ele>
        <time>2023-06-02T08:43:34.000Z</time>
      </trkpt>
      <trkpt lat="46.20182" lon="-1.42838">
        <ele>3.73369</ele>
        <time>2023-06-02T08:43:35.000Z</time>
      </trkpt>
      <trkpt lat="46.20184" lon="-1.42842">
        <ele>3.76996</ele>
        <time>2023-06-02T08:43:36.000Z</time>
      </trkpt>
      <trkpt lat="46.20187" lon="-1.42845">
        <ele>3.90177</ele>
        <time>2023-06-02T08:43:37.000Z</time>
      </trkpt>
      <trkpt lat="46.2019" lon="-1.42849">
        <ele>4.01045</ele>
        <time>2023-06-02T08:43:38.000Z</time>
      </trkpt>
      <trkpt lat="46.20193" lon="-1.42852">
        <ele>4.05894</ele>
        <time>2023-06-02T08:43:39.000Z</time>
      </trkpt>
      <trkpt lat="46.20196" lon="-1.42856">
        <ele>4.11222</ele>
        <time>2023-06-02T08:43:40.000Z</time>
      </trkpt>
      <trkpt lat="46.20199" lon="-1.42859">
        <ele>4.15794</ele>
        <time>2023-06-02T08:43:41.000Z</time>
      </trkpt>
      <trkpt lat="46.20203" lon="-1.42861">
        <ele>4.20302</ele>
        <time>2023-06-02T08:43:42.000Z</time>
      </trkpt>
      <trkpt lat="46.20207" lon="-1.42862">
        <ele>4.22999</ele>
        <time>2023-06-02T08:43:43.000Z</time>
      </trkpt>
      <trkpt lat="46.20211" lon="-1.42863">
        <ele>4.26652</ele>
        <time>2023-06-02T08:43:44.000Z</time>
      </trkpt>
      <trkpt lat="46.20214" lon="-1.42864">
        <ele>4.34425</ele>
        <time>2023-06-02T08:43:45.000Z</time>
      </trkpt>
      <trkpt lat="46.20217" lon="-1.42865">
        <ele>4.34915</ele>
        <time>2023-06-02T08:43:46.000Z</time>
      </trkpt>
      <trkpt lat="46.2022" lon="-1.42866">
        <ele>4.34726</ele>
        <time>2023-06-02T08:43:47.000Z</time>
      </trkpt>
      <trkpt lat="46.20223" lon="-1.42866">
        <ele>4.31084</ele>
        <time>2023-06-02T08:43:48.000Z</time>
      </trkpt>
      <trkpt lat="46.20227" lon="-1.42866">
        <ele>4.24699</ele>
        <time>2023-06-02T08:43:49.000Z</time>
      </trkpt>
      <trkpt lat="46.2023" lon="-1.42866">
        <ele>4.18026</ele>
        <time>2023-06-02T08:43:50.000Z</time>
      </trkpt>
      <trkpt lat="46.20233" lon="-1.42866">
        <ele>4.09546</ele>
        <time>2023-06-02T08:43:51.000Z</time>
      </trkpt>
      <trkpt lat="46.20236" lon="-1.42866">
        <ele>4.0307</ele>
        <time>2023-06-02T08:43:52.000Z</time>
      </trkpt>
      <trkpt lat="46.20239" lon="-1.42866">
        <ele>3.96517</ele>
        <time>2023-06-02T08:43:53.000Z</time>
      </trkpt>
      <trkpt lat="46.20242" lon="-1.42866">
        <ele>3.88385</ele>
        <time>2023-06-02T08:43:54.000Z</time>
      </trkpt>
      <trkpt lat="46.20245" lon="-1.42865">
        <ele>3.78743</ele>
        <time>2023-06-02T08:43:55.000Z</time>
      </trkpt>
      <trkpt lat="46.20248" lon="-1.42864">
        <ele>3.69726</ele>
        <time>2023-06-02T08:43:56.000Z</time>
      </trkpt>
      <trkpt lat="46.20251" lon="-1.42864">
        <ele>3.66041</ele>
        <time>2023-06-02T08:43:57.000Z</time>
      </trkpt>
      <trkpt lat="46.20255" lon="-1.42863">
        <ele>3.63888</ele>
        <time>2023-06-02T08:43:58.000Z</time>
      </trkpt>
      <trkpt lat="46.20258" lon="-1.42861">
        <ele>3.59292</ele>
        <time>2023-06-02T08:43:59.000Z</time>
      </trkpt>
      <trkpt lat="46.20261" lon="-1.4286">
        <ele>3.55836</ele>
        <time>2023-06-02T08:44:00.000Z</time>
      </trkpt>
      <trkpt lat="46.20264" lon="-1.42859">
        <ele>3.51544</ele>
        <time>2023-06-02T08:44:01.000Z</time>
      </trkpt>
      <trkpt lat="46.20268" lon="-1.42859">
        <ele>3.50658</ele>
        <time>2023-06-02T08:44:02.000Z</time>
      </trkpt>
      <trkpt lat="46.20271" lon="-1.42859">
        <ele>3.52649</ele>
        <time>2023-06-02T08:44:03.000Z</time>
      </trkpt>
      <trkpt lat="46.20274" lon="-1.42858">
        <ele>3.52771</ele>
        <time>2023-06-02T08:44:04.000Z</time>
      </trkpt>
      <trkpt lat="46.20277" lon="-1.42857">
        <ele>3.55545</ele>
        <time>2023-06-02T08:44:05.000Z</time>
      </trkpt>
      <trkpt lat="46.20281" lon="-1.42856">
        <ele>3.55253</ele>
        <time>2023-06-02T08:44:06.000Z</time>
      </trkpt>
      <trkpt lat="46.20284" lon="-1.42855">
        <ele>3.50055</ele>
        <time>2023-06-02T08:44:07.000Z</time>
      </trkpt>
      <trkpt lat="46.20287" lon="-1.42854">
        <ele>3.47146</ele>
        <time>2023-06-02T08:44:08.000Z</time>
      </trkpt>
      <trkpt lat="46.20291" lon="-1.42853">
        <ele>3.53807</ele>
        <time>2023-06-02T08:44:09.000Z</time>
      </trkpt>
      <trkpt lat="46.20294" lon="-1.42852">
        <ele>3.59352</ele>
        <time>2023-06-02T08:44:10.000Z</time>
      </trkpt>
      <trkpt lat="46.20297" lon="-1.42851">
        <ele>3.66243</ele>
        <time>2023-06-02T08:44:11.000Z</time>
      </trkpt>
      <trkpt lat="46.20301" lon="-1.4285">
        <ele>3.73438</ele>
        <time>2023-06-02T08:44:12.000Z</time>
      </trkpt>
      <trkpt lat="46.20304" lon="-1.42849">
        <ele>3.86124</ele>
        <time>2023-06-02T08:44:13.000Z</time>
      </trkpt>
      <trkpt lat="46.20307" lon="-1.42848">
        <ele>3.99882</ele>
        <time>2023-06-02T08:44:14.000Z</time>
      </trkpt>
      <trkpt lat="46.20311" lon="-1.42846">
        <ele>4.16184</ele>
        <time>2023-06-02T08:44:15.000Z</time>
      </trkpt>
      <trkpt lat="46.20314" lon="-1.42845">
        <ele>4.31794</ele>
        <time>2023-06-02T08:44:16.000Z</time>
      </trkpt>
      <trkpt lat="46.20318" lon="-1.42843">
        <ele>4.38376</ele>
        <time>2023-06-02T08:44:17.000Z</time>
      </trkpt>
      <trkpt lat="46.20322" lon="-1.42842">
        <ele>4.44945</ele>
        <time>2023-06-02T08:44:18.000Z</time>
      </trkpt>
      <trkpt lat="46.20325" lon="-1.4284">
        <ele>4.52513</ele>
        <time>2023-06-02T08:44:19.000Z</time>
      </trkpt>
      <trkpt lat="46.20329" lon="-1.42839">
        <ele>4.61098</ele>
        <time>2023-06-02T08:44:20.000Z</time>
      </trkpt>
      <trkpt lat="46.20333" lon="-1.42837">
        <ele>4.71246</ele>
        <time>2023-06-02T08:44:21.000Z</time>
      </trkpt>
      <trkpt lat="46.20336" lon="-1.42836">
        <ele>4.77602</ele>
        <time>2023-06-02T08:44:22.000Z</time>
      </trkpt>
      <trkpt lat="46.2034" lon="-1.42835">
        <ele>4.83235</ele>
        <time>2023-06-02T08:44:23.000Z</time>
      </trkpt>
      <trkpt lat="46.20344" lon="-1.42834">
        <ele>4.91703</ele>
        <time>2023-06-02T08:44:24.000Z</time>
      </trkpt>
      <trkpt lat="46.20347" lon="-1.42834">
        <ele>4.92534</ele>
        <time>2023-06-02T08:44:25.000Z</time>
      </trkpt>
      <trkpt lat="46.2035" lon="-1.42835">
        <ele>5.07444</ele>
        <time>2023-06-02T08:44:26.000Z</time>
      </trkpt>
      <trkpt lat="46.20353" lon="-1.42837">
        <ele>5.27545</ele>
        <time>2023-06-02T08:44:27.000Z</time>
      </trkpt>
      <trkpt lat="46.20356" lon="-1.4284">
        <ele>5.47393</ele>
        <time>2023-06-02T08:44:28.000Z</time>
      </trkpt>
      <trkpt lat="46.20358" lon="-1.42843">
        <ele>5.58391</ele>
        <time>2023-06-02T08:44:29.000Z</time>
      </trkpt>
      <trkpt lat="46.2036" lon="-1.42846">
        <ele>5.68207</ele>
        <time>2023-06-02T08:44:30.000Z</time>
      </trkpt>
      <trkpt lat="46.20362" lon="-1.4285">
        <ele>5.78375</ele>
        <time>2023-06-02T08:44:31.000Z</time>
      </trkpt>
      <trkpt lat="46.20364" lon="-1.42853">
        <ele>5.89335</ele>
        <time>2023-06-02T08:44:32.000Z</time>
      </trkpt>
      <trkpt lat="46.20366" lon="-1.42857">
        <ele>5.90062</ele>
        <time>2023-06-02T08:44:33.000Z</time>
      </trkpt>
      <trkpt lat="46.20369" lon="-1.4286">
        <ele>5.90791</ele>
        <time>2023-06-02T08:44:34.000Z</time>
      </trkpt>
      <trkpt lat="46.20371" lon="-1.42863">
        <ele>5.90687</ele>
        <time>2023-06-02T08:44:35.000Z</time>
      </trkpt>
      <trkpt lat="46.20373" lon="-1.42867">
        <ele>5.87823</ele>
        <time>2023-06-02T08:44:36.000Z</time>
      </trkpt>
      <trkpt lat="46.20375" lon="-1.4287">
        <ele>5.85216</ele>
        <time>2023-06-02T08:44:37.000Z</time>
      </trkpt>
      <trkpt lat="46.20377" lon="-1.42874">
        <ele>5.82338</ele>
        <time>2023-06-02T08:44:38.000Z</time>
      </trkpt>
      <trkpt lat="46.20379" lon="-1.42877">
        <ele>5.78746</ele>
        <time>2023-06-02T08:44:39.000Z</time>
      </trkpt>
      <trkpt lat="46.20381" lon="-1.4288">
        <ele>5.77358</ele>
        <time>2023-06-02T08:44:40.000Z</time>
      </trkpt>
      <trkpt lat="46.20383" lon="-1.42883">
        <ele>5.75008</ele>
        <time>2023-06-02T08:44:41.000Z</time>
      </trkpt>
      <trkpt lat="46.20386" lon="-1.42885">
        <ele>5.72251</ele>
        <time>2023-06-02T08:44:42.000Z</time>
      </trkpt>
      <trkpt lat="46.20388" lon="-1.42888">
        <ele>5.69078</ele>
        <time>2023-06-02T08:44:43.000Z</time>
      </trkpt>
      <trkpt lat="46.20391" lon="-1.4289">
        <ele>5.65167</ele>
        <time>2023-06-02T08:44:44.000Z</time>
      </trkpt>
      <trkpt lat="46.20393" lon="-1.42893">
        <ele>5.65533</ele>
        <time>2023-06-02T08:44:45.000Z</time>
      </trkpt>
      <trkpt lat="46.20396" lon="-1.42895">
        <ele>5.61072</ele>
        <time>2023-06-02T08:44:46.000Z</time>
      </trkpt>
      <trkpt lat="46.20398" lon="-1.42898">
        <ele>5.56404</ele>
        <time>2023-06-02T08:44:47.000Z</time>
      </trkpt>
      <trkpt lat="46.204" lon="-1.429">
        <ele>5.52429</ele>
        <time>2023-06-02T08:44:48.000Z</time>
      </trkpt>
      <trkpt lat="46.20403" lon="-1.42903">
        <ele>5.48771</ele>
        <time>2023-06-02T08:44:49.000Z</time>
      </trkpt>
      <trkpt lat="46.20405" lon="-1.42905">
        <ele>5.44703</ele>
        <time>2023-06-02T08:44:50.000Z</time>
      </trkpt>
      <trkpt lat="46.20408" lon="-1.42907">
        <ele>5.40179</ele>
        <time>2023-06-02T08:44:51.000Z</time>
      </trkpt>
      <trkpt lat="46.2041" lon="-1.4291">
        <ele>5.42771</ele>
        <time>2023-06-02T08:44:52.000Z</time>
      </trkpt>
      <trkpt lat="46.20412" lon="-1.42912">
        <ele>5.49768</ele>
        <time>2023-06-02T08:44:53.000Z</time>
      </trkpt>
      <trkpt lat="46.20415" lon="-1.42915">
        <ele>5.56262</ele>
        <time>2023-06-02T08:44:54.000Z</time>
      </trkpt>
      <trkpt lat="46.20417" lon="-1.42918">
        <ele>5.61579</ele>
        <time>2023-06-02T08:44:55.000Z</time>
      </trkpt>
      <trkpt lat="46.2042" lon="-1.4292">
        <ele>5.70223</ele>
        <time>2023-06-02T08:44:56.000Z</time>
      </trkpt>
      <trkpt lat="46.20423" lon="-1.42922">
        <ele>5.78543</ele>
        <time>2023-06-02T08:44:57.000Z</time>
      </trkpt>
      <trkpt lat="46.20425" lon="-1.42925">
        <ele>5.8639</ele>
        <time>2023-06-02T08:44:58.000Z</time>
      </trkpt>
      <trkpt lat="46.20428" lon="-1.42927">
        <ele>5.97317</ele>
        <time>2023-06-02T08:44:59.000Z</time>
      </trkpt>
      <trkpt lat="46.2043" lon="-1.4293">
        <ele>6.05914</ele>
        <time>2023-06-02T08:45:00.000Z</time>
      </trkpt>
      <trkpt lat="46.20433" lon="-1.42932">
        <ele>6.14025</ele>
        <time>2023-06-02T08:45:01.000Z</time>
      </trkpt>
      <trkpt lat="46.20435" lon="-1.42935">
        <ele>6.2211</ele>
        <time>2023-06-02T08:45:02.000Z</time>
      </trkpt>
      <trkpt lat="46.20438" lon="-1.42937">
        <ele>6.30141</ele>
        <time>2023-06-02T08:45:03.000Z</time>
      </trkpt>
      <trkpt lat="46.2044" lon="-1.4294">
        <ele>6.36953</ele>
        <time>2023-06-02T08:45:04.000Z</time>
      </trkpt>
      <trkpt lat="46.20442" lon="-1.42942">
        <ele>6.42318</ele>
        <time>2023-06-02T08:45:05.000Z</time>
      </trkpt>
      <trkpt lat="46.20445" lon="-1.42945">
        <ele>6.47052</ele>
        <time>2023-06-02T08:45:06.000Z</time>
      </trkpt>
      <trkpt lat="46.20447" lon="-1.42947">
        <ele>6.51739</ele>
        <time>2023-06-02T08:45:07.000Z</time>
      </trkpt>
      <trkpt lat="46.2045" lon="-1.4295">
        <ele>6.55593</ele>
        <time>2023-06-02T08:45:08.000Z</time>
      </trkpt>
      <trkpt lat="46.20453" lon="-1.42952">
        <ele>6.57836</ele>
        <time>2023-06-02T08:45:09.000Z</time>
      </trkpt>
      <trkpt lat="46.20455" lon="-1.42955">
        <ele>6.60729</ele>
        <time>2023-06-02T08:45:10.000Z</time>
      </trkpt>
      <trkpt lat="46.20458" lon="-1.42958">
        <ele>6.61864</ele>
        <time>2023-06-02T08:45:11.000Z</time>
      </trkpt>
      <trkpt lat="46.2046" lon="-1.42961">
        <ele>6.52768</ele>
        <time>2023-06-02T08:45:12.000Z</time>
      </trkpt>
      <trkpt lat="46.20463" lon="-1.42964">
        <ele>6.46754</ele>
        <time>2023-06-02T08:45:13.000Z</time>
      </trkpt>
      <trkpt lat="46.20465" lon="-1.42967">
        <ele>6.39227</ele>
        <time>2023-06-02T08:45:14.000Z</time>
      </trkpt>
      <trkpt lat="46.20467" lon="-1.4297">
        <ele>6.27682</ele>
        <time>2023-06-02T08:45:15.000Z</time>
      </trkpt>
      <trkpt lat="46.20469" lon="-1.42973">
        <ele>6.18701</ele>
        <time>2023-06-02T08:45:16.000Z</time>
      </trkpt>
      <trkpt lat="46.20471" lon="-1.42977">
        <ele>6.11165</ele>
        <time>2023-06-02T08:45:17.000Z</time>
      </trkpt>
      <trkpt lat="46.20473" lon="-1.4298">
        <ele>6.0274</ele>
        <time>2023-06-02T08:45:18.000Z</time>
      </trkpt>
      <trkpt lat="46.20475" lon="-1.42984">
        <ele>5.82526</ele>
        <time>2023-06-02T08:45:19.000Z</time>
      </trkpt>
      <trkpt lat="46.20476" lon="-1.42988">
        <ele>5.67007</ele>
        <time>2023-06-02T08:45:20.000Z</time>
      </trkpt>
      <trkpt lat="46.20478" lon="-1.42992">
        <ele>5.52707</ele>
        <time>2023-06-02T08:45:21.000Z</time>
      </trkpt>
      <trkpt lat="46.2048" lon="-1.42995">
        <ele>5.38727</ele>
        <time>2023-06-02T08:45:22.000Z</time>
      </trkpt>
      <trkpt lat="46.20482" lon="-1.42999">
        <ele>5.24867</ele>
        <time>2023-06-02T08:45:23.000Z</time>
      </trkpt>
      <trkpt lat="46.20483" lon="-1.43003">
        <ele>5.10325</ele>
        <time>2023-06-02T08:45:24.000Z</time>
      </trkpt>
      <trkpt lat="46.20485" lon="-1.43007">
        <ele>4.95665</ele>
        <time>2023-06-02T08:45:25.000Z</time>
      </trkpt>
      <trkpt lat="46.20487" lon="-1.43011">
        <ele>4.83412</ele>
        <time>2023-06-02T08:45:26.000Z</time>
      </trkpt>
      <trkpt lat="46.20489" lon="-1.43015">
        <ele>4.71378</ele>
        <time>2023-06-02T08:45:27.000Z</time>
      </trkpt>
      <trkpt lat="46.20491" lon="-1.43019">
        <ele>4.60128</ele>
        <time>2023-06-02T08:45:28.000Z</time>
      </trkpt>
      <trkpt lat="46.20493" lon="-1.43024">
        <ele>4.4994</ele>
        <time>2023-06-02T08:45:29.000Z</time>
      </trkpt>
      <trkpt lat="46.20495" lon="-1.43028">
        <ele>4.41689</ele>
        <time>2023-06-02T08:45:30.000Z</time>
      </trkpt>
      <trkpt lat="46.20497" lon="-1.43032">
        <ele>4.35817</ele>
        <time>2023-06-02T08:45:31.000Z</time>
      </trkpt>
      <trkpt lat="46.20499" lon="-1.43037">
        <ele>4.30171</ele>
        <time>2023-06-02T08:45:32.000Z</time>
      </trkpt>
      <trkpt lat="46.20501" lon="-1.43041">
        <ele>4.22118</ele>
        <time>2023-06-02T08:45:33.000Z</time>
      </trkpt>
      <trkpt lat="46.20503" lon="-1.43045">
        <ele>4.11027</ele>
        <time>2023-06-02T08:45:34.000Z</time>
      </trkpt>
      <trkpt lat="46.20505" lon="-1.4305">
        <ele>4.04202</ele>
        <time>2023-06-02T08:45:35.000Z</time>
      </trkpt>
      <trkpt lat="46.20506" lon="-1.43055">
        <ele>3.92572</ele>
        <time>2023-06-02T08:45:36.000Z</time>
      </trkpt>
      <trkpt lat="46.20508" lon="-1.43059">
        <ele>3.84871</ele>
        <time>2023-06-02T08:45:37.000Z</time>
      </trkpt>
      <trkpt lat="46.20509" lon="-1.43064">
        <ele>3.83885</ele>
        <time>2023-06-02T08:45:38.000Z</time>
      </trkpt>
      <trkpt lat="46.2051" lon="-1.43069">
        <ele>3.89589</ele>
        <time>2023-06-02T08:45:39.000Z</time>
      </trkpt>
      <trkpt lat="46.20511" lon="-1.43074">
        <ele>3.8977</ele>
        <time>2023-06-02T08:45:40.000Z</time>
      </trkpt>
      <trkpt lat="46.20511" lon="-1.43079">
        <ele>3.88707</ele>
        <time>2023-06-02T08:45:41.000Z</time>
      </trkpt>
      <trkpt lat="46.20511" lon="-1.43084">
        <ele>3.86236</ele>
        <time>2023-06-02T08:45:42.000Z</time>
      </trkpt>
      <trkpt lat="46.20511" lon="-1.4309">
        <ele>3.83095</ele>
        <time>2023-06-02T08:45:43.000Z</time>
      </trkpt>
      <trkpt lat="46.20512" lon="-1.43095">
        <ele>3.93881</ele>
        <time>2023-06-02T08:45:44.000Z</time>
      </trkpt>
      <trkpt lat="46.20512" lon="-1.43101">
        <ele>3.87213</ele>
        <time>2023-06-02T08:45:45.000Z</time>
      </trkpt>
      <trkpt lat="46.20511" lon="-1.43107">
        <ele>3.78246</ele>
        <time>2023-06-02T08:45:46.000Z</time>
      </trkpt>
      <trkpt lat="46.20511" lon="-1.43112">
        <ele>3.68631</ele>
        <time>2023-06-02T08:45:47.000Z</time>
      </trkpt>
      <trkpt lat="46.20511" lon="-1.43118">
        <ele>3.54726</ele>
        <time>2023-06-02T08:45:48.000Z</time>
      </trkpt>
      <trkpt lat="46.2051" lon="-1.43124">
        <ele>3.45198</ele>
        <time>2023-06-02T08:45:49.000Z</time>
      </trkpt>
      <trkpt lat="46.20509" lon="-1.4313">
        <ele>3.33376</ele>
        <time>2023-06-02T08:45:50.000Z</time>
      </trkpt>
      <trkpt lat="46.20509" lon="-1.43135">
        <ele>3.21222</ele>
        <time>2023-06-02T08:45:51.000Z</time>
      </trkpt>
      <trkpt lat="46.20508" lon="-1.43141">
        <ele>3.14332</ele>
        <time>2023-06-02T08:45:52.000Z</time>
      </trkpt>
      <trkpt lat="46.20507" lon="-1.43146">
        <ele>3.09038</ele>
        <time>2023-06-02T08:45:53.000Z</time>
      </trkpt>
      <trkpt lat="46.20505" lon="-1.43151">
        <ele>3.08305</ele>
        <time>2023-06-02T08:45:54.000Z</time>
      </trkpt>
      <trkpt lat="46.20503" lon="-1.43155">
        <ele>3.05045</ele>
        <time>2023-06-02T08:45:55.000Z</time>
      </trkpt>
      <trkpt lat="46.20501" lon="-1.4316">
        <ele>3.05615</ele>
        <time>2023-06-02T08:45:56.000Z</time>
      </trkpt>
      <trkpt lat="46.20499" lon="-1.43164">
        <ele>3.00547</ele>
        <time>2023-06-02T08:45:57.000Z</time>
      </trkpt>
      <trkpt lat="46.20497" lon="-1.43168">
        <ele>2.92353</ele>
        <time>2023-06-02T08:45:58.000Z</time>
      </trkpt>
      <trkpt lat="46.20495" lon="-1.43172">
        <ele>2.85071</ele>
        <time>2023-06-02T08:45:59.000Z</time>
      </trkpt>
      <trkpt lat="46.20492" lon="-1.43176">
        <ele>2.79668</ele>
        <time>2023-06-02T08:46:00.000Z</time>
      </trkpt>
      <trkpt lat="46.2049" lon="-1.4318">
        <ele>2.74878</ele>
        <time>2023-06-02T08:46:01.000Z</time>
      </trkpt>
      <trkpt lat="46.20489" lon="-1.43184">
        <ele>2.71092</ele>
        <time>2023-06-02T08:46:02.000Z</time>
      </trkpt>
      <trkpt lat="46.20487" lon="-1.43189">
        <ele>2.70568</ele>
        <time>2023-06-02T08:46:03.000Z</time>
      </trkpt>
      <trkpt lat="46.20487" lon="-1.43194">
        <ele>2.58609</ele>
        <time>2023-06-02T08:46:04.000Z</time>
      </trkpt>
      <trkpt lat="46.20488" lon="-1.43199">
        <ele>2.63976</ele>
        <time>2023-06-02T08:46:05.000Z</time>
      </trkpt>
      <trkpt lat="46.2049" lon="-1.43204">
        <ele>2.67755</ele>
        <time>2023-06-02T08:46:06.000Z</time>
      </trkpt>
      <trkpt lat="46.20492" lon="-1.43208">
        <ele>2.81411</ele>
        <time>2023-06-02T08:46:07.000Z</time>
      </trkpt>
      <trkpt lat="46.20494" lon="-1.43213">
        <ele>2.99465</ele>
        <time>2023-06-02T08:46:08.000Z</time>
      </trkpt>
      <trkpt lat="46.20497" lon="-1.43217">
        <ele>3.13629</ele>
        <time>2023-06-02T08:46:09.000Z</time>
      </trkpt>
      <trkpt lat="46.205" lon="-1.43222">
        <ele>3.28589</ele>
        <time>2023-06-02T08:46:10.000Z</time>
      </trkpt>
      <trkpt lat="46.20503" lon="-1.43226">
        <ele>3.43788</ele>
        <time>2023-06-02T08:46:11.000Z</time>
      </trkpt>
      <trkpt lat="46.20506" lon="-1.43231">
        <ele>3.5697</ele>
        <time>2023-06-02T08:46:12.000Z</time>
      </trkpt>
      <trkpt lat="46.20508" lon="-1.43236">
        <ele>3.69284</ele>
        <time>2023-06-02T08:46:13.000Z</time>
      </trkpt>
      <trkpt lat="46.20511" lon="-1.43241">
        <ele>3.83312</ele>
        <time>2023-06-02T08:46:14.000Z</time>
      </trkpt>
      <trkpt lat="46.20513" lon="-1.43246">
        <ele>3.99624</ele>
        <time>2023-06-02T08:46:15.000Z</time>
      </trkpt>
      <trkpt lat="46.20515" lon="-1.43251">
        <ele>4.07364</ele>
        <time>2023-06-02T08:46:16.000Z</time>
      </trkpt>
      <trkpt lat="46.20517" lon="-1.43256">
        <ele>4.14669</ele>
        <time>2023-06-02T08:46:17.000Z</time>
      </trkpt>
      <trkpt lat="46.20519" lon="-1.43261">
        <ele>4.20814</ele>
        <time>2023-06-02T08:46:18.000Z</time>
      </trkpt>
      <trkpt lat="46.20521" lon="-1.43266">
        <ele>4.2659</ele>
        <time>2023-06-02T08:46:19.000Z</time>
      </trkpt>
      <trkpt lat="46.20523" lon="-1.4327">
        <ele>4.40797</ele>
        <time>2023-06-02T08:46:20.000Z</time>
      </trkpt>
      <trkpt lat="46.20525" lon="-1.43275">
        <ele>4.53275</ele>
        <time>2023-06-02T08:46:21.000Z</time>
      </trkpt>
      <trkpt lat="46.20527" lon="-1.4328">
        <ele>4.65608</ele>
        <time>2023-06-02T08:46:22.000Z</time>
      </trkpt>
      <trkpt lat="46.20529" lon="-1.43284">
        <ele>4.77887</ele>
        <time>2023-06-02T08:46:23.000Z</time>
      </trkpt>
      <trkpt lat="46.20531" lon="-1.43289">
        <ele>4.90477</ele>
        <time>2023-06-02T08:46:24.000Z</time>
      </trkpt>
      <trkpt lat="46.20533" lon="-1.43294">
        <ele>5.042</ele>
        <time>2023-06-02T08:46:25.000Z</time>
      </trkpt>
      <trkpt lat="46.20535" lon="-1.43299">
        <ele>5.18809</ele>
        <time>2023-06-02T08:46:26.000Z</time>
      </trkpt>
      <trkpt lat="46.20537" lon="-1.43304">
        <ele>5.25034</ele>
        <time>2023-06-02T08:46:27.000Z</time>
      </trkpt>
      <trkpt lat="46.2054" lon="-1.43308">
        <ele>5.28799</ele>
        <time>2023-06-02T08:46:28.000Z</time>
      </trkpt>
      <trkpt lat="46.20542" lon="-1.43312">
        <ele>5.31812</ele>
        <time>2023-06-02T08:46:29.000Z</time>
      </trkpt>
      <trkpt lat="46.20544" lon="-1.43317">
        <ele>5.34936</ele>
        <time>2023-06-02T08:46:30.000Z</time>
      </trkpt>
      <trkpt lat="46.20546" lon="-1.43322">
        <ele>5.36269</ele>
        <time>2023-06-02T08:46:31.000Z</time>
      </trkpt>
      <trkpt lat="46.20547" lon="-1.43327">
        <ele>5.35818</ele>
        <time>2023-06-02T08:46:32.000Z</time>
      </trkpt>
      <trkpt lat="46.20549" lon="-1.43332">
        <ele>5.36752</ele>
        <time>2023-06-02T08:46:33.000Z</time>
      </trkpt>
      <trkpt lat="46.20551" lon="-1.43337">
        <ele>5.35245</ele>
        <time>2023-06-02T08:46:34.000Z</time>
      </trkpt>
      <trkpt lat="46.20553" lon="-1.43342">
        <ele>5.31036</ele>
        <time>2023-06-02T08:46:35.000Z</time>
      </trkpt>
      <trkpt lat="46.20555" lon="-1.43346">
        <ele>5.33066</ele>
        <time>2023-06-02T08:46:36.000Z</time>
      </trkpt>
      <trkpt lat="46.20556" lon="-1.43351">
        <ele>5.34236</ele>
        <time>2023-06-02T08:46:37.000Z</time>
      </trkpt>
      <trkpt lat="46.20558" lon="-1.43356">
        <ele>5.32743</ele>
        <time>2023-06-02T08:46:38.000Z</time>
      </trkpt>
      <trkpt lat="46.2056" lon="-1.43361">
        <ele>5.3365</ele>
        <time>2023-06-02T08:46:39.000Z</time>
      </trkpt>
      <trkpt lat="46.20562" lon="-1.43366">
        <ele>5.2493</ele>
        <time>2023-06-02T08:46:40.000Z</time>
      </trkpt>
      <trkpt lat="46.20564" lon="-1.4337">
        <ele>5.16925</ele>
        <time>2023-06-02T08:46:41.000Z</time>
      </trkpt>
      <trkpt lat="46.20565" lon="-1.43376">
        <ele>5.02657</ele>
        <time>2023-06-02T08:46:42.000Z</time>
      </trkpt>
      <trkpt lat="46.20567" lon="-1.43381">
        <ele>4.84033</ele>
        <time>2023-06-02T08:46:43.000Z</time>
      </trkpt>
      <trkpt lat="46.20569" lon="-1.43387">
        <ele>4.63536</ele>
        <time>2023-06-02T08:46:44.000Z</time>
      </trkpt>
      <trkpt lat="46.20571" lon="-1.43392">
        <ele>4.47717</ele>
        <time>2023-06-02T08:46:45.000Z</time>
      </trkpt>
      <trkpt lat="46.20572" lon="-1.43397">
        <ele>4.31313</ele>
        <time>2023-06-02T08:46:46.000Z</time>
      </trkpt>
      <trkpt lat="46.20574" lon="-1.43402">
        <ele>4.14735</ele>
        <time>2023-06-02T08:46:47.000Z</time>
      </trkpt>
      <trkpt lat="46.20576" lon="-1.43407">
        <ele>3.98133</ele>
        <time>2023-06-02T08:46:48.000Z</time>
      </trkpt>
      <trkpt lat="46.20578" lon="-1.43411">
        <ele>3.81557</ele>
        <time>2023-06-02T08:46:49.000Z</time>
      </trkpt>
      <trkpt lat="46.2058" lon="-1.43416">
        <ele>3.63833</ele>
        <time>2023-06-02T08:46:50.000Z</time>
      </trkpt>
      <trkpt lat="46.20582" lon="-1.43421">
        <ele>3.46865</ele>
        <time>2023-06-02T08:46:51.000Z</time>
      </trkpt>
      <trkpt lat="46.20583" lon="-1.43426">
        <ele>3.27006</ele>
        <time>2023-06-02T08:46:52.000Z</time>
      </trkpt>
      <trkpt lat="46.20585" lon="-1.43432">
        <ele>3.06975</ele>
        <time>2023-06-02T08:46:53.000Z</time>
      </trkpt>
      <trkpt lat="46.20587" lon="-1.43437">
        <ele>2.88608</ele>
        <time>2023-06-02T08:46:54.000Z</time>
      </trkpt>
      <trkpt lat="46.20589" lon="-1.43442">
        <ele>2.73387</ele>
        <time>2023-06-02T08:46:55.000Z</time>
      </trkpt>
      <trkpt lat="46.20591" lon="-1.43448">
        <ele>2.6817</ele>
        <time>2023-06-02T08:46:56.000Z</time>
      </trkpt>
      <trkpt lat="46.20593" lon="-1.43453">
        <ele>2.62674</ele>
        <time>2023-06-02T08:46:57.000Z</time>
      </trkpt>
      <trkpt lat="46.20594" lon="-1.43458">
        <ele>2.60906</ele>
        <time>2023-06-02T08:46:58.000Z</time>
      </trkpt>
      <trkpt lat="46.20596" lon="-1.43463">
        <ele>2.58155</ele>
        <time>2023-06-02T08:46:59.000Z</time>
      </trkpt>
      <trkpt lat="46.20598" lon="-1.43469">
        <ele>2.56217</ele>
        <time>2023-06-02T08:47:00.000Z</time>
      </trkpt>
      <trkpt lat="46.206" lon="-1.43473">
        <ele>2.56224</ele>
        <time>2023-06-02T08:47:01.000Z</time>
      </trkpt>
      <trkpt lat="46.20602" lon="-1.43478">
        <ele>2.63007</ele>
        <time>2023-06-02T08:47:02.000Z</time>
      </trkpt>
      <trkpt lat="46.20604" lon="-1.43484">
        <ele>2.685</ele>
        <time>2023-06-02T08:47:03.000Z</time>
      </trkpt>
      <trkpt lat="46.20606" lon="-1.43489">
        <ele>2.69531</ele>
        <time>2023-06-02T08:47:04.000Z</time>
      </trkpt>
      <trkpt lat="46.20607" lon="-1.43494">
        <ele>2.67289</ele>
        <time>2023-06-02T08:47:05.000Z</time>
      </trkpt>
      <trkpt lat="46.20609" lon="-1.43499">
        <ele>2.64485</ele>
        <time>2023-06-02T08:47:06.000Z</time>
      </trkpt>
      <trkpt lat="46.20611" lon="-1.43505">
        <ele>2.60871</ele>
        <time>2023-06-02T08:47:07.000Z</time>
      </trkpt>
      <trkpt lat="46.20613" lon="-1.4351">
        <ele>2.60072</ele>
        <time>2023-06-02T08:47:08.000Z</time>
      </trkpt>
      <trkpt lat="46.20615" lon="-1.43516">
        <ele>2.58261</ele>
        <time>2023-06-02T08:47:09.000Z</time>
      </trkpt>
      <trkpt lat="46.20616" lon="-1.43521">
        <ele>2.62869</ele>
        <time>2023-06-02T08:47:10.000Z</time>
      </trkpt>
      <trkpt lat="46.20618" lon="-1.43526">
        <ele>2.66269</ele>
        <time>2023-06-02T08:47:11.000Z</time>
      </trkpt>
      <trkpt lat="46.2062" lon="-1.43532">
        <ele>2.70537</ele>
        <time>2023-06-02T08:47:12.000Z</time>
      </trkpt>
      <trkpt lat="46.20622" lon="-1.43537">
        <ele>2.74246</ele>
        <time>2023-06-02T08:47:13.000Z</time>
      </trkpt>
      <trkpt lat="46.20624" lon="-1.43542">
        <ele>2.75431</ele>
        <time>2023-06-02T08:47:14.000Z</time>
      </trkpt>
      <trkpt lat="46.20626" lon="-1.43547">
        <ele>2.7695</ele>
        <time>2023-06-02T08:47:15.000Z</time>
      </trkpt>
      <trkpt lat="46.20628" lon="-1.43552">
        <ele>2.6715</ele>
        <time>2023-06-02T08:47:16.000Z</time>
      </trkpt>
      <trkpt lat="46.2063" lon="-1.43557">
        <ele>2.59715</ele>
        <time>2023-06-02T08:47:17.000Z</time>
      </trkpt>
      <trkpt lat="46.20632" lon="-1.43561">
        <ele>2.4966</ele>
        <time>2023-06-02T08:47:18.000Z</time>
      </trkpt>
      <trkpt lat="46.20634" lon="-1.43566">
        <ele>2.40678</ele>
        <time>2023-06-02T08:47:19.000Z</time>
      </trkpt>
      <trkpt lat="46.20636" lon="-1.43571">
        <ele>2.29525</ele>
        <time>2023-06-02T08:47:20.000Z</time>
      </trkpt>
      <trkpt lat="46.20638" lon="-1.43576">
        <ele>2.19663</ele>
        <time>2023-06-02T08:47:21.000Z</time>
      </trkpt>
      <trkpt lat="46.20641" lon="-1.43581">
        <ele>2.09154</ele>
        <time>2023-06-02T08:47:22.000Z</time>
      </trkpt>
      <trkpt lat="46.20643" lon="-1.43587">
        <ele>2.03308</ele>
        <time>2023-06-02T08:47:23.000Z</time>
      </trkpt>
      <trkpt lat="46.20646" lon="-1.43592">
        <ele>2.02218</ele>
        <time>2023-06-02T08:47:24.000Z</time>
      </trkpt>
      <trkpt lat="46.20649" lon="-1.43597">
        <ele>2.00404</ele>
        <time>2023-06-02T08:47:25.000Z</time>
      </trkpt>
      <trkpt lat="46.20651" lon="-1.43601">
        <ele>2.06107</ele>
        <time>2023-06-02T08:47:26.000Z</time>
      </trkpt>
      <trkpt lat="46.20654" lon="-1.43606">
        <ele>2.09589</ele>
        <time>2023-06-02T08:47:27.000Z</time>
      </trkpt>
      <trkpt lat="46.20656" lon="-1.43611">
        <ele>2.13865</ele>
        <time>2023-06-02T08:47:28.000Z</time>
      </trkpt>
      <trkpt lat="46.20658" lon="-1.43615">
        <ele>2.2055</ele>
        <time>2023-06-02T08:47:29.000Z</time>
      </trkpt>
      <trkpt lat="46.20661" lon="-1.4362">
        <ele>2.21809</ele>
        <time>2023-06-02T08:47:30.000Z</time>
      </trkpt>
      <trkpt lat="46.20664" lon="-1.43625">
        <ele>2.23267</ele>
        <time>2023-06-02T08:47:31.000Z</time>
      </trkpt>
      <trkpt lat="46.20666" lon="-1.4363">
        <ele>2.2688</ele>
        <time>2023-06-02T08:47:32.000Z</time>
      </trkpt>
      <trkpt lat="46.20668" lon="-1.43635">
        <ele>2.32323</ele>
        <time>2023-06-02T08:47:33.000Z</time>
      </trkpt>
      <trkpt lat="46.2067" lon="-1.43641">
        <ele>2.49578</ele>
        <time>2023-06-02T08:47:34.000Z</time>
      </trkpt>
      <trkpt lat="46.20672" lon="-1.43648">
        <ele>2.68945</ele>
        <time>2023-06-02T08:47:35.000Z</time>
      </trkpt>
      <trkpt lat="46.20673" lon="-1.43653">
        <ele>2.7087</ele>
        <time>2023-06-02T08:47:36.000Z</time>
      </trkpt>
      <trkpt lat="46.20676" lon="-1.43659">
        <ele>2.69882</ele>
        <time>2023-06-02T08:47:37.000Z</time>
      </trkpt>
      <trkpt lat="46.20678" lon="-1.43665">
        <ele>2.7783</ele>
        <time>2023-06-02T08:47:38.000Z</time>
      </trkpt>
      <trkpt lat="46.20679" lon="-1.43671">
        <ele>2.83761</ele>
        <time>2023-06-02T08:47:39.000Z</time>
      </trkpt>
      <trkpt lat="46.20682" lon="-1.43675">
        <ele>2.89563</ele>
        <time>2023-06-02T08:47:40.000Z</time>
      </trkpt>
      <trkpt lat="46.20684" lon="-1.4368">
        <ele>2.92646</ele>
        <time>2023-06-02T08:47:41.000Z</time>
      </trkpt>
      <trkpt lat="46.20685" lon="-1.43685">
        <ele>2.98867</ele>
        <time>2023-06-02T08:47:42.000Z</time>
      </trkpt>
      <trkpt lat="46.20687" lon="-1.43691">
        <ele>3.0383</ele>
        <time>2023-06-02T08:47:43.000Z</time>
      </trkpt>
      <trkpt lat="46.20689" lon="-1.43696">
        <ele>3.09656</ele>
        <time>2023-06-02T08:47:44.000Z</time>
      </trkpt>
      <trkpt lat="46.20692" lon="-1.43701">
        <ele>3.14655</ele>
        <time>2023-06-02T08:47:45.000Z</time>
      </trkpt>
      <trkpt lat="46.20693" lon="-1.43706">
        <ele>3.17097</ele>
        <time>2023-06-02T08:47:46.000Z</time>
      </trkpt>
      <trkpt lat="46.20696" lon="-1.43712">
        <ele>3.21424</ele>
        <time>2023-06-02T08:47:47.000Z</time>
      </trkpt>
      <trkpt lat="46.20699" lon="-1.43716">
        <ele>3.23358</ele>
        <time>2023-06-02T08:47:48.000Z</time>
      </trkpt>
      <trkpt lat="46.20701" lon="-1.43722">
        <ele>3.26764</ele>
        <time>2023-06-02T08:47:49.000Z</time>
      </trkpt>
      <trkpt lat="46.20703" lon="-1.43727">
        <ele>3.26888</ele>
        <time>2023-06-02T08:47:50.000Z</time>
      </trkpt>
      <trkpt lat="46.20705" lon="-1.43733">
        <ele>3.31891</ele>
        <time>2023-06-02T08:47:51.000Z</time>
      </trkpt>
      <trkpt lat="46.20708" lon="-1.43738">
        <ele>3.35941</ele>
        <time>2023-06-02T08:47:52.000Z</time>
      </trkpt>
      <trkpt lat="46.2071" lon="-1.43743">
        <ele>3.3816</ele>
        <time>2023-06-02T08:47:53.000Z</time>
      </trkpt>
      <trkpt lat="46.20713" lon="-1.43748">
        <ele>3.28296</ele>
        <time>2023-06-02T08:47:54.000Z</time>
      </trkpt>
      <trkpt lat="46.20715" lon="-1.43752">
        <ele>3.15903</ele>
        <time>2023-06-02T08:47:55.000Z</time>
      </trkpt>
      <trkpt lat="46.20717" lon="-1.43756">
        <ele>3.22926</ele>
        <time>2023-06-02T08:47:56.000Z</time>
      </trkpt>
      <trkpt lat="46.2072" lon="-1.43762">
        <ele>3.25981</ele>
        <time>2023-06-02T08:47:57.000Z</time>
      </trkpt>
      <trkpt lat="46.20722" lon="-1.43768">
        <ele>3.24858</ele>
        <time>2023-06-02T08:47:58.000Z</time>
      </trkpt>
      <trkpt lat="46.20724" lon="-1.43772">
        <ele>3.23162</ele>
        <time>2023-06-02T08:47:59.000Z</time>
      </trkpt>
      <trkpt lat="46.20726" lon="-1.43778">
        <ele>3.24473</ele>
        <time>2023-06-02T08:48:00.000Z</time>
      </trkpt>
      <trkpt lat="46.20729" lon="-1.43784">
        <ele>3.26357</ele>
        <time>2023-06-02T08:48:01.000Z</time>
      </trkpt>
      <trkpt lat="46.20731" lon="-1.43788">
        <ele>3.26003</ele>
        <time>2023-06-02T08:48:02.000Z</time>
      </trkpt>
      <trkpt lat="46.20734" lon="-1.43794">
        <ele>3.22629</ele>
        <time>2023-06-02T08:48:03.000Z</time>
      </trkpt>
      <trkpt lat="46.20736" lon="-1.43799">
        <ele>3.19622</ele>
        <time>2023-06-02T08:48:04.000Z</time>
      </trkpt>
      <trkpt lat="46.20738" lon="-1.43804">
        <ele>3.24406</ele>
        <time>2023-06-02T08:48:05.000Z</time>
      </trkpt>
      <trkpt lat="46.2074" lon="-1.43809">
        <ele>3.25036</ele>
        <time>2023-06-02T08:48:06.000Z</time>
      </trkpt>
      <trkpt lat="46.20742" lon="-1.43815">
        <ele>3.25372</ele>
        <time>2023-06-02T08:48:07.000Z</time>
      </trkpt>
      <trkpt lat="46.20745" lon="-1.4382">
        <ele>3.26243</ele>
        <time>2023-06-02T08:48:08.000Z</time>
      </trkpt>
      <trkpt lat="46.20747" lon="-1.43826">
        <ele>3.18881</ele>
        <time>2023-06-02T08:48:09.000Z</time>
      </trkpt>
      <trkpt lat="46.20749" lon="-1.4383">
        <ele>3.23906</ele>
        <time>2023-06-02T08:48:10.000Z</time>
      </trkpt>
      <trkpt lat="46.20751" lon="-1.43836">
        <ele>3.28295</ele>
        <time>2023-06-02T08:48:11.000Z</time>
      </trkpt>
      <trkpt lat="46.20754" lon="-1.43841">
        <ele>3.35575</ele>
        <time>2023-06-02T08:48:12.000Z</time>
      </trkpt>
      <trkpt lat="46.20756" lon="-1.43846">
        <ele>3.44887</ele>
        <time>2023-06-02T08:48:13.000Z</time>
      </trkpt>
      <trkpt lat="46.20758" lon="-1.43852">
        <ele>3.54383</ele>
        <time>2023-06-02T08:48:14.000Z</time>
      </trkpt>
      <trkpt lat="46.20761" lon="-1.43858">
        <ele>3.63798</ele>
        <time>2023-06-02T08:48:15.000Z</time>
      </trkpt>
      <trkpt lat="46.20763" lon="-1.43864">
        <ele>3.73995</ele>
        <time>2023-06-02T08:48:16.000Z</time>
      </trkpt>
      <trkpt lat="46.20766" lon="-1.43869">
        <ele>3.92233</ele>
        <time>2023-06-02T08:48:17.000Z</time>
      </trkpt>
      <trkpt lat="46.20768" lon="-1.43874">
        <ele>4.02819</ele>
        <time>2023-06-02T08:48:18.000Z</time>
      </trkpt>
      <trkpt lat="46.2077" lon="-1.4388">
        <ele>4.15675</ele>
        <time>2023-06-02T08:48:19.000Z</time>
      </trkpt>
      <trkpt lat="46.20773" lon="-1.43885">
        <ele>4.26529</ele>
        <time>2023-06-02T08:48:20.000Z</time>
      </trkpt>
      <trkpt lat="46.20775" lon="-1.4389">
        <ele>4.36943</ele>
        <time>2023-06-02T08:48:21.000Z</time>
      </trkpt>
      <trkpt lat="46.20777" lon="-1.43896">
        <ele>4.45424</ele>
        <time>2023-06-02T08:48:22.000Z</time>
      </trkpt>
      <trkpt lat="46.20779" lon="-1.439">
        <ele>4.57525</ele>
        <time>2023-06-02T08:48:23.000Z</time>
      </trkpt>
      <trkpt lat="46.20781" lon="-1.43906">
        <ele>4.66855</ele>
        <time>2023-06-02T08:48:24.000Z</time>
      </trkpt>
      <trkpt lat="46.20784" lon="-1.43911">
        <ele>4.6661</ele>
        <time>2023-06-02T08:48:25.000Z</time>
      </trkpt>
      <trkpt lat="46.20786" lon="-1.43917">
        <ele>4.66472</ele>
        <time>2023-06-02T08:48:26.000Z</time>
      </trkpt>
      <trkpt lat="46.20788" lon="-1.43923">
        <ele>4.67033</ele>
        <time>2023-06-02T08:48:27.000Z</time>
      </trkpt>
      <trkpt lat="46.20791" lon="-1.43927">
        <ele>4.65802</ele>
        <time>2023-06-02T08:48:28.000Z</time>
      </trkpt>
      <trkpt lat="46.20792" lon="-1.43931">
        <ele>4.71</ele>
        <time>2023-06-02T08:48:29.000Z</time>
      </trkpt>
      <trkpt lat="46.20795" lon="-1.43937">
        <ele>4.65375</ele>
        <time>2023-06-02T08:48:30.000Z</time>
      </trkpt>
      <trkpt lat="46.20797" lon="-1.43942">
        <ele>4.55414</ele>
        <time>2023-06-02T08:48:31.000Z</time>
      </trkpt>
      <trkpt lat="46.20799" lon="-1.43947">
        <ele>4.41736</ele>
        <time>2023-06-02T08:48:32.000Z</time>
      </trkpt>
      <trkpt lat="46.20801" lon="-1.43953">
        <ele>4.27297</ele>
        <time>2023-06-02T08:48:33.000Z</time>
      </trkpt>
      <trkpt lat="46.20804" lon="-1.43958">
        <ele>4.12413</ele>
        <time>2023-06-02T08:48:34.000Z</time>
      </trkpt>
      <trkpt lat="46.20806" lon="-1.43964">
        <ele>4.0005</ele>
        <time>2023-06-02T08:48:35.000Z</time>
      </trkpt>
      <trkpt lat="46.20808" lon="-1.43969">
        <ele>3.89234</ele>
        <time>2023-06-02T08:48:36.000Z</time>
      </trkpt>
      <trkpt lat="46.20811" lon="-1.43974">
        <ele>3.75219</ele>
        <time>2023-06-02T08:48:37.000Z</time>
      </trkpt>
      <trkpt lat="46.20813" lon="-1.4398">
        <ele>3.64542</ele>
        <time>2023-06-02T08:48:38.000Z</time>
      </trkpt>
      <trkpt lat="46.20816" lon="-1.43985">
        <ele>3.53576</ele>
        <time>2023-06-02T08:48:39.000Z</time>
      </trkpt>
      <trkpt lat="46.20818" lon="-1.43991">
        <ele>3.38252</ele>
        <time>2023-06-02T08:48:40.000Z</time>
      </trkpt>
      <trkpt lat="46.2082" lon="-1.43996">
        <ele>3.22134</ele>
        <time>2023-06-02T08:48:41.000Z</time>
      </trkpt>
      <trkpt lat="46.20823" lon="-1.44002">
        <ele>3.06612</ele>
        <time>2023-06-02T08:48:42.000Z</time>
      </trkpt>
      <trkpt lat="46.20825" lon="-1.44007">
        <ele>2.91309</ele>
        <time>2023-06-02T08:48:43.000Z</time>
      </trkpt>
      <trkpt lat="46.20827" lon="-1.44012">
        <ele>2.84643</ele>
        <time>2023-06-02T08:48:44.000Z</time>
      </trkpt>
      <trkpt lat="46.20829" lon="-1.44018">
        <ele>2.79298</ele>
        <time>2023-06-02T08:48:45.000Z</time>
      </trkpt>
      <trkpt lat="46.2083" lon="-1.44023">
        <ele>2.74084</ele>
        <time>2023-06-02T08:48:46.000Z</time>
      </trkpt>
      <trkpt lat="46.20833" lon="-1.44028">
        <ele>2.65302</ele>
        <time>2023-06-02T08:48:47.000Z</time>
      </trkpt>
      <trkpt lat="46.20835" lon="-1.44032">
        <ele>2.59006</ele>
        <time>2023-06-02T08:48:48.000Z</time>
      </trkpt>
      <trkpt lat="46.20836" lon="-1.44037">
        <ele>2.50312</ele>
        <time>2023-06-02T08:48:49.000Z</time>
      </trkpt>
      <trkpt lat="46.20838" lon="-1.44042">
        <ele>2.45743</ele>
        <time>2023-06-02T08:48:50.000Z</time>
      </trkpt>
      <trkpt lat="46.20839" lon="-1.44047">
        <ele>2.43427</ele>
        <time>2023-06-02T08:48:51.000Z</time>
      </trkpt>
      <trkpt lat="46.20841" lon="-1.44052">
        <ele>2.42645</ele>
        <time>2023-06-02T08:48:52.000Z</time>
      </trkpt>
      <trkpt lat="46.20843" lon="-1.44056">
        <ele>2.4021</ele>
        <time>2023-06-02T08:48:53.000Z</time>
      </trkpt>
      <trkpt lat="46.20844" lon="-1.44061">
        <ele>2.38826</ele>
        <time>2023-06-02T08:48:54.000Z</time>
      </trkpt>
      <trkpt lat="46.20846" lon="-1.44067">
        <ele>2.33645</ele>
        <time>2023-06-02T08:48:55.000Z</time>
      </trkpt>
      <trkpt lat="46.20847" lon="-1.44072">
        <ele>2.27098</ele>
        <time>2023-06-02T08:48:56.000Z</time>
      </trkpt>
      <trkpt lat="46.20849" lon="-1.44078">
        <ele>2.23938</ele>
        <time>2023-06-02T08:48:57.000Z</time>
      </trkpt>
      <trkpt lat="46.20851" lon="-1.44082">
        <ele>2.20452</ele>
        <time>2023-06-02T08:48:58.000Z</time>
      </trkpt>
      <trkpt lat="46.20853" lon="-1.44086">
        <ele>2.14695</ele>
        <time>2023-06-02T08:48:59.000Z</time>
      </trkpt>
      <trkpt lat="46.20855" lon="-1.44088">
        <ele>2.11968</ele>
        <time>2023-06-02T08:49:00.000Z</time>
      </trkpt>
      <trkpt lat="46.20858" lon="-1.44089">
        <ele>2.09515</ele>
        <time>2023-06-02T08:49:01.000Z</time>
      </trkpt>
      <trkpt lat="46.20862" lon="-1.44088">
        <ele>2.07676</ele>
        <time>2023-06-02T08:49:02.000Z</time>
      </trkpt>
      <trkpt lat="46.20865" lon="-1.44086">
        <ele>2.03301</ele>
        <time>2023-06-02T08:49:03.000Z</time>
      </trkpt>
      <trkpt lat="46.20868" lon="-1.44085">
        <ele>1.94301</ele>
        <time>2023-06-02T08:49:04.000Z</time>
      </trkpt>
      <trkpt lat="46.20871" lon="-1.44084">
        <ele>1.86075</ele>
        <time>2023-06-02T08:49:05.000Z</time>
      </trkpt>
      <trkpt lat="46.20874" lon="-1.44084">
        <ele>1.79017</ele>
        <time>2023-06-02T08:49:06.000Z</time>
      </trkpt>
      <trkpt lat="46.20878" lon="-1.44083">
        <ele>1.73471</ele>
        <time>2023-06-02T08:49:07.000Z</time>
      </trkpt>
      <trkpt lat="46.20881" lon="-1.44083">
        <ele>1.6834</ele>
        <time>2023-06-02T08:49:08.000Z</time>
      </trkpt>
      <trkpt lat="46.20885" lon="-1.44083">
        <ele>1.66088</ele>
        <time>2023-06-02T08:49:09.000Z</time>
      </trkpt>
      <trkpt lat="46.20888" lon="-1.44085">
        <ele>1.66273</ele>
        <time>2023-06-02T08:49:10.000Z</time>
      </trkpt>
      <trkpt lat="46.20891" lon="-1.44087">
        <ele>1.65652</ele>
        <time>2023-06-02T08:49:11.000Z</time>
      </trkpt>
      <trkpt lat="46.20894" lon="-1.44091">
        <ele>1.63522</ele>
        <time>2023-06-02T08:49:12.000Z</time>
      </trkpt>
      <trkpt lat="46.20897" lon="-1.44095">
        <ele>1.62405</ele>
        <time>2023-06-02T08:49:13.000Z</time>
      </trkpt>
      <trkpt lat="46.20898" lon="-1.441">
        <ele>1.6502</ele>
        <time>2023-06-02T08:49:14.000Z</time>
      </trkpt>
      <trkpt lat="46.20899" lon="-1.44104">
        <ele>1.70974</ele>
        <time>2023-06-02T08:49:15.000Z</time>
      </trkpt>
      <trkpt lat="46.20901" lon="-1.44109">
        <ele>1.75828</ele>
        <time>2023-06-02T08:49:16.000Z</time>
      </trkpt>
      <trkpt lat="46.20904" lon="-1.44113">
        <ele>1.77302</ele>
        <time>2023-06-02T08:49:17.000Z</time>
      </trkpt>
      <trkpt lat="46.20908" lon="-1.44116">
        <ele>1.8073</ele>
        <time>2023-06-02T08:49:18.000Z</time>
      </trkpt>
      <trkpt lat="46.20912" lon="-1.44117">
        <ele>1.85324</ele>
        <time>2023-06-02T08:49:19.000Z</time>
      </trkpt>
      <trkpt lat="46.20916" lon="-1.44116">
        <ele>1.91763</ele>
        <time>2023-06-02T08:49:20.000Z</time>
      </trkpt>
      <trkpt lat="46.20919" lon="-1.44112">
        <ele>1.99345</ele>
        <time>2023-06-02T08:49:21.000Z</time>
      </trkpt>
      <trkpt lat="46.20921" lon="-1.44107">
        <ele>2.08769</ele>
        <time>2023-06-02T08:49:22.000Z</time>
      </trkpt>
      <trkpt lat="46.20923" lon="-1.44101">
        <ele>2.19467</ele>
        <time>2023-06-02T08:49:23.000Z</time>
      </trkpt>
      <trkpt lat="46.20925" lon="-1.44097">
        <ele>2.29017</ele>
        <time>2023-06-02T08:49:24.000Z</time>
      </trkpt>
      <trkpt lat="46.20927" lon="-1.44092">
        <ele>2.3821</ele>
        <time>2023-06-02T08:49:25.000Z</time>
      </trkpt>
      <trkpt lat="46.20928" lon="-1.44087">
        <ele>2.48506</ele>
        <time>2023-06-02T08:49:26.000Z</time>
      </trkpt>
      <trkpt lat="46.2093" lon="-1.44082">
        <ele>2.60666</ele>
        <time>2023-06-02T08:49:27.000Z</time>
      </trkpt>
      <trkpt lat="46.20932" lon="-1.44078">
        <ele>2.70246</ele>
        <time>2023-06-02T08:49:28.000Z</time>
      </trkpt>
      <trkpt lat="46.20934" lon="-1.44074">
        <ele>2.81047</ele>
        <time>2023-06-02T08:49:29.000Z</time>
      </trkpt>
      <trkpt lat="46.20936" lon="-1.4407">
        <ele>2.87221</ele>
        <time>2023-06-02T08:49:30.000Z</time>
      </trkpt>
      <trkpt lat="46.20938" lon="-1.44065">
        <ele>2.95188</ele>
        <time>2023-06-02T08:49:31.000Z</time>
      </trkpt>
      <trkpt lat="46.2094" lon="-1.44061">
        <ele>3.01807</ele>
        <time>2023-06-02T08:49:32.000Z</time>
      </trkpt>
      <trkpt lat="46.20942" lon="-1.44057">
        <ele>3.10596</ele>
        <time>2023-06-02T08:49:33.000Z</time>
      </trkpt>
      <trkpt lat="46.20944" lon="-1.44052">
        <ele>3.15775</ele>
        <time>2023-06-02T08:49:34.000Z</time>
      </trkpt>
      <trkpt lat="46.20946" lon="-1.44048">
        <ele>3.20592</ele>
        <time>2023-06-02T08:49:35.000Z</time>
      </trkpt>
      <trkpt lat="46.20948" lon="-1.44043">
        <ele>3.24209</ele>
        <time>2023-06-02T08:49:36.000Z</time>
      </trkpt>
      <trkpt lat="46.20949" lon="-1.44038">
        <ele>3.28597</ele>
        <time>2023-06-02T08:49:37.000Z</time>
      </trkpt>
      <trkpt lat="46.20951" lon="-1.44033">
        <ele>3.304</ele>
        <time>2023-06-02T08:49:38.000Z</time>
      </trkpt>
      <trkpt lat="46.20952" lon="-1.44028">
        <ele>3.34091</ele>
        <time>2023-06-02T08:49:39.000Z</time>
      </trkpt>
      <trkpt lat="46.20951" lon="-1.44023">
        <ele>3.38481</ele>
        <time>2023-06-02T08:49:40.000Z</time>
      </trkpt>
      <trkpt lat="46.2095" lon="-1.44018">
        <ele>3.44034</ele>
        <time>2023-06-02T08:49:41.000Z</time>
      </trkpt>
      <trkpt lat="46.20949" lon="-1.44013">
        <ele>3.4342</ele>
        <time>2023-06-02T08:49:42.000Z</time>
      </trkpt>
      <trkpt lat="46.20946" lon="-1.44009">
        <ele>3.41016</ele>
        <time>2023-06-02T08:49:43.000Z</time>
      </trkpt>
      <trkpt lat="46.20944" lon="-1.44005">
        <ele>3.38171</ele>
        <time>2023-06-02T08:49:44.000Z</time>
      </trkpt>
      <trkpt lat="46.20943" lon="-1.44">
        <ele>3.33479</ele>
        <time>2023-06-02T08:49:45.000Z</time>
      </trkpt>
      <trkpt lat="46.20941" lon="-1.43995">
        <ele>3.36926</ele>
        <time>2023-06-02T08:49:46.000Z</time>
      </trkpt>
      <trkpt lat="46.20941" lon="-1.4399">
        <ele>3.40058</ele>
        <time>2023-06-02T08:49:47.000Z</time>
      </trkpt>
      <trkpt lat="46.20942" lon="-1.43985">
        <ele>3.45067</ele>
        <time>2023-06-02T08:49:48.000Z</time>
      </trkpt>
      <trkpt lat="46.20944" lon="-1.4398">
        <ele>3.4813</ele>
        <time>2023-06-02T08:49:49.000Z</time>
      </trkpt>
      <trkpt lat="46.20947" lon="-1.43977">
        <ele>3.50637</ele>
        <time>2023-06-02T08:49:50.000Z</time>
      </trkpt>
      <trkpt lat="46.2095" lon="-1.43973">
        <ele>3.5124</ele>
        <time>2023-06-02T08:49:51.000Z</time>
      </trkpt>
      <trkpt lat="46.20953" lon="-1.4397">
        <ele>3.55077</ele>
        <time>2023-06-02T08:49:52.000Z</time>
      </trkpt>
      <trkpt lat="46.20956" lon="-1.43967">
        <ele>3.56707</ele>
        <time>2023-06-02T08:49:53.000Z</time>
      </trkpt>
      <trkpt lat="46.20959" lon="-1.43964">
        <ele>3.61034</ele>
        <time>2023-06-02T08:49:54.000Z</time>
      </trkpt>
      <trkpt lat="46.20963" lon="-1.43961">
        <ele>3.6371</ele>
        <time>2023-06-02T08:49:55.000Z</time>
      </trkpt>
      <trkpt lat="46.20966" lon="-1.43958">
        <ele>3.67255</ele>
        <time>2023-06-02T08:49:56.000Z</time>
      </trkpt>
      <trkpt lat="46.20969" lon="-1.43956">
        <ele>3.73478</ele>
        <time>2023-06-02T08:49:57.000Z</time>
      </trkpt>
      <trkpt lat="46.20973" lon="-1.43953">
        <ele>3.80947</ele>
        <time>2023-06-02T08:49:58.000Z</time>
      </trkpt>
      <trkpt lat="46.20976" lon="-1.43951">
        <ele>3.8886</ele>
        <time>2023-06-02T08:49:59.000Z</time>
      </trkpt>
      <trkpt lat="46.2098" lon="-1.43949">
        <ele>3.94505</ele>
        <time>2023-06-02T08:50:00.000Z</time>
      </trkpt>
      <trkpt lat="46.20984" lon="-1.43946">
        <ele>3.98487</ele>
        <time>2023-06-02T08:50:01.000Z</time>
      </trkpt>
      <trkpt lat="46.20987" lon="-1.43943">
        <ele>4.05918</ele>
        <time>2023-06-02T08:50:02.000Z</time>
      </trkpt>
      <trkpt lat="46.2099" lon="-1.43941">
        <ele>4.16646</ele>
        <time>2023-06-02T08:50:03.000Z</time>
      </trkpt>
      <trkpt lat="46.20994" lon="-1.43939">
        <ele>4.27509</ele>
        <time>2023-06-02T08:50:04.000Z</time>
      </trkpt>
      <trkpt lat="46.20997" lon="-1.43937">
        <ele>4.38985</ele>
        <time>2023-06-02T08:50:05.000Z</time>
      </trkpt>
      <trkpt lat="46.21" lon="-1.43936">
        <ele>4.39083</ele>
        <time>2023-06-02T08:50:06.000Z</time>
      </trkpt>
      <trkpt lat="46.21003" lon="-1.43935">
        <ele>4.4035</ele>
        <time>2023-06-02T08:50:07.000Z</time>
      </trkpt>
      <trkpt lat="46.21006" lon="-1.43934">
        <ele>4.405</ele>
        <time>2023-06-02T08:50:08.000Z</time>
      </trkpt>
      <trkpt lat="46.21009" lon="-1.43934">
        <ele>4.40016</ele>
        <time>2023-06-02T08:50:09.000Z</time>
      </trkpt>
      <trkpt lat="46.21012" lon="-1.43935">
        <ele>4.40897</ele>
        <time>2023-06-02T08:50:10.000Z</time>
      </trkpt>
      <trkpt lat="46.21015" lon="-1.43936">
        <ele>4.3623</ele>
        <time>2023-06-02T08:50:11.000Z</time>
      </trkpt>
      <trkpt lat="46.21018" lon="-1.43938">
        <ele>4.3029</ele>
        <time>2023-06-02T08:50:12.000Z</time>
      </trkpt>
      <trkpt lat="46.21022" lon="-1.43942">
        <ele>4.20751</ele>
        <time>2023-06-02T08:50:13.000Z</time>
      </trkpt>
      <trkpt lat="46.21026" lon="-1.43943">
        <ele>4.10159</ele>
        <time>2023-06-02T08:50:14.000Z</time>
      </trkpt>
      <trkpt lat="46.21031" lon="-1.43945">
        <ele>3.98775</ele>
        <time>2023-06-02T08:50:15.000Z</time>
      </trkpt>
      <trkpt lat="46.21036" lon="-1.43946">
        <ele>3.921</ele>
        <time>2023-06-02T08:50:16.000Z</time>
      </trkpt>
      <trkpt lat="46.2104" lon="-1.43948">
        <ele>3.8451</ele>
        <time>2023-06-02T08:50:17.000Z</time>
      </trkpt>
      <trkpt lat="46.21045" lon="-1.4395">
        <ele>3.76604</ele>
        <time>2023-06-02T08:50:18.000Z</time>
      </trkpt>
      <trkpt lat="46.21049" lon="-1.43951">
        <ele>3.66646</ele>
        <time>2023-06-02T08:50:19.000Z</time>
      </trkpt>
      <trkpt lat="46.21054" lon="-1.43951">
        <ele>3.5734</ele>
        <time>2023-06-02T08:50:20.000Z</time>
      </trkpt>
      <trkpt lat="46.21058" lon="-1.43952">
        <ele>3.48307</ele>
        <time>2023-06-02T08:50:21.000Z</time>
      </trkpt>
      <trkpt lat="46.21063" lon="-1.43954">
        <ele>3.41735</ele>
        <time>2023-06-02T08:50:22.000Z</time>
      </trkpt>
      <trkpt lat="46.21067" lon="-1.43954">
        <ele>3.36769</ele>
        <time>2023-06-02T08:50:23.000Z</time>
      </trkpt>
      <trkpt lat="46.2107" lon="-1.43955">
        <ele>3.31878</ele>
        <time>2023-06-02T08:50:24.000Z</time>
      </trkpt>
      <trkpt lat="46.21075" lon="-1.43956">
        <ele>3.27709</ele>
        <time>2023-06-02T08:50:25.000Z</time>
      </trkpt>
      <trkpt lat="46.21079" lon="-1.43957">
        <ele>3.24964</ele>
        <time>2023-06-02T08:50:26.000Z</time>
      </trkpt>
      <trkpt lat="46.21084" lon="-1.43957">
        <ele>3.20442</ele>
        <time>2023-06-02T08:50:27.000Z</time>
      </trkpt>
      <trkpt lat="46.21089" lon="-1.43958">
        <ele>3.13702</ele>
        <time>2023-06-02T08:50:28.000Z</time>
      </trkpt>
      <trkpt lat="46.21093" lon="-1.43958">
        <ele>3.0449</ele>
        <time>2023-06-02T08:50:29.000Z</time>
      </trkpt>
      <trkpt lat="46.21097" lon="-1.43957">
        <ele>2.96623</ele>
        <time>2023-06-02T08:50:30.000Z</time>
      </trkpt>
      <trkpt lat="46.21101" lon="-1.43956">
        <ele>2.92894</ele>
        <time>2023-06-02T08:50:31.000Z</time>
      </trkpt>
      <trkpt lat="46.21104" lon="-1.43954">
        <ele>2.91553</ele>
        <time>2023-06-02T08:50:32.000Z</time>
      </trkpt>
      <trkpt lat="46.21106" lon="-1.43953">
        <ele>2.96078</ele>
        <time>2023-06-02T08:50:33.000Z</time>
      </trkpt>
      <trkpt lat="46.21109" lon="-1.43951">
        <ele>3.01739</ele>
        <time>2023-06-02T08:50:34.000Z</time>
      </trkpt>
      <trkpt lat="46.21111" lon="-1.43949">
        <ele>3.02892</ele>
        <time>2023-06-02T08:50:35.000Z</time>
      </trkpt>
      <trkpt lat="46.21113" lon="-1.43946">
        <ele>2.99542</ele>
        <time>2023-06-02T08:50:36.000Z</time>
      </trkpt>
      <trkpt lat="46.21115" lon="-1.43944">
        <ele>2.95833</ele>
        <time>2023-06-02T08:50:37.000Z</time>
      </trkpt>
      <trkpt lat="46.21117" lon="-1.43942">
        <ele>2.92394</ele>
        <time>2023-06-02T08:50:38.000Z</time>
      </trkpt>
      <trkpt lat="46.21118" lon="-1.43939">
        <ele>2.98449</ele>
        <time>2023-06-02T08:50:39.000Z</time>
      </trkpt>
      <trkpt lat="46.2112" lon="-1.43936">
        <ele>3.06077</ele>
        <time>2023-06-02T08:50:40.000Z</time>
      </trkpt>
      <trkpt lat="46.21122" lon="-1.43934">
        <ele>3.14813</ele>
        <time>2023-06-02T08:50:41.000Z</time>
      </trkpt>
      <trkpt lat="46.21125" lon="-1.43932">
        <ele>3.21777</ele>
        <time>2023-06-02T08:50:42.000Z</time>
      </trkpt>
      <trkpt lat="46.21127" lon="-1.43929">
        <ele>3.25935</ele>
        <time>2023-06-02T08:50:43.000Z</time>
      </trkpt>
      <trkpt lat="46.21129" lon="-1.43927">
        <ele>3.29034</ele>
        <time>2023-06-02T08:50:44.000Z</time>
      </trkpt>
      <trkpt lat="46.21132" lon="-1.43924">
        <ele>3.30074</ele>
        <time>2023-06-02T08:50:45.000Z</time>
      </trkpt>
      <trkpt lat="46.21134" lon="-1.43922">
        <ele>3.32557</ele>
        <time>2023-06-02T08:50:46.000Z</time>
      </trkpt>
      <trkpt lat="46.21136" lon="-1.43919">
        <ele>3.37161</ele>
        <time>2023-06-02T08:50:47.000Z</time>
      </trkpt>
      <trkpt lat="46.21139" lon="-1.43916">
        <ele>3.44277</ele>
        <time>2023-06-02T08:50:48.000Z</time>
      </trkpt>
      <trkpt lat="46.21141" lon="-1.43913">
        <ele>3.55384</ele>
        <time>2023-06-02T08:50:49.000Z</time>
      </trkpt>
      <trkpt lat="46.21144" lon="-1.43911">
        <ele>3.65031</ele>
        <time>2023-06-02T08:50:50.000Z</time>
      </trkpt>
      <trkpt lat="46.21146" lon="-1.43908">
        <ele>3.77623</ele>
        <time>2023-06-02T08:50:51.000Z</time>
      </trkpt>
      <trkpt lat="46.21149" lon="-1.43905">
        <ele>3.90493</ele>
        <time>2023-06-02T08:50:52.000Z</time>
      </trkpt>
      <trkpt lat="46.21152" lon="-1.43902">
        <ele>4.01123</ele>
        <time>2023-06-02T08:50:53.000Z</time>
      </trkpt>
      <trkpt lat="46.21154" lon="-1.43899">
        <ele>4.10559</ele>
        <time>2023-06-02T08:50:54.000Z</time>
      </trkpt>
      <trkpt lat="46.21157" lon="-1.43896">
        <ele>4.25617</ele>
        <time>2023-06-02T08:50:55.000Z</time>
      </trkpt>
      <trkpt lat="46.21159" lon="-1.43893">
        <ele>4.4098</ele>
        <time>2023-06-02T08:50:56.000Z</time>
      </trkpt>
      <trkpt lat="46.21162" lon="-1.4389">
        <ele>4.55738</ele>
        <time>2023-06-02T08:50:57.000Z</time>
      </trkpt>
      <trkpt lat="46.21165" lon="-1.43887">
        <ele>4.70795</ele>
        <time>2023-06-02T08:50:58.000Z</time>
      </trkpt>
      <trkpt lat="46.21167" lon="-1.43884">
        <ele>4.77065</ele>
        <time>2023-06-02T08:50:59.000Z</time>
      </trkpt>
      <trkpt lat="46.21169" lon="-1.43881">
        <ele>4.82224</ele>
        <time>2023-06-02T08:51:00.000Z</time>
      </trkpt>
      <trkpt lat="46.21172" lon="-1.43878">
        <ele>4.89634</ele>
        <time>2023-06-02T08:51:01.000Z</time>
      </trkpt>
      <trkpt lat="46.21174" lon="-1.43874">
        <ele>4.95847</ele>
        <time>2023-06-02T08:51:02.000Z</time>
      </trkpt>
      <trkpt lat="46.21177" lon="-1.43871">
        <ele>5.00047</ele>
        <time>2023-06-02T08:51:03.000Z</time>
      </trkpt>
      <trkpt lat="46.21179" lon="-1.43868">
        <ele>5.03387</ele>
        <time>2023-06-02T08:51:04.000Z</time>
      </trkpt>
      <trkpt lat="46.21182" lon="-1.43864">
        <ele>5.09379</ele>
        <time>2023-06-02T08:51:05.000Z</time>
      </trkpt>
      <trkpt lat="46.21184" lon="-1.43861">
        <ele>5.13237</ele>
        <time>2023-06-02T08:51:06.000Z</time>
      </trkpt>
      <trkpt lat="46.21187" lon="-1.43858">
        <ele>5.15716</ele>
        <time>2023-06-02T08:51:07.000Z</time>
      </trkpt>
      <trkpt lat="46.21189" lon="-1.43855">
        <ele>5.19598</ele>
        <time>2023-06-02T08:51:08.000Z</time>
      </trkpt>
      <trkpt lat="46.21192" lon="-1.43851">
        <ele>5.2266</ele>
        <time>2023-06-02T08:51:09.000Z</time>
      </trkpt>
      <trkpt lat="46.21194" lon="-1.43848">
        <ele>5.17161</ele>
        <time>2023-06-02T08:51:10.000Z</time>
      </trkpt>
      <trkpt lat="46.21197" lon="-1.43845">
        <ele>5.10441</ele>
        <time>2023-06-02T08:51:11.000Z</time>
      </trkpt>
      <trkpt lat="46.21199" lon="-1.43842">
        <ele>5.01882</ele>
        <time>2023-06-02T08:51:12.000Z</time>
      </trkpt>
      <trkpt lat="46.21202" lon="-1.43839">
        <ele>4.95614</ele>
        <time>2023-06-02T08:51:13.000Z</time>
      </trkpt>
      <trkpt lat="46.21205" lon="-1.43836">
        <ele>4.88144</ele>
        <time>2023-06-02T08:51:14.000Z</time>
      </trkpt>
      <trkpt lat="46.21208" lon="-1.43833">
        <ele>4.81489</ele>
        <time>2023-06-02T08:51:15.000Z</time>
      </trkpt>
      <trkpt lat="46.2121" lon="-1.4383">
        <ele>4.72468</ele>
        <time>2023-06-02T08:51:16.000Z</time>
      </trkpt>
      <trkpt lat="46.21213" lon="-1.43827">
        <ele>4.71598</ele>
        <time>2023-06-02T08:51:17.000Z</time>
      </trkpt>
      <trkpt lat="46.21216" lon="-1.43823">
        <ele>4.67215</ele>
        <time>2023-06-02T08:51:18.000Z</time>
      </trkpt>
      <trkpt lat="46.21219" lon="-1.4382">
        <ele>4.61453</ele>
        <time>2023-06-02T08:51:19.000Z</time>
      </trkpt>
      <trkpt lat="46.21221" lon="-1.43817">
        <ele>4.54371</ele>
        <time>2023-06-02T08:51:20.000Z</time>
      </trkpt>
      <trkpt lat="46.21224" lon="-1.43814">
        <ele>4.45492</ele>
        <time>2023-06-02T08:51:21.000Z</time>
      </trkpt>
      <trkpt lat="46.21227" lon="-1.43811">
        <ele>4.39124</ele>
        <time>2023-06-02T08:51:22.000Z</time>
      </trkpt>
      <trkpt lat="46.2123" lon="-1.43808">
        <ele>4.34354</ele>
        <time>2023-06-02T08:51:23.000Z</time>
      </trkpt>
      <trkpt lat="46.21232" lon="-1.43805">
        <ele>4.29101</ele>
        <time>2023-06-02T08:51:24.000Z</time>
      </trkpt>
      <trkpt lat="46.21235" lon="-1.43802">
        <ele>4.24257</ele>
        <time>2023-06-02T08:51:25.000Z</time>
      </trkpt>
      <trkpt lat="46.21238" lon="-1.43799">
        <ele>4.208</ele>
        <time>2023-06-02T08:51:26.000Z</time>
      </trkpt>
      <trkpt lat="46.2124" lon="-1.43796">
        <ele>4.18711</ele>
        <time>2023-06-02T08:51:27.000Z</time>
      </trkpt>
      <trkpt lat="46.21243" lon="-1.43794">
        <ele>4.138</ele>
        <time>2023-06-02T08:51:28.000Z</time>
      </trkpt>
      <trkpt lat="46.21246" lon="-1.43791">
        <ele>4.08992</ele>
        <time>2023-06-02T08:51:29.000Z</time>
      </trkpt>
      <trkpt lat="46.21248" lon="-1.43789">
        <ele>4.10967</ele>
        <time>2023-06-02T08:51:30.000Z</time>
      </trkpt>
      <trkpt lat="46.21251" lon="-1.43787">
        <ele>4.13107</ele>
        <time>2023-06-02T08:51:31.000Z</time>
      </trkpt>
      <trkpt lat="46.21253" lon="-1.43784">
        <ele>4.14485</ele>
        <time>2023-06-02T08:51:32.000Z</time>
      </trkpt>
      <trkpt lat="46.21255" lon="-1.43781">
        <ele>4.14361</ele>
        <time>2023-06-02T08:51:33.000Z</time>
      </trkpt>
      <trkpt lat="46.21257" lon="-1.43778">
        <ele>4.14756</ele>
        <time>2023-06-02T08:51:34.000Z</time>
      </trkpt>
      <trkpt lat="46.2126" lon="-1.43775">
        <ele>4.16086</ele>
        <time>2023-06-02T08:51:35.000Z</time>
      </trkpt>
      <trkpt lat="46.21262" lon="-1.43772">
        <ele>4.13092</ele>
        <time>2023-06-02T08:51:36.000Z</time>
      </trkpt>
      <trkpt lat="46.21264" lon="-1.43769">
        <ele>4.00173</ele>
        <time>2023-06-02T08:51:37.000Z</time>
      </trkpt>
      <trkpt lat="46.21267" lon="-1.43766">
        <ele>3.89411</ele>
        <time>2023-06-02T08:51:38.000Z</time>
      </trkpt>
      <trkpt lat="46.21269" lon="-1.43763">
        <ele>3.89036</ele>
        <time>2023-06-02T08:51:39.000Z</time>
      </trkpt>
      <trkpt lat="46.21272" lon="-1.4376">
        <ele>3.89461</ele>
        <time>2023-06-02T08:51:40.000Z</time>
      </trkpt>
      <trkpt lat="46.21274" lon="-1.43757">
        <ele>3.89574</ele>
        <time>2023-06-02T08:51:41.000Z</time>
      </trkpt>
      <trkpt lat="46.21276" lon="-1.43755">
        <ele>3.85565</ele>
        <time>2023-06-02T08:51:42.000Z</time>
      </trkpt>
      <trkpt lat="46.21279" lon="-1.43752">
        <ele>3.83245</ele>
        <time>2023-06-02T08:51:43.000Z</time>
      </trkpt>
      <trkpt lat="46.21282" lon="-1.4375">
        <ele>3.81341</ele>
        <time>2023-06-02T08:51:44.000Z</time>
      </trkpt>
      <trkpt lat="46.21284" lon="-1.43747">
        <ele>3.79294</ele>
        <time>2023-06-02T08:51:45.000Z</time>
      </trkpt>
      <trkpt lat="46.21287" lon="-1.43745">
        <ele>3.76565</ele>
        <time>2023-06-02T08:51:46.000Z</time>
      </trkpt>
      <trkpt lat="46.21289" lon="-1.43742">
        <ele>3.72802</ele>
        <time>2023-06-02T08:51:47.000Z</time>
      </trkpt>
      <trkpt lat="46.21292" lon="-1.43739">
        <ele>3.69858</ele>
        <time>2023-06-02T08:51:48.000Z</time>
      </trkpt>
      <trkpt lat="46.21294" lon="-1.43738">
        <ele>3.68367</ele>
        <time>2023-06-02T08:51:49.000Z</time>
      </trkpt>
      <trkpt lat="46.21297" lon="-1.43738">
        <ele>3.66409</ele>
        <time>2023-06-02T08:51:50.000Z</time>
      </trkpt>
      <trkpt lat="46.213" lon="-1.43739">
        <ele>3.64465</ele>
        <time>2023-06-02T08:51:51.000Z</time>
      </trkpt>
      <trkpt lat="46.21303" lon="-1.43743">
        <ele>3.61809</ele>
        <time>2023-06-02T08:51:52.000Z</time>
      </trkpt>
      <trkpt lat="46.21305" lon="-1.43746">
        <ele>3.68541</ele>
        <time>2023-06-02T08:51:53.000Z</time>
      </trkpt>
      <trkpt lat="46.21306" lon="-1.4375">
        <ele>3.75484</ele>
        <time>2023-06-02T08:51:54.000Z</time>
      </trkpt>
      <trkpt lat="46.21308" lon="-1.43754">
        <ele>3.82166</ele>
        <time>2023-06-02T08:51:55.000Z</time>
      </trkpt>
      <trkpt lat="46.21309" lon="-1.43758">
        <ele>3.9425</ele>
        <time>2023-06-02T08:51:56.000Z</time>
      </trkpt>
      <trkpt lat="46.2131" lon="-1.43762">
        <ele>4.06966</ele>
        <time>2023-06-02T08:51:57.000Z</time>
      </trkpt>
      <trkpt lat="46.21312" lon="-1.43767">
        <ele>4.21168</ele>
        <time>2023-06-02T08:51:58.000Z</time>
      </trkpt>
      <trkpt lat="46.21314" lon="-1.43771">
        <ele>4.18823</ele>
        <time>2023-06-02T08:51:59.000Z</time>
      </trkpt>
      <trkpt lat="46.21316" lon="-1.43775">
        <ele>4.17349</ele>
        <time>2023-06-02T08:52:00.000Z</time>
      </trkpt>
      <trkpt lat="46.21318" lon="-1.43779">
        <ele>4.13717</ele>
        <time>2023-06-02T08:52:01.000Z</time>
      </trkpt>
      <trkpt lat="46.21319" lon="-1.43783">
        <ele>4.11144</ele>
        <time>2023-06-02T08:52:02.000Z</time>
      </trkpt>
      <trkpt lat="46.21321" lon="-1.43787">
        <ele>4.15327</ele>
        <time>2023-06-02T08:52:03.000Z</time>
      </trkpt>
      <trkpt lat="46.21323" lon="-1.43791">
        <ele>4.18725</ele>
        <time>2023-06-02T08:52:04.000Z</time>
      </trkpt>
      <trkpt lat="46.21326" lon="-1.43795">
        <ele>4.22714</ele>
        <time>2023-06-02T08:52:05.000Z</time>
      </trkpt>
      <trkpt lat="46.21328" lon="-1.43799">
        <ele>4.29079</ele>
        <time>2023-06-02T08:52:06.000Z</time>
      </trkpt>
      <trkpt lat="46.21329" lon="-1.43802">
        <ele>4.30969</ele>
        <time>2023-06-02T08:52:07.000Z</time>
      </trkpt>
      <trkpt lat="46.21331" lon="-1.43806">
        <ele>4.36234</ele>
        <time>2023-06-02T08:52:08.000Z</time>
      </trkpt>
      <trkpt lat="46.21333" lon="-1.4381">
        <ele>4.39853</ele>
        <time>2023-06-02T08:52:09.000Z</time>
      </trkpt>
      <trkpt lat="46.21334" lon="-1.43814">
        <ele>4.43537</ele>
        <time>2023-06-02T08:52:10.000Z</time>
      </trkpt>
      <trkpt lat="46.21335" lon="-1.43819">
        <ele>4.45694</ele>
        <time>2023-06-02T08:52:11.000Z</time>
      </trkpt>
      <trkpt lat="46.21336" lon="-1.43823">
        <ele>4.44773</ele>
        <time>2023-06-02T08:52:12.000Z</time>
      </trkpt>
      <trkpt lat="46.21337" lon="-1.43828">
        <ele>4.33126</ele>
        <time>2023-06-02T08:52:13.000Z</time>
      </trkpt>
      <trkpt lat="46.21337" lon="-1.43833">
        <ele>4.21483</ele>
        <time>2023-06-02T08:52:14.000Z</time>
      </trkpt>
      <trkpt lat="46.21338" lon="-1.43838">
        <ele>4.07528</ele>
        <time>2023-06-02T08:52:15.000Z</time>
      </trkpt>
      <trkpt lat="46.21338" lon="-1.43842">
        <ele>3.92019</ele>
        <time>2023-06-02T08:52:16.000Z</time>
      </trkpt>
      <trkpt lat="46.21338" lon="-1.43847">
        <ele>3.78148</ele>
        <time>2023-06-02T08:52:17.000Z</time>
      </trkpt>
      <trkpt lat="46.21338" lon="-1.43852">
        <ele>3.65147</ele>
        <time>2023-06-02T08:52:18.000Z</time>
      </trkpt>
      <trkpt lat="46.21338" lon="-1.43857">
        <ele>3.61684</ele>
        <time>2023-06-02T08:52:19.000Z</time>
      </trkpt>
      <trkpt lat="46.21337" lon="-1.43862">
        <ele>3.58593</ele>
        <time>2023-06-02T08:52:20.000Z</time>
      </trkpt>
      <trkpt lat="46.21337" lon="-1.43868">
        <ele>3.5753</ele>
        <time>2023-06-02T08:52:21.000Z</time>
      </trkpt>
      <trkpt lat="46.21337" lon="-1.43873">
        <ele>3.59184</ele>
        <time>2023-06-02T08:52:22.000Z</time>
      </trkpt>
      <trkpt lat="46.21336" lon="-1.43877">
        <ele>3.60483</ele>
        <time>2023-06-02T08:52:23.000Z</time>
      </trkpt>
      <trkpt lat="46.21335" lon="-1.43882">
        <ele>3.6222</ele>
        <time>2023-06-02T08:52:24.000Z</time>
      </trkpt>
      <trkpt lat="46.21334" lon="-1.43887">
        <ele>3.64293</ele>
        <time>2023-06-02T08:52:25.000Z</time>
      </trkpt>
      <trkpt lat="46.21333" lon="-1.43891">
        <ele>3.65504</ele>
        <time>2023-06-02T08:52:26.000Z</time>
      </trkpt>
      <trkpt lat="46.21332" lon="-1.43896">
        <ele>3.72936</ele>
        <time>2023-06-02T08:52:27.000Z</time>
      </trkpt>
      <trkpt lat="46.21331" lon="-1.43901">
        <ele>3.77023</ele>
        <time>2023-06-02T08:52:28.000Z</time>
      </trkpt>
      <trkpt lat="46.21329" lon="-1.43905">
        <ele>3.80711</ele>
        <time>2023-06-02T08:52:29.000Z</time>
      </trkpt>
      <trkpt lat="46.21328" lon="-1.4391">
        <ele>3.84595</ele>
        <time>2023-06-02T08:52:30.000Z</time>
      </trkpt>
      <trkpt lat="46.21327" lon="-1.43915">
        <ele>3.90122</ele>
        <time>2023-06-02T08:52:31.000Z</time>
      </trkpt>
      <trkpt lat="46.21325" lon="-1.4392">
        <ele>4.01635</ele>
        <time>2023-06-02T08:52:32.000Z</time>
      </trkpt>
      <trkpt lat="46.21324" lon="-1.43925">
        <ele>4.13239</ele>
        <time>2023-06-02T08:52:33.000Z</time>
      </trkpt>
      <trkpt lat="46.21323" lon="-1.43929">
        <ele>4.2672</ele>
        <time>2023-06-02T08:52:34.000Z</time>
      </trkpt>
      <trkpt lat="46.21321" lon="-1.43934">
        <ele>4.39797</ele>
        <time>2023-06-02T08:52:35.000Z</time>
      </trkpt>
      <trkpt lat="46.2132" lon="-1.43938">
        <ele>4.55349</ele>
        <time>2023-06-02T08:52:36.000Z</time>
      </trkpt>
      <trkpt lat="46.21319" lon="-1.43942">
        <ele>4.69613</ele>
        <time>2023-06-02T08:52:37.000Z</time>
      </trkpt>
      <trkpt lat="46.21317" lon="-1.43947">
        <ele>4.81742</ele>
        <time>2023-06-02T08:52:38.000Z</time>
      </trkpt>
      <trkpt lat="46.21316" lon="-1.43951">
        <ele>4.90002</ele>
        <time>2023-06-02T08:52:39.000Z</time>
      </trkpt>
      <trkpt lat="46.21314" lon="-1.43956">
        <ele>4.97834</ele>
        <time>2023-06-02T08:52:40.000Z</time>
      </trkpt>
      <trkpt lat="46.21313" lon="-1.4396">
        <ele>5.03303</ele>
        <time>2023-06-02T08:52:41.000Z</time>
      </trkpt>
      <trkpt lat="46.21311" lon="-1.43964">
        <ele>5.09051</ele>
        <time>2023-06-02T08:52:42.000Z</time>
      </trkpt>
      <trkpt lat="46.2131" lon="-1.43969">
        <ele>5.0861</ele>
        <time>2023-06-02T08:52:43.000Z</time>
      </trkpt>
      <trkpt lat="46.21309" lon="-1.43974">
        <ele>5.127</ele>
        <time>2023-06-02T08:52:44.000Z</time>
      </trkpt>
      <trkpt lat="46.21307" lon="-1.43979">
        <ele>5.15117</ele>
        <time>2023-06-02T08:52:45.000Z</time>
      </trkpt>
      <trkpt lat="46.21306" lon="-1.43984">
        <ele>5.1167</ele>
        <time>2023-06-02T08:52:46.000Z</time>
      </trkpt>
      <trkpt lat="46.21305" lon="-1.43988">
        <ele>5.06508</ele>
        <time>2023-06-02T08:52:47.000Z</time>
      </trkpt>
      <trkpt lat="46.21304" lon="-1.43993">
        <ele>5.03568</ele>
        <time>2023-06-02T08:52:48.000Z</time>
      </trkpt>
      <trkpt lat="46.21303" lon="-1.43997">
        <ele>5.0121</ele>
        <time>2023-06-02T08:52:49.000Z</time>
      </trkpt>
      <trkpt lat="46.21302" lon="-1.44002">
        <ele>4.99032</ele>
        <time>2023-06-02T08:52:50.000Z</time>
      </trkpt>
      <trkpt lat="46.21301" lon="-1.44006">
        <ele>5.06219</ele>
        <time>2023-06-02T08:52:51.000Z</time>
      </trkpt>
      <trkpt lat="46.213" lon="-1.44011">
        <ele>5.11507</ele>
        <time>2023-06-02T08:52:52.000Z</time>
      </trkpt>
      <trkpt lat="46.213" lon="-1.44016">
        <ele>5.16775</ele>
        <time>2023-06-02T08:52:53.000Z</time>
      </trkpt>
      <trkpt lat="46.21299" lon="-1.44021">
        <ele>5.19334</ele>
        <time>2023-06-02T08:52:54.000Z</time>
      </trkpt>
      <trkpt lat="46.21299" lon="-1.44026">
        <ele>5.25845</ele>
        <time>2023-06-02T08:52:55.000Z</time>
      </trkpt>
      <trkpt lat="46.21299" lon="-1.44031">
        <ele>5.25378</ele>
        <time>2023-06-02T08:52:56.000Z</time>
      </trkpt>
      <trkpt lat="46.21298" lon="-1.44035">
        <ele>5.26063</ele>
        <time>2023-06-02T08:52:57.000Z</time>
      </trkpt>
      <trkpt lat="46.21298" lon="-1.4404">
        <ele>5.27862</ele>
        <time>2023-06-02T08:52:58.000Z</time>
      </trkpt>
      <trkpt lat="46.21298" lon="-1.44045">
        <ele>5.32058</ele>
        <time>2023-06-02T08:52:59.000Z</time>
      </trkpt>
      <trkpt lat="46.21297" lon="-1.44049">
        <ele>5.35155</ele>
        <time>2023-06-02T08:53:00.000Z</time>
      </trkpt>
      <trkpt lat="46.21297" lon="-1.44053">
        <ele>5.4021</ele>
        <time>2023-06-02T08:53:01.000Z</time>
      </trkpt>
      <trkpt lat="46.21296" lon="-1.44058">
        <ele>5.45322</ele>
        <time>2023-06-02T08:53:02.000Z</time>
      </trkpt>
      <trkpt lat="46.21296" lon="-1.44062">
        <ele>5.57313</ele>
        <time>2023-06-02T08:53:03.000Z</time>
      </trkpt>
      <trkpt lat="46.21295" lon="-1.44066">
        <ele>5.62684</ele>
        <time>2023-06-02T08:53:04.000Z</time>
      </trkpt>
      <trkpt lat="46.21295" lon="-1.4407">
        <ele>5.66901</ele>
        <time>2023-06-02T08:53:05.000Z</time>
      </trkpt>
      <trkpt lat="46.21296" lon="-1.44074">
        <ele>5.74669</ele>
        <time>2023-06-02T08:53:06.000Z</time>
      </trkpt>
      <trkpt lat="46.21298" lon="-1.44076">
        <ele>5.84069</ele>
        <time>2023-06-02T08:53:07.000Z</time>
      </trkpt>
      <trkpt lat="46.21301" lon="-1.44076">
        <ele>5.90134</ele>
        <time>2023-06-02T08:53:08.000Z</time>
      </trkpt>
      <trkpt lat="46.21304" lon="-1.44076">
        <ele>5.95714</ele>
        <time>2023-06-02T08:53:09.000Z</time>
      </trkpt>
      <trkpt lat="46.21307" lon="-1.44076">
        <ele>5.95409</ele>
        <time>2023-06-02T08:53:10.000Z</time>
      </trkpt>
      <trkpt lat="46.21311" lon="-1.44077">
        <ele>5.86482</ele>
        <time>2023-06-02T08:53:11.000Z</time>
      </trkpt>
      <trkpt lat="46.21314" lon="-1.44077">
        <ele>5.7619</ele>
        <time>2023-06-02T08:53:12.000Z</time>
      </trkpt>
      <trkpt lat="46.21318" lon="-1.44077">
        <ele>5.64961</ele>
        <time>2023-06-02T08:53:13.000Z</time>
      </trkpt>
      <trkpt lat="46.21321" lon="-1.44077">
        <ele>5.53462</ele>
        <time>2023-06-02T08:53:14.000Z</time>
      </trkpt>
      <trkpt lat="46.21324" lon="-1.44077">
        <ele>5.39906</ele>
        <time>2023-06-02T08:53:15.000Z</time>
      </trkpt>
      <trkpt lat="46.21327" lon="-1.44078">
        <ele>5.40504</ele>
        <time>2023-06-02T08:53:16.000Z</time>
      </trkpt>
      <trkpt lat="46.21331" lon="-1.44078">
        <ele>5.38238</ele>
        <time>2023-06-02T08:53:17.000Z</time>
      </trkpt>
      <trkpt lat="46.21334" lon="-1.44078">
        <ele>5.33813</ele>
        <time>2023-06-02T08:53:18.000Z</time>
      </trkpt>
      <trkpt lat="46.21337" lon="-1.44078">
        <ele>5.2845</ele>
        <time>2023-06-02T08:53:19.000Z</time>
      </trkpt>
      <trkpt lat="46.2134" lon="-1.44079">
        <ele>5.24364</ele>
        <time>2023-06-02T08:53:20.000Z</time>
      </trkpt>
      <trkpt lat="46.21343" lon="-1.44079">
        <ele>5.17951</ele>
        <time>2023-06-02T08:53:21.000Z</time>
      </trkpt>
      <trkpt lat="46.21346" lon="-1.4408">
        <ele>5.11134</ele>
        <time>2023-06-02T08:53:22.000Z</time>
      </trkpt>
      <trkpt lat="46.21349" lon="-1.4408">
        <ele>4.96928</ele>
        <time>2023-06-02T08:53:23.000Z</time>
      </trkpt>
      <trkpt lat="46.21352" lon="-1.44081">
        <ele>4.84978</ele>
        <time>2023-06-02T08:53:24.000Z</time>
      </trkpt>
      <trkpt lat="46.21355" lon="-1.44081">
        <ele>4.73361</ele>
        <time>2023-06-02T08:53:25.000Z</time>
      </trkpt>
      <trkpt lat="46.21359" lon="-1.44082">
        <ele>4.64606</ele>
        <time>2023-06-02T08:53:26.000Z</time>
      </trkpt>
      <trkpt lat="46.21362" lon="-1.44083">
        <ele>4.54538</ele>
        <time>2023-06-02T08:53:27.000Z</time>
      </trkpt>
      <trkpt lat="46.21365" lon="-1.44084">
        <ele>4.46977</ele>
        <time>2023-06-02T08:53:28.000Z</time>
      </trkpt>
      <trkpt lat="46.21368" lon="-1.44084">
        <ele>4.39864</ele>
        <time>2023-06-02T08:53:29.000Z</time>
      </trkpt>
      <trkpt lat="46.21371" lon="-1.44085">
        <ele>4.38591</ele>
        <time>2023-06-02T08:53:30.000Z</time>
      </trkpt>
      <trkpt lat="46.21375" lon="-1.44085">
        <ele>4.37712</ele>
        <time>2023-06-02T08:53:31.000Z</time>
      </trkpt>
      <trkpt lat="46.21378" lon="-1.44086">
        <ele>4.38304</ele>
        <time>2023-06-02T08:53:32.000Z</time>
      </trkpt>
      <trkpt lat="46.21381" lon="-1.44086">
        <ele>4.40961</ele>
        <time>2023-06-02T08:53:33.000Z</time>
      </trkpt>
      <trkpt lat="46.21384" lon="-1.44087">
        <ele>4.44625</ele>
        <time>2023-06-02T08:53:34.000Z</time>
      </trkpt>
      <trkpt lat="46.21387" lon="-1.44087">
        <ele>4.4804</ele>
        <time>2023-06-02T08:53:35.000Z</time>
      </trkpt>
      <trkpt lat="46.2139" lon="-1.44088">
        <ele>4.43328</ele>
        <time>2023-06-02T08:53:36.000Z</time>
      </trkpt>
      <trkpt lat="46.21394" lon="-1.44088">
        <ele>4.40989</ele>
        <time>2023-06-02T08:53:37.000Z</time>
      </trkpt>
      <trkpt lat="46.21397" lon="-1.44089">
        <ele>4.40818</ele>
        <time>2023-06-02T08:53:38.000Z</time>
      </trkpt>
      <trkpt lat="46.21401" lon="-1.44089">
        <ele>4.40151</ele>
        <time>2023-06-02T08:53:39.000Z</time>
      </trkpt>
      <trkpt lat="46.21404" lon="-1.4409">
        <ele>4.39147</ele>
        <time>2023-06-02T08:53:40.000Z</time>
      </trkpt>
      <trkpt lat="46.21408" lon="-1.4409">
        <ele>4.40001</ele>
        <time>2023-06-02T08:53:41.000Z</time>
      </trkpt>
      <trkpt lat="46.21411" lon="-1.44091">
        <ele>4.40246</ele>
        <time>2023-06-02T08:53:42.000Z</time>
      </trkpt>
      <trkpt lat="46.21414" lon="-1.44091">
        <ele>4.39787</ele>
        <time>2023-06-02T08:53:43.000Z</time>
      </trkpt>
      <trkpt lat="46.21416" lon="-1.44092">
        <ele>4.41197</ele>
        <time>2023-06-02T08:53:44.000Z</time>
      </trkpt>
      <trkpt lat="46.21419" lon="-1.44092">
        <ele>4.42706</ele>
        <time>2023-06-02T08:53:45.000Z</time>
      </trkpt>
      <trkpt lat="46.21421" lon="-1.4409">
        <ele>4.42772</ele>
        <time>2023-06-02T08:53:46.000Z</time>
      </trkpt>
      <trkpt lat="46.21421" lon="-1.44088">
        <ele>4.43024</ele>
        <time>2023-06-02T08:53:47.000Z</time>
      </trkpt>
      <trkpt lat="46.21421" lon="-1.44085">
        <ele>4.43125</ele>
        <time>2023-06-02T08:53:48.000Z</time>
      </trkpt>
      <trkpt lat="46.2142" lon="-1.44082">
        <ele>4.42728</ele>
        <time>2023-06-02T08:53:49.000Z</time>
      </trkpt>
      <trkpt lat="46.2142" lon="-1.44079">
        <ele>4.4279</ele>
        <time>2023-06-02T08:53:50.000Z</time>
      </trkpt>
      <trkpt lat="46.2142" lon="-1.44076">
        <ele>4.41152</ele>
        <time>2023-06-02T08:53:51.000Z</time>
      </trkpt>
      <trkpt lat="46.21419" lon="-1.44072">
        <ele>4.39306</ele>
        <time>2023-06-02T08:53:52.000Z</time>
      </trkpt>
      <trkpt lat="46.21419" lon="-1.44068">
        <ele>4.35623</ele>
        <time>2023-06-02T08:53:53.000Z</time>
      </trkpt>
      <trkpt lat="46.21419" lon="-1.44065">
        <ele>4.35763</ele>
        <time>2023-06-02T08:53:54.000Z</time>
      </trkpt>
      <trkpt lat="46.21419" lon="-1.44061">
        <ele>4.35174</ele>
        <time>2023-06-02T08:53:55.000Z</time>
      </trkpt>
      <trkpt lat="46.21419" lon="-1.44057">
        <ele>4.33775</ele>
        <time>2023-06-02T08:53:56.000Z</time>
      </trkpt>
      <trkpt lat="46.21419" lon="-1.44053">
        <ele>4.32067</ele>
        <time>2023-06-02T08:53:57.000Z</time>
      </trkpt>
      <trkpt lat="46.21419" lon="-1.44049">
        <ele>4.29227</ele>
        <time>2023-06-02T08:53:58.000Z</time>
      </trkpt>
      <trkpt lat="46.21419" lon="-1.44045">
        <ele>4.2325</ele>
        <time>2023-06-02T08:53:59.000Z</time>
      </trkpt>
      <trkpt lat="46.21418" lon="-1.44041">
        <ele>4.16904</ele>
        <time>2023-06-02T08:54:00.000Z</time>
      </trkpt>
      <trkpt lat="46.21418" lon="-1.44037">
        <ele>4.1157</ele>
        <time>2023-06-02T08:54:01.000Z</time>
      </trkpt>
      <trkpt lat="46.21418" lon="-1.44032">
        <ele>4.06281</ele>
        <time>2023-06-02T08:54:02.000Z</time>
      </trkpt>
      <trkpt lat="46.21418" lon="-1.44028">
        <ele>4.00233</ele>
        <time>2023-06-02T08:54:03.000Z</time>
      </trkpt>
      <trkpt lat="46.21418" lon="-1.44024">
        <ele>3.9244</ele>
        <time>2023-06-02T08:54:04.000Z</time>
      </trkpt>
      <trkpt lat="46.21418" lon="-1.44019">
        <ele>3.85428</ele>
        <time>2023-06-02T08:54:05.000Z</time>
      </trkpt>
      <trkpt lat="46.21417" lon="-1.44015">
        <ele>3.81205</ele>
        <time>2023-06-02T08:54:06.000Z</time>
      </trkpt>
      <trkpt lat="46.21418" lon="-1.44011">
        <ele>3.74537</ele>
        <time>2023-06-02T08:54:07.000Z</time>
      </trkpt>
      <trkpt lat="46.21418" lon="-1.44007">
        <ele>3.68256</ele>
        <time>2023-06-02T08:54:08.000Z</time>
      </trkpt>
      <trkpt lat="46.21418" lon="-1.44003">
        <ele>3.61116</ele>
        <time>2023-06-02T08:54:09.000Z</time>
      </trkpt>
      <trkpt lat="46.21418" lon="-1.43998">
        <ele>3.53681</ele>
        <time>2023-06-02T08:54:10.000Z</time>
      </trkpt>
      <trkpt lat="46.21418" lon="-1.43994">
        <ele>3.46144</ele>
        <time>2023-06-02T08:54:11.000Z</time>
      </trkpt>
      <trkpt lat="46.21418" lon="-1.4399">
        <ele>3.3974</ele>
        <time>2023-06-02T08:54:12.000Z</time>
      </trkpt>
      <trkpt lat="46.21419" lon="-1.43985">
        <ele>3.35712</ele>
        <time>2023-06-02T08:54:13.000Z</time>
      </trkpt>
      <trkpt lat="46.21419" lon="-1.43981">
        <ele>3.27647</ele>
        <time>2023-06-02T08:54:14.000Z</time>
      </trkpt>
      <trkpt lat="46.21419" lon="-1.43977">
        <ele>3.19569</ele>
        <time>2023-06-02T08:54:15.000Z</time>
      </trkpt>
      <trkpt lat="46.21419" lon="-1.43973">
        <ele>3.11793</ele>
        <time>2023-06-02T08:54:16.000Z</time>
      </trkpt>
      <trkpt lat="46.21419" lon="-1.43969">
        <ele>3.04774</ele>
        <time>2023-06-02T08:54:17.000Z</time>
      </trkpt>
      <trkpt lat="46.21419" lon="-1.43965">
        <ele>2.96224</ele>
        <time>2023-06-02T08:54:18.000Z</time>
      </trkpt>
      <trkpt lat="46.21419" lon="-1.4396">
        <ele>2.92498</ele>
        <time>2023-06-02T08:54:19.000Z</time>
      </trkpt>
      <trkpt lat="46.2142" lon="-1.43956">
        <ele>2.90769</ele>
        <time>2023-06-02T08:54:20.000Z</time>
      </trkpt>
      <trkpt lat="46.21421" lon="-1.43952">
        <ele>2.86413</ele>
        <time>2023-06-02T08:54:21.000Z</time>
      </trkpt>
      <trkpt lat="46.21422" lon="-1.43948">
        <ele>2.81213</ele>
        <time>2023-06-02T08:54:22.000Z</time>
      </trkpt>
      <trkpt lat="46.21423" lon="-1.43944">
        <ele>2.76282</ele>
        <time>2023-06-02T08:54:23.000Z</time>
      </trkpt>
      <trkpt lat="46.21425" lon="-1.4394">
        <ele>2.71018</ele>
        <time>2023-06-02T08:54:24.000Z</time>
      </trkpt>
      <trkpt lat="46.21426" lon="-1.43936">
        <ele>2.62396</ele>
        <time>2023-06-02T08:54:25.000Z</time>
      </trkpt>
      <trkpt lat="46.21428" lon="-1.43932">
        <ele>2.50277</ele>
        <time>2023-06-02T08:54:26.000Z</time>
      </trkpt>
      <trkpt lat="46.2143" lon="-1.43929">
        <ele>2.38745</ele>
        <time>2023-06-02T08:54:27.000Z</time>
      </trkpt>
      <trkpt lat="46.21432" lon="-1.43926">
        <ele>2.30331</ele>
        <time>2023-06-02T08:54:28.000Z</time>
      </trkpt>
      <trkpt lat="46.21433" lon="-1.43923">
        <ele>2.22858</ele>
        <time>2023-06-02T08:54:29.000Z</time>
      </trkpt>
      <trkpt lat="46.21435" lon="-1.43919">
        <ele>2.14253</ele>
        <time>2023-06-02T08:54:30.000Z</time>
      </trkpt>
      <trkpt lat="46.21437" lon="-1.43916">
        <ele>2.05977</ele>
        <time>2023-06-02T08:54:31.000Z</time>
      </trkpt>
      <trkpt lat="46.21439" lon="-1.43913">
        <ele>1.96672</ele>
        <time>2023-06-02T08:54:32.000Z</time>
      </trkpt>
      <trkpt lat="46.21441" lon="-1.43909">
        <ele>1.86093</ele>
        <time>2023-06-02T08:54:33.000Z</time>
      </trkpt>
      <trkpt lat="46.21443" lon="-1.43906">
        <ele>1.77312</ele>
        <time>2023-06-02T08:54:34.000Z</time>
      </trkpt>
      <trkpt lat="46.21446" lon="-1.43904">
        <ele>1.7063</ele>
        <time>2023-06-02T08:54:35.000Z</time>
      </trkpt>
      <trkpt lat="46.21448" lon="-1.43903">
        <ele>1.6523</ele>
        <time>2023-06-02T08:54:36.000Z</time>
      </trkpt>
      <trkpt lat="46.21451" lon="-1.43903">
        <ele>1.60192</ele>
        <time>2023-06-02T08:54:37.000Z</time>
      </trkpt>
      <trkpt lat="46.21454" lon="-1.43902">
        <ele>1.57294</ele>
        <time>2023-06-02T08:54:38.000Z</time>
      </trkpt>
      <trkpt lat="46.21458" lon="-1.43902">
        <ele>1.54272</ele>
        <time>2023-06-02T08:54:39.000Z</time>
      </trkpt>
      <trkpt lat="46.21461" lon="-1.43901">
        <ele>1.50943</ele>
        <time>2023-06-02T08:54:40.000Z</time>
      </trkpt>
      <trkpt lat="46.21464" lon="-1.439">
        <ele>1.50674</ele>
        <time>2023-06-02T08:54:41.000Z</time>
      </trkpt>
      <trkpt lat="46.21466" lon="-1.439">
        <ele>1.50796</ele>
        <time>2023-06-02T08:54:42.000Z</time>
      </trkpt>
      <trkpt lat="46.21469" lon="-1.43899">
        <ele>1.52983</ele>
        <time>2023-06-02T08:54:43.000Z</time>
      </trkpt>
      <trkpt lat="46.21472" lon="-1.43899">
        <ele>1.54649</ele>
        <time>2023-06-02T08:54:44.000Z</time>
      </trkpt>
      <trkpt lat="46.21475" lon="-1.439">
        <ele>1.5867</ele>
        <time>2023-06-02T08:54:45.000Z</time>
      </trkpt>
      <trkpt lat="46.21479" lon="-1.439">
        <ele>1.6606</ele>
        <time>2023-06-02T08:54:46.000Z</time>
      </trkpt>
      <trkpt lat="46.21482" lon="-1.43901">
        <ele>1.73795</ele>
        <time>2023-06-02T08:54:47.000Z</time>
      </trkpt>
      <trkpt lat="46.21485" lon="-1.43902">
        <ele>1.76409</ele>
        <time>2023-06-02T08:54:48.000Z</time>
      </trkpt>
      <trkpt lat="46.21487" lon="-1.43903">
        <ele>1.7781</ele>
        <time>2023-06-02T08:54:49.000Z</time>
      </trkpt>
      <trkpt lat="46.21491" lon="-1.43904">
        <ele>1.8221</ele>
        <time>2023-06-02T08:54:50.000Z</time>
      </trkpt>
      <trkpt lat="46.21494" lon="-1.43905">
        <ele>1.87355</ele>
        <time>2023-06-02T08:54:51.000Z</time>
      </trkpt>
      <trkpt lat="46.21497" lon="-1.43906">
        <ele>1.93036</ele>
        <time>2023-06-02T08:54:52.000Z</time>
      </trkpt>
      <trkpt lat="46.21499" lon="-1.43908">
        <ele>1.99249</ele>
        <time>2023-06-02T08:54:53.000Z</time>
      </trkpt>
      <trkpt lat="46.21502" lon="-1.43909">
        <ele>1.9871</ele>
        <time>2023-06-02T08:54:54.000Z</time>
      </trkpt>
      <trkpt lat="46.21505" lon="-1.43911">
        <ele>1.982</ele>
        <time>2023-06-02T08:54:55.000Z</time>
      </trkpt>
      <trkpt lat="46.21508" lon="-1.43912">
        <ele>1.98839</ele>
        <time>2023-06-02T08:54:56.000Z</time>
      </trkpt>
      <trkpt lat="46.21511" lon="-1.43914">
        <ele>1.98346</ele>
        <time>2023-06-02T08:54:57.000Z</time>
      </trkpt>
      <trkpt lat="46.21513" lon="-1.43916">
        <ele>2.05328</ele>
        <time>2023-06-02T08:54:58.000Z</time>
      </trkpt>
      <trkpt lat="46.21516" lon="-1.43918">
        <ele>2.09776</ele>
        <time>2023-06-02T08:54:59.000Z</time>
      </trkpt>
      <trkpt lat="46.21519" lon="-1.4392">
        <ele>2.1408</ele>
        <time>2023-06-02T08:55:00.000Z</time>
      </trkpt>
      <trkpt lat="46.21522" lon="-1.43922">
        <ele>2.16415</ele>
        <time>2023-06-02T08:55:01.000Z</time>
      </trkpt>
      <trkpt lat="46.21525" lon="-1.43924">
        <ele>2.19453</ele>
        <time>2023-06-02T08:55:02.000Z</time>
      </trkpt>
      <trkpt lat="46.21528" lon="-1.43925">
        <ele>2.2059</ele>
        <time>2023-06-02T08:55:03.000Z</time>
      </trkpt>
      <trkpt lat="46.21531" lon="-1.43927">
        <ele>2.23374</ele>
        <time>2023-06-02T08:55:04.000Z</time>
      </trkpt>
      <trkpt lat="46.21534" lon="-1.43929">
        <ele>2.45775</ele>
        <time>2023-06-02T08:55:05.000Z</time>
      </trkpt>
      <trkpt lat="46.21536" lon="-1.43931">
        <ele>2.64039</ele>
        <time>2023-06-02T08:55:06.000Z</time>
      </trkpt>
      <trkpt lat="46.21539" lon="-1.43933">
        <ele>2.83321</ele>
        <time>2023-06-02T08:55:07.000Z</time>
      </trkpt>
      <trkpt lat="46.21542" lon="-1.43935">
        <ele>3.0504</ele>
        <time>2023-06-02T08:55:08.000Z</time>
      </trkpt>
      <trkpt lat="46.21545" lon="-1.43936">
        <ele>3.27555</ele>
        <time>2023-06-02T08:55:09.000Z</time>
      </trkpt>
      <trkpt lat="46.21548" lon="-1.43938">
        <ele>3.49917</ele>
        <time>2023-06-02T08:55:10.000Z</time>
      </trkpt>
      <trkpt lat="46.2155" lon="-1.4394">
        <ele>3.70102</ele>
        <time>2023-06-02T08:55:11.000Z</time>
      </trkpt>
      <trkpt lat="46.21553" lon="-1.43941">
        <ele>3.90492</ele>
        <time>2023-06-02T08:55:12.000Z</time>
      </trkpt>
      <trkpt lat="46.21556" lon="-1.43943">
        <ele>4.09474</ele>
        <time>2023-06-02T08:55:13.000Z</time>
      </trkpt>
      <trkpt lat="46.21558" lon="-1.43945">
        <ele>4.35941</ele>
        <time>2023-06-02T08:55:14.000Z</time>
      </trkpt>
      <trkpt lat="46.21561" lon="-1.43947">
        <ele>4.61142</ele>
        <time>2023-06-02T08:55:15.000Z</time>
      </trkpt>
      <trkpt lat="46.21563" lon="-1.43948">
        <ele>4.86673</ele>
        <time>2023-06-02T08:55:16.000Z</time>
      </trkpt>
      <trkpt lat="46.21564" lon="-1.43949">
        <ele>5.12295</ele>
        <time>2023-06-02T08:55:17.000Z</time>
      </trkpt>
      <trkpt lat="46.21567" lon="-1.43951">
        <ele>5.30364</ele>
        <time>2023-06-02T08:55:19.000Z</time>
      </trkpt>
      <trkpt lat="46.2157" lon="-1.43952">
        <ele>5.29901</ele>
        <time>2023-06-02T08:55:21.000Z</time>
      </trkpt>
      <trkpt lat="46.21571" lon="-1.43954">
        <ele>5.28598</ele>
        <time>2023-06-02T08:55:23.000Z</time>
      </trkpt>
      <trkpt lat="46.21574" lon="-1.43957">
        <ele>5.26684</ele>
        <time>2023-06-02T08:55:25.000Z</time>
      </trkpt>
      <trkpt lat="46.21576" lon="-1.4396">
        <ele>5.44941</ele>
        <time>2023-06-02T08:55:27.000Z</time>
      </trkpt>
      <trkpt lat="46.2158" lon="-1.4396">
        <ele>5.49032</ele>
        <time>2023-06-02T08:55:29.000Z</time>
      </trkpt>
      <trkpt lat="46.21582" lon="-1.43956">
        <ele>5.55191</ele>
        <time>2023-06-02T08:55:30.000Z</time>
      </trkpt>
      <trkpt lat="46.21583" lon="-1.43952">
        <ele>5.42503</ele>
        <time>2023-06-02T08:55:31.000Z</time>
      </trkpt>
      <trkpt lat="46.21585" lon="-1.43948">
        <ele>5.31737</ele>
        <time>2023-06-02T08:55:32.000Z</time>
      </trkpt>
      <trkpt lat="46.21586" lon="-1.43944">
        <ele>5.20496</ele>
        <time>2023-06-02T08:55:33.000Z</time>
      </trkpt>
      <trkpt lat="46.21588" lon="-1.4394">
        <ele>5.05657</ele>
        <time>2023-06-02T08:55:34.000Z</time>
      </trkpt>
      <trkpt lat="46.21589" lon="-1.43938">
        <ele>4.90855</ele>
        <time>2023-06-02T08:55:35.000Z</time>
      </trkpt>
      <trkpt lat="46.21591" lon="-1.43935">
        <ele>4.71923</ele>
        <time>2023-06-02T08:55:37.000Z</time>
      </trkpt>
      <trkpt lat="46.21594" lon="-1.43934">
        <ele>4.54886</ele>
        <time>2023-06-02T08:55:42.000Z</time>
      </trkpt>
      <trkpt lat="46.21596" lon="-1.43933">
        <ele>4.37526</ele>
        <time>2023-06-02T08:55:43.000Z</time>
      </trkpt>
      <trkpt lat="46.21599" lon="-1.43931">
        <ele>4.19435</ele>
        <time>2023-06-02T08:55:45.000Z</time>
      </trkpt>
      <trkpt lat="46.21601" lon="-1.43931">
        <ele>3.99825</ele>
        <time>2023-06-02T08:55:46.000Z</time>
      </trkpt>
      <trkpt lat="46.21604" lon="-1.43932">
        <ele>3.80734</ele>
        <time>2023-06-02T08:55:47.000Z</time>
      </trkpt>
      <trkpt lat="46.21606" lon="-1.43933">
        <ele>3.61011</ele>
        <time>2023-06-02T08:55:48.000Z</time>
      </trkpt>
      <trkpt lat="46.21608" lon="-1.43934">
        <ele>3.39328</ele>
        <time>2023-06-02T08:55:49.000Z</time>
      </trkpt>
      <trkpt lat="46.2161" lon="-1.43935">
        <ele>3.16291</ele>
        <time>2023-06-02T08:55:50.000Z</time>
      </trkpt>
      <trkpt lat="46.21613" lon="-1.43936">
        <ele>3.12225</ele>
        <time>2023-06-02T08:55:51.000Z</time>
      </trkpt>
      <trkpt lat="46.21616" lon="-1.43936">
        <ele>3.06074</ele>
        <time>2023-06-02T08:55:52.000Z</time>
      </trkpt>
      <trkpt lat="46.21618" lon="-1.43937">
        <ele>3.02057</ele>
        <time>2023-06-02T08:55:53.000Z</time>
      </trkpt>
      <trkpt lat="46.21621" lon="-1.43939">
        <ele>2.78585</ele>
        <time>2023-06-02T08:55:54.000Z</time>
      </trkpt>
      <trkpt lat="46.21623" lon="-1.43941">
        <ele>2.7075</ele>
        <time>2023-06-02T08:55:55.000Z</time>
      </trkpt>
      <trkpt lat="46.21624" lon="-1.43944">
        <ele>2.57235</ele>
        <time>2023-06-02T08:55:56.000Z</time>
      </trkpt>
      <trkpt lat="46.21625" lon="-1.43947">
        <ele>2.46067</ele>
        <time>2023-06-02T08:55:57.000Z</time>
      </trkpt>
      <trkpt lat="46.21626" lon="-1.4395">
        <ele>2.29072</ele>
        <time>2023-06-02T08:55:59.000Z</time>
      </trkpt>
      <trkpt lat="46.2163" lon="-1.43948">
        <ele>2.13957</ele>
        <time>2023-06-02T08:56:01.000Z</time>
      </trkpt>
      <trkpt lat="46.21632" lon="-1.43946">
        <ele>2.00127</ele>
        <time>2023-06-02T08:56:02.000Z</time>
      </trkpt>
      <trkpt lat="46.21634" lon="-1.43945">
        <ele>1.88162</ele>
        <time>2023-06-02T08:56:03.000Z</time>
      </trkpt>
      <trkpt lat="46.21636" lon="-1.43945">
        <ele>1.7778</ele>
        <time>2023-06-02T08:56:04.000Z</time>
      </trkpt>
      <trkpt lat="46.21639" lon="-1.43945">
        <ele>1.8366</ele>
        <time>2023-06-02T08:56:06.000Z</time>
      </trkpt>
      <trkpt lat="46.21638" lon="-1.43942">
        <ele>1.94572</ele>
        <time>2023-06-02T08:56:28.000Z</time>
      </trkpt>
      <trkpt lat="46.21637" lon="-1.43937">
        <ele>2.09351</ele>
        <time>2023-06-02T08:56:43.000Z</time>
      </trkpt>
      <trkpt lat="46.21635" lon="-1.43934">
        <ele>2.23413</ele>
        <time>2023-06-02T08:56:44.000Z</time>
      </trkpt>
      <trkpt lat="46.21634" lon="-1.43931">
        <ele>2.3474</ele>
        <time>2023-06-02T08:56:45.000Z</time>
      </trkpt>
      <trkpt lat="46.21633" lon="-1.43928">
        <ele>2.48748</ele>
        <time>2023-06-02T08:56:46.000Z</time>
      </trkpt>
      <trkpt lat="46.21632" lon="-1.43925">
        <ele>2.68705</ele>
        <time>2023-06-02T08:56:47.000Z</time>
      </trkpt>
      <trkpt lat="46.2163" lon="-1.43922">
        <ele>2.8874</ele>
        <time>2023-06-02T08:56:49.000Z</time>
      </trkpt>
      <trkpt lat="46.21627" lon="-1.43919">
        <ele>3.10533</ele>
        <time>2023-06-02T08:56:51.000Z</time>
      </trkpt>
      <trkpt lat="46.21625" lon="-1.43918">
        <ele>3.33329</ele>
        <time>2023-06-02T08:56:52.000Z</time>
      </trkpt>
      <trkpt lat="46.21623" lon="-1.43916">
        <ele>3.35582</ele>
        <time>2023-06-02T08:56:53.000Z</time>
      </trkpt>
      <trkpt lat="46.21621" lon="-1.43915">
        <ele>3.37503</ele>
        <time>2023-06-02T08:56:54.000Z</time>
      </trkpt>
      <trkpt lat="46.21619" lon="-1.43913">
        <ele>3.37394</ele>
        <time>2023-06-02T08:56:55.000Z</time>
      </trkpt>
      <trkpt lat="46.21618" lon="-1.43911">
        <ele>3.4045</ele>
        <time>2023-06-02T08:56:56.000Z</time>
      </trkpt>
      <trkpt lat="46.21617" lon="-1.43908">
        <ele>3.39726</ele>
        <time>2023-06-02T08:56:57.000Z</time>
      </trkpt>
      <trkpt lat="46.21617" lon="-1.43905">
        <ele>3.40872</ele>
        <time>2023-06-02T08:56:58.000Z</time>
      </trkpt>
      <trkpt lat="46.21615" lon="-1.43901">
        <ele>3.38527</ele>
        <time>2023-06-02T08:57:00.000Z</time>
      </trkpt>
      <trkpt lat="46.21617" lon="-1.43901">
        <ele>3.44235</ele>
        <time>2023-06-02T08:57:50.000Z</time>
      </trkpt>
      <trkpt lat="46.21619" lon="-1.43902">
        <ele>3.45164</ele>
        <time>2023-06-02T08:58:22.000Z</time>
      </trkpt>
      <trkpt lat="46.21621" lon="-1.43898">
        <ele>3.43792</ele>
        <time>2023-06-02T09:00:22.000Z</time>
      </trkpt>
      <trkpt lat="46.2162" lon="-1.43893">
        <ele>3.25929</ele>
        <time>2023-06-02T09:00:24.000Z</time>
      </trkpt>
      <trkpt lat="46.21618" lon="-1.4389">
        <ele>3.05754</ele>
        <time>2023-06-02T09:00:26.000Z</time>
      </trkpt>
      <trkpt lat="46.21615" lon="-1.43887">
        <ele>2.80849</ele>
        <time>2023-06-02T09:00:28.000Z</time>
      </trkpt>
      <trkpt lat="46.21614" lon="-1.43885">
        <ele>2.59509</ele>
        <time>2023-06-02T09:00:30.000Z</time>
      </trkpt>
      <trkpt lat="46.21614" lon="-1.43881">
        <ele>2.43286</ele>
        <time>2023-06-02T09:00:33.000Z</time>
      </trkpt>
      <trkpt lat="46.21614" lon="-1.43877">
        <ele>2.26142</ele>
        <time>2023-06-02T09:00:36.000Z</time>
      </trkpt>
      <trkpt lat="46.21613" lon="-1.43874">
        <ele>2.08527</ele>
        <time>2023-06-02T09:00:38.000Z</time>
      </trkpt>
      <trkpt lat="46.21613" lon="-1.43869">
        <ele>1.93632</ele>
        <time>2023-06-02T09:00:40.000Z</time>
      </trkpt>
      <trkpt lat="46.21615" lon="-1.43866">
        <ele>1.71141</ele>
        <time>2023-06-02T09:00:42.000Z</time>
      </trkpt>
      <trkpt lat="46.21617" lon="-1.43864">
        <ele>1.49932</ele>
        <time>2023-06-02T09:00:43.000Z</time>
      </trkpt>
      <trkpt lat="46.21619" lon="-1.43863">
        <ele>1.477</ele>
        <time>2023-06-02T09:00:44.000Z</time>
      </trkpt>
      <trkpt lat="46.21621" lon="-1.43861">
        <ele>1.42952</ele>
        <time>2023-06-02T09:00:45.000Z</time>
      </trkpt>
      <trkpt lat="46.21623" lon="-1.43859">
        <ele>1.37212</ele>
        <time>2023-06-02T09:00:46.000Z</time>
      </trkpt>
      <trkpt lat="46.21624" lon="-1.43858">
        <ele>1.39038</ele>
        <time>2023-06-02T09:00:47.000Z</time>
      </trkpt>
      <trkpt lat="46.21626" lon="-1.43856">
        <ele>1.43322</ele>
        <time>2023-06-02T09:00:48.000Z</time>
      </trkpt>
      <trkpt lat="46.21629" lon="-1.43855">
        <ele>1.4941</ele>
        <time>2023-06-02T09:00:49.000Z</time>
      </trkpt>
      <trkpt lat="46.21631" lon="-1.43853">
        <ele>1.57218</ele>
        <time>2023-06-02T09:00:50.000Z</time>
      </trkpt>
      <trkpt lat="46.21634" lon="-1.43851">
        <ele>1.58787</ele>
        <time>2023-06-02T09:00:51.000Z</time>
      </trkpt>
      <trkpt lat="46.21637" lon="-1.4385">
        <ele>1.63398</ele>
        <time>2023-06-02T09:00:52.000Z</time>
      </trkpt>
      <trkpt lat="46.2164" lon="-1.43849">
        <ele>1.73684</ele>
        <time>2023-06-02T09:00:53.000Z</time>
      </trkpt>
      <trkpt lat="46.21642" lon="-1.43848">
        <ele>1.87505</ele>
        <time>2023-06-02T09:00:54.000Z</time>
      </trkpt>
      <trkpt lat="46.21645" lon="-1.43846">
        <ele>2.00151</ele>
        <time>2023-06-02T09:00:55.000Z</time>
      </trkpt>
      <trkpt lat="46.21646" lon="-1.43844">
        <ele>2.15349</ele>
        <time>2023-06-02T09:00:56.000Z</time>
      </trkpt>
      <trkpt lat="46.21648" lon="-1.43841">
        <ele>2.27148</ele>
        <time>2023-06-02T09:00:57.000Z</time>
      </trkpt>
      <trkpt lat="46.2165" lon="-1.43838">
        <ele>2.3343</ele>
        <time>2023-06-02T09:00:58.000Z</time>
      </trkpt>
      <trkpt lat="46.21651" lon="-1.43836">
        <ele>2.37704</ele>
        <time>2023-06-02T09:00:59.000Z</time>
      </trkpt>
      <trkpt lat="46.21653" lon="-1.43834">
        <ele>2.38964</ele>
        <time>2023-06-02T09:01:00.000Z</time>
      </trkpt>
      <trkpt lat="46.21656" lon="-1.43833">
        <ele>2.32432</ele>
        <time>2023-06-02T09:01:01.000Z</time>
      </trkpt>
      <trkpt lat="46.21659" lon="-1.43831">
        <ele>2.34047</ele>
        <time>2023-06-02T09:01:02.000Z</time>
      </trkpt>
      <trkpt lat="46.21661" lon="-1.4383">
        <ele>2.36218</ele>
        <time>2023-06-02T09:01:03.000Z</time>
      </trkpt>
      <trkpt lat="46.21664" lon="-1.43828">
        <ele>2.40814</ele>
        <time>2023-06-02T09:01:04.000Z</time>
      </trkpt>
      <trkpt lat="46.21666" lon="-1.43827">
        <ele>2.46959</ele>
        <time>2023-06-02T09:01:05.000Z</time>
      </trkpt>
      <trkpt lat="46.21669" lon="-1.43825">
        <ele>2.54471</ele>
        <time>2023-06-02T09:01:06.000Z</time>
      </trkpt>
      <trkpt lat="46.21672" lon="-1.43824">
        <ele>2.5537</ele>
        <time>2023-06-02T09:01:07.000Z</time>
      </trkpt>
      <trkpt lat="46.21674" lon="-1.43822">
        <ele>2.54788</ele>
        <time>2023-06-02T09:01:08.000Z</time>
      </trkpt>
      <trkpt lat="46.21677" lon="-1.43821">
        <ele>2.57239</ele>
        <time>2023-06-02T09:01:09.000Z</time>
      </trkpt>
      <trkpt lat="46.21679" lon="-1.43819">
        <ele>2.59418</ele>
        <time>2023-06-02T09:01:10.000Z</time>
      </trkpt>
      <trkpt lat="46.21682" lon="-1.43817">
        <ele>2.60163</ele>
        <time>2023-06-02T09:01:11.000Z</time>
      </trkpt>
      <trkpt lat="46.21684" lon="-1.43816">
        <ele>2.61858</ele>
        <time>2023-06-02T09:01:12.000Z</time>
      </trkpt>
      <trkpt lat="46.21687" lon="-1.43814">
        <ele>2.59828</ele>
        <time>2023-06-02T09:01:13.000Z</time>
      </trkpt>
      <trkpt lat="46.2169" lon="-1.43812">
        <ele>2.5482</ele>
        <time>2023-06-02T09:01:14.000Z</time>
      </trkpt>
      <trkpt lat="46.21692" lon="-1.43811">
        <ele>2.47993</ele>
        <time>2023-06-02T09:01:15.000Z</time>
      </trkpt>
      <trkpt lat="46.21695" lon="-1.43809">
        <ele>2.42333</ele>
        <time>2023-06-02T09:01:16.000Z</time>
      </trkpt>
      <trkpt lat="46.21697" lon="-1.43807">
        <ele>2.3673</ele>
        <time>2023-06-02T09:01:17.000Z</time>
      </trkpt>
      <trkpt lat="46.217" lon="-1.43805">
        <ele>2.33449</ele>
        <time>2023-06-02T09:01:18.000Z</time>
      </trkpt>
      <trkpt lat="46.21703" lon="-1.43802">
        <ele>2.31339</ele>
        <time>2023-06-02T09:01:19.000Z</time>
      </trkpt>
      <trkpt lat="46.21705" lon="-1.438">
        <ele>2.27401</ele>
        <time>2023-06-02T09:01:20.000Z</time>
      </trkpt>
      <trkpt lat="46.21708" lon="-1.43797">
        <ele>2.32598</ele>
        <time>2023-06-02T09:01:21.000Z</time>
      </trkpt>
      <trkpt lat="46.2171" lon="-1.43795">
        <ele>2.37859</ele>
        <time>2023-06-02T09:01:22.000Z</time>
      </trkpt>
      <trkpt lat="46.21712" lon="-1.43792">
        <ele>2.40616</ele>
        <time>2023-06-02T09:01:23.000Z</time>
      </trkpt>
      <trkpt lat="46.21714" lon="-1.43789">
        <ele>2.43688</ele>
        <time>2023-06-02T09:01:24.000Z</time>
      </trkpt>
      <trkpt lat="46.21715" lon="-1.43786">
        <ele>2.46513</ele>
        <time>2023-06-02T09:01:25.000Z</time>
      </trkpt>
      <trkpt lat="46.21717" lon="-1.43784">
        <ele>2.48588</ele>
        <time>2023-06-02T09:01:26.000Z</time>
      </trkpt>
      <trkpt lat="46.21718" lon="-1.43781">
        <ele>2.52328</ele>
        <time>2023-06-02T09:01:27.000Z</time>
      </trkpt>
      <trkpt lat="46.21719" lon="-1.43777">
        <ele>2.55895</ele>
        <time>2023-06-02T09:01:28.000Z</time>
      </trkpt>
      <trkpt lat="46.21719" lon="-1.43774">
        <ele>2.56972</ele>
        <time>2023-06-02T09:01:29.000Z</time>
      </trkpt>
      <trkpt lat="46.21719" lon="-1.4377">
        <ele>2.58355</ele>
        <time>2023-06-02T09:01:30.000Z</time>
      </trkpt>
      <trkpt lat="46.21719" lon="-1.43767">
        <ele>2.60092</ele>
        <time>2023-06-02T09:01:31.000Z</time>
      </trkpt>
      <trkpt lat="46.21718" lon="-1.43763">
        <ele>2.58625</ele>
        <time>2023-06-02T09:01:32.000Z</time>
      </trkpt>
      <trkpt lat="46.21717" lon="-1.4376">
        <ele>2.55675</ele>
        <time>2023-06-02T09:01:33.000Z</time>
      </trkpt>
      <trkpt lat="46.21716" lon="-1.43756">
        <ele>2.5123</ele>
        <time>2023-06-02T09:01:34.000Z</time>
      </trkpt>
      <trkpt lat="46.21715" lon="-1.43753">
        <ele>2.46376</ele>
        <time>2023-06-02T09:01:35.000Z</time>
      </trkpt>
      <trkpt lat="46.21714" lon="-1.4375">
        <ele>2.39194</ele>
        <time>2023-06-02T09:01:36.000Z</time>
      </trkpt>
      <trkpt lat="46.21712" lon="-1.43747">
        <ele>2.31764</ele>
        <time>2023-06-02T09:01:37.000Z</time>
      </trkpt>
      <trkpt lat="46.21711" lon="-1.43744">
        <ele>2.26817</ele>
        <time>2023-06-02T09:01:38.000Z</time>
      </trkpt>
      <trkpt lat="46.2171" lon="-1.43741">
        <ele>2.19001</ele>
        <time>2023-06-02T09:01:39.000Z</time>
      </trkpt>
      <trkpt lat="46.21709" lon="-1.43738">
        <ele>2.13119</ele>
        <time>2023-06-02T09:01:40.000Z</time>
      </trkpt>
      <trkpt lat="46.21708" lon="-1.43734">
        <ele>2.05859</ele>
        <time>2023-06-02T09:01:41.000Z</time>
      </trkpt>
      <trkpt lat="46.21707" lon="-1.43731">
        <ele>1.99631</ele>
        <time>2023-06-02T09:01:42.000Z</time>
      </trkpt>
      <trkpt lat="46.21706" lon="-1.43728">
        <ele>1.93422</ele>
        <time>2023-06-02T09:01:43.000Z</time>
      </trkpt>
      <trkpt lat="46.21705" lon="-1.43725">
        <ele>1.84686</ele>
        <time>2023-06-02T09:01:44.000Z</time>
      </trkpt>
      <trkpt lat="46.21703" lon="-1.43722">
        <ele>1.75252</ele>
        <time>2023-06-02T09:01:45.000Z</time>
      </trkpt>
      <trkpt lat="46.21702" lon="-1.43719">
        <ele>1.67957</ele>
        <time>2023-06-02T09:01:46.000Z</time>
      </trkpt>
      <trkpt lat="46.21701" lon="-1.43716">
        <ele>1.58681</ele>
        <time>2023-06-02T09:01:47.000Z</time>
      </trkpt>
      <trkpt lat="46.21701" lon="-1.43713">
        <ele>1.52113</ele>
        <time>2023-06-02T09:01:48.000Z</time>
      </trkpt>
      <trkpt lat="46.21699" lon="-1.43709">
        <ele>1.47045</ele>
        <time>2023-06-02T09:01:49.000Z</time>
      </trkpt>
      <trkpt lat="46.21698" lon="-1.43705">
        <ele>1.42797</ele>
        <time>2023-06-02T09:01:50.000Z</time>
      </trkpt>
      <trkpt lat="46.21697" lon="-1.43701">
        <ele>1.3975</ele>
        <time>2023-06-02T09:01:51.000Z</time>
      </trkpt>
      <trkpt lat="46.21696" lon="-1.43697">
        <ele>1.40823</ele>
        <time>2023-06-02T09:01:52.000Z</time>
      </trkpt>
      <trkpt lat="46.21695" lon="-1.43694">
        <ele>1.45155</ele>
        <time>2023-06-02T09:01:53.000Z</time>
      </trkpt>
      <trkpt lat="46.21693" lon="-1.4369">
        <ele>1.51611</ele>
        <time>2023-06-02T09:01:54.000Z</time>
      </trkpt>
      <trkpt lat="46.21692" lon="-1.43686">
        <ele>1.58717</ele>
        <time>2023-06-02T09:01:55.000Z</time>
      </trkpt>
      <trkpt lat="46.21691" lon="-1.43682">
        <ele>1.6636</ele>
        <time>2023-06-02T09:01:56.000Z</time>
      </trkpt>
      <trkpt lat="46.21689" lon="-1.43678">
        <ele>1.73762</ele>
        <time>2023-06-02T09:01:57.000Z</time>
      </trkpt>
      <trkpt lat="46.21688" lon="-1.43675">
        <ele>1.78369</ele>
        <time>2023-06-02T09:01:58.000Z</time>
      </trkpt>
      <trkpt lat="46.21686" lon="-1.43671">
        <ele>1.84492</ele>
        <time>2023-06-02T09:01:59.000Z</time>
      </trkpt>
      <trkpt lat="46.21685" lon="-1.43667">
        <ele>1.90179</ele>
        <time>2023-06-02T09:02:00.000Z</time>
      </trkpt>
      <trkpt lat="46.21684" lon="-1.43664">
        <ele>1.96075</ele>
        <time>2023-06-02T09:02:01.000Z</time>
      </trkpt>
      <trkpt lat="46.21683" lon="-1.4366">
        <ele>2.01021</ele>
        <time>2023-06-02T09:02:02.000Z</time>
      </trkpt>
      <trkpt lat="46.21682" lon="-1.43656">
        <ele>2.06812</ele>
        <time>2023-06-02T09:02:03.000Z</time>
      </trkpt>
      <trkpt lat="46.21681" lon="-1.43652">
        <ele>2.13929</ele>
        <time>2023-06-02T09:02:04.000Z</time>
      </trkpt>
      <trkpt lat="46.2168" lon="-1.43649">
        <ele>2.19822</ele>
        <time>2023-06-02T09:02:05.000Z</time>
      </trkpt>
      <trkpt lat="46.21678" lon="-1.43646">
        <ele>2.25205</ele>
        <time>2023-06-02T09:02:06.000Z</time>
      </trkpt>
      <trkpt lat="46.21677" lon="-1.43642">
        <ele>2.28718</ele>
        <time>2023-06-02T09:02:07.000Z</time>
      </trkpt>
      <trkpt lat="46.21676" lon="-1.43639">
        <ele>2.30887</ele>
        <time>2023-06-02T09:02:08.000Z</time>
      </trkpt>
      <trkpt lat="46.21674" lon="-1.43635">
        <ele>2.32207</ele>
        <time>2023-06-02T09:02:09.000Z</time>
      </trkpt>
      <trkpt lat="46.21673" lon="-1.43631">
        <ele>2.32371</ele>
        <time>2023-06-02T09:02:10.000Z</time>
      </trkpt>
      <trkpt lat="46.21671" lon="-1.43627">
        <ele>2.33949</ele>
        <time>2023-06-02T09:02:11.000Z</time>
      </trkpt>
      <trkpt lat="46.2167" lon="-1.43622">
        <ele>2.3245</ele>
        <time>2023-06-02T09:02:12.000Z</time>
      </trkpt>
      <trkpt lat="46.21669" lon="-1.43618">
        <ele>2.29544</ele>
        <time>2023-06-02T09:02:13.000Z</time>
      </trkpt>
      <trkpt lat="46.21668" lon="-1.43614">
        <ele>2.25381</ele>
        <time>2023-06-02T09:02:14.000Z</time>
      </trkpt>
      <trkpt lat="46.21667" lon="-1.4361">
        <ele>2.21389</ele>
        <time>2023-06-02T09:02:15.000Z</time>
      </trkpt>
      <trkpt lat="46.21666" lon="-1.43606">
        <ele>2.17934</ele>
        <time>2023-06-02T09:02:16.000Z</time>
      </trkpt>
      <trkpt lat="46.21665" lon="-1.43603">
        <ele>2.14709</ele>
        <time>2023-06-02T09:02:17.000Z</time>
      </trkpt>
      <trkpt lat="46.21664" lon="-1.43599">
        <ele>2.11411</ele>
        <time>2023-06-02T09:02:18.000Z</time>
      </trkpt>
      <trkpt lat="46.21663" lon="-1.43594">
        <ele>2.07712</ele>
        <time>2023-06-02T09:02:19.000Z</time>
      </trkpt>
      <trkpt lat="46.21662" lon="-1.4359">
        <ele>2.05354</ele>
        <time>2023-06-02T09:02:20.000Z</time>
      </trkpt>
      <trkpt lat="46.21661" lon="-1.43586">
        <ele>2.01185</ele>
        <time>2023-06-02T09:02:21.000Z</time>
      </trkpt>
      <trkpt lat="46.2166" lon="-1.43582">
        <ele>1.95349</ele>
        <time>2023-06-02T09:02:22.000Z</time>
      </trkpt>
      <trkpt lat="46.21659" lon="-1.43579">
        <ele>1.90118</ele>
        <time>2023-06-02T09:02:23.000Z</time>
      </trkpt>
      <trkpt lat="46.21657" lon="-1.43575">
        <ele>1.83965</ele>
        <time>2023-06-02T09:02:24.000Z</time>
      </trkpt>
      <trkpt lat="46.21656" lon="-1.4357">
        <ele>1.76436</ele>
        <time>2023-06-02T09:02:25.000Z</time>
      </trkpt>
      <trkpt lat="46.21655" lon="-1.43566">
        <ele>1.69106</ele>
        <time>2023-06-02T09:02:26.000Z</time>
      </trkpt>
      <trkpt lat="46.21654" lon="-1.43562">
        <ele>1.59995</ele>
        <time>2023-06-02T09:02:27.000Z</time>
      </trkpt>
      <trkpt lat="46.21653" lon="-1.43558">
        <ele>1.52026</ele>
        <time>2023-06-02T09:02:28.000Z</time>
      </trkpt>
      <trkpt lat="46.21652" lon="-1.43554">
        <ele>1.45621</ele>
        <time>2023-06-02T09:02:29.000Z</time>
      </trkpt>
      <trkpt lat="46.21651" lon="-1.4355">
        <ele>1.37916</ele>
        <time>2023-06-02T09:02:30.000Z</time>
      </trkpt>
      <trkpt lat="46.2165" lon="-1.43546">
        <ele>1.26273</ele>
        <time>2023-06-02T09:02:31.000Z</time>
      </trkpt>
      <trkpt lat="46.21648" lon="-1.43542">
        <ele>1.17927</ele>
        <time>2023-06-02T09:02:32.000Z</time>
      </trkpt>
      <trkpt lat="46.21647" lon="-1.43538">
        <ele>1.13898</ele>
        <time>2023-06-02T09:02:33.000Z</time>
      </trkpt>
      <trkpt lat="46.21646" lon="-1.43533">
        <ele>1.08803</ele>
        <time>2023-06-02T09:02:34.000Z</time>
      </trkpt>
      <trkpt lat="46.21644" lon="-1.43529">
        <ele>1.03819</ele>
        <time>2023-06-02T09:02:35.000Z</time>
      </trkpt>
      <trkpt lat="46.21643" lon="-1.43525">
        <ele>1.00541</ele>
        <time>2023-06-02T09:02:36.000Z</time>
      </trkpt>
      <trkpt lat="46.21641" lon="-1.4352">
        <ele>0.95805</ele>
        <time>2023-06-02T09:02:37.000Z</time>
      </trkpt>
      <trkpt lat="46.2164" lon="-1.43516">
        <ele>0.92165</ele>
        <time>2023-06-02T09:02:38.000Z</time>
      </trkpt>
      <trkpt lat="46.21638" lon="-1.43512">
        <ele>0.90412</ele>
        <time>2023-06-02T09:02:39.000Z</time>
      </trkpt>
      <trkpt lat="46.21637" lon="-1.43508">
        <ele>0.87468</ele>
        <time>2023-06-02T09:02:40.000Z</time>
      </trkpt>
      <trkpt lat="46.21636" lon="-1.43504">
        <ele>0.83727</ele>
        <time>2023-06-02T09:02:41.000Z</time>
      </trkpt>
      <trkpt lat="46.21634" lon="-1.43499">
        <ele>0.80297</ele>
        <time>2023-06-02T09:02:42.000Z</time>
      </trkpt>
      <trkpt lat="46.21633" lon="-1.43495">
        <ele>0.76645</ele>
        <time>2023-06-02T09:02:43.000Z</time>
      </trkpt>
      <trkpt lat="46.21632" lon="-1.43491">
        <ele>0.75467</ele>
        <time>2023-06-02T09:02:44.000Z</time>
      </trkpt>
      <trkpt lat="46.21631" lon="-1.43487">
        <ele>0.78498</ele>
        <time>2023-06-02T09:02:45.000Z</time>
      </trkpt>
      <trkpt lat="46.21629" lon="-1.43482">
        <ele>0.80569</ele>
        <time>2023-06-02T09:02:46.000Z</time>
      </trkpt>
      <trkpt lat="46.21628" lon="-1.43478">
        <ele>0.86737</ele>
        <time>2023-06-02T09:02:47.000Z</time>
      </trkpt>
      <trkpt lat="46.21627" lon="-1.43474">
        <ele>0.92902</ele>
        <time>2023-06-02T09:02:48.000Z</time>
      </trkpt>
      <trkpt lat="46.21626" lon="-1.4347">
        <ele>0.95907</ele>
        <time>2023-06-02T09:02:49.000Z</time>
      </trkpt>
      <trkpt lat="46.21625" lon="-1.43466">
        <ele>1.00076</ele>
        <time>2023-06-02T09:02:50.000Z</time>
      </trkpt>
      <trkpt lat="46.21623" lon="-1.43462">
        <ele>1.07607</ele>
        <time>2023-06-02T09:02:51.000Z</time>
      </trkpt>
      <trkpt lat="46.21622" lon="-1.43458">
        <ele>1.11618</ele>
        <time>2023-06-02T09:02:52.000Z</time>
      </trkpt>
      <trkpt lat="46.21621" lon="-1.43454">
        <ele>1.09682</ele>
        <time>2023-06-02T09:02:53.000Z</time>
      </trkpt>
      <trkpt lat="46.2162" lon="-1.4345">
        <ele>1.0858</ele>
        <time>2023-06-02T09:02:54.000Z</time>
      </trkpt>
      <trkpt lat="46.21618" lon="-1.43446">
        <ele>1.06624</ele>
        <time>2023-06-02T09:02:55.000Z</time>
      </trkpt>
      <trkpt lat="46.21617" lon="-1.43442">
        <ele>1.0347</ele>
        <time>2023-06-02T09:02:56.000Z</time>
      </trkpt>
      <trkpt lat="46.21616" lon="-1.43438">
        <ele>1.03292</ele>
        <time>2023-06-02T09:02:57.000Z</time>
      </trkpt>
      <trkpt lat="46.21615" lon="-1.43434">
        <ele>1.02731</ele>
        <time>2023-06-02T09:02:58.000Z</time>
      </trkpt>
      <trkpt lat="46.21613" lon="-1.4343">
        <ele>0.99974</ele>
        <time>2023-06-02T09:02:59.000Z</time>
      </trkpt>
      <trkpt lat="46.21612" lon="-1.43426">
        <ele>0.97264</ele>
        <time>2023-06-02T09:03:00.000Z</time>
      </trkpt>
      <trkpt lat="46.21611" lon="-1.43421">
        <ele>0.93925</ele>
        <time>2023-06-02T09:03:01.000Z</time>
      </trkpt>
      <trkpt lat="46.21611" lon="-1.43417">
        <ele>0.90601</ele>
        <time>2023-06-02T09:03:02.000Z</time>
      </trkpt>
      <trkpt lat="46.21611" lon="-1.43413">
        <ele>0.8907</ele>
        <time>2023-06-02T09:03:03.000Z</time>
      </trkpt>
      <trkpt lat="46.21611" lon="-1.43409">
        <ele>0.83997</ele>
        <time>2023-06-02T09:03:04.000Z</time>
      </trkpt>
      <trkpt lat="46.21612" lon="-1.43404">
        <ele>0.78716</ele>
        <time>2023-06-02T09:03:05.000Z</time>
      </trkpt>
      <trkpt lat="46.21614" lon="-1.434">
        <ele>0.74567</ele>
        <time>2023-06-02T09:03:06.000Z</time>
      </trkpt>
      <trkpt lat="46.21615" lon="-1.43396">
        <ele>0.6704</ele>
        <time>2023-06-02T09:03:07.000Z</time>
      </trkpt>
      <trkpt lat="46.21617" lon="-1.43392">
        <ele>0.57342</ele>
        <time>2023-06-02T09:03:08.000Z</time>
      </trkpt>
      <trkpt lat="46.21618" lon="-1.43388">
        <ele>0.48298</ele>
        <time>2023-06-02T09:03:09.000Z</time>
      </trkpt>
      <trkpt lat="46.2162" lon="-1.43385">
        <ele>0.43394</ele>
        <time>2023-06-02T09:03:10.000Z</time>
      </trkpt>
      <trkpt lat="46.21622" lon="-1.43381">
        <ele>0.37657</ele>
        <time>2023-06-02T09:03:11.000Z</time>
      </trkpt>
      <trkpt lat="46.21623" lon="-1.43377">
        <ele>0.33008</ele>
        <time>2023-06-02T09:03:12.000Z</time>
      </trkpt>
      <trkpt lat="46.21625" lon="-1.43373">
        <ele>0.30456</ele>
        <time>2023-06-02T09:03:13.000Z</time>
      </trkpt>
      <trkpt lat="46.21626" lon="-1.43369">
        <ele>0.27934</ele>
        <time>2023-06-02T09:03:14.000Z</time>
      </trkpt>
      <trkpt lat="46.21627" lon="-1.43364">
        <ele>0.25655</ele>
        <time>2023-06-02T09:03:15.000Z</time>
      </trkpt>
      <trkpt lat="46.21629" lon="-1.43361">
        <ele>0.23546</ele>
        <time>2023-06-02T09:03:16.000Z</time>
      </trkpt>
      <trkpt lat="46.2163" lon="-1.43357">
        <ele>0.20306</ele>
        <time>2023-06-02T09:03:17.000Z</time>
      </trkpt>
      <trkpt lat="46.21632" lon="-1.43353">
        <ele>0.17471</ele>
        <time>2023-06-02T09:03:18.000Z</time>
      </trkpt>
      <trkpt lat="46.21634" lon="-1.43349">
        <ele>0.17544</ele>
        <time>2023-06-02T09:03:19.000Z</time>
      </trkpt>
      <trkpt lat="46.21635" lon="-1.43344">
        <ele>0.20655</ele>
        <time>2023-06-02T09:03:20.000Z</time>
      </trkpt>
      <trkpt lat="46.21636" lon="-1.4334">
        <ele>0.25182</ele>
        <time>2023-06-02T09:03:21.000Z</time>
      </trkpt>
      <trkpt lat="46.21638" lon="-1.43336">
        <ele>0.27852</ele>
        <time>2023-06-02T09:03:22.000Z</time>
      </trkpt>
      <trkpt lat="46.21639" lon="-1.43332">
        <ele>0.31594</ele>
        <time>2023-06-02T09:03:23.000Z</time>
      </trkpt>
      <trkpt lat="46.21641" lon="-1.43328">
        <ele>0.37263</ele>
        <time>2023-06-02T09:03:24.000Z</time>
      </trkpt>
      <trkpt lat="46.21642" lon="-1.43323">
        <ele>0.41347</ele>
        <time>2023-06-02T09:03:25.000Z</time>
      </trkpt>
      <trkpt lat="46.21643" lon="-1.43319">
        <ele>0.45407</ele>
        <time>2023-06-02T09:03:26.000Z</time>
      </trkpt>
      <trkpt lat="46.21645" lon="-1.43314">
        <ele>0.51401</ele>
        <time>2023-06-02T09:03:27.000Z</time>
      </trkpt>
      <trkpt lat="46.21646" lon="-1.4331">
        <ele>0.5831</ele>
        <time>2023-06-02T09:03:28.000Z</time>
      </trkpt>
      <trkpt lat="46.21648" lon="-1.43306">
        <ele>0.6909</ele>
        <time>2023-06-02T09:03:29.000Z</time>
      </trkpt>
      <trkpt lat="46.2165" lon="-1.43301">
        <ele>0.77714</ele>
        <time>2023-06-02T09:03:30.000Z</time>
      </trkpt>
      <trkpt lat="46.21651" lon="-1.43297">
        <ele>0.86161</ele>
        <time>2023-06-02T09:03:31.000Z</time>
      </trkpt>
      <trkpt lat="46.21653" lon="-1.43293">
        <ele>0.95219</ele>
        <time>2023-06-02T09:03:32.000Z</time>
      </trkpt>
      <trkpt lat="46.21654" lon="-1.43289">
        <ele>1.06494</ele>
        <time>2023-06-02T09:03:33.000Z</time>
      </trkpt>
      <trkpt lat="46.21656" lon="-1.43285">
        <ele>1.18193</ele>
        <time>2023-06-02T09:03:34.000Z</time>
      </trkpt>
      <trkpt lat="46.21657" lon="-1.4328">
        <ele>1.29154</ele>
        <time>2023-06-02T09:03:35.000Z</time>
      </trkpt>
      <trkpt lat="46.21659" lon="-1.43276">
        <ele>1.38857</ele>
        <time>2023-06-02T09:03:36.000Z</time>
      </trkpt>
      <trkpt lat="46.21661" lon="-1.43272">
        <ele>1.47525</ele>
        <time>2023-06-02T09:03:37.000Z</time>
      </trkpt>
      <trkpt lat="46.21662" lon="-1.43268">
        <ele>1.54885</ele>
        <time>2023-06-02T09:03:38.000Z</time>
      </trkpt>
      <trkpt lat="46.21664" lon="-1.43263">
        <ele>1.59333</ele>
        <time>2023-06-02T09:03:39.000Z</time>
      </trkpt>
      <trkpt lat="46.21666" lon="-1.43259">
        <ele>1.59632</ele>
        <time>2023-06-02T09:03:40.000Z</time>
      </trkpt>
      <trkpt lat="46.21668" lon="-1.43254">
        <ele>1.60105</ele>
        <time>2023-06-02T09:03:41.000Z</time>
      </trkpt>
      <trkpt lat="46.21669" lon="-1.4325">
        <ele>1.63665</ele>
        <time>2023-06-02T09:03:42.000Z</time>
      </trkpt>
      <trkpt lat="46.21671" lon="-1.43245">
        <ele>1.647</ele>
        <time>2023-06-02T09:03:43.000Z</time>
      </trkpt>
      <trkpt lat="46.21672" lon="-1.43241">
        <ele>1.65326</ele>
        <time>2023-06-02T09:03:44.000Z</time>
      </trkpt>
      <trkpt lat="46.21673" lon="-1.43237">
        <ele>1.66423</ele>
        <time>2023-06-02T09:03:45.000Z</time>
      </trkpt>
      <trkpt lat="46.21675" lon="-1.43232">
        <ele>1.68105</ele>
        <time>2023-06-02T09:03:46.000Z</time>
      </trkpt>
      <trkpt lat="46.21677" lon="-1.43228">
        <ele>1.73753</ele>
        <time>2023-06-02T09:03:47.000Z</time>
      </trkpt>
      <trkpt lat="46.21678" lon="-1.43224">
        <ele>1.80357</ele>
        <time>2023-06-02T09:03:48.000Z</time>
      </trkpt>
      <trkpt lat="46.2168" lon="-1.4322">
        <ele>1.84376</ele>
        <time>2023-06-02T09:03:49.000Z</time>
      </trkpt>
      <trkpt lat="46.21682" lon="-1.43217">
        <ele>1.87533</ele>
        <time>2023-06-02T09:03:50.000Z</time>
      </trkpt>
      <trkpt lat="46.21684" lon="-1.43213">
        <ele>1.87715</ele>
        <time>2023-06-02T09:03:51.000Z</time>
      </trkpt>
      <trkpt lat="46.21686" lon="-1.43209">
        <ele>1.88493</ele>
        <time>2023-06-02T09:03:52.000Z</time>
      </trkpt>
      <trkpt lat="46.21687" lon="-1.43205">
        <ele>1.88368</ele>
        <time>2023-06-02T09:03:53.000Z</time>
      </trkpt>
      <trkpt lat="46.21689" lon="-1.43202">
        <ele>1.88429</ele>
        <time>2023-06-02T09:03:54.000Z</time>
      </trkpt>
      <trkpt lat="46.21691" lon="-1.43198">
        <ele>1.86929</ele>
        <time>2023-06-02T09:03:55.000Z</time>
      </trkpt>
      <trkpt lat="46.21693" lon="-1.43195">
        <ele>1.84861</ele>
        <time>2023-06-02T09:03:56.000Z</time>
      </trkpt>
      <trkpt lat="46.21695" lon="-1.43191">
        <ele>1.82715</ele>
        <time>2023-06-02T09:03:57.000Z</time>
      </trkpt>
      <trkpt lat="46.21698" lon="-1.43189">
        <ele>1.83353</ele>
        <time>2023-06-02T09:03:58.000Z</time>
      </trkpt>
      <trkpt lat="46.21701" lon="-1.43186">
        <ele>1.83729</ele>
        <time>2023-06-02T09:03:59.000Z</time>
      </trkpt>
      <trkpt lat="46.21704" lon="-1.43185">
        <ele>1.84082</ele>
        <time>2023-06-02T09:04:00.000Z</time>
      </trkpt>
      <trkpt lat="46.21707" lon="-1.43183">
        <ele>1.83152</ele>
        <time>2023-06-02T09:04:01.000Z</time>
      </trkpt>
      <trkpt lat="46.2171" lon="-1.43181">
        <ele>1.8069</ele>
        <time>2023-06-02T09:04:02.000Z</time>
      </trkpt>
      <trkpt lat="46.21713" lon="-1.43179">
        <ele>1.77862</ele>
        <time>2023-06-02T09:04:03.000Z</time>
      </trkpt>
      <trkpt lat="46.21716" lon="-1.43177">
        <ele>1.72141</ele>
        <time>2023-06-02T09:04:04.000Z</time>
      </trkpt>
      <trkpt lat="46.21719" lon="-1.43175">
        <ele>1.67443</ele>
        <time>2023-06-02T09:04:05.000Z</time>
      </trkpt>
      <trkpt lat="46.21722" lon="-1.43173">
        <ele>1.62707</ele>
        <time>2023-06-02T09:04:06.000Z</time>
      </trkpt>
      <trkpt lat="46.21725" lon="-1.43171">
        <ele>1.52406</ele>
        <time>2023-06-02T09:04:07.000Z</time>
      </trkpt>
      <trkpt lat="46.21728" lon="-1.43169">
        <ele>1.38914</ele>
        <time>2023-06-02T09:04:08.000Z</time>
      </trkpt>
      <trkpt lat="46.21731" lon="-1.43167">
        <ele>1.25599</ele>
        <time>2023-06-02T09:04:09.000Z</time>
      </trkpt>
      <trkpt lat="46.21733" lon="-1.43165">
        <ele>1.15234</ele>
        <time>2023-06-02T09:04:10.000Z</time>
      </trkpt>
      <trkpt lat="46.21736" lon="-1.43163">
        <ele>1.06279</ele>
        <time>2023-06-02T09:04:11.000Z</time>
      </trkpt>
      <trkpt lat="46.21739" lon="-1.43161">
        <ele>0.98716</ele>
        <time>2023-06-02T09:04:12.000Z</time>
      </trkpt>
      <trkpt lat="46.21742" lon="-1.43159">
        <ele>0.89393</ele>
        <time>2023-06-02T09:04:13.000Z</time>
      </trkpt>
      <trkpt lat="46.21745" lon="-1.43157">
        <ele>0.79528</ele>
        <time>2023-06-02T09:04:14.000Z</time>
      </trkpt>
      <trkpt lat="46.21748" lon="-1.43155">
        <ele>0.72254</ele>
        <time>2023-06-02T09:04:15.000Z</time>
      </trkpt>
      <trkpt lat="46.21751" lon="-1.43153">
        <ele>0.66764</ele>
        <time>2023-06-02T09:04:16.000Z</time>
      </trkpt>
      <trkpt lat="46.21754" lon="-1.43151">
        <ele>0.61934</ele>
        <time>2023-06-02T09:04:17.000Z</time>
      </trkpt>
      <trkpt lat="46.21757" lon="-1.43149">
        <ele>0.54222</ele>
        <time>2023-06-02T09:04:18.000Z</time>
      </trkpt>
      <trkpt lat="46.2176" lon="-1.43147">
        <ele>0.48443</ele>
        <time>2023-06-02T09:04:19.000Z</time>
      </trkpt>
      <trkpt lat="46.21763" lon="-1.43145">
        <ele>0.44485</ele>
        <time>2023-06-02T09:04:20.000Z</time>
      </trkpt>
      <trkpt lat="46.21766" lon="-1.43143">
        <ele>0.43008</ele>
        <time>2023-06-02T09:04:21.000Z</time>
      </trkpt>
      <trkpt lat="46.21769" lon="-1.43141">
        <ele>0.42491</ele>
        <time>2023-06-02T09:04:22.000Z</time>
      </trkpt>
      <trkpt lat="46.21772" lon="-1.4314">
        <ele>0.40855</ele>
        <time>2023-06-02T09:04:23.000Z</time>
      </trkpt>
      <trkpt lat="46.21775" lon="-1.43138">
        <ele>0.40508</ele>
        <time>2023-06-02T09:04:24.000Z</time>
      </trkpt>
      <trkpt lat="46.21778" lon="-1.43136">
        <ele>0.42804</ele>
        <time>2023-06-02T09:04:25.000Z</time>
      </trkpt>
      <trkpt lat="46.21781" lon="-1.43134">
        <ele>0.45256</ele>
        <time>2023-06-02T09:04:26.000Z</time>
      </trkpt>
      <trkpt lat="46.21784" lon="-1.43133">
        <ele>0.49675</ele>
        <time>2023-06-02T09:04:27.000Z</time>
      </trkpt>
      <trkpt lat="46.21787" lon="-1.43131">
        <ele>0.57621</ele>
        <time>2023-06-02T09:04:28.000Z</time>
      </trkpt>
      <trkpt lat="46.21791" lon="-1.43129">
        <ele>0.66127</ele>
        <time>2023-06-02T09:04:29.000Z</time>
      </trkpt>
      <trkpt lat="46.21794" lon="-1.43126">
        <ele>0.7323</ele>
        <time>2023-06-02T09:04:30.000Z</time>
      </trkpt>
      <trkpt lat="46.21796" lon="-1.43123">
        <ele>0.81931</ele>
        <time>2023-06-02T09:04:31.000Z</time>
      </trkpt>
      <trkpt lat="46.21799" lon="-1.4312">
        <ele>0.8809</ele>
        <time>2023-06-02T09:04:32.000Z</time>
      </trkpt>
      <trkpt lat="46.21802" lon="-1.43116">
        <ele>0.93939</ele>
        <time>2023-06-02T09:04:33.000Z</time>
      </trkpt>
      <trkpt lat="46.21805" lon="-1.43113">
        <ele>1.007</ele>
        <time>2023-06-02T09:04:34.000Z</time>
      </trkpt>
      <trkpt lat="46.21808" lon="-1.4311">
        <ele>1.07662</ele>
        <time>2023-06-02T09:04:35.000Z</time>
      </trkpt>
      <trkpt lat="46.21811" lon="-1.43107">
        <ele>1.12084</ele>
        <time>2023-06-02T09:04:36.000Z</time>
      </trkpt>
      <trkpt lat="46.21814" lon="-1.43104">
        <ele>1.12861</ele>
        <time>2023-06-02T09:04:37.000Z</time>
      </trkpt>
      <trkpt lat="46.21816" lon="-1.431">
        <ele>1.11731</ele>
        <time>2023-06-02T09:04:38.000Z</time>
      </trkpt>
      <trkpt lat="46.21819" lon="-1.43097">
        <ele>1.10113</ele>
        <time>2023-06-02T09:04:39.000Z</time>
      </trkpt>
      <trkpt lat="46.21822" lon="-1.43094">
        <ele>1.08871</ele>
        <time>2023-06-02T09:04:40.000Z</time>
      </trkpt>
      <trkpt lat="46.21825" lon="-1.43091">
        <ele>1.06331</ele>
        <time>2023-06-02T09:04:41.000Z</time>
      </trkpt>
      <trkpt lat="46.21828" lon="-1.43089">
        <ele>1.04191</ele>
        <time>2023-06-02T09:04:42.000Z</time>
      </trkpt>
      <trkpt lat="46.21831" lon="-1.43086">
        <ele>1.02776</ele>
        <time>2023-06-02T09:04:43.000Z</time>
      </trkpt>
      <trkpt lat="46.21834" lon="-1.43083">
        <ele>1.04531</ele>
        <time>2023-06-02T09:04:44.000Z</time>
      </trkpt>
      <trkpt lat="46.21837" lon="-1.4308">
        <ele>1.02093</ele>
        <time>2023-06-02T09:04:45.000Z</time>
      </trkpt>
      <trkpt lat="46.2184" lon="-1.43077">
        <ele>1.00904</ele>
        <time>2023-06-02T09:04:46.000Z</time>
      </trkpt>
      <trkpt lat="46.21843" lon="-1.43074">
        <ele>0.99244</ele>
        <time>2023-06-02T09:04:47.000Z</time>
      </trkpt>
      <trkpt lat="46.21845" lon="-1.43071">
        <ele>0.97924</ele>
        <time>2023-06-02T09:04:48.000Z</time>
      </trkpt>
      <trkpt lat="46.21848" lon="-1.43068">
        <ele>0.96269</ele>
        <time>2023-06-02T09:04:49.000Z</time>
      </trkpt>
      <trkpt lat="46.21851" lon="-1.43065">
        <ele>0.92076</ele>
        <time>2023-06-02T09:04:50.000Z</time>
      </trkpt>
      <trkpt lat="46.21853" lon="-1.43062">
        <ele>0.84935</ele>
        <time>2023-06-02T09:04:51.000Z</time>
      </trkpt>
      <trkpt lat="46.21856" lon="-1.43059">
        <ele>0.78695</ele>
        <time>2023-06-02T09:04:52.000Z</time>
      </trkpt>
      <trkpt lat="46.21859" lon="-1.43056">
        <ele>0.73595</ele>
        <time>2023-06-02T09:04:53.000Z</time>
      </trkpt>
      <trkpt lat="46.21862" lon="-1.43053">
        <ele>0.66294</ele>
        <time>2023-06-02T09:04:54.000Z</time>
      </trkpt>
      <trkpt lat="46.21864" lon="-1.4305">
        <ele>0.6078</ele>
        <time>2023-06-02T09:04:55.000Z</time>
      </trkpt>
      <trkpt lat="46.21867" lon="-1.43047">
        <ele>0.6039</ele>
        <time>2023-06-02T09:04:56.000Z</time>
      </trkpt>
      <trkpt lat="46.2187" lon="-1.43044">
        <ele>0.6451</ele>
        <time>2023-06-02T09:04:57.000Z</time>
      </trkpt>
      <trkpt lat="46.21872" lon="-1.4304">
        <ele>0.72037</ele>
        <time>2023-06-02T09:04:58.000Z</time>
      </trkpt>
      <trkpt lat="46.21874" lon="-1.43037">
        <ele>0.78659</ele>
        <time>2023-06-02T09:04:59.000Z</time>
      </trkpt>
      <trkpt lat="46.21877" lon="-1.43035">
        <ele>0.8553</ele>
        <time>2023-06-02T09:05:00.000Z</time>
      </trkpt>
      <trkpt lat="46.21879" lon="-1.43032">
        <ele>0.8979</ele>
        <time>2023-06-02T09:05:01.000Z</time>
      </trkpt>
      <trkpt lat="46.21882" lon="-1.43029">
        <ele>0.92869</ele>
        <time>2023-06-02T09:05:02.000Z</time>
      </trkpt>
      <trkpt lat="46.21884" lon="-1.43025">
        <ele>0.95989</ele>
        <time>2023-06-02T09:05:03.000Z</time>
      </trkpt>
      <trkpt lat="46.21887" lon="-1.43022">
        <ele>0.97652</ele>
        <time>2023-06-02T09:05:04.000Z</time>
      </trkpt>
      <trkpt lat="46.21889" lon="-1.43019">
        <ele>0.99989</ele>
        <time>2023-06-02T09:05:05.000Z</time>
      </trkpt>
      <trkpt lat="46.2189" lon="-1.43015">
        <ele>0.98726</ele>
        <time>2023-06-02T09:05:06.000Z</time>
      </trkpt>
      <trkpt lat="46.21891" lon="-1.43011">
        <ele>0.96892</ele>
        <time>2023-06-02T09:05:07.000Z</time>
      </trkpt>
      <trkpt lat="46.21891" lon="-1.43006">
        <ele>0.9191</ele>
        <time>2023-06-02T09:05:08.000Z</time>
      </trkpt>
      <trkpt lat="46.21891" lon="-1.43001">
        <ele>0.86241</ele>
        <time>2023-06-02T09:05:09.000Z</time>
      </trkpt>
      <trkpt lat="46.2189" lon="-1.42996">
        <ele>0.81772</ele>
        <time>2023-06-02T09:05:10.000Z</time>
      </trkpt>
      <trkpt lat="46.21889" lon="-1.42991">
        <ele>0.80406</ele>
        <time>2023-06-02T09:05:11.000Z</time>
      </trkpt>
      <trkpt lat="46.21888" lon="-1.42987">
        <ele>0.78162</ele>
        <time>2023-06-02T09:05:12.000Z</time>
      </trkpt>
      <trkpt lat="46.21887" lon="-1.42982">
        <ele>0.7646</ele>
        <time>2023-06-02T09:05:13.000Z</time>
      </trkpt>
      <trkpt lat="46.21886" lon="-1.42978">
        <ele>0.7518</ele>
        <time>2023-06-02T09:05:14.000Z</time>
      </trkpt>
      <trkpt lat="46.21885" lon="-1.42974">
        <ele>0.72121</ele>
        <time>2023-06-02T09:05:15.000Z</time>
      </trkpt>
      <trkpt lat="46.21885" lon="-1.42969">
        <ele>0.66981</ele>
        <time>2023-06-02T09:05:16.000Z</time>
      </trkpt>
      <trkpt lat="46.21885" lon="-1.42964">
        <ele>0.60055</ele>
        <time>2023-06-02T09:05:17.000Z</time>
      </trkpt>
      <trkpt lat="46.21886" lon="-1.4296">
        <ele>0.52533</ele>
        <time>2023-06-02T09:05:18.000Z</time>
      </trkpt>
      <trkpt lat="46.21887" lon="-1.42955">
        <ele>0.4331</ele>
        <time>2023-06-02T09:05:19.000Z</time>
      </trkpt>
      <trkpt lat="46.21889" lon="-1.42951">
        <ele>0.32287</ele>
        <time>2023-06-02T09:05:20.000Z</time>
      </trkpt>
      <trkpt lat="46.21891" lon="-1.42948">
        <ele>0.25991</ele>
        <time>2023-06-02T09:05:21.000Z</time>
      </trkpt>
      <trkpt lat="46.21893" lon="-1.42945">
        <ele>0.20831</ele>
        <time>2023-06-02T09:05:22.000Z</time>
      </trkpt>
      <trkpt lat="46.21895" lon="-1.42942">
        <ele>0.15945</ele>
        <time>2023-06-02T09:05:23.000Z</time>
      </trkpt>
      <trkpt lat="46.21898" lon="-1.4294">
        <ele>0.10497</ele>
        <time>2023-06-02T09:05:24.000Z</time>
      </trkpt>
      <trkpt lat="46.219" lon="-1.42937">
        <ele>0.07647</ele>
        <time>2023-06-02T09:05:25.000Z</time>
      </trkpt>
      <trkpt lat="46.21902" lon="-1.42934">
        <ele>0.05057</ele>
        <time>2023-06-02T09:05:26.000Z</time>
      </trkpt>
      <trkpt lat="46.21905" lon="-1.42932">
        <ele>0.02274</ele>
        <time>2023-06-02T09:05:27.000Z</time>
      </trkpt>
      <trkpt lat="46.21907" lon="-1.42929">
        <ele>-0.00705</ele>
        <time>2023-06-02T09:05:28.000Z</time>
      </trkpt>
      <trkpt lat="46.21909" lon="-1.42926">
        <ele>-0.0541</ele>
        <time>2023-06-02T09:05:29.000Z</time>
      </trkpt>
      <trkpt lat="46.21912" lon="-1.42923">
        <ele>-0.11669</ele>
        <time>2023-06-02T09:05:30.000Z</time>
      </trkpt>
      <trkpt lat="46.21914" lon="-1.42921">
        <ele>-0.15225</ele>
        <time>2023-06-02T09:05:31.000Z</time>
      </trkpt>
      <trkpt lat="46.21917" lon="-1.42918">
        <ele>-0.2064</ele>
        <time>2023-06-02T09:05:32.000Z</time>
      </trkpt>
      <trkpt lat="46.21919" lon="-1.42914">
        <ele>-0.29199</ele>
        <time>2023-06-02T09:05:33.000Z</time>
      </trkpt>
      <trkpt lat="46.21921" lon="-1.42912">
        <ele>-0.37788</ele>
        <time>2023-06-02T09:05:34.000Z</time>
      </trkpt>
      <trkpt lat="46.21923" lon="-1.42909">
        <ele>-0.46212</ele>
        <time>2023-06-02T09:05:35.000Z</time>
      </trkpt>
      <trkpt lat="46.21925" lon="-1.42906">
        <ele>-0.52546</ele>
        <time>2023-06-02T09:05:36.000Z</time>
      </trkpt>
      <trkpt lat="46.21927" lon="-1.42903">
        <ele>-0.57321</ele>
        <time>2023-06-02T09:05:37.000Z</time>
      </trkpt>
      <trkpt lat="46.21929" lon="-1.429">
        <ele>-0.62473</ele>
        <time>2023-06-02T09:05:38.000Z</time>
      </trkpt>
      <trkpt lat="46.21932" lon="-1.42897">
        <ele>-0.63598</ele>
        <time>2023-06-02T09:05:39.000Z</time>
      </trkpt>
      <trkpt lat="46.21934" lon="-1.42894">
        <ele>-0.63139</ele>
        <time>2023-06-02T09:05:40.000Z</time>
      </trkpt>
      <trkpt lat="46.21936" lon="-1.42891">
        <ele>-0.64369</ele>
        <time>2023-06-02T09:05:41.000Z</time>
      </trkpt>
      <trkpt lat="46.21939" lon="-1.42887">
        <ele>-0.65877</ele>
        <time>2023-06-02T09:05:42.000Z</time>
      </trkpt>
      <trkpt lat="46.21941" lon="-1.42884">
        <ele>-0.64165</ele>
        <time>2023-06-02T09:05:43.000Z</time>
      </trkpt>
      <trkpt lat="46.21943" lon="-1.4288">
        <ele>-0.64277</ele>
        <time>2023-06-02T09:05:44.000Z</time>
      </trkpt>
      <trkpt lat="46.21945" lon="-1.42877">
        <ele>-0.68282</ele>
        <time>2023-06-02T09:05:45.000Z</time>
      </trkpt>
      <trkpt lat="46.21947" lon="-1.42873">
        <ele>-0.73235</ele>
        <time>2023-06-02T09:05:46.000Z</time>
      </trkpt>
      <trkpt lat="46.2195" lon="-1.42869">
        <ele>-0.77108</ele>
        <time>2023-06-02T09:05:47.000Z</time>
      </trkpt>
      <trkpt lat="46.21952" lon="-1.42866">
        <ele>-0.79095</ele>
        <time>2023-06-02T09:05:48.000Z</time>
      </trkpt>
      <trkpt lat="46.21954" lon="-1.42862">
        <ele>-0.79745</ele>
        <time>2023-06-02T09:05:49.000Z</time>
      </trkpt>
      <trkpt lat="46.21956" lon="-1.42859">
        <ele>-0.75949</ele>
        <time>2023-06-02T09:05:50.000Z</time>
      </trkpt>
      <trkpt lat="46.21959" lon="-1.42855">
        <ele>-0.75291</ele>
        <time>2023-06-02T09:05:51.000Z</time>
      </trkpt>
      <trkpt lat="46.21961" lon="-1.42852">
        <ele>-0.71417</ele>
        <time>2023-06-02T09:05:52.000Z</time>
      </trkpt>
      <trkpt lat="46.21963" lon="-1.42848">
        <ele>-0.64491</ele>
        <time>2023-06-02T09:05:53.000Z</time>
      </trkpt>
      <trkpt lat="46.21965" lon="-1.42844">
        <ele>-0.60438</ele>
        <time>2023-06-02T09:05:54.000Z</time>
      </trkpt>
      <trkpt lat="46.21967" lon="-1.42841">
        <ele>-0.55578</ele>
        <time>2023-06-02T09:05:55.000Z</time>
      </trkpt>
      <trkpt lat="46.2197" lon="-1.42838">
        <ele>-0.52852</ele>
        <time>2023-06-02T09:05:56.000Z</time>
      </trkpt>
      <trkpt lat="46.21972" lon="-1.42834">
        <ele>-0.49671</ele>
        <time>2023-06-02T09:05:57.000Z</time>
      </trkpt>
      <trkpt lat="46.21975" lon="-1.42831">
        <ele>-0.4455</ele>
        <time>2023-06-02T09:05:58.000Z</time>
      </trkpt>
      <trkpt lat="46.21977" lon="-1.42828">
        <ele>-0.41423</ele>
        <time>2023-06-02T09:05:59.000Z</time>
      </trkpt>
      <trkpt lat="46.2198" lon="-1.42825">
        <ele>-0.38756</ele>
        <time>2023-06-02T09:06:00.000Z</time>
      </trkpt>
      <trkpt lat="46.21982" lon="-1.42821">
        <ele>-0.34649</ele>
        <time>2023-06-02T09:06:01.000Z</time>
      </trkpt>
      <trkpt lat="46.21984" lon="-1.42818">
        <ele>-0.31211</ele>
        <time>2023-06-02T09:06:02.000Z</time>
      </trkpt>
      <trkpt lat="46.21986" lon="-1.42815">
        <ele>-0.297</ele>
        <time>2023-06-02T09:06:03.000Z</time>
      </trkpt>
      <trkpt lat="46.21989" lon="-1.42812">
        <ele>-0.26168</ele>
        <time>2023-06-02T09:06:04.000Z</time>
      </trkpt>
      <trkpt lat="46.21991" lon="-1.42809">
        <ele>-0.20294</ele>
        <time>2023-06-02T09:06:05.000Z</time>
      </trkpt>
      <trkpt lat="46.21993" lon="-1.42806">
        <ele>-0.12219</ele>
        <time>2023-06-02T09:06:06.000Z</time>
      </trkpt>
      <trkpt lat="46.21996" lon="-1.42802">
        <ele>-0.02846</ele>
        <time>2023-06-02T09:06:07.000Z</time>
      </trkpt>
      <trkpt lat="46.21998" lon="-1.42799">
        <ele>0.0628</ele>
        <time>2023-06-02T09:06:08.000Z</time>
      </trkpt>
      <trkpt lat="46.22001" lon="-1.42795">
        <ele>0.1594</ele>
        <time>2023-06-02T09:06:09.000Z</time>
      </trkpt>
      <trkpt lat="46.22003" lon="-1.42792">
        <ele>0.22107</ele>
        <time>2023-06-02T09:06:10.000Z</time>
      </trkpt>
      <trkpt lat="46.22006" lon="-1.42788">
        <ele>0.28616</ele>
        <time>2023-06-02T09:06:11.000Z</time>
      </trkpt>
      <trkpt lat="46.22008" lon="-1.42785">
        <ele>0.34215</ele>
        <time>2023-06-02T09:06:12.000Z</time>
      </trkpt>
      <trkpt lat="46.22011" lon="-1.42782">
        <ele>0.38661</ele>
        <time>2023-06-02T09:06:13.000Z</time>
      </trkpt>
      <trkpt lat="46.22014" lon="-1.42779">
        <ele>0.47052</ele>
        <time>2023-06-02T09:06:14.000Z</time>
      </trkpt>
      <trkpt lat="46.22016" lon="-1.42775">
        <ele>0.53487</ele>
        <time>2023-06-02T09:06:15.000Z</time>
      </trkpt>
      <trkpt lat="46.22019" lon="-1.42772">
        <ele>0.59343</ele>
        <time>2023-06-02T09:06:16.000Z</time>
      </trkpt>
      <trkpt lat="46.22022" lon="-1.42768">
        <ele>0.64203</ele>
        <time>2023-06-02T09:06:17.000Z</time>
      </trkpt>
      <trkpt lat="46.22024" lon="-1.42764">
        <ele>0.66693</ele>
        <time>2023-06-02T09:06:18.000Z</time>
      </trkpt>
      <trkpt lat="46.22027" lon="-1.42761">
        <ele>0.69595</ele>
        <time>2023-06-02T09:06:19.000Z</time>
      </trkpt>
      <trkpt lat="46.22029" lon="-1.42757">
        <ele>0.70578</ele>
        <time>2023-06-02T09:06:20.000Z</time>
      </trkpt>
      <trkpt lat="46.22032" lon="-1.42754">
        <ele>0.70021</ele>
        <time>2023-06-02T09:06:21.000Z</time>
      </trkpt>
      <trkpt lat="46.22035" lon="-1.4275">
        <ele>0.68497</ele>
        <time>2023-06-02T09:06:22.000Z</time>
      </trkpt>
      <trkpt lat="46.22038" lon="-1.42746">
        <ele>0.66212</ele>
        <time>2023-06-02T09:06:23.000Z</time>
      </trkpt>
      <trkpt lat="46.22041" lon="-1.42743">
        <ele>0.63943</ele>
        <time>2023-06-02T09:06:24.000Z</time>
      </trkpt>
      <trkpt lat="46.22043" lon="-1.42739">
        <ele>0.61505</ele>
        <time>2023-06-02T09:06:25.000Z</time>
      </trkpt>
      <trkpt lat="46.22046" lon="-1.42736">
        <ele>0.59689</ele>
        <time>2023-06-02T09:06:26.000Z</time>
      </trkpt>
      <trkpt lat="46.22049" lon="-1.42732">
        <ele>0.5685</ele>
        <time>2023-06-02T09:06:27.000Z</time>
      </trkpt>
      <trkpt lat="46.22052" lon="-1.42729">
        <ele>0.52562</ele>
        <time>2023-06-02T09:06:28.000Z</time>
      </trkpt>
      <trkpt lat="46.22054" lon="-1.42725">
        <ele>0.48747</ele>
        <time>2023-06-02T09:06:29.000Z</time>
      </trkpt>
      <trkpt lat="46.22057" lon="-1.42722">
        <ele>0.44894</ele>
        <time>2023-06-02T09:06:30.000Z</time>
      </trkpt>
      <trkpt lat="46.22059" lon="-1.42719">
        <ele>0.38311</ele>
        <time>2023-06-02T09:06:31.000Z</time>
      </trkpt>
      <trkpt lat="46.22061" lon="-1.42716">
        <ele>0.31688</ele>
        <time>2023-06-02T09:06:32.000Z</time>
      </trkpt>
      <trkpt lat="46.22063" lon="-1.42712">
        <ele>0.25129</ele>
        <time>2023-06-02T09:06:33.000Z</time>
      </trkpt>
      <trkpt lat="46.22065" lon="-1.42709">
        <ele>0.20674</ele>
        <time>2023-06-02T09:06:34.000Z</time>
      </trkpt>
      <trkpt lat="46.22066" lon="-1.42707">
        <ele>0.17038</ele>
        <time>2023-06-02T09:06:35.000Z</time>
      </trkpt>
      <trkpt lat="46.22068" lon="-1.42704">
        <ele>0.13394</ele>
        <time>2023-06-02T09:06:36.000Z</time>
      </trkpt>
      <trkpt lat="46.22071" lon="-1.42703">
        <ele>0.10538</ele>
        <time>2023-06-02T09:06:38.000Z</time>
      </trkpt>
      <trkpt lat="46.22072" lon="-1.42705">
        <ele>0.089</ele>
        <time>2023-06-02T09:06:39.000Z</time>
      </trkpt>
      <trkpt lat="46.22073" lon="-1.42707">
        <ele>0.07883</ele>
        <time>2023-06-02T09:06:40.000Z</time>
      </trkpt>
      <trkpt lat="46.22075" lon="-1.4271">
        <ele>0.0843</ele>
        <time>2023-06-02T09:06:41.000Z</time>
      </trkpt>
      <trkpt lat="46.22076" lon="-1.42712">
        <ele>0.09537</ele>
        <time>2023-06-02T09:06:42.000Z</time>
      </trkpt>
      <trkpt lat="46.22078" lon="-1.42715">
        <ele>0.11652</ele>
        <time>2023-06-02T09:06:43.000Z</time>
      </trkpt>
      <trkpt lat="46.22079" lon="-1.42717">
        <ele>0.12403</ele>
        <time>2023-06-02T09:06:44.000Z</time>
      </trkpt>
      <trkpt lat="46.22081" lon="-1.4272">
        <ele>0.09958</ele>
        <time>2023-06-02T09:06:45.000Z</time>
      </trkpt>
      <trkpt lat="46.22082" lon="-1.42722">
        <ele>0.08207</ele>
        <time>2023-06-02T09:06:46.000Z</time>
      </trkpt>
      <trkpt lat="46.22084" lon="-1.42725">
        <ele>0.0094</ele>
        <time>2023-06-02T09:06:47.000Z</time>
      </trkpt>
      <trkpt lat="46.22086" lon="-1.42728">
        <ele>-0.0363</ele>
        <time>2023-06-02T09:06:48.000Z</time>
      </trkpt>
      <trkpt lat="46.22087" lon="-1.42731">
        <ele>-0.07754</ele>
        <time>2023-06-02T09:06:49.000Z</time>
      </trkpt>
      <trkpt lat="46.22089" lon="-1.42734">
        <ele>-0.07281</ele>
        <time>2023-06-02T09:06:50.000Z</time>
      </trkpt>
      <trkpt lat="46.22091" lon="-1.42737">
        <ele>-0.05551</ele>
        <time>2023-06-02T09:06:51.000Z</time>
      </trkpt>
      <trkpt lat="46.22093" lon="-1.4274">
        <ele>-0.03477</ele>
        <time>2023-06-02T09:06:52.000Z</time>
      </trkpt>
      <trkpt lat="46.22095" lon="-1.42742">
        <ele>-0.01392</ele>
        <time>2023-06-02T09:06:53.000Z</time>
      </trkpt>
      <trkpt lat="46.22096" lon="-1.42745">
        <ele>0.011</ele>
        <time>2023-06-02T09:06:54.000Z</time>
      </trkpt>
      <trkpt lat="46.22098" lon="-1.42748">
        <ele>-0.00309</ele>
        <time>2023-06-02T09:06:55.000Z</time>
      </trkpt>
      <trkpt lat="46.221" lon="-1.42751">
        <ele>-0.02756</ele>
        <time>2023-06-02T09:06:56.000Z</time>
      </trkpt>
      <trkpt lat="46.22102" lon="-1.42754">
        <ele>-0.07108</ele>
        <time>2023-06-02T09:06:57.000Z</time>
      </trkpt>
      <trkpt lat="46.22103" lon="-1.42756">
        <ele>-0.15205</ele>
        <time>2023-06-02T09:06:58.000Z</time>
      </trkpt>
      <trkpt lat="46.22105" lon="-1.42759">
        <ele>-0.23687</ele>
        <time>2023-06-02T09:06:59.000Z</time>
      </trkpt>
      <trkpt lat="46.22106" lon="-1.42762">
        <ele>-0.31047</ele>
        <time>2023-06-02T09:07:00.000Z</time>
      </trkpt>
      <trkpt lat="46.22108" lon="-1.42764">
        <ele>-0.3643</ele>
        <time>2023-06-02T09:07:01.000Z</time>
      </trkpt>
      <trkpt lat="46.2211" lon="-1.42766">
        <ele>-0.38634</ele>
        <time>2023-06-02T09:07:02.000Z</time>
      </trkpt>
      <trkpt lat="46.22112" lon="-1.42766">
        <ele>-0.40014</ele>
        <time>2023-06-02T09:07:03.000Z</time>
      </trkpt>
      <trkpt lat="46.22114" lon="-1.42766">
        <ele>-0.3988</ele>
        <time>2023-06-02T09:07:04.000Z</time>
      </trkpt>
      <trkpt lat="46.22116" lon="-1.42762">
        <ele>-0.38227</ele>
        <time>2023-06-02T09:07:06.000Z</time>
      </trkpt>
      <trkpt lat="46.22118" lon="-1.42757">
        <ele>-0.33445</ele>
        <time>2023-06-02T09:07:08.000Z</time>
      </trkpt>
      <trkpt lat="46.22119" lon="-1.42755">
        <ele>-0.22572</ele>
        <time>2023-06-02T09:07:09.000Z</time>
      </trkpt>
      <trkpt lat="46.22121" lon="-1.4275">
        <ele>-0.17165</ele>
        <time>2023-06-02T09:07:11.000Z</time>
      </trkpt>
      <trkpt lat="46.22123" lon="-1.42746">
        <ele>-0.1121</ele>
        <time>2023-06-02T09:07:12.000Z</time>
      </trkpt>
      <trkpt lat="46.22124" lon="-1.42743">
        <ele>-0.09853</ele>
        <time>2023-06-02T09:07:13.000Z</time>
      </trkpt>
      <trkpt lat="46.22126" lon="-1.42739">
        <ele>-0.09712</ele>
        <time>2023-06-02T09:07:14.000Z</time>
      </trkpt>
      <trkpt lat="46.22127" lon="-1.42735">
        <ele>-0.07296</ele>
        <time>2023-06-02T09:07:15.000Z</time>
      </trkpt>
      <trkpt lat="46.22129" lon="-1.42732">
        <ele>-0.03553</ele>
        <time>2023-06-02T09:07:16.000Z</time>
      </trkpt>
      <trkpt lat="46.22131" lon="-1.42728">
        <ele>0.01297</ele>
        <time>2023-06-02T09:07:17.000Z</time>
      </trkpt>
      <trkpt lat="46.22133" lon="-1.42724">
        <ele>0.08234</ele>
        <time>2023-06-02T09:07:18.000Z</time>
      </trkpt>
      <trkpt lat="46.22135" lon="-1.42721">
        <ele>0.16389</ele>
        <time>2023-06-02T09:07:19.000Z</time>
      </trkpt>
      <trkpt lat="46.22136" lon="-1.42717">
        <ele>0.25957</ele>
        <time>2023-06-02T09:07:20.000Z</time>
      </trkpt>
      <trkpt lat="46.22138" lon="-1.42713">
        <ele>0.39639</ele>
        <time>2023-06-02T09:07:21.000Z</time>
      </trkpt>
      <trkpt lat="46.2214" lon="-1.42709">
        <ele>0.53563</ele>
        <time>2023-06-02T09:07:22.000Z</time>
      </trkpt>
      <trkpt lat="46.22141" lon="-1.42705">
        <ele>0.62795</ele>
        <time>2023-06-02T09:07:23.000Z</time>
      </trkpt>
      <trkpt lat="46.22143" lon="-1.42701">
        <ele>0.71056</ele>
        <time>2023-06-02T09:07:24.000Z</time>
      </trkpt>
      <trkpt lat="46.22145" lon="-1.42697">
        <ele>0.75507</ele>
        <time>2023-06-02T09:07:25.000Z</time>
      </trkpt>
      <trkpt lat="46.22147" lon="-1.42693">
        <ele>0.78128</ele>
        <time>2023-06-02T09:07:26.000Z</time>
      </trkpt>
      <trkpt lat="46.22149" lon="-1.4269">
        <ele>0.79542</ele>
        <time>2023-06-02T09:07:27.000Z</time>
      </trkpt>
      <trkpt lat="46.22151" lon="-1.42686">
        <ele>0.84223</ele>
        <time>2023-06-02T09:07:28.000Z</time>
      </trkpt>
      <trkpt lat="46.22153" lon="-1.42682">
        <ele>0.86445</ele>
        <time>2023-06-02T09:07:29.000Z</time>
      </trkpt>
      <trkpt lat="46.22155" lon="-1.42678">
        <ele>0.87225</ele>
        <time>2023-06-02T09:07:30.000Z</time>
      </trkpt>
      <trkpt lat="46.22156" lon="-1.42674">
        <ele>0.9232</ele>
        <time>2023-06-02T09:07:31.000Z</time>
      </trkpt>
      <trkpt lat="46.22158" lon="-1.42671">
        <ele>0.97323</ele>
        <time>2023-06-02T09:07:32.000Z</time>
      </trkpt>
      <trkpt lat="46.2216" lon="-1.42667">
        <ele>1.00908</ele>
        <time>2023-06-02T09:07:33.000Z</time>
      </trkpt>
      <trkpt lat="46.22163" lon="-1.42664">
        <ele>1.05053</ele>
        <time>2023-06-02T09:07:34.000Z</time>
      </trkpt>
      <trkpt lat="46.22165" lon="-1.42661">
        <ele>1.0816</ele>
        <time>2023-06-02T09:07:35.000Z</time>
      </trkpt>
      <trkpt lat="46.22168" lon="-1.42657">
        <ele>1.11803</ele>
        <time>2023-06-02T09:07:36.000Z</time>
      </trkpt>
      <trkpt lat="46.22171" lon="-1.42654">
        <ele>1.13488</ele>
        <time>2023-06-02T09:07:37.000Z</time>
      </trkpt>
      <trkpt lat="46.22173" lon="-1.42652">
        <ele>1.14419</ele>
        <time>2023-06-02T09:07:38.000Z</time>
      </trkpt>
      <trkpt lat="46.22176" lon="-1.42649">
        <ele>1.13769</ele>
        <time>2023-06-02T09:07:39.000Z</time>
      </trkpt>
      <trkpt lat="46.22179" lon="-1.42647">
        <ele>1.12584</ele>
        <time>2023-06-02T09:07:40.000Z</time>
      </trkpt>
      <trkpt lat="46.22182" lon="-1.42644">
        <ele>1.09304</ele>
        <time>2023-06-02T09:07:41.000Z</time>
      </trkpt>
      <trkpt lat="46.22185" lon="-1.42642">
        <ele>1.03556</ele>
        <time>2023-06-02T09:07:42.000Z</time>
      </trkpt>
      <trkpt lat="46.22189" lon="-1.4264">
        <ele>0.99689</ele>
        <time>2023-06-02T09:07:43.000Z</time>
      </trkpt>
      <trkpt lat="46.22192" lon="-1.42638">
        <ele>0.92764</ele>
        <time>2023-06-02T09:07:44.000Z</time>
      </trkpt>
      <trkpt lat="46.22196" lon="-1.42637">
        <ele>0.87916</ele>
        <time>2023-06-02T09:07:45.000Z</time>
      </trkpt>
      <trkpt lat="46.22199" lon="-1.42635">
        <ele>0.84837</ele>
        <time>2023-06-02T09:07:46.000Z</time>
      </trkpt>
      <trkpt lat="46.22203" lon="-1.42634">
        <ele>0.84854</ele>
        <time>2023-06-02T09:07:47.000Z</time>
      </trkpt>
      <trkpt lat="46.22206" lon="-1.42633">
        <ele>0.83446</ele>
        <time>2023-06-02T09:07:48.000Z</time>
      </trkpt>
      <trkpt lat="46.22209" lon="-1.42632">
        <ele>0.81258</ele>
        <time>2023-06-02T09:07:49.000Z</time>
      </trkpt>
      <trkpt lat="46.22213" lon="-1.42631">
        <ele>0.82742</ele>
        <time>2023-06-02T09:07:50.000Z</time>
      </trkpt>
      <trkpt lat="46.22217" lon="-1.42629">
        <ele>0.79369</ele>
        <time>2023-06-02T09:07:51.000Z</time>
      </trkpt>
      <trkpt lat="46.2222" lon="-1.42628">
        <ele>0.76633</ele>
        <time>2023-06-02T09:07:52.000Z</time>
      </trkpt>
      <trkpt lat="46.22224" lon="-1.42626">
        <ele>0.74631</ele>
        <time>2023-06-02T09:07:53.000Z</time>
      </trkpt>
      <trkpt lat="46.22227" lon="-1.42624">
        <ele>0.71103</ele>
        <time>2023-06-02T09:07:54.000Z</time>
      </trkpt>
      <trkpt lat="46.22231" lon="-1.42622">
        <ele>0.68021</ele>
        <time>2023-06-02T09:07:55.000Z</time>
      </trkpt>
      <trkpt lat="46.22234" lon="-1.42621">
        <ele>0.65729</ele>
        <time>2023-06-02T09:07:56.000Z</time>
      </trkpt>
      <trkpt lat="46.22237" lon="-1.42619">
        <ele>0.65693</ele>
        <time>2023-06-02T09:07:57.000Z</time>
      </trkpt>
      <trkpt lat="46.22241" lon="-1.42618">
        <ele>0.67031</ele>
        <time>2023-06-02T09:07:58.000Z</time>
      </trkpt>
      <trkpt lat="46.22244" lon="-1.42618">
        <ele>0.70638</ele>
        <time>2023-06-02T09:07:59.000Z</time>
      </trkpt>
      <trkpt lat="46.22248" lon="-1.42617">
        <ele>0.75905</ele>
        <time>2023-06-02T09:08:00.000Z</time>
      </trkpt>
      <trkpt lat="46.22251" lon="-1.42616">
        <ele>0.8041</ele>
        <time>2023-06-02T09:08:01.000Z</time>
      </trkpt>
      <trkpt lat="46.22255" lon="-1.42615">
        <ele>0.88218</ele>
        <time>2023-06-02T09:08:02.000Z</time>
      </trkpt>
      <trkpt lat="46.22258" lon="-1.42614">
        <ele>0.95941</ele>
        <time>2023-06-02T09:08:03.000Z</time>
      </trkpt>
      <trkpt lat="46.22262" lon="-1.42613">
        <ele>1.05011</ele>
        <time>2023-06-02T09:08:04.000Z</time>
      </trkpt>
      <trkpt lat="46.22265" lon="-1.42613">
        <ele>1.12853</ele>
        <time>2023-06-02T09:08:05.000Z</time>
      </trkpt>
      <trkpt lat="46.22269" lon="-1.42612">
        <ele>1.21858</ele>
        <time>2023-06-02T09:08:06.000Z</time>
      </trkpt>
      <trkpt lat="46.22272" lon="-1.42612">
        <ele>1.29966</ele>
        <time>2023-06-02T09:08:07.000Z</time>
      </trkpt>
      <trkpt lat="46.22276" lon="-1.42611">
        <ele>1.37595</ele>
        <time>2023-06-02T09:08:08.000Z</time>
      </trkpt>
      <trkpt lat="46.22279" lon="-1.4261">
        <ele>1.44055</ele>
        <time>2023-06-02T09:08:09.000Z</time>
      </trkpt>
      <trkpt lat="46.22283" lon="-1.42609">
        <ele>1.45601</ele>
        <time>2023-06-02T09:08:10.000Z</time>
      </trkpt>
      <trkpt lat="46.22286" lon="-1.42608">
        <ele>1.49277</ele>
        <time>2023-06-02T09:08:11.000Z</time>
      </trkpt>
      <trkpt lat="46.22289" lon="-1.42607">
        <ele>1.52373</ele>
        <time>2023-06-02T09:08:12.000Z</time>
      </trkpt>
      <trkpt lat="46.22293" lon="-1.42606">
        <ele>1.54709</ele>
        <time>2023-06-02T09:08:13.000Z</time>
      </trkpt>
      <trkpt lat="46.22296" lon="-1.42604">
        <ele>1.59874</ele>
        <time>2023-06-02T09:08:14.000Z</time>
      </trkpt>
      <trkpt lat="46.22299" lon="-1.42602">
        <ele>1.632</ele>
        <time>2023-06-02T09:08:15.000Z</time>
      </trkpt>
      <trkpt lat="46.22302" lon="-1.426">
        <ele>1.6241</ele>
        <time>2023-06-02T09:08:16.000Z</time>
      </trkpt>
      <trkpt lat="46.22305" lon="-1.42598">
        <ele>1.60798</ele>
        <time>2023-06-02T09:08:17.000Z</time>
      </trkpt>
      <trkpt lat="46.22308" lon="-1.42596">
        <ele>1.57039</ele>
        <time>2023-06-02T09:08:18.000Z</time>
      </trkpt>
      <trkpt lat="46.22311" lon="-1.42593">
        <ele>1.52218</ele>
        <time>2023-06-02T09:08:19.000Z</time>
      </trkpt>
      <trkpt lat="46.22314" lon="-1.42591">
        <ele>1.45398</ele>
        <time>2023-06-02T09:08:20.000Z</time>
      </trkpt>
      <trkpt lat="46.22316" lon="-1.42588">
        <ele>1.40307</ele>
        <time>2023-06-02T09:08:21.000Z</time>
      </trkpt>
      <trkpt lat="46.22319" lon="-1.42584">
        <ele>1.3162</ele>
        <time>2023-06-02T09:08:22.000Z</time>
      </trkpt>
      <trkpt lat="46.22321" lon="-1.42581">
        <ele>1.23472</ele>
        <time>2023-06-02T09:08:23.000Z</time>
      </trkpt>
      <trkpt lat="46.22324" lon="-1.42577">
        <ele>1.15155</ele>
        <time>2023-06-02T09:08:24.000Z</time>
      </trkpt>
      <trkpt lat="46.22326" lon="-1.42574">
        <ele>1.06722</ele>
        <time>2023-06-02T09:08:25.000Z</time>
      </trkpt>
      <trkpt lat="46.22328" lon="-1.4257">
        <ele>0.9583</ele>
        <time>2023-06-02T09:08:26.000Z</time>
      </trkpt>
      <trkpt lat="46.22331" lon="-1.42566">
        <ele>0.84575</ele>
        <time>2023-06-02T09:08:27.000Z</time>
      </trkpt>
      <trkpt lat="46.22334" lon="-1.42563">
        <ele>0.74646</ele>
        <time>2023-06-02T09:08:28.000Z</time>
      </trkpt>
      <trkpt lat="46.22337" lon="-1.4256">
        <ele>0.66172</ele>
        <time>2023-06-02T09:08:29.000Z</time>
      </trkpt>
      <trkpt lat="46.2234" lon="-1.42558">
        <ele>0.58806</ele>
        <time>2023-06-02T09:08:30.000Z</time>
      </trkpt>
      <trkpt lat="46.22343" lon="-1.42556">
        <ele>0.52583</ele>
        <time>2023-06-02T09:08:31.000Z</time>
      </trkpt>
      <trkpt lat="46.22346" lon="-1.42554">
        <ele>0.47727</ele>
        <time>2023-06-02T09:08:32.000Z</time>
      </trkpt>
      <trkpt lat="46.2235" lon="-1.42552">
        <ele>0.43276</ele>
        <time>2023-06-02T09:08:33.000Z</time>
      </trkpt>
      <trkpt lat="46.22353" lon="-1.42551">
        <ele>0.3741</ele>
        <time>2023-06-02T09:08:34.000Z</time>
      </trkpt>
      <trkpt lat="46.22356" lon="-1.42549">
        <ele>0.3028</ele>
        <time>2023-06-02T09:08:35.000Z</time>
      </trkpt>
      <trkpt lat="46.2236" lon="-1.42548">
        <ele>0.26279</ele>
        <time>2023-06-02T09:08:36.000Z</time>
      </trkpt>
      <trkpt lat="46.22363" lon="-1.42546">
        <ele>0.22264</ele>
        <time>2023-06-02T09:08:37.000Z</time>
      </trkpt>
      <trkpt lat="46.22366" lon="-1.42545">
        <ele>0.21808</ele>
        <time>2023-06-02T09:08:38.000Z</time>
      </trkpt>
      <trkpt lat="46.22369" lon="-1.42544">
        <ele>0.20959</ele>
        <time>2023-06-02T09:08:39.000Z</time>
      </trkpt>
      <trkpt lat="46.22372" lon="-1.42543">
        <ele>0.22711</ele>
        <time>2023-06-02T09:08:40.000Z</time>
      </trkpt>
      <trkpt lat="46.22376" lon="-1.42542">
        <ele>0.23815</ele>
        <time>2023-06-02T09:08:41.000Z</time>
      </trkpt>
      <trkpt lat="46.22378" lon="-1.42541">
        <ele>0.28084</ele>
        <time>2023-06-02T09:08:42.000Z</time>
      </trkpt>
      <trkpt lat="46.22381" lon="-1.4254">
        <ele>0.31537</ele>
        <time>2023-06-02T09:08:43.000Z</time>
      </trkpt>
      <trkpt lat="46.22384" lon="-1.42539">
        <ele>0.38958</ele>
        <time>2023-06-02T09:08:44.000Z</time>
      </trkpt>
      <trkpt lat="46.22386" lon="-1.42538">
        <ele>0.46701</ele>
        <time>2023-06-02T09:08:45.000Z</time>
      </trkpt>
      <trkpt lat="46.22389" lon="-1.42539">
        <ele>0.58033</ele>
        <time>2023-06-02T09:08:46.000Z</time>
      </trkpt>
      <trkpt lat="46.2239" lon="-1.42542">
        <ele>0.69054</ele>
        <time>2023-06-02T09:08:47.000Z</time>
      </trkpt>
      <trkpt lat="46.22391" lon="-1.42545">
        <ele>0.8045</ele>
        <time>2023-06-02T09:08:48.000Z</time>
      </trkpt>
      <trkpt lat="46.22392" lon="-1.42549">
        <ele>0.89538</ele>
        <time>2023-06-02T09:08:49.000Z</time>
      </trkpt>
      <trkpt lat="46.22393" lon="-1.42553">
        <ele>0.99064</ele>
        <time>2023-06-02T09:08:50.000Z</time>
      </trkpt>
      <trkpt lat="46.22394" lon="-1.42557">
        <ele>1.08407</ele>
        <time>2023-06-02T09:08:51.000Z</time>
      </trkpt>
      <trkpt lat="46.22395" lon="-1.42561">
        <ele>1.1576</ele>
        <time>2023-06-02T09:08:52.000Z</time>
      </trkpt>
      <trkpt lat="46.22396" lon="-1.42565">
        <ele>1.2474</ele>
        <time>2023-06-02T09:08:53.000Z</time>
      </trkpt>
      <trkpt lat="46.22397" lon="-1.42569">
        <ele>1.31161</ele>
        <time>2023-06-02T09:08:54.000Z</time>
      </trkpt>
      <trkpt lat="46.22398" lon="-1.42573">
        <ele>1.4253</ele>
        <time>2023-06-02T09:08:55.000Z</time>
      </trkpt>
      <trkpt lat="46.22399" lon="-1.42578">
        <ele>1.5129</ele>
        <time>2023-06-02T09:08:56.000Z</time>
      </trkpt>
      <trkpt lat="46.224" lon="-1.42582">
        <ele>1.58147</ele>
        <time>2023-06-02T09:08:57.000Z</time>
      </trkpt>
      <trkpt lat="46.22401" lon="-1.42587">
        <ele>1.61855</ele>
        <time>2023-06-02T09:08:58.000Z</time>
      </trkpt>
      <trkpt lat="46.22402" lon="-1.42592">
        <ele>1.66097</ele>
        <time>2023-06-02T09:08:59.000Z</time>
      </trkpt>
      <trkpt lat="46.22403" lon="-1.42597">
        <ele>1.68929</ele>
        <time>2023-06-02T09:09:00.000Z</time>
      </trkpt>
      <trkpt lat="46.22404" lon="-1.42601">
        <ele>1.7095</ele>
        <time>2023-06-02T09:09:01.000Z</time>
      </trkpt>
      <trkpt lat="46.22406" lon="-1.42606">
        <ele>1.71897</ele>
        <time>2023-06-02T09:09:02.000Z</time>
      </trkpt>
      <trkpt lat="46.22407" lon="-1.42611">
        <ele>1.73822</ele>
        <time>2023-06-02T09:09:03.000Z</time>
      </trkpt>
      <trkpt lat="46.22408" lon="-1.42616">
        <ele>1.72569</ele>
        <time>2023-06-02T09:09:04.000Z</time>
      </trkpt>
      <trkpt lat="46.2241" lon="-1.42621">
        <ele>1.71849</ele>
        <time>2023-06-02T09:09:05.000Z</time>
      </trkpt>
      <trkpt lat="46.22411" lon="-1.42626">
        <ele>1.73042</ele>
        <time>2023-06-02T09:09:06.000Z</time>
      </trkpt>
      <trkpt lat="46.22412" lon="-1.42631">
        <ele>1.73559</ele>
        <time>2023-06-02T09:09:07.000Z</time>
      </trkpt>
      <trkpt lat="46.22413" lon="-1.42636">
        <ele>1.73692</ele>
        <time>2023-06-02T09:09:08.000Z</time>
      </trkpt>
      <trkpt lat="46.22415" lon="-1.42641">
        <ele>1.72828</ele>
        <time>2023-06-02T09:09:09.000Z</time>
      </trkpt>
      <trkpt lat="46.22416" lon="-1.42645">
        <ele>1.72133</ele>
        <time>2023-06-02T09:09:10.000Z</time>
      </trkpt>
      <trkpt lat="46.22417" lon="-1.4265">
        <ele>1.73327</ele>
        <time>2023-06-02T09:09:11.000Z</time>
      </trkpt>
      <trkpt lat="46.22418" lon="-1.42654">
        <ele>1.7725</ele>
        <time>2023-06-02T09:09:12.000Z</time>
      </trkpt>
      <trkpt lat="46.22419" lon="-1.42659">
        <ele>1.81017</ele>
        <time>2023-06-02T09:09:13.000Z</time>
      </trkpt>
      <trkpt lat="46.22421" lon="-1.42664">
        <ele>1.85915</ele>
        <time>2023-06-02T09:09:14.000Z</time>
      </trkpt>
      <trkpt lat="46.22422" lon="-1.42669">
        <ele>1.88769</ele>
        <time>2023-06-02T09:09:15.000Z</time>
      </trkpt>
      <trkpt lat="46.22423" lon="-1.42674">
        <ele>1.92454</ele>
        <time>2023-06-02T09:09:16.000Z</time>
      </trkpt>
      <trkpt lat="46.22424" lon="-1.42679">
        <ele>1.96909</ele>
        <time>2023-06-02T09:09:17.000Z</time>
      </trkpt>
      <trkpt lat="46.22425" lon="-1.42684">
        <ele>2.02376</ele>
        <time>2023-06-02T09:09:18.000Z</time>
      </trkpt>
      <trkpt lat="46.22426" lon="-1.4269">
        <ele>2.06748</ele>
        <time>2023-06-02T09:09:19.000Z</time>
      </trkpt>
      <trkpt lat="46.22427" lon="-1.42695">
        <ele>2.11567</ele>
        <time>2023-06-02T09:09:20.000Z</time>
      </trkpt>
      <trkpt lat="46.22429" lon="-1.427">
        <ele>2.21041</ele>
        <time>2023-06-02T09:09:21.000Z</time>
      </trkpt>
      <trkpt lat="46.2243" lon="-1.42706">
        <ele>2.32457</ele>
        <time>2023-06-02T09:09:22.000Z</time>
      </trkpt>
      <trkpt lat="46.22431" lon="-1.42711">
        <ele>2.43306</ele>
        <time>2023-06-02T09:09:23.000Z</time>
      </trkpt>
      <trkpt lat="46.22432" lon="-1.42716">
        <ele>2.5445</ele>
        <time>2023-06-02T09:09:24.000Z</time>
      </trkpt>
      <trkpt lat="46.22434" lon="-1.42721">
        <ele>2.63731</ele>
        <time>2023-06-02T09:09:25.000Z</time>
      </trkpt>
      <trkpt lat="46.22435" lon="-1.42726">
        <ele>2.66676</ele>
        <time>2023-06-02T09:09:26.000Z</time>
      </trkpt>
      <trkpt lat="46.22437" lon="-1.42731">
        <ele>2.69688</ele>
        <time>2023-06-02T09:09:27.000Z</time>
      </trkpt>
      <trkpt lat="46.22439" lon="-1.42736">
        <ele>2.72124</ele>
        <time>2023-06-02T09:09:28.000Z</time>
      </trkpt>
      <trkpt lat="46.2244" lon="-1.42741">
        <ele>2.7756</ele>
        <time>2023-06-02T09:09:29.000Z</time>
      </trkpt>
      <trkpt lat="46.22442" lon="-1.42746">
        <ele>2.8368</ele>
        <time>2023-06-02T09:09:30.000Z</time>
      </trkpt>
      <trkpt lat="46.22443" lon="-1.42751">
        <ele>3.11413</ele>
        <time>2023-06-02T09:09:31.000Z</time>
      </trkpt>
      <trkpt lat="46.22444" lon="-1.42755">
        <ele>3.37873</ele>
        <time>2023-06-02T09:09:32.000Z</time>
      </trkpt>
      <trkpt lat="46.22445" lon="-1.4276">
        <ele>3.56559</ele>
        <time>2023-06-02T09:09:33.000Z</time>
      </trkpt>
      <trkpt lat="46.22447" lon="-1.42765">
        <ele>3.76403</ele>
        <time>2023-06-02T09:09:34.000Z</time>
      </trkpt>
      <trkpt lat="46.22448" lon="-1.4277">
        <ele>3.98313</ele>
        <time>2023-06-02T09:09:35.000Z</time>
      </trkpt>
      <trkpt lat="46.22449" lon="-1.42775">
        <ele>4.20217</ele>
        <time>2023-06-02T09:09:36.000Z</time>
      </trkpt>
      <trkpt lat="46.2245" lon="-1.4278">
        <ele>4.42684</ele>
        <time>2023-06-02T09:09:37.000Z</time>
      </trkpt>
      <trkpt lat="46.22452" lon="-1.42785">
        <ele>4.43711</ele>
        <time>2023-06-02T09:09:38.000Z</time>
      </trkpt>
      <trkpt lat="46.22453" lon="-1.4279">
        <ele>4.4999</ele>
        <time>2023-06-02T09:09:39.000Z</time>
      </trkpt>
      <trkpt lat="46.22455" lon="-1.42795">
        <ele>4.55847</ele>
        <time>2023-06-02T09:09:40.000Z</time>
      </trkpt>
      <trkpt lat="46.22456" lon="-1.428">
        <ele>4.57767</ele>
        <time>2023-06-02T09:09:41.000Z</time>
      </trkpt>
      <trkpt lat="46.22457" lon="-1.42804">
        <ele>4.55982</ele>
        <time>2023-06-02T09:09:42.000Z</time>
      </trkpt>
      <trkpt lat="46.22458" lon="-1.42809">
        <ele>4.55227</ele>
        <time>2023-06-02T09:09:43.000Z</time>
      </trkpt>
      <trkpt lat="46.22459" lon="-1.42813">
        <ele>4.51124</ele>
        <time>2023-06-02T09:09:44.000Z</time>
      </trkpt>
      <trkpt lat="46.22459" lon="-1.42817">
        <ele>4.58808</ele>
        <time>2023-06-02T09:09:45.000Z</time>
      </trkpt>
      <trkpt lat="46.22459" lon="-1.42821">
        <ele>4.58018</ele>
        <time>2023-06-02T09:09:46.000Z</time>
      </trkpt>
      <trkpt lat="46.2246" lon="-1.42824">
        <ele>4.58671</ele>
        <time>2023-06-02T09:09:47.000Z</time>
      </trkpt>
      <trkpt lat="46.22462" lon="-1.42828">
        <ele>4.56913</ele>
        <time>2023-06-02T09:09:49.000Z</time>
      </trkpt>
      <trkpt lat="46.22464" lon="-1.42829">
        <ele>4.5346</ele>
        <time>2023-06-02T09:09:50.000Z</time>
      </trkpt>
      <trkpt lat="46.22467" lon="-1.4283">
        <ele>4.51829</ele>
        <time>2023-06-02T09:09:51.000Z</time>
      </trkpt>
      <trkpt lat="46.2247" lon="-1.42829">
        <ele>4.28039</ele>
        <time>2023-06-02T09:09:52.000Z</time>
      </trkpt>
      <trkpt lat="46.22473" lon="-1.42827">
        <ele>4.03809</ele>
        <time>2023-06-02T09:09:53.000Z</time>
      </trkpt>
      <trkpt lat="46.22477" lon="-1.42825">
        <ele>3.87494</ele>
        <time>2023-06-02T09:09:54.000Z</time>
      </trkpt>
      <trkpt lat="46.2248" lon="-1.42823">
        <ele>3.68967</ele>
        <time>2023-06-02T09:09:55.000Z</time>
      </trkpt>
      <trkpt lat="46.22483" lon="-1.42822">
        <ele>3.48403</ele>
        <time>2023-06-02T09:09:56.000Z</time>
      </trkpt>
      <trkpt lat="46.22486" lon="-1.42821">
        <ele>3.30662</ele>
        <time>2023-06-02T09:09:57.000Z</time>
      </trkpt>
      <trkpt lat="46.22489" lon="-1.42819">
        <ele>3.13554</ele>
        <time>2023-06-02T09:09:58.000Z</time>
      </trkpt>
      <trkpt lat="46.22492" lon="-1.42817">
        <ele>3.16955</ele>
        <time>2023-06-02T09:09:59.000Z</time>
      </trkpt>
      <trkpt lat="46.22495" lon="-1.42815">
        <ele>3.16567</ele>
        <time>2023-06-02T09:10:00.000Z</time>
      </trkpt>
      <trkpt lat="46.22498" lon="-1.42813">
        <ele>3.11172</ele>
        <time>2023-06-02T09:10:01.000Z</time>
      </trkpt>
      <trkpt lat="46.22501" lon="-1.4281">
        <ele>3.12089</ele>
        <time>2023-06-02T09:10:02.000Z</time>
      </trkpt>
      <trkpt lat="46.22504" lon="-1.42808">
        <ele>3.14125</ele>
        <time>2023-06-02T09:10:03.000Z</time>
      </trkpt>
      <trkpt lat="46.22506" lon="-1.42805">
        <ele>3.14517</ele>
        <time>2023-06-02T09:10:04.000Z</time>
      </trkpt>
      <trkpt lat="46.22509" lon="-1.42803">
        <ele>3.1618</ele>
        <time>2023-06-02T09:10:05.000Z</time>
      </trkpt>
      <trkpt lat="46.22512" lon="-1.428">
        <ele>3.10611</ele>
        <time>2023-06-02T09:10:06.000Z</time>
      </trkpt>
      <trkpt lat="46.22515" lon="-1.42798">
        <ele>3.14484</ele>
        <time>2023-06-02T09:10:07.000Z</time>
      </trkpt>
      <trkpt lat="46.22518" lon="-1.42796">
        <ele>3.16263</ele>
        <time>2023-06-02T09:10:08.000Z</time>
      </trkpt>
      <trkpt lat="46.22521" lon="-1.42793">
        <ele>3.11317</ele>
        <time>2023-06-02T09:10:09.000Z</time>
      </trkpt>
      <trkpt lat="46.22524" lon="-1.42791">
        <ele>3.1295</ele>
        <time>2023-06-02T09:10:10.000Z</time>
      </trkpt>
      <trkpt lat="46.22527" lon="-1.42789">
        <ele>3.09882</ele>
        <time>2023-06-02T09:10:11.000Z</time>
      </trkpt>
      <trkpt lat="46.2253" lon="-1.42787">
        <ele>3.07023</ele>
        <time>2023-06-02T09:10:12.000Z</time>
      </trkpt>
      <trkpt lat="46.22534" lon="-1.42785">
        <ele>3.03117</ele>
        <time>2023-06-02T09:10:13.000Z</time>
      </trkpt>
      <trkpt lat="46.22537" lon="-1.42784">
        <ele>2.97915</ele>
        <time>2023-06-02T09:10:14.000Z</time>
      </trkpt>
      <trkpt lat="46.2254" lon="-1.42782">
        <ele>2.95569</ele>
        <time>2023-06-02T09:10:15.000Z</time>
      </trkpt>
      <trkpt lat="46.22544" lon="-1.42781">
        <ele>2.94948</ele>
        <time>2023-06-02T09:10:16.000Z</time>
      </trkpt>
      <trkpt lat="46.22547" lon="-1.42779">
        <ele>2.91022</ele>
        <time>2023-06-02T09:10:17.000Z</time>
      </trkpt>
      <trkpt lat="46.22551" lon="-1.42777">
        <ele>2.85539</ele>
        <time>2023-06-02T09:10:18.000Z</time>
      </trkpt>
      <trkpt lat="46.22554" lon="-1.42775">
        <ele>2.8314</ele>
        <time>2023-06-02T09:10:19.000Z</time>
      </trkpt>
      <trkpt lat="46.22558" lon="-1.42772">
        <ele>2.82021</ele>
        <time>2023-06-02T09:10:20.000Z</time>
      </trkpt>
      <trkpt lat="46.22562" lon="-1.4277">
        <ele>2.85739</ele>
        <time>2023-06-02T09:10:21.000Z</time>
      </trkpt>
      <trkpt lat="46.22565" lon="-1.42768">
        <ele>2.83567</ele>
        <time>2023-06-02T09:10:22.000Z</time>
      </trkpt>
      <trkpt lat="46.22569" lon="-1.42766">
        <ele>2.81872</ele>
        <time>2023-06-02T09:10:23.000Z</time>
      </trkpt>
      <trkpt lat="46.22572" lon="-1.42764">
        <ele>2.80658</ele>
        <time>2023-06-02T09:10:24.000Z</time>
      </trkpt>
      <trkpt lat="46.22575" lon="-1.42762">
        <ele>2.83885</ele>
        <time>2023-06-02T09:10:25.000Z</time>
      </trkpt>
      <trkpt lat="46.22579" lon="-1.42761">
        <ele>2.85003</ele>
        <time>2023-06-02T09:10:26.000Z</time>
      </trkpt>
      <trkpt lat="46.22582" lon="-1.42759">
        <ele>2.87201</ele>
        <time>2023-06-02T09:10:27.000Z</time>
      </trkpt>
      <trkpt lat="46.22585" lon="-1.42757">
        <ele>2.90375</ele>
        <time>2023-06-02T09:10:28.000Z</time>
      </trkpt>
      <trkpt lat="46.22589" lon="-1.42755">
        <ele>3.02638</ele>
        <time>2023-06-02T09:10:29.000Z</time>
      </trkpt>
      <trkpt lat="46.22592" lon="-1.42754">
        <ele>3.07978</ele>
        <time>2023-06-02T09:10:30.000Z</time>
      </trkpt>
      <trkpt lat="46.22595" lon="-1.42752">
        <ele>3.12807</ele>
        <time>2023-06-02T09:10:31.000Z</time>
      </trkpt>
      <trkpt lat="46.22598" lon="-1.4275">
        <ele>3.1903</ele>
        <time>2023-06-02T09:10:32.000Z</time>
      </trkpt>
      <trkpt lat="46.22601" lon="-1.42747">
        <ele>3.26628</ele>
        <time>2023-06-02T09:10:33.000Z</time>
      </trkpt>
      <trkpt lat="46.22605" lon="-1.42745">
        <ele>3.35097</ele>
        <time>2023-06-02T09:10:34.000Z</time>
      </trkpt>
      <trkpt lat="46.22607" lon="-1.42743">
        <ele>3.43426</ele>
        <time>2023-06-02T09:10:35.000Z</time>
      </trkpt>
      <trkpt lat="46.2261" lon="-1.42741">
        <ele>3.504</ele>
        <time>2023-06-02T09:10:36.000Z</time>
      </trkpt>
      <trkpt lat="46.22612" lon="-1.42739">
        <ele>3.59108</ele>
        <time>2023-06-02T09:10:37.000Z</time>
      </trkpt>
      <trkpt lat="46.22615" lon="-1.42737">
        <ele>3.70566</ele>
        <time>2023-06-02T09:10:38.000Z</time>
      </trkpt>
      <trkpt lat="46.22617" lon="-1.42735">
        <ele>3.78672</ele>
        <time>2023-06-02T09:10:39.000Z</time>
      </trkpt>
      <trkpt lat="46.22619" lon="-1.42734">
        <ele>3.86394</ele>
        <time>2023-06-02T09:10:40.000Z</time>
      </trkpt>
      <trkpt lat="46.2262" lon="-1.42733">
        <ele>3.9431</ele>
        <time>2023-06-02T09:10:41.000Z</time>
      </trkpt>
      <trkpt lat="46.22623" lon="-1.42734">
        <ele>4.0266</ele>
        <time>2023-06-02T09:10:42.000Z</time>
      </trkpt>
      <trkpt lat="46.22625" lon="-1.42736">
        <ele>4.11722</ele>
        <time>2023-06-02T09:10:43.000Z</time>
      </trkpt>
      <trkpt lat="46.22627" lon="-1.42738">
        <ele>4.22114</ele>
        <time>2023-06-02T09:10:44.000Z</time>
      </trkpt>
      <trkpt lat="46.22629" lon="-1.4274">
        <ele>4.28658</ele>
        <time>2023-06-02T09:10:45.000Z</time>
      </trkpt>
      <trkpt lat="46.22631" lon="-1.42743">
        <ele>4.3144</ele>
        <time>2023-06-02T09:10:46.000Z</time>
      </trkpt>
      <trkpt lat="46.22633" lon="-1.42746">
        <ele>4.34249</ele>
        <time>2023-06-02T09:10:47.000Z</time>
      </trkpt>
      <trkpt lat="46.22634" lon="-1.4275">
        <ele>4.36012</ele>
        <time>2023-06-02T09:10:48.000Z</time>
      </trkpt>
      <trkpt lat="46.22635" lon="-1.42755">
        <ele>4.38136</ele>
        <time>2023-06-02T09:10:49.000Z</time>
      </trkpt>
      <trkpt lat="46.22637" lon="-1.4276">
        <ele>4.41875</ele>
        <time>2023-06-02T09:10:50.000Z</time>
      </trkpt>
      <trkpt lat="46.22638" lon="-1.42764">
        <ele>4.47976</ele>
        <time>2023-06-02T09:10:51.000Z</time>
      </trkpt>
      <trkpt lat="46.22639" lon="-1.42769">
        <ele>4.52049</ele>
        <time>2023-06-02T09:10:52.000Z</time>
      </trkpt>
      <trkpt lat="46.2264" lon="-1.42774">
        <ele>4.55365</ele>
        <time>2023-06-02T09:10:53.000Z</time>
      </trkpt>
      <trkpt lat="46.22641" lon="-1.42779">
        <ele>4.57937</ele>
        <time>2023-06-02T09:10:54.000Z</time>
      </trkpt>
      <trkpt lat="46.22642" lon="-1.42783">
        <ele>4.60831</ele>
        <time>2023-06-02T09:10:55.000Z</time>
      </trkpt>
      <trkpt lat="46.22643" lon="-1.42788">
        <ele>4.62564</ele>
        <time>2023-06-02T09:10:56.000Z</time>
      </trkpt>
      <trkpt lat="46.22644" lon="-1.42793">
        <ele>4.62085</ele>
        <time>2023-06-02T09:10:57.000Z</time>
      </trkpt>
      <trkpt lat="46.22645" lon="-1.42797">
        <ele>4.60324</ele>
        <time>2023-06-02T09:10:58.000Z</time>
      </trkpt>
      <trkpt lat="46.22646" lon="-1.42802">
        <ele>4.59003</ele>
        <time>2023-06-02T09:10:59.000Z</time>
      </trkpt>
      <trkpt lat="46.22648" lon="-1.42806">
        <ele>4.5555</ele>
        <time>2023-06-02T09:11:00.000Z</time>
      </trkpt>
      <trkpt lat="46.22649" lon="-1.42811">
        <ele>4.53191</ele>
        <time>2023-06-02T09:11:01.000Z</time>
      </trkpt>
      <trkpt lat="46.2265" lon="-1.42815">
        <ele>4.50036</ele>
        <time>2023-06-02T09:11:02.000Z</time>
      </trkpt>
      <trkpt lat="46.22651" lon="-1.4282">
        <ele>4.46758</ele>
        <time>2023-06-02T09:11:03.000Z</time>
      </trkpt>
      <trkpt lat="46.22653" lon="-1.42824">
        <ele>4.42674</ele>
        <time>2023-06-02T09:11:04.000Z</time>
      </trkpt>
      <trkpt lat="46.22654" lon="-1.42829">
        <ele>4.54897</ele>
        <time>2023-06-02T09:11:05.000Z</time>
      </trkpt>
      <trkpt lat="46.22655" lon="-1.42833">
        <ele>4.68979</ele>
        <time>2023-06-02T09:11:06.000Z</time>
      </trkpt>
      <trkpt lat="46.22656" lon="-1.42838">
        <ele>4.82221</ele>
        <time>2023-06-02T09:11:07.000Z</time>
      </trkpt>
      <trkpt lat="46.22657" lon="-1.42843">
        <ele>4.91441</ele>
        <time>2023-06-02T09:11:08.000Z</time>
      </trkpt>
      <trkpt lat="46.22659" lon="-1.42848">
        <ele>4.98072</ele>
        <time>2023-06-02T09:11:09.000Z</time>
      </trkpt>
      <trkpt lat="46.2266" lon="-1.42852">
        <ele>5.0343</ele>
        <time>2023-06-02T09:11:10.000Z</time>
      </trkpt>
      <trkpt lat="46.22661" lon="-1.42857">
        <ele>5.08178</ele>
        <time>2023-06-02T09:11:11.000Z</time>
      </trkpt>
      <trkpt lat="46.22661" lon="-1.42861">
        <ele>5.13385</ele>
        <time>2023-06-02T09:11:12.000Z</time>
      </trkpt>
      <trkpt lat="46.22662" lon="-1.42866">
        <ele>5.20822</ele>
        <time>2023-06-02T09:11:13.000Z</time>
      </trkpt>
      <trkpt lat="46.22662" lon="-1.42871">
        <ele>5.27999</ele>
        <time>2023-06-02T09:11:14.000Z</time>
      </trkpt>
      <trkpt lat="46.22662" lon="-1.42876">
        <ele>5.339</ele>
        <time>2023-06-02T09:11:15.000Z</time>
      </trkpt>
      <trkpt lat="46.22662" lon="-1.42881">
        <ele>5.25207</ele>
        <time>2023-06-02T09:11:16.000Z</time>
      </trkpt>
      <trkpt lat="46.22662" lon="-1.42886">
        <ele>5.19637</ele>
        <time>2023-06-02T09:11:17.000Z</time>
      </trkpt>
      <trkpt lat="46.22661" lon="-1.42891">
        <ele>5.1322</ele>
        <time>2023-06-02T09:11:18.000Z</time>
      </trkpt>
      <trkpt lat="46.22661" lon="-1.42896">
        <ele>5.06977</ele>
        <time>2023-06-02T09:11:19.000Z</time>
      </trkpt>
      <trkpt lat="46.2266" lon="-1.42901">
        <ele>5.03828</ele>
        <time>2023-06-02T09:11:20.000Z</time>
      </trkpt>
      <trkpt lat="46.22659" lon="-1.42906">
        <ele>4.9831</ele>
        <time>2023-06-02T09:11:21.000Z</time>
      </trkpt>
      <trkpt lat="46.22657" lon="-1.4291">
        <ele>4.93002</ele>
        <time>2023-06-02T09:11:22.000Z</time>
      </trkpt>
      <trkpt lat="46.22656" lon="-1.42915">
        <ele>4.87311</ele>
        <time>2023-06-02T09:11:23.000Z</time>
      </trkpt>
      <trkpt lat="46.22654" lon="-1.4292">
        <ele>4.81632</ele>
        <time>2023-06-02T09:11:24.000Z</time>
      </trkpt>
      <trkpt lat="46.22653" lon="-1.42924">
        <ele>4.60048</ele>
        <time>2023-06-02T09:11:25.000Z</time>
      </trkpt>
      <trkpt lat="46.22651" lon="-1.42929">
        <ele>4.41575</ele>
        <time>2023-06-02T09:11:26.000Z</time>
      </trkpt>
      <trkpt lat="46.22649" lon="-1.42933">
        <ele>4.22085</ele>
        <time>2023-06-02T09:11:27.000Z</time>
      </trkpt>
      <trkpt lat="46.22648" lon="-1.42938">
        <ele>4.07566</ele>
        <time>2023-06-02T09:11:28.000Z</time>
      </trkpt>
      <trkpt lat="46.22647" lon="-1.42943">
        <ele>3.90673</ele>
        <time>2023-06-02T09:11:29.000Z</time>
      </trkpt>
      <trkpt lat="46.22646" lon="-1.42948">
        <ele>3.73889</ele>
        <time>2023-06-02T09:11:30.000Z</time>
      </trkpt>
      <trkpt lat="46.22646" lon="-1.42953">
        <ele>3.54214</ele>
        <time>2023-06-02T09:11:31.000Z</time>
      </trkpt>
      <trkpt lat="46.22646" lon="-1.42958">
        <ele>3.3323</ele>
        <time>2023-06-02T09:11:32.000Z</time>
      </trkpt>
      <trkpt lat="46.22646" lon="-1.42963">
        <ele>3.09526</ele>
        <time>2023-06-02T09:11:33.000Z</time>
      </trkpt>
      <trkpt lat="46.22646" lon="-1.42967">
        <ele>2.84833</ele>
        <time>2023-06-02T09:11:34.000Z</time>
      </trkpt>
      <trkpt lat="46.22646" lon="-1.42972">
        <ele>2.59929</ele>
        <time>2023-06-02T09:11:35.000Z</time>
      </trkpt>
      <trkpt lat="46.22646" lon="-1.42977">
        <ele>2.53818</ele>
        <time>2023-06-02T09:11:36.000Z</time>
      </trkpt>
      <trkpt lat="46.22646" lon="-1.42981">
        <ele>2.48582</ele>
        <time>2023-06-02T09:11:37.000Z</time>
      </trkpt>
      <trkpt lat="46.22646" lon="-1.42985">
        <ele>2.42936</ele>
        <time>2023-06-02T09:11:38.000Z</time>
      </trkpt>
      <trkpt lat="46.22647" lon="-1.4299">
        <ele>2.37111</ele>
        <time>2023-06-02T09:11:39.000Z</time>
      </trkpt>
      <trkpt lat="46.22647" lon="-1.42995">
        <ele>2.31832</ele>
        <time>2023-06-02T09:11:40.000Z</time>
      </trkpt>
      <trkpt lat="46.22647" lon="-1.43">
        <ele>2.27826</ele>
        <time>2023-06-02T09:11:41.000Z</time>
      </trkpt>
      <trkpt lat="46.22648" lon="-1.43005">
        <ele>2.2308</ele>
        <time>2023-06-02T09:11:42.000Z</time>
      </trkpt>
      <trkpt lat="46.22648" lon="-1.4301">
        <ele>2.17855</ele>
        <time>2023-06-02T09:11:43.000Z</time>
      </trkpt>
      <trkpt lat="46.22649" lon="-1.43015">
        <ele>2.15132</ele>
        <time>2023-06-02T09:11:44.000Z</time>
      </trkpt>
      <trkpt lat="46.22649" lon="-1.4302">
        <ele>2.1389</ele>
        <time>2023-06-02T09:11:45.000Z</time>
      </trkpt>
      <trkpt lat="46.22649" lon="-1.43024">
        <ele>2.08789</ele>
        <time>2023-06-02T09:11:46.000Z</time>
      </trkpt>
      <trkpt lat="46.2265" lon="-1.43028">
        <ele>2.0655</ele>
        <time>2023-06-02T09:11:47.000Z</time>
      </trkpt>
      <trkpt lat="46.2265" lon="-1.43032">
        <ele>2.03314</ele>
        <time>2023-06-02T09:11:48.000Z</time>
      </trkpt>
      <trkpt lat="46.2265" lon="-1.43037">
        <ele>2.04678</ele>
        <time>2023-06-02T09:11:49.000Z</time>
      </trkpt>
      <trkpt lat="46.2265" lon="-1.4304">
        <ele>2.06064</ele>
        <time>2023-06-02T09:11:50.000Z</time>
      </trkpt>
      <trkpt lat="46.22651" lon="-1.43044">
        <ele>2.1034</ele>
        <time>2023-06-02T09:11:51.000Z</time>
      </trkpt>
      <trkpt lat="46.22653" lon="-1.43047">
        <ele>2.13534</ele>
        <time>2023-06-02T09:11:52.000Z</time>
      </trkpt>
      <trkpt lat="46.22655" lon="-1.43049">
        <ele>2.17759</ele>
        <time>2023-06-02T09:11:53.000Z</time>
      </trkpt>
      <trkpt lat="46.22658" lon="-1.4305">
        <ele>2.24293</ele>
        <time>2023-06-02T09:11:54.000Z</time>
      </trkpt>
      <trkpt lat="46.22661" lon="-1.4305">
        <ele>2.32739</ele>
        <time>2023-06-02T09:11:55.000Z</time>
      </trkpt>
      <trkpt lat="46.22664" lon="-1.43049">
        <ele>2.40191</ele>
        <time>2023-06-02T09:11:56.000Z</time>
      </trkpt>
      <trkpt lat="46.22667" lon="-1.43048">
        <ele>2.44938</ele>
        <time>2023-06-02T09:11:57.000Z</time>
      </trkpt>
      <trkpt lat="46.2267" lon="-1.43048">
        <ele>2.52689</ele>
        <time>2023-06-02T09:11:58.000Z</time>
      </trkpt>
      <trkpt lat="46.22673" lon="-1.43047">
        <ele>2.63375</ele>
        <time>2023-06-02T09:11:59.000Z</time>
      </trkpt>
      <trkpt lat="46.22675" lon="-1.43047">
        <ele>2.71947</ele>
        <time>2023-06-02T09:12:00.000Z</time>
      </trkpt>
      <trkpt lat="46.22678" lon="-1.43046">
        <ele>2.8057</ele>
        <time>2023-06-02T09:12:01.000Z</time>
      </trkpt>
      <trkpt lat="46.22681" lon="-1.43046">
        <ele>2.90237</ele>
        <time>2023-06-02T09:12:02.000Z</time>
      </trkpt>
      <trkpt lat="46.22684" lon="-1.43046">
        <ele>3.00761</ele>
        <time>2023-06-02T09:12:03.000Z</time>
      </trkpt>
      <trkpt lat="46.22687" lon="-1.43045">
        <ele>3.08942</ele>
        <time>2023-06-02T09:12:04.000Z</time>
      </trkpt>
      <trkpt lat="46.22689" lon="-1.43045">
        <ele>3.15435</ele>
        <time>2023-06-02T09:12:05.000Z</time>
      </trkpt>
      <trkpt lat="46.22692" lon="-1.43045">
        <ele>3.22662</ele>
        <time>2023-06-02T09:12:06.000Z</time>
      </trkpt>
      <trkpt lat="46.22695" lon="-1.43045">
        <ele>3.28117</ele>
        <time>2023-06-02T09:12:07.000Z</time>
      </trkpt>
      <trkpt lat="46.22697" lon="-1.43045">
        <ele>3.34685</ele>
        <time>2023-06-02T09:12:08.000Z</time>
      </trkpt>
      <trkpt lat="46.227" lon="-1.43044">
        <ele>3.41899</ele>
        <time>2023-06-02T09:12:09.000Z</time>
      </trkpt>
      <trkpt lat="46.22703" lon="-1.43043">
        <ele>3.50636</ele>
        <time>2023-06-02T09:12:10.000Z</time>
      </trkpt>
      <trkpt lat="46.22706" lon="-1.43043">
        <ele>3.58777</ele>
        <time>2023-06-02T09:12:11.000Z</time>
      </trkpt>
      <trkpt lat="46.22708" lon="-1.43042">
        <ele>3.69869</ele>
        <time>2023-06-02T09:12:12.000Z</time>
      </trkpt>
      <trkpt lat="46.22711" lon="-1.43041">
        <ele>3.8201</ele>
        <time>2023-06-02T09:12:13.000Z</time>
      </trkpt>
      <trkpt lat="46.22713" lon="-1.43041">
        <ele>3.92593</ele>
        <time>2023-06-02T09:12:14.000Z</time>
      </trkpt>
      <trkpt lat="46.22715" lon="-1.4304">
        <ele>4.03185</ele>
        <time>2023-06-02T09:12:15.000Z</time>
      </trkpt>
      <trkpt lat="46.22718" lon="-1.4304">
        <ele>4.1197</ele>
        <time>2023-06-02T09:12:16.000Z</time>
      </trkpt>
      <trkpt lat="46.2272" lon="-1.43039">
        <ele>4.21813</ele>
        <time>2023-06-02T09:12:17.000Z</time>
      </trkpt>
      <trkpt lat="46.22722" lon="-1.43038">
        <ele>4.30099</ele>
        <time>2023-06-02T09:12:18.000Z</time>
      </trkpt>
      <trkpt lat="46.22724" lon="-1.43038">
        <ele>4.34898</ele>
        <time>2023-06-02T09:12:19.000Z</time>
      </trkpt>
      <trkpt lat="46.22726" lon="-1.43038">
        <ele>4.40664</ele>
        <time>2023-06-02T09:12:20.000Z</time>
      </trkpt>
      <trkpt lat="46.22728" lon="-1.43037">
        <ele>4.47223</ele>
        <time>2023-06-02T09:12:21.000Z</time>
      </trkpt>
      <trkpt lat="46.2273" lon="-1.43036">
        <ele>4.56654</ele>
        <time>2023-06-02T09:12:22.000Z</time>
      </trkpt>
      <trkpt lat="46.22732" lon="-1.43035">
        <ele>4.64377</ele>
        <time>2023-06-02T09:12:23.000Z</time>
      </trkpt>
      <trkpt lat="46.22734" lon="-1.43034">
        <ele>4.7382</ele>
        <time>2023-06-02T09:12:24.000Z</time>
      </trkpt>
      <trkpt lat="46.22736" lon="-1.43033">
        <ele>4.85086</ele>
        <time>2023-06-02T09:12:25.000Z</time>
      </trkpt>
      <trkpt lat="46.22738" lon="-1.43033">
        <ele>4.96401</ele>
        <time>2023-06-02T09:12:26.000Z</time>
      </trkpt>
      <trkpt lat="46.22741" lon="-1.43032">
        <ele>5.12065</ele>
        <time>2023-06-02T09:12:27.000Z</time>
      </trkpt>
      <trkpt lat="46.22743" lon="-1.43032">
        <ele>5.25326</ele>
        <time>2023-06-02T09:12:28.000Z</time>
      </trkpt>
      <trkpt lat="46.22745" lon="-1.43032">
        <ele>5.36157</ele>
        <time>2023-06-02T09:12:29.000Z</time>
      </trkpt>
      <trkpt lat="46.22747" lon="-1.43031">
        <ele>5.47686</ele>
        <time>2023-06-02T09:12:30.000Z</time>
      </trkpt>
      <trkpt lat="46.2275" lon="-1.4303">
        <ele>5.58381</ele>
        <time>2023-06-02T09:12:31.000Z</time>
      </trkpt>
      <trkpt lat="46.22752" lon="-1.43029">
        <ele>5.69985</ele>
        <time>2023-06-02T09:12:32.000Z</time>
      </trkpt>
      <trkpt lat="46.22754" lon="-1.43029">
        <ele>5.78538</ele>
        <time>2023-06-02T09:12:33.000Z</time>
      </trkpt>
      <trkpt lat="46.22756" lon="-1.43028">
        <ele>5.86191</ele>
        <time>2023-06-02T09:12:34.000Z</time>
      </trkpt>
      <trkpt lat="46.2276" lon="-1.43027">
        <ele>5.9062</ele>
        <time>2023-06-02T09:12:36.000Z</time>
      </trkpt>
      <trkpt lat="46.22762" lon="-1.43026">
        <ele>5.95938</ele>
        <time>2023-06-02T09:12:37.000Z</time>
      </trkpt>
      <trkpt lat="46.22765" lon="-1.43025">
        <ele>5.99527</ele>
        <time>2023-06-02T09:12:38.000Z</time>
      </trkpt>
      <trkpt lat="46.22767" lon="-1.43025">
        <ele>6.01421</ele>
        <time>2023-06-02T09:12:39.000Z</time>
      </trkpt>
      <trkpt lat="46.2277" lon="-1.43024">
        <ele>6.03135</ele>
        <time>2023-06-02T09:12:40.000Z</time>
      </trkpt>
      <trkpt lat="46.22772" lon="-1.43023">
        <ele>6.03875</ele>
        <time>2023-06-02T09:12:41.000Z</time>
      </trkpt>
      <trkpt lat="46.22774" lon="-1.43022">
        <ele>6.05603</ele>
        <time>2023-06-02T09:12:42.000Z</time>
      </trkpt>
      <trkpt lat="46.22776" lon="-1.4302">
        <ele>6.04663</ele>
        <time>2023-06-02T09:12:43.000Z</time>
      </trkpt>
      <trkpt lat="46.22778" lon="-1.43019">
        <ele>6.05712</ele>
        <time>2023-06-02T09:12:44.000Z</time>
      </trkpt>
      <trkpt lat="46.2278" lon="-1.43019">
        <ele>6.05327</ele>
        <time>2023-06-02T09:12:45.000Z</time>
      </trkpt>
      <trkpt lat="46.22782" lon="-1.43018">
        <ele>6.05925</ele>
        <time>2023-06-02T09:12:47.000Z</time>
      </trkpt>
      <trkpt lat="46.22784" lon="-1.43015">
        <ele>6.06063</ele>
        <time>2023-06-02T09:12:50.000Z</time>
      </trkpt>
      <trkpt lat="46.22782" lon="-1.43012">
        <ele>5.923</ele>
        <time>2023-06-02T09:33:58.000Z</time>
      </trkpt>
      <trkpt lat="46.22781" lon="-1.43015">
        <ele>5.79249</ele>
        <time>2023-06-02T09:34:01.000Z</time>
      </trkpt>
      <trkpt lat="46.2278" lon="-1.43018">
        <ele>5.70061</ele>
        <time>2023-06-02T09:34:14.000Z</time>
      </trkpt>
      <trkpt lat="46.2278" lon="-1.43021">
        <ele>5.60389</ele>
        <time>2023-06-02T09:34:16.000Z</time>
      </trkpt>
      <trkpt lat="46.22781" lon="-1.43024">
        <ele>5.51078</ele>
        <time>2023-06-02T09:34:17.000Z</time>
      </trkpt>
      <trkpt lat="46.2278" lon="-1.43027">
        <ele>5.40066</ele>
        <time>2023-06-02T09:34:18.000Z</time>
      </trkpt>
      <trkpt lat="46.22779" lon="-1.43029">
        <ele>5.3059</ele>
        <time>2023-06-02T09:34:19.000Z</time>
      </trkpt>
      <trkpt lat="46.22778" lon="-1.43032">
        <ele>5.24544</ele>
        <time>2023-06-02T09:34:20.000Z</time>
      </trkpt>
      <trkpt lat="46.22775" lon="-1.43034">
        <ele>5.20526</ele>
        <time>2023-06-02T09:34:22.000Z</time>
      </trkpt>
      <trkpt lat="46.22772" lon="-1.43034">
        <ele>5.15859</ele>
        <time>2023-06-02T09:34:24.000Z</time>
      </trkpt>
      <trkpt lat="46.2277" lon="-1.43034">
        <ele>5.14088</ele>
        <time>2023-06-02T09:34:25.000Z</time>
      </trkpt>
      <trkpt lat="46.22768" lon="-1.43033">
        <ele>5.13245</ele>
        <time>2023-06-02T09:34:26.000Z</time>
      </trkpt>
      <trkpt lat="46.22766" lon="-1.43034">
        <ele>5.14033</ele>
        <time>2023-06-02T09:34:27.000Z</time>
      </trkpt>
      <trkpt lat="46.22763" lon="-1.43035">
        <ele>5.15204</ele>
        <time>2023-06-02T09:34:29.000Z</time>
      </trkpt>
      <trkpt lat="46.22762" lon="-1.43039">
        <ele>5.13972</ele>
        <time>2023-06-02T09:34:31.000Z</time>
      </trkpt>
      <trkpt lat="46.22758" lon="-1.4304">
        <ele>5.13995</ele>
        <time>2023-06-02T09:34:33.000Z</time>
      </trkpt>
      <trkpt lat="46.22755" lon="-1.43039">
        <ele>5.15032</ele>
        <time>2023-06-02T09:34:35.000Z</time>
      </trkpt>
      <trkpt lat="46.22751" lon="-1.43039">
        <ele>5.14349</ele>
        <time>2023-06-02T09:34:37.000Z</time>
      </trkpt>
      <trkpt lat="46.22748" lon="-1.43039">
        <ele>5.10325</ele>
        <time>2023-06-02T09:34:39.000Z</time>
      </trkpt>
      <trkpt lat="46.22746" lon="-1.4304">
        <ele>5.07234</ele>
        <time>2023-06-02T09:34:40.000Z</time>
      </trkpt>
      <trkpt lat="46.22744" lon="-1.4304">
        <ele>5.14479</ele>
        <time>2023-06-02T09:34:41.000Z</time>
      </trkpt>
      <trkpt lat="46.22742" lon="-1.4304">
        <ele>5.22918</ele>
        <time>2023-06-02T09:34:42.000Z</time>
      </trkpt>
      <trkpt lat="46.2274" lon="-1.4304">
        <ele>5.28587</ele>
        <time>2023-06-02T09:34:43.000Z</time>
      </trkpt>
      <trkpt lat="46.22739" lon="-1.43039">
        <ele>5.33389</ele>
        <time>2023-06-02T09:34:44.000Z</time>
      </trkpt>
      <trkpt lat="46.22737" lon="-1.43039">
        <ele>5.39092</ele>
        <time>2023-06-02T09:34:45.000Z</time>
      </trkpt>
      <trkpt lat="46.22735" lon="-1.43039">
        <ele>5.43977</ele>
        <time>2023-06-02T09:34:46.000Z</time>
      </trkpt>
      <trkpt lat="46.22733" lon="-1.4304">
        <ele>5.49522</ele>
        <time>2023-06-02T09:34:47.000Z</time>
      </trkpt>
      <trkpt lat="46.22731" lon="-1.4304">
        <ele>5.54261</ele>
        <time>2023-06-02T09:34:48.000Z</time>
      </trkpt>
      <trkpt lat="46.22729" lon="-1.43041">
        <ele>5.57044</ele>
        <time>2023-06-02T09:34:49.000Z</time>
      </trkpt>
      <trkpt lat="46.22727" lon="-1.43042">
        <ele>5.60027</ele>
        <time>2023-06-02T09:34:50.000Z</time>
      </trkpt>
      <trkpt lat="46.22725" lon="-1.43042">
        <ele>5.62274</ele>
        <time>2023-06-02T09:34:51.000Z</time>
      </trkpt>
      <trkpt lat="46.22723" lon="-1.43043">
        <ele>5.63924</ele>
        <time>2023-06-02T09:34:52.000Z</time>
      </trkpt>
      <trkpt lat="46.22721" lon="-1.43043">
        <ele>5.66619</ele>
        <time>2023-06-02T09:34:53.000Z</time>
      </trkpt>
      <trkpt lat="46.22718" lon="-1.43043">
        <ele>5.68376</ele>
        <time>2023-06-02T09:34:54.000Z</time>
      </trkpt>
      <trkpt lat="46.22716" lon="-1.43043">
        <ele>5.71002</ele>
        <time>2023-06-02T09:34:55.000Z</time>
      </trkpt>
      <trkpt lat="46.22713" lon="-1.43044">
        <ele>5.72355</ele>
        <time>2023-06-02T09:34:56.000Z</time>
      </trkpt>
      <trkpt lat="46.22711" lon="-1.43044">
        <ele>5.72595</ele>
        <time>2023-06-02T09:34:57.000Z</time>
      </trkpt>
      <trkpt lat="46.22709" lon="-1.43045">
        <ele>5.71209</ele>
        <time>2023-06-02T09:34:58.000Z</time>
      </trkpt>
      <trkpt lat="46.22706" lon="-1.43046">
        <ele>5.68668</ele>
        <time>2023-06-02T09:34:59.000Z</time>
      </trkpt>
      <trkpt lat="46.22704" lon="-1.43046">
        <ele>5.65352</ele>
        <time>2023-06-02T09:35:00.000Z</time>
      </trkpt>
      <trkpt lat="46.22701" lon="-1.43046">
        <ele>5.60613</ele>
        <time>2023-06-02T09:35:01.000Z</time>
      </trkpt>
      <trkpt lat="46.22699" lon="-1.43046">
        <ele>5.56025</ele>
        <time>2023-06-02T09:35:02.000Z</time>
      </trkpt>
      <trkpt lat="46.22696" lon="-1.43046">
        <ele>5.51968</ele>
        <time>2023-06-02T09:35:03.000Z</time>
      </trkpt>
      <trkpt lat="46.22694" lon="-1.43047">
        <ele>5.49104</ele>
        <time>2023-06-02T09:35:04.000Z</time>
      </trkpt>
      <trkpt lat="46.22691" lon="-1.43047">
        <ele>5.46007</ele>
        <time>2023-06-02T09:35:05.000Z</time>
      </trkpt>
      <trkpt lat="46.22688" lon="-1.43047">
        <ele>5.44111</ele>
        <time>2023-06-02T09:35:06.000Z</time>
      </trkpt>
      <trkpt lat="46.22685" lon="-1.43048">
        <ele>5.42105</ele>
        <time>2023-06-02T09:35:07.000Z</time>
      </trkpt>
      <trkpt lat="46.22682" lon="-1.43048">
        <ele>5.39003</ele>
        <time>2023-06-02T09:35:08.000Z</time>
      </trkpt>
      <trkpt lat="46.22679" lon="-1.43048">
        <ele>5.34433</ele>
        <time>2023-06-02T09:35:09.000Z</time>
      </trkpt>
      <trkpt lat="46.22677" lon="-1.43048">
        <ele>5.29836</ele>
        <time>2023-06-02T09:35:10.000Z</time>
      </trkpt>
      <trkpt lat="46.22674" lon="-1.43049">
        <ele>5.22045</ele>
        <time>2023-06-02T09:35:11.000Z</time>
      </trkpt>
      <trkpt lat="46.22671" lon="-1.43049">
        <ele>5.17258</ele>
        <time>2023-06-02T09:35:12.000Z</time>
      </trkpt>
      <trkpt lat="46.22669" lon="-1.4305">
        <ele>5.09509</ele>
        <time>2023-06-02T09:35:13.000Z</time>
      </trkpt>
      <trkpt lat="46.22667" lon="-1.4305">
        <ele>5.02366</ele>
        <time>2023-06-02T09:35:14.000Z</time>
      </trkpt>
      <trkpt lat="46.22664" lon="-1.43051">
        <ele>4.95174</ele>
        <time>2023-06-02T09:35:15.000Z</time>
      </trkpt>
      <trkpt lat="46.22663" lon="-1.43051">
        <ele>4.87514</ele>
        <time>2023-06-02T09:35:16.000Z</time>
      </trkpt>
      <trkpt lat="46.22659" lon="-1.43052">
        <ele>4.78207</ele>
        <time>2023-06-02T09:35:18.000Z</time>
      </trkpt>
      <trkpt lat="46.22656" lon="-1.43052">
        <ele>4.71812</ele>
        <time>2023-06-02T09:35:20.000Z</time>
      </trkpt>
      <trkpt lat="46.22654" lon="-1.43053">
        <ele>4.6594</ele>
        <time>2023-06-02T09:35:22.000Z</time>
      </trkpt>
      <trkpt lat="46.22651" lon="-1.43054">
        <ele>4.62504</ele>
        <time>2023-06-02T09:35:42.000Z</time>
      </trkpt>
      <trkpt lat="46.22651" lon="-1.43057">
        <ele>4.62327</ele>
        <time>2023-06-02T09:35:44.000Z</time>
      </trkpt>
      <trkpt lat="46.2265" lon="-1.43062">
        <ele>4.63111</ele>
        <time>2023-06-02T09:35:46.000Z</time>
      </trkpt>
      <trkpt lat="46.22649" lon="-1.43066">
        <ele>4.62711</ele>
        <time>2023-06-02T09:35:48.000Z</time>
      </trkpt>
      <trkpt lat="46.22647" lon="-1.43062">
        <ele>4.60376</ele>
        <time>2023-06-02T09:35:51.000Z</time>
      </trkpt>
      <trkpt lat="46.22647" lon="-1.43058">
        <ele>4.64899</ele>
        <time>2023-06-02T09:35:52.000Z</time>
      </trkpt>
      <trkpt lat="46.22647" lon="-1.43054">
        <ele>4.68958</ele>
        <time>2023-06-02T09:35:53.000Z</time>
      </trkpt>
      <trkpt lat="46.22647" lon="-1.4305">
        <ele>4.73535</ele>
        <time>2023-06-02T09:35:54.000Z</time>
      </trkpt>
      <trkpt lat="46.22647" lon="-1.43046">
        <ele>4.77985</ele>
        <time>2023-06-02T09:35:55.000Z</time>
      </trkpt>
      <trkpt lat="46.22649" lon="-1.43042">
        <ele>4.85124</ele>
        <time>2023-06-02T09:35:56.000Z</time>
      </trkpt>
      <trkpt lat="46.2265" lon="-1.43038">
        <ele>4.89823</ele>
        <time>2023-06-02T09:35:57.000Z</time>
      </trkpt>
      <trkpt lat="46.22651" lon="-1.43034">
        <ele>4.9863</ele>
        <time>2023-06-02T09:35:58.000Z</time>
      </trkpt>
      <trkpt lat="46.22651" lon="-1.4303">
        <ele>5.04198</ele>
        <time>2023-06-02T09:35:59.000Z</time>
      </trkpt>
      <trkpt lat="46.22651" lon="-1.43025">
        <ele>5.10307</ele>
        <time>2023-06-02T09:36:00.000Z</time>
      </trkpt>
      <trkpt lat="46.2265" lon="-1.4302">
        <ele>5.14376</ele>
        <time>2023-06-02T09:36:01.000Z</time>
      </trkpt>
      <trkpt lat="46.22649" lon="-1.43017">
        <ele>5.16876</ele>
        <time>2023-06-02T09:36:02.000Z</time>
      </trkpt>
      <trkpt lat="46.22649" lon="-1.43012">
        <ele>5.18869</ele>
        <time>2023-06-02T09:36:04.000Z</time>
      </trkpt>
      <trkpt lat="46.22648" lon="-1.43008">
        <ele>5.22415</ele>
        <time>2023-06-02T09:36:06.000Z</time>
      </trkpt>
      <trkpt lat="46.22647" lon="-1.43005">
        <ele>5.27085</ele>
        <time>2023-06-02T09:36:08.000Z</time>
      </trkpt>
      <trkpt lat="46.22646" lon="-1.43003">
        <ele>5.30636</ele>
        <time>2023-06-02T09:36:09.000Z</time>
      </trkpt>
      <trkpt lat="46.22644" lon="-1.43001">
        <ele>5.32473</ele>
        <time>2023-06-02T09:36:10.000Z</time>
      </trkpt>
      <trkpt lat="46.22642" lon="-1.42997">
        <ele>5.30109</ele>
        <time>2023-06-02T09:36:11.000Z</time>
      </trkpt>
      <trkpt lat="46.22642" lon="-1.42993">
        <ele>5.26451</ele>
        <time>2023-06-02T09:36:12.000Z</time>
      </trkpt>
      <trkpt lat="46.22643" lon="-1.4299">
        <ele>5.2303</ele>
        <time>2023-06-02T09:36:13.000Z</time>
      </trkpt>
      <trkpt lat="46.22645" lon="-1.42987">
        <ele>5.21303</ele>
        <time>2023-06-02T09:36:14.000Z</time>
      </trkpt>
      <trkpt lat="46.22645" lon="-1.42983">
        <ele>5.12129</ele>
        <time>2023-06-02T09:36:15.000Z</time>
      </trkpt>
      <trkpt lat="46.22645" lon="-1.42979">
        <ele>5.05067</ele>
        <time>2023-06-02T09:36:16.000Z</time>
      </trkpt>
      <trkpt lat="46.22645" lon="-1.42975">
        <ele>4.97544</ele>
        <time>2023-06-02T09:36:17.000Z</time>
      </trkpt>
      <trkpt lat="46.22644" lon="-1.42971">
        <ele>4.90714</ele>
        <time>2023-06-02T09:36:18.000Z</time>
      </trkpt>
      <trkpt lat="46.22644" lon="-1.42968">
        <ele>4.84194</ele>
        <time>2023-06-02T09:36:19.000Z</time>
      </trkpt>
      <trkpt lat="46.22644" lon="-1.42963">
        <ele>4.79082</ele>
        <time>2023-06-02T09:36:20.000Z</time>
      </trkpt>
      <trkpt lat="46.22643" lon="-1.42958">
        <ele>4.7227</ele>
        <time>2023-06-02T09:36:21.000Z</time>
      </trkpt>
      <trkpt lat="46.22643" lon="-1.42954">
        <ele>4.65886</ele>
        <time>2023-06-02T09:36:22.000Z</time>
      </trkpt>
      <trkpt lat="46.22644" lon="-1.42949">
        <ele>4.5968</ele>
        <time>2023-06-02T09:36:23.000Z</time>
      </trkpt>
      <trkpt lat="46.22645" lon="-1.42945">
        <ele>4.5352</ele>
        <time>2023-06-02T09:36:24.000Z</time>
      </trkpt>
      <trkpt lat="46.22646" lon="-1.4294">
        <ele>4.47232</ele>
        <time>2023-06-02T09:36:25.000Z</time>
      </trkpt>
      <trkpt lat="46.22647" lon="-1.42936">
        <ele>4.41065</ele>
        <time>2023-06-02T09:36:26.000Z</time>
      </trkpt>
      <trkpt lat="46.22648" lon="-1.42932">
        <ele>4.37354</ele>
        <time>2023-06-02T09:36:27.000Z</time>
      </trkpt>
      <trkpt lat="46.22649" lon="-1.42927">
        <ele>4.31612</ele>
        <time>2023-06-02T09:36:28.000Z</time>
      </trkpt>
      <trkpt lat="46.2265" lon="-1.42924">
        <ele>4.28429</ele>
        <time>2023-06-02T09:36:29.000Z</time>
      </trkpt>
      <trkpt lat="46.22652" lon="-1.4292">
        <ele>4.26531</ele>
        <time>2023-06-02T09:36:30.000Z</time>
      </trkpt>
      <trkpt lat="46.22653" lon="-1.42915">
        <ele>4.27009</ele>
        <time>2023-06-02T09:36:31.000Z</time>
      </trkpt>
      <trkpt lat="46.22655" lon="-1.42911">
        <ele>4.2719</ele>
        <time>2023-06-02T09:36:32.000Z</time>
      </trkpt>
      <trkpt lat="46.22656" lon="-1.42906">
        <ele>4.28485</ele>
        <time>2023-06-02T09:36:33.000Z</time>
      </trkpt>
      <trkpt lat="46.22658" lon="-1.42902">
        <ele>4.27891</ele>
        <time>2023-06-02T09:36:34.000Z</time>
      </trkpt>
      <trkpt lat="46.22659" lon="-1.42897">
        <ele>4.2647</ele>
        <time>2023-06-02T09:36:35.000Z</time>
      </trkpt>
      <trkpt lat="46.2266" lon="-1.42892">
        <ele>4.22596</ele>
        <time>2023-06-02T09:36:36.000Z</time>
      </trkpt>
      <trkpt lat="46.22661" lon="-1.42887">
        <ele>4.20301</ele>
        <time>2023-06-02T09:36:37.000Z</time>
      </trkpt>
      <trkpt lat="46.22662" lon="-1.42882">
        <ele>4.16577</ele>
        <time>2023-06-02T09:36:38.000Z</time>
      </trkpt>
      <trkpt lat="46.22662" lon="-1.42877">
        <ele>4.12984</ele>
        <time>2023-06-02T09:36:39.000Z</time>
      </trkpt>
      <trkpt lat="46.22662" lon="-1.42872">
        <ele>4.1553</ele>
        <time>2023-06-02T09:36:40.000Z</time>
      </trkpt>
      <trkpt lat="46.22662" lon="-1.42867">
        <ele>4.16931</ele>
        <time>2023-06-02T09:36:41.000Z</time>
      </trkpt>
      <trkpt lat="46.22661" lon="-1.42862">
        <ele>4.19627</ele>
        <time>2023-06-02T09:36:42.000Z</time>
      </trkpt>
      <trkpt lat="46.2266" lon="-1.42857">
        <ele>4.22114</ele>
        <time>2023-06-02T09:36:43.000Z</time>
      </trkpt>
      <trkpt lat="46.22659" lon="-1.42852">
        <ele>4.26924</ele>
        <time>2023-06-02T09:36:44.000Z</time>
      </trkpt>
      <trkpt lat="46.22658" lon="-1.42846">
        <ele>4.33905</ele>
        <time>2023-06-02T09:36:45.000Z</time>
      </trkpt>
      <trkpt lat="46.22657" lon="-1.42841">
        <ele>4.39632</ele>
        <time>2023-06-02T09:36:46.000Z</time>
      </trkpt>
      <trkpt lat="46.22655" lon="-1.42836">
        <ele>4.425</ele>
        <time>2023-06-02T09:36:47.000Z</time>
      </trkpt>
      <trkpt lat="46.22654" lon="-1.4283">
        <ele>4.45084</ele>
        <time>2023-06-02T09:36:48.000Z</time>
      </trkpt>
      <trkpt lat="46.22652" lon="-1.42825">
        <ele>4.48809</ele>
        <time>2023-06-02T09:36:49.000Z</time>
      </trkpt>
      <trkpt lat="46.22651" lon="-1.42819">
        <ele>4.55282</ele>
        <time>2023-06-02T09:36:50.000Z</time>
      </trkpt>
      <trkpt lat="46.22649" lon="-1.42813">
        <ele>4.69163</ele>
        <time>2023-06-02T09:36:51.000Z</time>
      </trkpt>
      <trkpt lat="46.22647" lon="-1.42807">
        <ele>4.82452</ele>
        <time>2023-06-02T09:36:52.000Z</time>
      </trkpt>
      <trkpt lat="46.22646" lon="-1.42801">
        <ele>4.93977</ele>
        <time>2023-06-02T09:36:53.000Z</time>
      </trkpt>
      <trkpt lat="46.22644" lon="-1.42796">
        <ele>5.0658</ele>
        <time>2023-06-02T09:36:54.000Z</time>
      </trkpt>
      <trkpt lat="46.22642" lon="-1.4279">
        <ele>5.21179</ele>
        <time>2023-06-02T09:36:55.000Z</time>
      </trkpt>
      <trkpt lat="46.22641" lon="-1.42784">
        <ele>5.35057</ele>
        <time>2023-06-02T09:36:56.000Z</time>
      </trkpt>
      <trkpt lat="46.22639" lon="-1.42779">
        <ele>5.47639</ele>
        <time>2023-06-02T09:36:57.000Z</time>
      </trkpt>
      <trkpt lat="46.22638" lon="-1.42773">
        <ele>5.61557</ele>
        <time>2023-06-02T09:36:58.000Z</time>
      </trkpt>
      <trkpt lat="46.22636" lon="-1.42768">
        <ele>5.76499</ele>
        <time>2023-06-02T09:36:59.000Z</time>
      </trkpt>
      <trkpt lat="46.22635" lon="-1.42762">
        <ele>5.86676</ele>
        <time>2023-06-02T09:37:00.000Z</time>
      </trkpt>
      <trkpt lat="46.22633" lon="-1.42757">
        <ele>5.95544</ele>
        <time>2023-06-02T09:37:01.000Z</time>
      </trkpt>
      <trkpt lat="46.22632" lon="-1.42752">
        <ele>6.0669</ele>
        <time>2023-06-02T09:37:02.000Z</time>
      </trkpt>
      <trkpt lat="46.22631" lon="-1.42747">
        <ele>6.14081</ele>
        <time>2023-06-02T09:37:03.000Z</time>
      </trkpt>
      <trkpt lat="46.22629" lon="-1.42743">
        <ele>6.21982</ele>
        <time>2023-06-02T09:37:04.000Z</time>
      </trkpt>
      <trkpt lat="46.22628" lon="-1.42739">
        <ele>6.29936</ele>
        <time>2023-06-02T09:37:05.000Z</time>
      </trkpt>
      <trkpt lat="46.22627" lon="-1.42736">
        <ele>6.30611</ele>
        <time>2023-06-02T09:37:06.000Z</time>
      </trkpt>
      <trkpt lat="46.22628" lon="-1.42734">
        <ele>6.30137</ele>
        <time>2023-06-02T09:37:07.000Z</time>
      </trkpt>
      <trkpt lat="46.22632" lon="-1.42732">
        <ele>6.29758</ele>
        <time>2023-06-02T09:37:09.000Z</time>
      </trkpt>
      <trkpt lat="46.22631" lon="-1.42728">
        <ele>6.33057</ele>
        <time>2023-06-02T09:37:11.000Z</time>
      </trkpt>
      <trkpt lat="46.22628" lon="-1.42727">
        <ele>6.33126</ele>
        <time>2023-06-02T09:37:13.000Z</time>
      </trkpt>
      <trkpt lat="46.22626" lon="-1.42728">
        <ele>6.23902</ele>
        <time>2023-06-02T09:37:14.000Z</time>
      </trkpt>
      <trkpt lat="46.22624" lon="-1.4273">
        <ele>6.17205</ele>
        <time>2023-06-02T09:37:15.000Z</time>
      </trkpt>
      <trkpt lat="46.22622" lon="-1.42732">
        <ele>6.09952</ele>
        <time>2023-06-02T09:37:16.000Z</time>
      </trkpt>
      <trkpt lat="46.22619" lon="-1.42734">
        <ele>6.03286</ele>
        <time>2023-06-02T09:37:17.000Z</time>
      </trkpt>
      <trkpt lat="46.22617" lon="-1.42736">
        <ele>5.97347</ele>
        <time>2023-06-02T09:37:18.000Z</time>
      </trkpt>
      <trkpt lat="46.22614" lon="-1.42739">
        <ele>5.92838</ele>
        <time>2023-06-02T09:37:19.000Z</time>
      </trkpt>
      <trkpt lat="46.22612" lon="-1.42742">
        <ele>5.89531</ele>
        <time>2023-06-02T09:37:20.000Z</time>
      </trkpt>
      <trkpt lat="46.22609" lon="-1.42745">
        <ele>5.8659</ele>
        <time>2023-06-02T09:37:21.000Z</time>
      </trkpt>
      <trkpt lat="46.22606" lon="-1.42747">
        <ele>5.81801</ele>
        <time>2023-06-02T09:37:22.000Z</time>
      </trkpt>
      <trkpt lat="46.22603" lon="-1.4275">
        <ele>5.76006</ele>
        <time>2023-06-02T09:37:23.000Z</time>
      </trkpt>
      <trkpt lat="46.226" lon="-1.42752">
        <ele>5.71539</ele>
        <time>2023-06-02T09:37:24.000Z</time>
      </trkpt>
      <trkpt lat="46.22597" lon="-1.42754">
        <ele>5.63933</ele>
        <time>2023-06-02T09:37:25.000Z</time>
      </trkpt>
      <trkpt lat="46.22593" lon="-1.42756">
        <ele>5.61572</ele>
        <time>2023-06-02T09:37:26.000Z</time>
      </trkpt>
      <trkpt lat="46.22589" lon="-1.42758">
        <ele>5.55212</ele>
        <time>2023-06-02T09:37:27.000Z</time>
      </trkpt>
      <trkpt lat="46.22586" lon="-1.4276">
        <ele>5.48244</ele>
        <time>2023-06-02T09:37:28.000Z</time>
      </trkpt>
      <trkpt lat="46.22582" lon="-1.42761">
        <ele>5.49918</ele>
        <time>2023-06-02T09:37:29.000Z</time>
      </trkpt>
      <trkpt lat="46.22579" lon="-1.42763">
        <ele>5.53713</ele>
        <time>2023-06-02T09:37:30.000Z</time>
      </trkpt>
      <trkpt lat="46.22575" lon="-1.42765">
        <ele>5.56456</ele>
        <time>2023-06-02T09:37:31.000Z</time>
      </trkpt>
      <trkpt lat="46.22571" lon="-1.42767">
        <ele>5.54008</ele>
        <time>2023-06-02T09:37:32.000Z</time>
      </trkpt>
      <trkpt lat="46.22567" lon="-1.42769">
        <ele>5.50904</ele>
        <time>2023-06-02T09:37:33.000Z</time>
      </trkpt>
      <trkpt lat="46.22563" lon="-1.4277">
        <ele>5.53966</ele>
        <time>2023-06-02T09:37:34.000Z</time>
      </trkpt>
      <trkpt lat="46.22559" lon="-1.42773">
        <ele>5.54295</ele>
        <time>2023-06-02T09:37:35.000Z</time>
      </trkpt>
      <trkpt lat="46.22556" lon="-1.42775">
        <ele>5.57727</ele>
        <time>2023-06-02T09:37:36.000Z</time>
      </trkpt>
      <trkpt lat="46.22552" lon="-1.42777">
        <ele>5.59173</ele>
        <time>2023-06-02T09:37:37.000Z</time>
      </trkpt>
      <trkpt lat="46.22548" lon="-1.42779">
        <ele>5.69777</ele>
        <time>2023-06-02T09:37:38.000Z</time>
      </trkpt>
      <trkpt lat="46.22544" lon="-1.42781">
        <ele>5.79835</ele>
        <time>2023-06-02T09:37:39.000Z</time>
      </trkpt>
      <trkpt lat="46.2254" lon="-1.42783">
        <ele>5.87684</ele>
        <time>2023-06-02T09:37:40.000Z</time>
      </trkpt>
      <trkpt lat="46.22536" lon="-1.42785">
        <ele>5.94959</ele>
        <time>2023-06-02T09:37:41.000Z</time>
      </trkpt>
      <trkpt lat="46.22532" lon="-1.42787">
        <ele>6.04318</ele>
        <time>2023-06-02T09:37:42.000Z</time>
      </trkpt>
      <trkpt lat="46.22529" lon="-1.42789">
        <ele>6.14371</ele>
        <time>2023-06-02T09:37:43.000Z</time>
      </trkpt>
      <trkpt lat="46.22525" lon="-1.42792">
        <ele>6.03281</ele>
        <time>2023-06-02T09:37:44.000Z</time>
      </trkpt>
      <trkpt lat="46.22521" lon="-1.42794">
        <ele>5.98406</ele>
        <time>2023-06-02T09:37:45.000Z</time>
      </trkpt>
      <trkpt lat="46.22517" lon="-1.42796">
        <ele>5.91229</ele>
        <time>2023-06-02T09:37:46.000Z</time>
      </trkpt>
      <trkpt lat="46.22513" lon="-1.42799">
        <ele>5.86697</ele>
        <time>2023-06-02T09:37:47.000Z</time>
      </trkpt>
      <trkpt lat="46.2251" lon="-1.42801">
        <ele>5.80799</ele>
        <time>2023-06-02T09:37:48.000Z</time>
      </trkpt>
      <trkpt lat="46.22506" lon="-1.42804">
        <ele>5.7517</ele>
        <time>2023-06-02T09:37:49.000Z</time>
      </trkpt>
      <trkpt lat="46.22503" lon="-1.42808">
        <ele>5.68682</ele>
        <time>2023-06-02T09:37:50.000Z</time>
      </trkpt>
      <trkpt lat="46.22499" lon="-1.42811">
        <ele>5.63778</ele>
        <time>2023-06-02T09:37:51.000Z</time>
      </trkpt>
      <trkpt lat="46.22496" lon="-1.42813">
        <ele>5.69373</ele>
        <time>2023-06-02T09:37:52.000Z</time>
      </trkpt>
      <trkpt lat="46.22493" lon="-1.42816">
        <ele>5.73476</ele>
        <time>2023-06-02T09:37:53.000Z</time>
      </trkpt>
      <trkpt lat="46.2249" lon="-1.42818">
        <ele>5.72057</ele>
        <time>2023-06-02T09:37:54.000Z</time>
      </trkpt>
      <trkpt lat="46.22486" lon="-1.4282">
        <ele>5.58571</ele>
        <time>2023-06-02T09:37:55.000Z</time>
      </trkpt>
      <trkpt lat="46.22483" lon="-1.42822">
        <ele>5.44253</ele>
        <time>2023-06-02T09:37:56.000Z</time>
      </trkpt>
      <trkpt lat="46.2248" lon="-1.42824">
        <ele>5.30761</ele>
        <time>2023-06-02T09:37:57.000Z</time>
      </trkpt>
      <trkpt lat="46.22477" lon="-1.42825">
        <ele>5.13027</ele>
        <time>2023-06-02T09:37:58.000Z</time>
      </trkpt>
      <trkpt lat="46.22473" lon="-1.42826">
        <ele>4.95938</ele>
        <time>2023-06-02T09:37:59.000Z</time>
      </trkpt>
      <trkpt lat="46.2247" lon="-1.42828">
        <ele>4.79457</ele>
        <time>2023-06-02T09:38:00.000Z</time>
      </trkpt>
      <trkpt lat="46.22468" lon="-1.42829">
        <ele>4.62928</ele>
        <time>2023-06-02T09:38:01.000Z</time>
      </trkpt>
      <trkpt lat="46.22465" lon="-1.4283">
        <ele>4.4764</ele>
        <time>2023-06-02T09:38:02.000Z</time>
      </trkpt>
      <trkpt lat="46.22463" lon="-1.4283">
        <ele>4.29557</ele>
        <time>2023-06-02T09:38:03.000Z</time>
      </trkpt>
      <trkpt lat="46.22461" lon="-1.42829">
        <ele>4.32474</ele>
        <time>2023-06-02T09:38:04.000Z</time>
      </trkpt>
      <trkpt lat="46.22459" lon="-1.42826">
        <ele>4.25631</ele>
        <time>2023-06-02T09:38:05.000Z</time>
      </trkpt>
      <trkpt lat="46.22458" lon="-1.42822">
        <ele>4.23528</ele>
        <time>2023-06-02T09:38:06.000Z</time>
      </trkpt>
      <trkpt lat="46.22457" lon="-1.42817">
        <ele>4.20243</ele>
        <time>2023-06-02T09:38:07.000Z</time>
      </trkpt>
      <trkpt lat="46.22456" lon="-1.42812">
        <ele>4.18469</ele>
        <time>2023-06-02T09:38:08.000Z</time>
      </trkpt>
      <trkpt lat="46.22455" lon="-1.42807">
        <ele>4.1686</ele>
        <time>2023-06-02T09:38:09.000Z</time>
      </trkpt>
      <trkpt lat="46.22454" lon="-1.42802">
        <ele>4.14086</ele>
        <time>2023-06-02T09:38:10.000Z</time>
      </trkpt>
      <trkpt lat="46.22453" lon="-1.42797">
        <ele>4.08248</ele>
        <time>2023-06-02T09:38:11.000Z</time>
      </trkpt>
      <trkpt lat="46.22452" lon="-1.42792">
        <ele>3.9029</ele>
        <time>2023-06-02T09:38:12.000Z</time>
      </trkpt>
      <trkpt lat="46.22451" lon="-1.42787">
        <ele>3.72783</ele>
        <time>2023-06-02T09:38:13.000Z</time>
      </trkpt>
      <trkpt lat="46.2245" lon="-1.42783">
        <ele>3.59121</ele>
        <time>2023-06-02T09:38:14.000Z</time>
      </trkpt>
      <trkpt lat="46.22449" lon="-1.42778">
        <ele>3.62347</ele>
        <time>2023-06-02T09:38:15.000Z</time>
      </trkpt>
      <trkpt lat="46.22448" lon="-1.42774">
        <ele>3.64596</ele>
        <time>2023-06-02T09:38:16.000Z</time>
      </trkpt>
      <trkpt lat="46.22447" lon="-1.4277">
        <ele>3.69925</ele>
        <time>2023-06-02T09:38:17.000Z</time>
      </trkpt>
      <trkpt lat="46.22446" lon="-1.42765">
        <ele>3.67851</ele>
        <time>2023-06-02T09:38:18.000Z</time>
      </trkpt>
      <trkpt lat="46.22445" lon="-1.42761">
        <ele>3.64846</ele>
        <time>2023-06-02T09:38:19.000Z</time>
      </trkpt>
      <trkpt lat="46.22443" lon="-1.42756">
        <ele>3.60783</ele>
        <time>2023-06-02T09:38:20.000Z</time>
      </trkpt>
      <trkpt lat="46.22442" lon="-1.42751">
        <ele>3.57541</ele>
        <time>2023-06-02T09:38:21.000Z</time>
      </trkpt>
      <trkpt lat="46.2244" lon="-1.42747">
        <ele>3.50598</ele>
        <time>2023-06-02T09:38:22.000Z</time>
      </trkpt>
      <trkpt lat="46.22439" lon="-1.42743">
        <ele>3.54802</ele>
        <time>2023-06-02T09:38:23.000Z</time>
      </trkpt>
      <trkpt lat="46.22438" lon="-1.42738">
        <ele>3.59674</ele>
        <time>2023-06-02T09:38:24.000Z</time>
      </trkpt>
      <trkpt lat="46.22436" lon="-1.42734">
        <ele>3.67553</ele>
        <time>2023-06-02T09:38:25.000Z</time>
      </trkpt>
      <trkpt lat="46.22435" lon="-1.42729">
        <ele>3.55624</ele>
        <time>2023-06-02T09:38:26.000Z</time>
      </trkpt>
      <trkpt lat="46.22433" lon="-1.42724">
        <ele>3.44645</ele>
        <time>2023-06-02T09:38:27.000Z</time>
      </trkpt>
      <trkpt lat="46.22432" lon="-1.4272">
        <ele>3.33988</ele>
        <time>2023-06-02T09:38:28.000Z</time>
      </trkpt>
      <trkpt lat="46.22431" lon="-1.42715">
        <ele>3.26364</ele>
        <time>2023-06-02T09:38:29.000Z</time>
      </trkpt>
      <trkpt lat="46.2243" lon="-1.42711">
        <ele>3.18075</ele>
        <time>2023-06-02T09:38:30.000Z</time>
      </trkpt>
      <trkpt lat="46.22428" lon="-1.42706">
        <ele>3.13314</ele>
        <time>2023-06-02T09:38:31.000Z</time>
      </trkpt>
      <trkpt lat="46.22427" lon="-1.42702">
        <ele>3.09559</ele>
        <time>2023-06-02T09:38:32.000Z</time>
      </trkpt>
      <trkpt lat="46.22426" lon="-1.42698">
        <ele>3.05136</ele>
        <time>2023-06-02T09:38:33.000Z</time>
      </trkpt>
      <trkpt lat="46.22425" lon="-1.42693">
        <ele>3.00235</ele>
        <time>2023-06-02T09:38:34.000Z</time>
      </trkpt>
      <trkpt lat="46.22424" lon="-1.42688">
        <ele>2.91972</ele>
        <time>2023-06-02T09:38:35.000Z</time>
      </trkpt>
      <trkpt lat="46.22424" lon="-1.42683">
        <ele>2.83953</ele>
        <time>2023-06-02T09:38:36.000Z</time>
      </trkpt>
      <trkpt lat="46.22423" lon="-1.42678">
        <ele>2.71072</ele>
        <time>2023-06-02T09:38:37.000Z</time>
      </trkpt>
      <trkpt lat="46.22422" lon="-1.42673">
        <ele>2.59578</ele>
        <time>2023-06-02T09:38:38.000Z</time>
      </trkpt>
      <trkpt lat="46.22421" lon="-1.42668">
        <ele>2.50118</ele>
        <time>2023-06-02T09:38:39.000Z</time>
      </trkpt>
      <trkpt lat="46.22419" lon="-1.42662">
        <ele>2.41721</ele>
        <time>2023-06-02T09:38:40.000Z</time>
      </trkpt>
      <trkpt lat="46.22418" lon="-1.42657">
        <ele>2.30125</ele>
        <time>2023-06-02T09:38:41.000Z</time>
      </trkpt>
      <trkpt lat="46.22416" lon="-1.42652">
        <ele>2.2105</ele>
        <time>2023-06-02T09:38:42.000Z</time>
      </trkpt>
      <trkpt lat="46.22415" lon="-1.42646">
        <ele>2.03105</ele>
        <time>2023-06-02T09:38:43.000Z</time>
      </trkpt>
      <trkpt lat="46.22413" lon="-1.42641">
        <ele>1.85261</ele>
        <time>2023-06-02T09:38:44.000Z</time>
      </trkpt>
      <trkpt lat="46.22411" lon="-1.42635">
        <ele>1.67606</ele>
        <time>2023-06-02T09:38:45.000Z</time>
      </trkpt>
      <trkpt lat="46.2241" lon="-1.4263">
        <ele>1.6766</ele>
        <time>2023-06-02T09:38:46.000Z</time>
      </trkpt>
      <trkpt lat="46.22408" lon="-1.42624">
        <ele>1.671</ele>
        <time>2023-06-02T09:38:47.000Z</time>
      </trkpt>
      <trkpt lat="46.22407" lon="-1.42619">
        <ele>1.68717</ele>
        <time>2023-06-02T09:38:48.000Z</time>
      </trkpt>
      <trkpt lat="46.22406" lon="-1.42613">
        <ele>1.66947</ele>
        <time>2023-06-02T09:38:49.000Z</time>
      </trkpt>
      <trkpt lat="46.22404" lon="-1.42607">
        <ele>1.65914</ele>
        <time>2023-06-02T09:38:50.000Z</time>
      </trkpt>
      <trkpt lat="46.22403" lon="-1.42602">
        <ele>1.58745</ele>
        <time>2023-06-02T09:38:51.000Z</time>
      </trkpt>
      <trkpt lat="46.22402" lon="-1.42596">
        <ele>1.53303</ele>
        <time>2023-06-02T09:38:52.000Z</time>
      </trkpt>
      <trkpt lat="46.224" lon="-1.4259">
        <ele>1.5083</ele>
        <time>2023-06-02T09:38:53.000Z</time>
      </trkpt>
      <trkpt lat="46.22399" lon="-1.42584">
        <ele>1.4491</ele>
        <time>2023-06-02T09:38:54.000Z</time>
      </trkpt>
      <trkpt lat="46.22398" lon="-1.42578">
        <ele>1.39961</ele>
        <time>2023-06-02T09:38:55.000Z</time>
      </trkpt>
      <trkpt lat="46.22396" lon="-1.42573">
        <ele>1.34045</ele>
        <time>2023-06-02T09:38:56.000Z</time>
      </trkpt>
      <trkpt lat="46.22394" lon="-1.42567">
        <ele>1.28725</ele>
        <time>2023-06-02T09:38:57.000Z</time>
      </trkpt>
      <trkpt lat="46.22392" lon="-1.42561">
        <ele>1.23593</ele>
        <time>2023-06-02T09:38:58.000Z</time>
      </trkpt>
      <trkpt lat="46.22391" lon="-1.42555">
        <ele>1.193</ele>
        <time>2023-06-02T09:38:59.000Z</time>
      </trkpt>
      <trkpt lat="46.22389" lon="-1.4255">
        <ele>1.15274</ele>
        <time>2023-06-02T09:39:00.000Z</time>
      </trkpt>
      <trkpt lat="46.22388" lon="-1.42544">
        <ele>1.13209</ele>
        <time>2023-06-02T09:39:01.000Z</time>
      </trkpt>
      <trkpt lat="46.22386" lon="-1.4254">
        <ele>1.10129</ele>
        <time>2023-06-02T09:39:02.000Z</time>
      </trkpt>
      <trkpt lat="46.22383" lon="-1.42538">
        <ele>1.07472</ele>
        <time>2023-06-02T09:39:03.000Z</time>
      </trkpt>
      <trkpt lat="46.22379" lon="-1.42539">
        <ele>1.02155</ele>
        <time>2023-06-02T09:39:04.000Z</time>
      </trkpt>
      <trkpt lat="46.22375" lon="-1.4254">
        <ele>0.97357</ele>
        <time>2023-06-02T09:39:05.000Z</time>
      </trkpt>
      <trkpt lat="46.22372" lon="-1.42543">
        <ele>0.92527</ele>
        <time>2023-06-02T09:39:06.000Z</time>
      </trkpt>
      <trkpt lat="46.22368" lon="-1.42545">
        <ele>0.95617</ele>
        <time>2023-06-02T09:39:07.000Z</time>
      </trkpt>
      <trkpt lat="46.22364" lon="-1.42547">
        <ele>0.95243</ele>
        <time>2023-06-02T09:39:08.000Z</time>
      </trkpt>
      <trkpt lat="46.22361" lon="-1.42549">
        <ele>0.95529</ele>
        <time>2023-06-02T09:39:09.000Z</time>
      </trkpt>
      <trkpt lat="46.22357" lon="-1.42551">
        <ele>0.97545</ele>
        <time>2023-06-02T09:39:10.000Z</time>
      </trkpt>
      <trkpt lat="46.22354" lon="-1.42553">
        <ele>1.04902</ele>
        <time>2023-06-02T09:39:11.000Z</time>
      </trkpt>
      <trkpt lat="46.2235" lon="-1.42554">
        <ele>1.1231</ele>
        <time>2023-06-02T09:39:12.000Z</time>
      </trkpt>
      <trkpt lat="46.22347" lon="-1.42556">
        <ele>1.19157</ele>
        <time>2023-06-02T09:39:13.000Z</time>
      </trkpt>
      <trkpt lat="46.22343" lon="-1.42558">
        <ele>1.28944</ele>
        <time>2023-06-02T09:39:14.000Z</time>
      </trkpt>
      <trkpt lat="46.2234" lon="-1.4256">
        <ele>1.35955</ele>
        <time>2023-06-02T09:39:15.000Z</time>
      </trkpt>
      <trkpt lat="46.22337" lon="-1.42562">
        <ele>1.43242</ele>
        <time>2023-06-02T09:39:16.000Z</time>
      </trkpt>
      <trkpt lat="46.22334" lon="-1.42565">
        <ele>1.53469</ele>
        <time>2023-06-02T09:39:17.000Z</time>
      </trkpt>
      <trkpt lat="46.22331" lon="-1.42569">
        <ele>1.62998</ele>
        <time>2023-06-02T09:39:18.000Z</time>
      </trkpt>
      <trkpt lat="46.22328" lon="-1.42572">
        <ele>1.69023</ele>
        <time>2023-06-02T09:39:19.000Z</time>
      </trkpt>
      <trkpt lat="46.22325" lon="-1.42577">
        <ele>1.73844</ele>
        <time>2023-06-02T09:39:20.000Z</time>
      </trkpt>
      <trkpt lat="46.22323" lon="-1.42581">
        <ele>1.78554</ele>
        <time>2023-06-02T09:39:21.000Z</time>
      </trkpt>
      <trkpt lat="46.2232" lon="-1.42585">
        <ele>1.8113</ele>
        <time>2023-06-02T09:39:22.000Z</time>
      </trkpt>
      <trkpt lat="46.22318" lon="-1.42589">
        <ele>1.80816</ele>
        <time>2023-06-02T09:39:23.000Z</time>
      </trkpt>
      <trkpt lat="46.22315" lon="-1.42593">
        <ele>1.81688</ele>
        <time>2023-06-02T09:39:24.000Z</time>
      </trkpt>
      <trkpt lat="46.22312" lon="-1.42597">
        <ele>1.82694</ele>
        <time>2023-06-02T09:39:25.000Z</time>
      </trkpt>
      <trkpt lat="46.22309" lon="-1.426">
        <ele>1.82453</ele>
        <time>2023-06-02T09:39:26.000Z</time>
      </trkpt>
      <trkpt lat="46.22305" lon="-1.42602">
        <ele>1.79954</ele>
        <time>2023-06-02T09:39:27.000Z</time>
      </trkpt>
      <trkpt lat="46.22302" lon="-1.42605">
        <ele>1.78304</ele>
        <time>2023-06-02T09:39:28.000Z</time>
      </trkpt>
      <trkpt lat="46.22298" lon="-1.42607">
        <ele>1.7657</ele>
        <time>2023-06-02T09:39:29.000Z</time>
      </trkpt>
      <trkpt lat="46.22294" lon="-1.42609">
        <ele>1.74179</ele>
        <time>2023-06-02T09:39:30.000Z</time>
      </trkpt>
      <trkpt lat="46.2229" lon="-1.42611">
        <ele>1.73336</ele>
        <time>2023-06-02T09:39:31.000Z</time>
      </trkpt>
      <trkpt lat="46.22285" lon="-1.42612">
        <ele>1.7183</ele>
        <time>2023-06-02T09:39:32.000Z</time>
      </trkpt>
      <trkpt lat="46.22281" lon="-1.42613">
        <ele>1.69805</ele>
        <time>2023-06-02T09:39:33.000Z</time>
      </trkpt>
      <trkpt lat="46.22277" lon="-1.42614">
        <ele>1.65636</ele>
        <time>2023-06-02T09:39:34.000Z</time>
      </trkpt>
      <trkpt lat="46.22273" lon="-1.42615">
        <ele>1.62382</ele>
        <time>2023-06-02T09:39:35.000Z</time>
      </trkpt>
      <trkpt lat="46.22269" lon="-1.42616">
        <ele>1.60324</ele>
        <time>2023-06-02T09:39:36.000Z</time>
      </trkpt>
      <trkpt lat="46.22265" lon="-1.42616">
        <ele>1.57393</ele>
        <time>2023-06-02T09:39:37.000Z</time>
      </trkpt>
      <trkpt lat="46.22261" lon="-1.42617">
        <ele>1.53445</ele>
        <time>2023-06-02T09:39:38.000Z</time>
      </trkpt>
      <trkpt lat="46.22257" lon="-1.42619">
        <ele>1.49521</ele>
        <time>2023-06-02T09:39:39.000Z</time>
      </trkpt>
      <trkpt lat="46.22253" lon="-1.4262">
        <ele>1.45311</ele>
        <time>2023-06-02T09:39:40.000Z</time>
      </trkpt>
      <trkpt lat="46.22248" lon="-1.4262">
        <ele>1.43033</ele>
        <time>2023-06-02T09:39:41.000Z</time>
      </trkpt>
      <trkpt lat="46.22244" lon="-1.42621">
        <ele>1.42615</ele>
        <time>2023-06-02T09:39:42.000Z</time>
      </trkpt>
      <trkpt lat="46.2224" lon="-1.42622">
        <ele>1.45137</ele>
        <time>2023-06-02T09:39:43.000Z</time>
      </trkpt>
      <trkpt lat="46.22236" lon="-1.42624">
        <ele>1.48492</ele>
        <time>2023-06-02T09:39:44.000Z</time>
      </trkpt>
      <trkpt lat="46.22232" lon="-1.42625">
        <ele>1.51954</ele>
        <time>2023-06-02T09:39:45.000Z</time>
      </trkpt>
      <trkpt lat="46.22228" lon="-1.42626">
        <ele>1.53567</ele>
        <time>2023-06-02T09:39:46.000Z</time>
      </trkpt>
      <trkpt lat="46.22224" lon="-1.42628">
        <ele>1.49589</ele>
        <time>2023-06-02T09:39:47.000Z</time>
      </trkpt>
      <trkpt lat="46.22221" lon="-1.4263">
        <ele>1.44545</ele>
        <time>2023-06-02T09:39:48.000Z</time>
      </trkpt>
      <trkpt lat="46.22217" lon="-1.42631">
        <ele>1.38631</ele>
        <time>2023-06-02T09:39:49.000Z</time>
      </trkpt>
      <trkpt lat="46.22213" lon="-1.42633">
        <ele>1.33933</ele>
        <time>2023-06-02T09:39:50.000Z</time>
      </trkpt>
      <trkpt lat="46.22209" lon="-1.42635">
        <ele>1.28362</ele>
        <time>2023-06-02T09:39:51.000Z</time>
      </trkpt>
      <trkpt lat="46.22205" lon="-1.42637">
        <ele>1.26867</ele>
        <time>2023-06-02T09:39:52.000Z</time>
      </trkpt>
      <trkpt lat="46.22202" lon="-1.42638">
        <ele>1.25281</ele>
        <time>2023-06-02T09:39:53.000Z</time>
      </trkpt>
      <trkpt lat="46.22198" lon="-1.4264">
        <ele>1.23334</ele>
        <time>2023-06-02T09:39:54.000Z</time>
      </trkpt>
      <trkpt lat="46.22194" lon="-1.42642">
        <ele>1.2272</ele>
        <time>2023-06-02T09:39:55.000Z</time>
      </trkpt>
      <trkpt lat="46.2219" lon="-1.42643">
        <ele>1.25129</ele>
        <time>2023-06-02T09:39:56.000Z</time>
      </trkpt>
      <trkpt lat="46.22186" lon="-1.42645">
        <ele>1.26434</ele>
        <time>2023-06-02T09:39:57.000Z</time>
      </trkpt>
      <trkpt lat="46.22183" lon="-1.42647">
        <ele>1.27852</ele>
        <time>2023-06-02T09:39:58.000Z</time>
      </trkpt>
      <trkpt lat="46.22179" lon="-1.42651">
        <ele>1.29013</ele>
        <time>2023-06-02T09:39:59.000Z</time>
      </trkpt>
      <trkpt lat="46.22176" lon="-1.42654">
        <ele>1.30097</ele>
        <time>2023-06-02T09:40:00.000Z</time>
      </trkpt>
      <trkpt lat="46.22173" lon="-1.42657">
        <ele>1.31681</ele>
        <time>2023-06-02T09:40:01.000Z</time>
      </trkpt>
      <trkpt lat="46.22169" lon="-1.42661">
        <ele>1.33283</ele>
        <time>2023-06-02T09:40:02.000Z</time>
      </trkpt>
      <trkpt lat="46.22166" lon="-1.42664">
        <ele>1.35476</ele>
        <time>2023-06-02T09:40:03.000Z</time>
      </trkpt>
      <trkpt lat="46.22163" lon="-1.42668">
        <ele>1.37652</ele>
        <time>2023-06-02T09:40:04.000Z</time>
      </trkpt>
      <trkpt lat="46.2216" lon="-1.42672">
        <ele>1.38503</ele>
        <time>2023-06-02T09:40:05.000Z</time>
      </trkpt>
      <trkpt lat="46.22158" lon="-1.42677">
        <ele>1.41907</ele>
        <time>2023-06-02T09:40:06.000Z</time>
      </trkpt>
      <trkpt lat="46.22155" lon="-1.42681">
        <ele>1.46289</ele>
        <time>2023-06-02T09:40:07.000Z</time>
      </trkpt>
      <trkpt lat="46.22152" lon="-1.42686">
        <ele>1.52222</ele>
        <time>2023-06-02T09:40:08.000Z</time>
      </trkpt>
      <trkpt lat="46.2215" lon="-1.42691">
        <ele>1.60544</ele>
        <time>2023-06-02T09:40:09.000Z</time>
      </trkpt>
      <trkpt lat="46.22148" lon="-1.42696">
        <ele>1.69207</ele>
        <time>2023-06-02T09:40:10.000Z</time>
      </trkpt>
      <trkpt lat="46.22145" lon="-1.42701">
        <ele>1.77651</ele>
        <time>2023-06-02T09:40:11.000Z</time>
      </trkpt>
      <trkpt lat="46.22143" lon="-1.42705">
        <ele>1.82243</ele>
        <time>2023-06-02T09:40:12.000Z</time>
      </trkpt>
      <trkpt lat="46.22141" lon="-1.4271">
        <ele>1.86208</ele>
        <time>2023-06-02T09:40:13.000Z</time>
      </trkpt>
      <trkpt lat="46.22138" lon="-1.42715">
        <ele>1.90892</ele>
        <time>2023-06-02T09:40:14.000Z</time>
      </trkpt>
      <trkpt lat="46.22136" lon="-1.4272">
        <ele>1.95836</ele>
        <time>2023-06-02T09:40:15.000Z</time>
      </trkpt>
      <trkpt lat="46.22134" lon="-1.42725">
        <ele>1.97829</ele>
        <time>2023-06-02T09:40:16.000Z</time>
      </trkpt>
      <trkpt lat="46.22131" lon="-1.42729">
        <ele>2.01645</ele>
        <time>2023-06-02T09:40:17.000Z</time>
      </trkpt>
      <trkpt lat="46.22129" lon="-1.42734">
        <ele>2.0586</ele>
        <time>2023-06-02T09:40:18.000Z</time>
      </trkpt>
      <trkpt lat="46.22126" lon="-1.42739">
        <ele>2.11371</ele>
        <time>2023-06-02T09:40:19.000Z</time>
      </trkpt>
      <trkpt lat="46.22124" lon="-1.42744">
        <ele>2.19471</ele>
        <time>2023-06-02T09:40:20.000Z</time>
      </trkpt>
      <trkpt lat="46.22122" lon="-1.42749">
        <ele>2.26379</ele>
        <time>2023-06-02T09:40:21.000Z</time>
      </trkpt>
      <trkpt lat="46.2212" lon="-1.42753">
        <ele>2.3236</ele>
        <time>2023-06-02T09:40:22.000Z</time>
      </trkpt>
      <trkpt lat="46.22118" lon="-1.42758">
        <ele>2.36596</ele>
        <time>2023-06-02T09:40:23.000Z</time>
      </trkpt>
      <trkpt lat="46.22116" lon="-1.42762">
        <ele>2.41326</ele>
        <time>2023-06-02T09:40:24.000Z</time>
      </trkpt>
      <trkpt lat="46.22113" lon="-1.42766">
        <ele>2.46449</ele>
        <time>2023-06-02T09:40:25.000Z</time>
      </trkpt>
      <trkpt lat="46.22111" lon="-1.4277">
        <ele>2.49799</ele>
        <time>2023-06-02T09:40:26.000Z</time>
      </trkpt>
      <trkpt lat="46.22108" lon="-1.42771">
        <ele>2.5391</ele>
        <time>2023-06-02T09:40:27.000Z</time>
      </trkpt>
      <trkpt lat="46.22105" lon="-1.4277">
        <ele>2.58306</ele>
        <time>2023-06-02T09:40:28.000Z</time>
      </trkpt>
      <trkpt lat="46.22102" lon="-1.42767">
        <ele>2.59871</ele>
        <time>2023-06-02T09:40:29.000Z</time>
      </trkpt>
      <trkpt lat="46.221" lon="-1.42762">
        <ele>2.62051</ele>
        <time>2023-06-02T09:40:30.000Z</time>
      </trkpt>
      <trkpt lat="46.22098" lon="-1.42758">
        <ele>2.64841</ele>
        <time>2023-06-02T09:40:31.000Z</time>
      </trkpt>
      <trkpt lat="46.22096" lon="-1.42753">
        <ele>2.66639</ele>
        <time>2023-06-02T09:40:32.000Z</time>
      </trkpt>
      <trkpt lat="46.22094" lon="-1.42749">
        <ele>2.68669</ele>
        <time>2023-06-02T09:40:33.000Z</time>
      </trkpt>
      <trkpt lat="46.22091" lon="-1.42745">
        <ele>2.66356</ele>
        <time>2023-06-02T09:40:34.000Z</time>
      </trkpt>
      <trkpt lat="46.22089" lon="-1.42741">
        <ele>2.62837</ele>
        <time>2023-06-02T09:40:35.000Z</time>
      </trkpt>
      <trkpt lat="46.22087" lon="-1.42737">
        <ele>2.57265</ele>
        <time>2023-06-02T09:40:36.000Z</time>
      </trkpt>
      <trkpt lat="46.22084" lon="-1.42733">
        <ele>2.50369</ele>
        <time>2023-06-02T09:40:37.000Z</time>
      </trkpt>
      <trkpt lat="46.22082" lon="-1.42729">
        <ele>2.43664</ele>
        <time>2023-06-02T09:40:38.000Z</time>
      </trkpt>
      <trkpt lat="46.22079" lon="-1.42725">
        <ele>2.34729</ele>
        <time>2023-06-02T09:40:39.000Z</time>
      </trkpt>
      <trkpt lat="46.22076" lon="-1.4272">
        <ele>2.27933</ele>
        <time>2023-06-02T09:40:40.000Z</time>
      </trkpt>
      <trkpt lat="46.22074" lon="-1.42716">
        <ele>2.19256</ele>
        <time>2023-06-02T09:40:41.000Z</time>
      </trkpt>
      <trkpt lat="46.22072" lon="-1.42714">
        <ele>2.10154</ele>
        <time>2023-06-02T09:40:42.000Z</time>
      </trkpt>
      <trkpt lat="46.22071" lon="-1.42712">
        <ele>2.01499</ele>
        <time>2023-06-02T09:40:43.000Z</time>
      </trkpt>
      <trkpt lat="46.22069" lon="-1.4271">
        <ele>1.93409</ele>
        <time>2023-06-02T09:40:44.000Z</time>
      </trkpt>
      <trkpt lat="46.22066" lon="-1.42709">
        <ele>1.8352</ele>
        <time>2023-06-02T09:40:45.000Z</time>
      </trkpt>
      <trkpt lat="46.22064" lon="-1.42711">
        <ele>1.75082</ele>
        <time>2023-06-02T09:40:46.000Z</time>
      </trkpt>
      <trkpt lat="46.22061" lon="-1.42713">
        <ele>1.66015</ele>
        <time>2023-06-02T09:40:47.000Z</time>
      </trkpt>
      <trkpt lat="46.22058" lon="-1.42716">
        <ele>1.54531</ele>
        <time>2023-06-02T09:40:48.000Z</time>
      </trkpt>
      <trkpt lat="46.22056" lon="-1.4272">
        <ele>1.45637</ele>
        <time>2023-06-02T09:40:49.000Z</time>
      </trkpt>
      <trkpt lat="46.22053" lon="-1.42724">
        <ele>1.34122</ele>
        <time>2023-06-02T09:40:50.000Z</time>
      </trkpt>
      <trkpt lat="46.22051" lon="-1.42729">
        <ele>1.23712</ele>
        <time>2023-06-02T09:40:51.000Z</time>
      </trkpt>
      <trkpt lat="46.22048" lon="-1.42733">
        <ele>1.16084</ele>
        <time>2023-06-02T09:40:52.000Z</time>
      </trkpt>
      <trkpt lat="46.22045" lon="-1.42738">
        <ele>1.09283</ele>
        <time>2023-06-02T09:40:53.000Z</time>
      </trkpt>
      <trkpt lat="46.22043" lon="-1.42742">
        <ele>1.06765</ele>
        <time>2023-06-02T09:40:54.000Z</time>
      </trkpt>
      <trkpt lat="46.2204" lon="-1.42746">
        <ele>1.05954</ele>
        <time>2023-06-02T09:40:55.000Z</time>
      </trkpt>
      <trkpt lat="46.22037" lon="-1.42751">
        <ele>1.03815</ele>
        <time>2023-06-02T09:40:56.000Z</time>
      </trkpt>
      <trkpt lat="46.22034" lon="-1.42755">
        <ele>1.0326</ele>
        <time>2023-06-02T09:40:57.000Z</time>
      </trkpt>
      <trkpt lat="46.22032" lon="-1.42758">
        <ele>1.05242</ele>
        <time>2023-06-02T09:40:58.000Z</time>
      </trkpt>
      <trkpt lat="46.22029" lon="-1.42762">
        <ele>1.11492</ele>
        <time>2023-06-02T09:40:59.000Z</time>
      </trkpt>
      <trkpt lat="46.22026" lon="-1.42766">
        <ele>1.14352</ele>
        <time>2023-06-02T09:41:00.000Z</time>
      </trkpt>
      <trkpt lat="46.22023" lon="-1.4277">
        <ele>1.18827</ele>
        <time>2023-06-02T09:41:01.000Z</time>
      </trkpt>
      <trkpt lat="46.2202" lon="-1.42774">
        <ele>1.23531</ele>
        <time>2023-06-02T09:41:02.000Z</time>
      </trkpt>
      <trkpt lat="46.22018" lon="-1.42778">
        <ele>1.27397</ele>
        <time>2023-06-02T09:41:03.000Z</time>
      </trkpt>
      <trkpt lat="46.22015" lon="-1.42782">
        <ele>1.31096</ele>
        <time>2023-06-02T09:41:04.000Z</time>
      </trkpt>
      <trkpt lat="46.22012" lon="-1.42786">
        <ele>1.37795</ele>
        <time>2023-06-02T09:41:05.000Z</time>
      </trkpt>
      <trkpt lat="46.2201" lon="-1.4279">
        <ele>1.44681</ele>
        <time>2023-06-02T09:41:06.000Z</time>
      </trkpt>
      <trkpt lat="46.22007" lon="-1.42794">
        <ele>1.52221</ele>
        <time>2023-06-02T09:41:07.000Z</time>
      </trkpt>
      <trkpt lat="46.22004" lon="-1.42798">
        <ele>1.5969</ele>
        <time>2023-06-02T09:41:08.000Z</time>
      </trkpt>
      <trkpt lat="46.22001" lon="-1.42802">
        <ele>1.65189</ele>
        <time>2023-06-02T09:41:09.000Z</time>
      </trkpt>
      <trkpt lat="46.21998" lon="-1.42806">
        <ele>1.71554</ele>
        <time>2023-06-02T09:41:10.000Z</time>
      </trkpt>
      <trkpt lat="46.21995" lon="-1.4281">
        <ele>1.75261</ele>
        <time>2023-06-02T09:41:11.000Z</time>
      </trkpt>
      <trkpt lat="46.21992" lon="-1.42814">
        <ele>1.76357</ele>
        <time>2023-06-02T09:41:12.000Z</time>
      </trkpt>
      <trkpt lat="46.21989" lon="-1.42819">
        <ele>1.81975</ele>
        <time>2023-06-02T09:41:13.000Z</time>
      </trkpt>
      <trkpt lat="46.21986" lon="-1.42823">
        <ele>1.91034</ele>
        <time>2023-06-02T09:41:14.000Z</time>
      </trkpt>
      <trkpt lat="46.21983" lon="-1.42827">
        <ele>1.98108</ele>
        <time>2023-06-02T09:41:15.000Z</time>
      </trkpt>
      <trkpt lat="46.2198" lon="-1.42831">
        <ele>2.06827</ele>
        <time>2023-06-02T09:41:16.000Z</time>
      </trkpt>
      <trkpt lat="46.21977" lon="-1.42836">
        <ele>2.12572</ele>
        <time>2023-06-02T09:41:17.000Z</time>
      </trkpt>
      <trkpt lat="46.21974" lon="-1.4284">
        <ele>2.16954</ele>
        <time>2023-06-02T09:41:18.000Z</time>
      </trkpt>
      <trkpt lat="46.21971" lon="-1.42844">
        <ele>2.16432</ele>
        <time>2023-06-02T09:41:19.000Z</time>
      </trkpt>
      <trkpt lat="46.21968" lon="-1.42848">
        <ele>2.1149</ele>
        <time>2023-06-02T09:41:20.000Z</time>
      </trkpt>
      <trkpt lat="46.21965" lon="-1.42853">
        <ele>2.04736</ele>
        <time>2023-06-02T09:41:21.000Z</time>
      </trkpt>
      <trkpt lat="46.21962" lon="-1.42857">
        <ele>1.97124</ele>
        <time>2023-06-02T09:41:22.000Z</time>
      </trkpt>
      <trkpt lat="46.21959" lon="-1.42861">
        <ele>1.95946</ele>
        <time>2023-06-02T09:41:23.000Z</time>
      </trkpt>
      <trkpt lat="46.21956" lon="-1.42866">
        <ele>1.92976</ele>
        <time>2023-06-02T09:41:24.000Z</time>
      </trkpt>
      <trkpt lat="46.21954" lon="-1.4287">
        <ele>1.89926</ele>
        <time>2023-06-02T09:41:25.000Z</time>
      </trkpt>
      <trkpt lat="46.21951" lon="-1.42875">
        <ele>1.85658</ele>
        <time>2023-06-02T09:41:26.000Z</time>
      </trkpt>
      <trkpt lat="46.21948" lon="-1.42879">
        <ele>1.80948</ele>
        <time>2023-06-02T09:41:27.000Z</time>
      </trkpt>
      <trkpt lat="46.21945" lon="-1.42883">
        <ele>1.7811</ele>
        <time>2023-06-02T09:41:28.000Z</time>
      </trkpt>
      <trkpt lat="46.21942" lon="-1.42887">
        <ele>1.77887</ele>
        <time>2023-06-02T09:41:29.000Z</time>
      </trkpt>
      <trkpt lat="46.21939" lon="-1.42891">
        <ele>1.76579</ele>
        <time>2023-06-02T09:41:30.000Z</time>
      </trkpt>
      <trkpt lat="46.21936" lon="-1.42895">
        <ele>1.76439</ele>
        <time>2023-06-02T09:41:31.000Z</time>
      </trkpt>
      <trkpt lat="46.21933" lon="-1.42899">
        <ele>1.77949</ele>
        <time>2023-06-02T09:41:32.000Z</time>
      </trkpt>
      <trkpt lat="46.21929" lon="-1.42902">
        <ele>1.73468</ele>
        <time>2023-06-02T09:41:33.000Z</time>
      </trkpt>
      <trkpt lat="46.21927" lon="-1.42906">
        <ele>1.60625</ele>
        <time>2023-06-02T09:41:34.000Z</time>
      </trkpt>
      <trkpt lat="46.21924" lon="-1.42911">
        <ele>1.47008</ele>
        <time>2023-06-02T09:41:35.000Z</time>
      </trkpt>
      <trkpt lat="46.2192" lon="-1.42915">
        <ele>1.33951</ele>
        <time>2023-06-02T09:41:36.000Z</time>
      </trkpt>
      <trkpt lat="46.21917" lon="-1.4292">
        <ele>1.23639</ele>
        <time>2023-06-02T09:41:37.000Z</time>
      </trkpt>
      <trkpt lat="46.21914" lon="-1.42924">
        <ele>1.13685</ele>
        <time>2023-06-02T09:41:38.000Z</time>
      </trkpt>
      <trkpt lat="46.21911" lon="-1.42928">
        <ele>1.06989</ele>
        <time>2023-06-02T09:41:39.000Z</time>
      </trkpt>
      <trkpt lat="46.21908" lon="-1.42932">
        <ele>1.03421</ele>
        <time>2023-06-02T09:41:40.000Z</time>
      </trkpt>
      <trkpt lat="46.21905" lon="-1.42937">
        <ele>1.00696</ele>
        <time>2023-06-02T09:41:41.000Z</time>
      </trkpt>
      <trkpt lat="46.21902" lon="-1.42941">
        <ele>1.06623</ele>
        <time>2023-06-02T09:41:42.000Z</time>
      </trkpt>
      <trkpt lat="46.21899" lon="-1.42944">
        <ele>1.09445</ele>
        <time>2023-06-02T09:41:43.000Z</time>
      </trkpt>
      <trkpt lat="46.21896" lon="-1.42949">
        <ele>1.1365</ele>
        <time>2023-06-02T09:41:44.000Z</time>
      </trkpt>
      <trkpt lat="46.21894" lon="-1.42953">
        <ele>1.17043</ele>
        <time>2023-06-02T09:41:45.000Z</time>
      </trkpt>
      <trkpt lat="46.21891" lon="-1.42958">
        <ele>1.22508</ele>
        <time>2023-06-02T09:41:46.000Z</time>
      </trkpt>
      <trkpt lat="46.21889" lon="-1.42963">
        <ele>1.25603</ele>
        <time>2023-06-02T09:41:47.000Z</time>
      </trkpt>
      <trkpt lat="46.21887" lon="-1.42969">
        <ele>1.28497</ele>
        <time>2023-06-02T09:41:48.000Z</time>
      </trkpt>
      <trkpt lat="46.21886" lon="-1.42975">
        <ele>1.3028</ele>
        <time>2023-06-02T09:41:49.000Z</time>
      </trkpt>
      <trkpt lat="46.21887" lon="-1.42981">
        <ele>1.35404</ele>
        <time>2023-06-02T09:41:50.000Z</time>
      </trkpt>
      <trkpt lat="46.21888" lon="-1.42987">
        <ele>1.41907</ele>
        <time>2023-06-02T09:41:51.000Z</time>
      </trkpt>
      <trkpt lat="46.21889" lon="-1.42992">
        <ele>1.48381</ele>
        <time>2023-06-02T09:41:52.000Z</time>
      </trkpt>
      <trkpt lat="46.2189" lon="-1.42998">
        <ele>1.56425</ele>
        <time>2023-06-02T09:41:53.000Z</time>
      </trkpt>
      <trkpt lat="46.21891" lon="-1.43003">
        <ele>1.69862</ele>
        <time>2023-06-02T09:41:54.000Z</time>
      </trkpt>
      <trkpt lat="46.21892" lon="-1.43009">
        <ele>1.83326</ele>
        <time>2023-06-02T09:41:55.000Z</time>
      </trkpt>
      <trkpt lat="46.21893" lon="-1.43014">
        <ele>1.9917</ele>
        <time>2023-06-02T09:41:56.000Z</time>
      </trkpt>
      <trkpt lat="46.21892" lon="-1.4302">
        <ele>2.12961</ele>
        <time>2023-06-02T09:41:57.000Z</time>
      </trkpt>
      <trkpt lat="46.21891" lon="-1.43025">
        <ele>2.26796</ele>
        <time>2023-06-02T09:41:58.000Z</time>
      </trkpt>
      <trkpt lat="46.21888" lon="-1.4303">
        <ele>2.38978</ele>
        <time>2023-06-02T09:41:59.000Z</time>
      </trkpt>
      <trkpt lat="46.21885" lon="-1.43034">
        <ele>2.50904</ele>
        <time>2023-06-02T09:42:00.000Z</time>
      </trkpt>
      <trkpt lat="46.21881" lon="-1.43038">
        <ele>2.63417</ele>
        <time>2023-06-02T09:42:01.000Z</time>
      </trkpt>
      <trkpt lat="46.21877" lon="-1.43041">
        <ele>2.68058</ele>
        <time>2023-06-02T09:42:02.000Z</time>
      </trkpt>
      <trkpt lat="46.21874" lon="-1.43045">
        <ele>2.69872</ele>
        <time>2023-06-02T09:42:03.000Z</time>
      </trkpt>
      <trkpt lat="46.2187" lon="-1.43048">
        <ele>2.71792</ele>
        <time>2023-06-02T09:42:04.000Z</time>
      </trkpt>
      <trkpt lat="46.21867" lon="-1.43052">
        <ele>2.73269</ele>
        <time>2023-06-02T09:42:05.000Z</time>
      </trkpt>
      <trkpt lat="46.21863" lon="-1.43055">
        <ele>2.67935</ele>
        <time>2023-06-02T09:42:06.000Z</time>
      </trkpt>
      <trkpt lat="46.2186" lon="-1.43059">
        <ele>2.64528</ele>
        <time>2023-06-02T09:42:07.000Z</time>
      </trkpt>
      <trkpt lat="46.21857" lon="-1.43062">
        <ele>2.60421</ele>
        <time>2023-06-02T09:42:08.000Z</time>
      </trkpt>
      <trkpt lat="46.21853" lon="-1.43066">
        <ele>2.54922</ele>
        <time>2023-06-02T09:42:09.000Z</time>
      </trkpt>
      <trkpt lat="46.2185" lon="-1.4307">
        <ele>2.4528</ele>
        <time>2023-06-02T09:42:10.000Z</time>
      </trkpt>
      <trkpt lat="46.21846" lon="-1.43074">
        <ele>2.3524</ele>
        <time>2023-06-02T09:42:11.000Z</time>
      </trkpt>
      <trkpt lat="46.21842" lon="-1.43078">
        <ele>2.29852</ele>
        <time>2023-06-02T09:42:12.000Z</time>
      </trkpt>
      <trkpt lat="46.21839" lon="-1.43081">
        <ele>2.21804</ele>
        <time>2023-06-02T09:42:13.000Z</time>
      </trkpt>
      <trkpt lat="46.21835" lon="-1.43085">
        <ele>2.12713</ele>
        <time>2023-06-02T09:42:14.000Z</time>
      </trkpt>
      <trkpt lat="46.21832" lon="-1.43089">
        <ele>2.04908</ele>
        <time>2023-06-02T09:42:15.000Z</time>
      </trkpt>
      <trkpt lat="46.21828" lon="-1.43093">
        <ele>1.95167</ele>
        <time>2023-06-02T09:42:16.000Z</time>
      </trkpt>
      <trkpt lat="46.21825" lon="-1.43097">
        <ele>1.85637</ele>
        <time>2023-06-02T09:42:17.000Z</time>
      </trkpt>
      <trkpt lat="46.21821" lon="-1.431">
        <ele>1.74351</ele>
        <time>2023-06-02T09:42:18.000Z</time>
      </trkpt>
      <trkpt lat="46.21818" lon="-1.43104">
        <ele>1.65792</ele>
        <time>2023-06-02T09:42:19.000Z</time>
      </trkpt>
      <trkpt lat="46.21814" lon="-1.43108">
        <ele>1.58795</ele>
        <time>2023-06-02T09:42:20.000Z</time>
      </trkpt>
      <trkpt lat="46.2181" lon="-1.43111">
        <ele>1.51664</ele>
        <time>2023-06-02T09:42:21.000Z</time>
      </trkpt>
      <trkpt lat="46.21807" lon="-1.43115">
        <ele>1.43656</ele>
        <time>2023-06-02T09:42:22.000Z</time>
      </trkpt>
      <trkpt lat="46.21803" lon="-1.43119">
        <ele>1.34157</ele>
        <time>2023-06-02T09:42:23.000Z</time>
      </trkpt>
      <trkpt lat="46.21799" lon="-1.43122">
        <ele>1.24669</ele>
        <time>2023-06-02T09:42:24.000Z</time>
      </trkpt>
      <trkpt lat="46.21795" lon="-1.43124">
        <ele>1.20612</ele>
        <time>2023-06-02T09:42:25.000Z</time>
      </trkpt>
      <trkpt lat="46.21792" lon="-1.43128">
        <ele>1.21055</ele>
        <time>2023-06-02T09:42:26.000Z</time>
      </trkpt>
      <trkpt lat="46.21788" lon="-1.43131">
        <ele>1.21396</ele>
        <time>2023-06-02T09:42:27.000Z</time>
      </trkpt>
      <trkpt lat="46.21784" lon="-1.43135">
        <ele>1.21529</ele>
        <time>2023-06-02T09:42:28.000Z</time>
      </trkpt>
      <trkpt lat="46.2178" lon="-1.43138">
        <ele>1.21447</ele>
        <time>2023-06-02T09:42:29.000Z</time>
      </trkpt>
      <trkpt lat="46.21776" lon="-1.43141">
        <ele>1.21738</ele>
        <time>2023-06-02T09:42:30.000Z</time>
      </trkpt>
      <trkpt lat="46.21772" lon="-1.43144">
        <ele>1.19994</ele>
        <time>2023-06-02T09:42:31.000Z</time>
      </trkpt>
      <trkpt lat="46.21768" lon="-1.43146">
        <ele>1.1052</ele>
        <time>2023-06-02T09:42:32.000Z</time>
      </trkpt>
      <trkpt lat="46.21764" lon="-1.43148">
        <ele>1.07782</ele>
        <time>2023-06-02T09:42:33.000Z</time>
      </trkpt>
      <trkpt lat="46.2176" lon="-1.43151">
        <ele>1.04774</ele>
        <time>2023-06-02T09:42:34.000Z</time>
      </trkpt>
      <trkpt lat="46.21757" lon="-1.43153">
        <ele>1.0253</ele>
        <time>2023-06-02T09:42:35.000Z</time>
      </trkpt>
      <trkpt lat="46.21753" lon="-1.43156">
        <ele>1.01068</ele>
        <time>2023-06-02T09:42:36.000Z</time>
      </trkpt>
      <trkpt lat="46.21749" lon="-1.43158">
        <ele>1.00348</ele>
        <time>2023-06-02T09:42:37.000Z</time>
      </trkpt>
      <trkpt lat="46.21746" lon="-1.4316">
        <ele>1.0126</ele>
        <time>2023-06-02T09:42:38.000Z</time>
      </trkpt>
      <trkpt lat="46.21743" lon="-1.43162">
        <ele>1.01225</ele>
        <time>2023-06-02T09:42:39.000Z</time>
      </trkpt>
      <trkpt lat="46.21739" lon="-1.43164">
        <ele>1.0016</ele>
        <time>2023-06-02T09:42:40.000Z</time>
      </trkpt>
      <trkpt lat="46.21736" lon="-1.43167">
        <ele>0.99156</ele>
        <time>2023-06-02T09:42:41.000Z</time>
      </trkpt>
      <trkpt lat="46.21732" lon="-1.4317">
        <ele>0.99578</ele>
        <time>2023-06-02T09:42:42.000Z</time>
      </trkpt>
      <trkpt lat="46.21729" lon="-1.43173">
        <ele>1.01452</ele>
        <time>2023-06-02T09:42:43.000Z</time>
      </trkpt>
      <trkpt lat="46.21726" lon="-1.43175">
        <ele>1.02438</ele>
        <time>2023-06-02T09:42:44.000Z</time>
      </trkpt>
      <trkpt lat="46.21722" lon="-1.43178">
        <ele>0.99233</ele>
        <time>2023-06-02T09:42:45.000Z</time>
      </trkpt>
      <trkpt lat="46.21719" lon="-1.4318">
        <ele>0.93321</ele>
        <time>2023-06-02T09:42:46.000Z</time>
      </trkpt>
      <trkpt lat="46.21716" lon="-1.43182">
        <ele>0.87461</ele>
        <time>2023-06-02T09:42:47.000Z</time>
      </trkpt>
      <trkpt lat="46.21713" lon="-1.43185">
        <ele>0.82681</ele>
        <time>2023-06-02T09:42:48.000Z</time>
      </trkpt>
      <trkpt lat="46.2171" lon="-1.43187">
        <ele>0.78464</ele>
        <time>2023-06-02T09:42:49.000Z</time>
      </trkpt>
      <trkpt lat="46.21707" lon="-1.43189">
        <ele>0.8009</ele>
        <time>2023-06-02T09:42:50.000Z</time>
      </trkpt>
      <trkpt lat="46.21704" lon="-1.43191">
        <ele>0.81987</ele>
        <time>2023-06-02T09:42:51.000Z</time>
      </trkpt>
      <trkpt lat="46.21701" lon="-1.43193">
        <ele>0.87196</ele>
        <time>2023-06-02T09:42:52.000Z</time>
      </trkpt>
      <trkpt lat="46.21698" lon="-1.43195">
        <ele>0.87044</ele>
        <time>2023-06-02T09:42:53.000Z</time>
      </trkpt>
      <trkpt lat="46.21695" lon="-1.43198">
        <ele>0.88631</ele>
        <time>2023-06-02T09:42:54.000Z</time>
      </trkpt>
      <trkpt lat="46.21693" lon="-1.432">
        <ele>0.90861</ele>
        <time>2023-06-02T09:42:55.000Z</time>
      </trkpt>
      <trkpt lat="46.21691" lon="-1.43203">
        <ele>0.93559</ele>
        <time>2023-06-02T09:42:56.000Z</time>
      </trkpt>
      <trkpt lat="46.21689" lon="-1.43207">
        <ele>0.98279</ele>
        <time>2023-06-02T09:42:57.000Z</time>
      </trkpt>
      <trkpt lat="46.21688" lon="-1.4321">
        <ele>1.02407</ele>
        <time>2023-06-02T09:42:58.000Z</time>
      </trkpt>
      <trkpt lat="46.21686" lon="-1.43214">
        <ele>1.08739</ele>
        <time>2023-06-02T09:42:59.000Z</time>
      </trkpt>
      <trkpt lat="46.21684" lon="-1.43218">
        <ele>1.14708</ele>
        <time>2023-06-02T09:43:00.000Z</time>
      </trkpt>
      <trkpt lat="46.21682" lon="-1.43222">
        <ele>1.21164</ele>
        <time>2023-06-02T09:43:01.000Z</time>
      </trkpt>
      <trkpt lat="46.2168" lon="-1.43226">
        <ele>1.2787</ele>
        <time>2023-06-02T09:43:02.000Z</time>
      </trkpt>
      <trkpt lat="46.21678" lon="-1.4323">
        <ele>1.34719</ele>
        <time>2023-06-02T09:43:03.000Z</time>
      </trkpt>
      <trkpt lat="46.21677" lon="-1.43234">
        <ele>1.42028</ele>
        <time>2023-06-02T09:43:04.000Z</time>
      </trkpt>
      <trkpt lat="46.21675" lon="-1.43238">
        <ele>1.4948</ele>
        <time>2023-06-02T09:43:05.000Z</time>
      </trkpt>
      <trkpt lat="46.21673" lon="-1.43242">
        <ele>1.5975</ele>
        <time>2023-06-02T09:43:06.000Z</time>
      </trkpt>
      <trkpt lat="46.21672" lon="-1.43247">
        <ele>1.69156</ele>
        <time>2023-06-02T09:43:07.000Z</time>
      </trkpt>
      <trkpt lat="46.2167" lon="-1.43251">
        <ele>1.79777</ele>
        <time>2023-06-02T09:43:08.000Z</time>
      </trkpt>
      <trkpt lat="46.21669" lon="-1.43256">
        <ele>1.89025</ele>
        <time>2023-06-02T09:43:09.000Z</time>
      </trkpt>
      <trkpt lat="46.21667" lon="-1.43261">
        <ele>1.88157</ele>
        <time>2023-06-02T09:43:10.000Z</time>
      </trkpt>
      <trkpt lat="46.21666" lon="-1.43265">
        <ele>1.86465</ele>
        <time>2023-06-02T09:43:11.000Z</time>
      </trkpt>
      <trkpt lat="46.21664" lon="-1.4327">
        <ele>1.89987</ele>
        <time>2023-06-02T09:43:12.000Z</time>
      </trkpt>
      <trkpt lat="46.21662" lon="-1.43275">
        <ele>1.91381</ele>
        <time>2023-06-02T09:43:13.000Z</time>
      </trkpt>
      <trkpt lat="46.21661" lon="-1.4328">
        <ele>1.90543</ele>
        <time>2023-06-02T09:43:14.000Z</time>
      </trkpt>
      <trkpt lat="46.21659" lon="-1.43285">
        <ele>1.91204</ele>
        <time>2023-06-02T09:43:15.000Z</time>
      </trkpt>
      <trkpt lat="46.21658" lon="-1.4329">
        <ele>1.90799</ele>
        <time>2023-06-02T09:43:16.000Z</time>
      </trkpt>
      <trkpt lat="46.21656" lon="-1.43295">
        <ele>1.88307</ele>
        <time>2023-06-02T09:43:17.000Z</time>
      </trkpt>
      <trkpt lat="46.21654" lon="-1.433">
        <ele>1.86623</ele>
        <time>2023-06-02T09:43:18.000Z</time>
      </trkpt>
      <trkpt lat="46.21652" lon="-1.43305">
        <ele>1.85194</ele>
        <time>2023-06-02T09:43:19.000Z</time>
      </trkpt>
      <trkpt lat="46.21651" lon="-1.43311">
        <ele>1.86849</ele>
        <time>2023-06-02T09:43:20.000Z</time>
      </trkpt>
      <trkpt lat="46.21649" lon="-1.43316">
        <ele>1.89289</ele>
        <time>2023-06-02T09:43:21.000Z</time>
      </trkpt>
      <trkpt lat="46.21647" lon="-1.43321">
        <ele>1.91304</ele>
        <time>2023-06-02T09:43:22.000Z</time>
      </trkpt>
      <trkpt lat="46.21645" lon="-1.43326">
        <ele>1.93511</ele>
        <time>2023-06-02T09:43:23.000Z</time>
      </trkpt>
      <trkpt lat="46.21643" lon="-1.43332">
        <ele>1.95311</ele>
        <time>2023-06-02T09:43:24.000Z</time>
      </trkpt>
      <trkpt lat="46.21641" lon="-1.43337">
        <ele>1.96926</ele>
        <time>2023-06-02T09:43:25.000Z</time>
      </trkpt>
      <trkpt lat="46.21639" lon="-1.43342">
        <ele>1.96285</ele>
        <time>2023-06-02T09:43:26.000Z</time>
      </trkpt>
      <trkpt lat="46.21636" lon="-1.43348">
        <ele>1.96445</ele>
        <time>2023-06-02T09:43:27.000Z</time>
      </trkpt>
      <trkpt lat="46.21634" lon="-1.43353">
        <ele>1.95383</ele>
        <time>2023-06-02T09:43:28.000Z</time>
      </trkpt>
      <trkpt lat="46.21632" lon="-1.43358">
        <ele>2.02198</ele>
        <time>2023-06-02T09:43:29.000Z</time>
      </trkpt>
      <trkpt lat="46.2163" lon="-1.43364">
        <ele>2.12042</ele>
        <time>2023-06-02T09:43:30.000Z</time>
      </trkpt>
      <trkpt lat="46.21628" lon="-1.43369">
        <ele>2.26557</ele>
        <time>2023-06-02T09:43:31.000Z</time>
      </trkpt>
      <trkpt lat="46.21626" lon="-1.43373">
        <ele>2.3413</ele>
        <time>2023-06-02T09:43:32.000Z</time>
      </trkpt>
      <trkpt lat="46.21624" lon="-1.43378">
        <ele>2.44608</ele>
        <time>2023-06-02T09:43:33.000Z</time>
      </trkpt>
      <trkpt lat="46.21622" lon="-1.43384">
        <ele>2.55343</ele>
        <time>2023-06-02T09:43:34.000Z</time>
      </trkpt>
      <trkpt lat="46.2162" lon="-1.43389">
        <ele>2.63613</ele>
        <time>2023-06-02T09:43:35.000Z</time>
      </trkpt>
      <trkpt lat="46.21618" lon="-1.43394">
        <ele>2.72382</ele>
        <time>2023-06-02T09:43:36.000Z</time>
      </trkpt>
      <trkpt lat="46.21616" lon="-1.43399">
        <ele>2.80162</ele>
        <time>2023-06-02T09:43:37.000Z</time>
      </trkpt>
      <trkpt lat="46.21614" lon="-1.43404">
        <ele>2.87188</ele>
        <time>2023-06-02T09:43:38.000Z</time>
      </trkpt>
      <trkpt lat="46.21612" lon="-1.4341">
        <ele>2.91204</ele>
        <time>2023-06-02T09:43:39.000Z</time>
      </trkpt>
      <trkpt lat="46.21611" lon="-1.43415">
        <ele>2.93203</ele>
        <time>2023-06-02T09:43:40.000Z</time>
      </trkpt>
      <trkpt lat="46.2161" lon="-1.4342">
        <ele>2.94222</ele>
        <time>2023-06-02T09:43:41.000Z</time>
      </trkpt>
      <trkpt lat="46.2161" lon="-1.43426">
        <ele>2.94751</ele>
        <time>2023-06-02T09:43:42.000Z</time>
      </trkpt>
      <trkpt lat="46.21611" lon="-1.43432">
        <ele>2.95881</ele>
        <time>2023-06-02T09:43:43.000Z</time>
      </trkpt>
      <trkpt lat="46.21612" lon="-1.43437">
        <ele>2.97284</ele>
        <time>2023-06-02T09:43:44.000Z</time>
      </trkpt>
      <trkpt lat="46.21614" lon="-1.43443">
        <ele>2.98158</ele>
        <time>2023-06-02T09:43:45.000Z</time>
      </trkpt>
      <trkpt lat="46.21616" lon="-1.43448">
        <ele>3.01469</ele>
        <time>2023-06-02T09:43:46.000Z</time>
      </trkpt>
      <trkpt lat="46.21618" lon="-1.43453">
        <ele>3.04192</ele>
        <time>2023-06-02T09:43:47.000Z</time>
      </trkpt>
      <trkpt lat="46.2162" lon="-1.43459">
        <ele>3.05475</ele>
        <time>2023-06-02T09:43:48.000Z</time>
      </trkpt>
      <trkpt lat="46.21622" lon="-1.43464">
        <ele>2.98047</ele>
        <time>2023-06-02T09:43:49.000Z</time>
      </trkpt>
      <trkpt lat="46.21624" lon="-1.4347">
        <ele>2.88395</ele>
        <time>2023-06-02T09:43:50.000Z</time>
      </trkpt>
      <trkpt lat="46.21626" lon="-1.43475">
        <ele>2.73747</ele>
        <time>2023-06-02T09:43:51.000Z</time>
      </trkpt>
      <trkpt lat="46.21628" lon="-1.4348">
        <ele>2.59346</ele>
        <time>2023-06-02T09:43:52.000Z</time>
      </trkpt>
      <trkpt lat="46.2163" lon="-1.43486">
        <ele>2.44237</ele>
        <time>2023-06-02T09:43:53.000Z</time>
      </trkpt>
      <trkpt lat="46.21632" lon="-1.43491">
        <ele>2.36473</ele>
        <time>2023-06-02T09:43:54.000Z</time>
      </trkpt>
      <trkpt lat="46.21633" lon="-1.43497">
        <ele>2.27774</ele>
        <time>2023-06-02T09:43:55.000Z</time>
      </trkpt>
      <trkpt lat="46.21635" lon="-1.43502">
        <ele>2.18149</ele>
        <time>2023-06-02T09:43:56.000Z</time>
      </trkpt>
      <trkpt lat="46.21637" lon="-1.43508">
        <ele>2.09726</ele>
        <time>2023-06-02T09:43:57.000Z</time>
      </trkpt>
      <trkpt lat="46.21638" lon="-1.43514">
        <ele>2.00874</ele>
        <time>2023-06-02T09:43:58.000Z</time>
      </trkpt>
      <trkpt lat="46.2164" lon="-1.43519">
        <ele>1.93026</ele>
        <time>2023-06-02T09:43:59.000Z</time>
      </trkpt>
      <trkpt lat="46.21642" lon="-1.43525">
        <ele>1.84549</ele>
        <time>2023-06-02T09:44:00.000Z</time>
      </trkpt>
      <trkpt lat="46.21643" lon="-1.43531">
        <ele>1.73625</ele>
        <time>2023-06-02T09:44:01.000Z</time>
      </trkpt>
      <trkpt lat="46.21645" lon="-1.43536">
        <ele>1.62949</ele>
        <time>2023-06-02T09:44:02.000Z</time>
      </trkpt>
      <trkpt lat="46.21647" lon="-1.43542">
        <ele>1.53135</ele>
        <time>2023-06-02T09:44:03.000Z</time>
      </trkpt>
      <trkpt lat="46.21649" lon="-1.43548">
        <ele>1.4387</ele>
        <time>2023-06-02T09:44:04.000Z</time>
      </trkpt>
      <trkpt lat="46.21651" lon="-1.43554">
        <ele>1.34303</ele>
        <time>2023-06-02T09:44:05.000Z</time>
      </trkpt>
      <trkpt lat="46.21652" lon="-1.4356">
        <ele>1.25055</ele>
        <time>2023-06-02T09:44:06.000Z</time>
      </trkpt>
      <trkpt lat="46.21654" lon="-1.43567">
        <ele>1.17896</ele>
        <time>2023-06-02T09:44:07.000Z</time>
      </trkpt>
      <trkpt lat="46.21655" lon="-1.43572">
        <ele>1.12259</ele>
        <time>2023-06-02T09:44:08.000Z</time>
      </trkpt>
      <trkpt lat="46.21657" lon="-1.43579">
        <ele>1.10447</ele>
        <time>2023-06-02T09:44:09.000Z</time>
      </trkpt>
      <trkpt lat="46.21659" lon="-1.43585">
        <ele>1.08633</ele>
        <time>2023-06-02T09:44:10.000Z</time>
      </trkpt>
      <trkpt lat="46.21661" lon="-1.43591">
        <ele>1.09236</ele>
        <time>2023-06-02T09:44:11.000Z</time>
      </trkpt>
      <trkpt lat="46.21662" lon="-1.43597">
        <ele>1.09911</ele>
        <time>2023-06-02T09:44:12.000Z</time>
      </trkpt>
      <trkpt lat="46.21664" lon="-1.43603">
        <ele>1.10166</ele>
        <time>2023-06-02T09:44:13.000Z</time>
      </trkpt>
      <trkpt lat="46.21666" lon="-1.43608">
        <ele>1.0759</ele>
        <time>2023-06-02T09:44:14.000Z</time>
      </trkpt>
      <trkpt lat="46.21667" lon="-1.43614">
        <ele>1.0685</ele>
        <time>2023-06-02T09:44:15.000Z</time>
      </trkpt>
      <trkpt lat="46.21669" lon="-1.4362">
        <ele>1.06213</ele>
        <time>2023-06-02T09:44:16.000Z</time>
      </trkpt>
      <trkpt lat="46.2167" lon="-1.43626">
        <ele>1.05112</ele>
        <time>2023-06-02T09:44:17.000Z</time>
      </trkpt>
      <trkpt lat="46.21672" lon="-1.43632">
        <ele>1.04935</ele>
        <time>2023-06-02T09:44:18.000Z</time>
      </trkpt>
      <trkpt lat="46.21674" lon="-1.43637">
        <ele>1.03198</ele>
        <time>2023-06-02T09:44:19.000Z</time>
      </trkpt>
      <trkpt lat="46.21677" lon="-1.43643">
        <ele>1.01312</ele>
        <time>2023-06-02T09:44:20.000Z</time>
      </trkpt>
      <trkpt lat="46.21679" lon="-1.43649">
        <ele>1.02154</ele>
        <time>2023-06-02T09:44:21.000Z</time>
      </trkpt>
      <trkpt lat="46.21681" lon="-1.43654">
        <ele>1.02903</ele>
        <time>2023-06-02T09:44:22.000Z</time>
      </trkpt>
      <trkpt lat="46.21683" lon="-1.4366">
        <ele>1.0161</ele>
        <time>2023-06-02T09:44:23.000Z</time>
      </trkpt>
      <trkpt lat="46.21684" lon="-1.43666">
        <ele>0.97789</ele>
        <time>2023-06-02T09:44:24.000Z</time>
      </trkpt>
      <trkpt lat="46.21686" lon="-1.43672">
        <ele>0.94039</ele>
        <time>2023-06-02T09:44:25.000Z</time>
      </trkpt>
      <trkpt lat="46.21688" lon="-1.43677">
        <ele>0.9116</ele>
        <time>2023-06-02T09:44:26.000Z</time>
      </trkpt>
      <trkpt lat="46.2169" lon="-1.43683">
        <ele>0.85374</ele>
        <time>2023-06-02T09:44:27.000Z</time>
      </trkpt>
      <trkpt lat="46.21692" lon="-1.4369">
        <ele>0.78709</ele>
        <time>2023-06-02T09:44:28.000Z</time>
      </trkpt>
      <trkpt lat="46.21694" lon="-1.43695">
        <ele>0.70413</ele>
        <time>2023-06-02T09:44:29.000Z</time>
      </trkpt>
      <trkpt lat="46.21696" lon="-1.43701">
        <ele>0.65569</ele>
        <time>2023-06-02T09:44:30.000Z</time>
      </trkpt>
      <trkpt lat="46.21697" lon="-1.43706">
        <ele>0.59791</ele>
        <time>2023-06-02T09:44:31.000Z</time>
      </trkpt>
      <trkpt lat="46.21699" lon="-1.43712">
        <ele>0.57919</ele>
        <time>2023-06-02T09:44:32.000Z</time>
      </trkpt>
      <trkpt lat="46.21701" lon="-1.43717">
        <ele>0.56055</ele>
        <time>2023-06-02T09:44:33.000Z</time>
      </trkpt>
      <trkpt lat="46.21703" lon="-1.43723">
        <ele>0.49665</ele>
        <time>2023-06-02T09:44:34.000Z</time>
      </trkpt>
      <trkpt lat="46.21705" lon="-1.43729">
        <ele>0.45107</ele>
        <time>2023-06-02T09:44:35.000Z</time>
      </trkpt>
      <trkpt lat="46.21707" lon="-1.43735">
        <ele>0.40668</ele>
        <time>2023-06-02T09:44:36.000Z</time>
      </trkpt>
      <trkpt lat="46.21709" lon="-1.43741">
        <ele>0.37467</ele>
        <time>2023-06-02T09:44:37.000Z</time>
      </trkpt>
      <trkpt lat="46.21711" lon="-1.43747">
        <ele>0.33394</ele>
        <time>2023-06-02T09:44:38.000Z</time>
      </trkpt>
      <trkpt lat="46.21713" lon="-1.43752">
        <ele>0.30383</ele>
        <time>2023-06-02T09:44:39.000Z</time>
      </trkpt>
      <trkpt lat="46.21715" lon="-1.43758">
        <ele>0.27484</ele>
        <time>2023-06-02T09:44:40.000Z</time>
      </trkpt>
      <trkpt lat="46.21716" lon="-1.43764">
        <ele>0.24115</ele>
        <time>2023-06-02T09:44:41.000Z</time>
      </trkpt>
      <trkpt lat="46.21716" lon="-1.4377">
        <ele>0.21925</ele>
        <time>2023-06-02T09:44:42.000Z</time>
      </trkpt>
      <trkpt lat="46.21715" lon="-1.43776">
        <ele>0.22069</ele>
        <time>2023-06-02T09:44:43.000Z</time>
      </trkpt>
      <trkpt lat="46.21713" lon="-1.43782">
        <ele>0.26187</ele>
        <time>2023-06-02T09:44:44.000Z</time>
      </trkpt>
      <trkpt lat="46.21711" lon="-1.43787">
        <ele>0.26119</ele>
        <time>2023-06-02T09:44:45.000Z</time>
      </trkpt>
      <trkpt lat="46.21708" lon="-1.43791">
        <ele>0.35076</ele>
        <time>2023-06-02T09:44:46.000Z</time>
      </trkpt>
      <trkpt lat="46.21705" lon="-1.43794">
        <ele>0.4499</ele>
        <time>2023-06-02T09:44:47.000Z</time>
      </trkpt>
      <trkpt lat="46.21702" lon="-1.43798">
        <ele>0.55296</ele>
        <time>2023-06-02T09:44:48.000Z</time>
      </trkpt>
      <trkpt lat="46.21699" lon="-1.43801">
        <ele>0.65973</ele>
        <time>2023-06-02T09:44:49.000Z</time>
      </trkpt>
      <trkpt lat="46.21695" lon="-1.43804">
        <ele>0.78874</ele>
        <time>2023-06-02T09:44:50.000Z</time>
      </trkpt>
      <trkpt lat="46.21691" lon="-1.43807">
        <ele>0.96524</ele>
        <time>2023-06-02T09:44:51.000Z</time>
      </trkpt>
      <trkpt lat="46.21688" lon="-1.43809">
        <ele>1.10427</ele>
        <time>2023-06-02T09:44:52.000Z</time>
      </trkpt>
      <trkpt lat="46.21684" lon="-1.43812">
        <ele>1.23951</ele>
        <time>2023-06-02T09:44:53.000Z</time>
      </trkpt>
      <trkpt lat="46.2168" lon="-1.43815">
        <ele>1.39337</ele>
        <time>2023-06-02T09:44:54.000Z</time>
      </trkpt>
      <trkpt lat="46.21676" lon="-1.43818">
        <ele>1.52653</ele>
        <time>2023-06-02T09:44:55.000Z</time>
      </trkpt>
      <trkpt lat="46.21672" lon="-1.4382">
        <ele>1.66677</ele>
        <time>2023-06-02T09:44:56.000Z</time>
      </trkpt>
      <trkpt lat="46.21669" lon="-1.43823">
        <ele>1.80545</ele>
        <time>2023-06-02T09:44:57.000Z</time>
      </trkpt>
      <trkpt lat="46.21665" lon="-1.43826">
        <ele>1.95158</ele>
        <time>2023-06-02T09:44:58.000Z</time>
      </trkpt>
      <trkpt lat="46.21662" lon="-1.43829">
        <ele>2.09082</ele>
        <time>2023-06-02T09:44:59.000Z</time>
      </trkpt>
      <trkpt lat="46.21658" lon="-1.43831">
        <ele>2.24068</ele>
        <time>2023-06-02T09:45:00.000Z</time>
      </trkpt>
      <trkpt lat="46.21655" lon="-1.43833">
        <ele>2.35364</ele>
        <time>2023-06-02T09:45:01.000Z</time>
      </trkpt>
      <trkpt lat="46.21652" lon="-1.43835">
        <ele>2.46837</ele>
        <time>2023-06-02T09:45:02.000Z</time>
      </trkpt>
      <trkpt lat="46.2165" lon="-1.43838">
        <ele>2.56403</ele>
        <time>2023-06-02T09:45:03.000Z</time>
      </trkpt>
      <trkpt lat="46.21647" lon="-1.43841">
        <ele>2.62382</ele>
        <time>2023-06-02T09:45:04.000Z</time>
      </trkpt>
      <trkpt lat="46.21646" lon="-1.43845">
        <ele>2.7259</ele>
        <time>2023-06-02T09:45:05.000Z</time>
      </trkpt>
      <trkpt lat="46.21646" lon="-1.43849">
        <ele>2.72157</ele>
        <time>2023-06-02T09:45:06.000Z</time>
      </trkpt>
      <trkpt lat="46.21647" lon="-1.43854">
        <ele>2.74063</ele>
        <time>2023-06-02T09:45:07.000Z</time>
      </trkpt>
      <trkpt lat="46.21649" lon="-1.43859">
        <ele>2.75642</ele>
        <time>2023-06-02T09:45:08.000Z</time>
      </trkpt>
      <trkpt lat="46.2165" lon="-1.43863">
        <ele>2.76623</ele>
        <time>2023-06-02T09:45:09.000Z</time>
      </trkpt>
      <trkpt lat="46.21652" lon="-1.43866">
        <ele>2.73445</ele>
        <time>2023-06-02T09:45:10.000Z</time>
      </trkpt>
      <trkpt lat="46.21653" lon="-1.4387">
        <ele>2.59732</ele>
        <time>2023-06-02T09:45:11.000Z</time>
      </trkpt>
      <trkpt lat="46.21655" lon="-1.43873">
        <ele>2.46414</ele>
        <time>2023-06-02T09:45:12.000Z</time>
      </trkpt>
      <trkpt lat="46.21657" lon="-1.43875">
        <ele>2.38931</ele>
        <time>2023-06-02T09:45:14.000Z</time>
      </trkpt>
      <trkpt lat="46.21654" lon="-1.43876">
        <ele>2.35406</ele>
        <time>2023-06-02T09:45:17.000Z</time>
      </trkpt>
      <trkpt lat="46.21653" lon="-1.43873">
        <ele>2.30214</ele>
        <time>2023-06-02T09:45:18.000Z</time>
      </trkpt>
      <trkpt lat="46.21651" lon="-1.43868">
        <ele>2.22929</ele>
        <time>2023-06-02T09:45:19.000Z</time>
      </trkpt>
      <trkpt lat="46.2165" lon="-1.43863">
        <ele>2.14116</ele>
        <time>2023-06-02T09:45:20.000Z</time>
      </trkpt>
      <trkpt lat="46.21649" lon="-1.43858">
        <ele>2.03751</ele>
        <time>2023-06-02T09:45:21.000Z</time>
      </trkpt>
      <trkpt lat="46.21647" lon="-1.43854">
        <ele>1.91706</ele>
        <time>2023-06-02T09:45:22.000Z</time>
      </trkpt>
      <trkpt lat="46.21646" lon="-1.4385">
        <ele>1.85113</ele>
        <time>2023-06-02T09:45:23.000Z</time>
      </trkpt>
      <trkpt lat="46.21645" lon="-1.43847">
        <ele>1.81186</ele>
        <time>2023-06-02T09:45:24.000Z</time>
      </trkpt>
      <trkpt lat="46.21644" lon="-1.43845">
        <ele>1.75678</ele>
        <time>2023-06-02T09:45:25.000Z</time>
      </trkpt>
      <trkpt lat="46.21645" lon="-1.43841">
        <ele>1.73022</ele>
        <time>2023-06-02T09:45:27.000Z</time>
      </trkpt>
      <trkpt lat="46.21647" lon="-1.43842">
        <ele>1.74311</ele>
        <time>2023-06-02T09:45:30.000Z</time>
      </trkpt>
      <trkpt lat="46.21648" lon="-1.43846">
        <ele>1.77369</ele>
        <time>2023-06-02T09:45:56.000Z</time>
      </trkpt>
      <trkpt lat="46.21648" lon="-1.43849">
        <ele>1.80007</ele>
        <time>2023-06-02T09:45:57.000Z</time>
      </trkpt>
      <trkpt lat="46.21648" lon="-1.43853">
        <ele>1.78959</ele>
        <time>2023-06-02T09:45:58.000Z</time>
      </trkpt>
      <trkpt lat="46.21649" lon="-1.43857">
        <ele>1.76792</ele>
        <time>2023-06-02T09:45:59.000Z</time>
      </trkpt>
      <trkpt lat="46.2165" lon="-1.43861">
        <ele>1.75933</ele>
        <time>2023-06-02T09:46:00.000Z</time>
      </trkpt>
      <trkpt lat="46.21651" lon="-1.43866">
        <ele>1.76428</ele>
        <time>2023-06-02T09:46:01.000Z</time>
      </trkpt>
      <trkpt lat="46.21653" lon="-1.4387">
        <ele>1.76562</ele>
        <time>2023-06-02T09:46:02.000Z</time>
      </trkpt>
      <trkpt lat="46.21655" lon="-1.43873">
        <ele>1.78865</ele>
        <time>2023-06-02T09:46:03.000Z</time>
      </trkpt>
      <trkpt lat="46.21657" lon="-1.43876">
        <ele>1.77922</ele>
        <time>2023-06-02T09:46:04.000Z</time>
      </trkpt>
      <trkpt lat="46.21658" lon="-1.4388">
        <ele>1.73004</ele>
        <time>2023-06-02T09:46:05.000Z</time>
      </trkpt>
      <trkpt lat="46.21658" lon="-1.43884">
        <ele>1.87536</ele>
        <time>2023-06-02T09:46:06.000Z</time>
      </trkpt>
      <trkpt lat="46.21658" lon="-1.43889">
        <ele>2.0673</ele>
        <time>2023-06-02T09:46:07.000Z</time>
      </trkpt>
      <trkpt lat="46.21658" lon="-1.43893">
        <ele>2.06431</ele>
        <time>2023-06-02T09:46:08.000Z</time>
      </trkpt>
      <trkpt lat="46.21659" lon="-1.43897">
        <ele>2.0842</ele>
        <time>2023-06-02T09:46:09.000Z</time>
      </trkpt>
      <trkpt lat="46.21659" lon="-1.43902">
        <ele>2.11028</ele>
        <time>2023-06-02T09:46:10.000Z</time>
      </trkpt>
      <trkpt lat="46.21657" lon="-1.43906">
        <ele>2.03296</ele>
        <time>2023-06-02T09:46:11.000Z</time>
      </trkpt>
      <trkpt lat="46.21656" lon="-1.4391">
        <ele>1.96543</ele>
        <time>2023-06-02T09:46:12.000Z</time>
      </trkpt>
      <trkpt lat="46.21654" lon="-1.43913">
        <ele>1.90044</ele>
        <time>2023-06-02T09:46:13.000Z</time>
      </trkpt>
      <trkpt lat="46.21652" lon="-1.43916">
        <ele>1.80925</ele>
        <time>2023-06-02T09:46:14.000Z</time>
      </trkpt>
      <trkpt lat="46.21649" lon="-1.43919">
        <ele>1.73453</ele>
        <time>2023-06-02T09:46:15.000Z</time>
      </trkpt>
      <trkpt lat="46.21647" lon="-1.43922">
        <ele>1.60745</ele>
        <time>2023-06-02T09:46:16.000Z</time>
      </trkpt>
      <trkpt lat="46.21644" lon="-1.43923">
        <ele>1.48741</ele>
        <time>2023-06-02T09:46:17.000Z</time>
      </trkpt>
      <trkpt lat="46.21641" lon="-1.43923">
        <ele>1.38549</ele>
        <time>2023-06-02T09:46:18.000Z</time>
      </trkpt>
      <trkpt lat="46.21638" lon="-1.43923">
        <ele>1.30576</ele>
        <time>2023-06-02T09:46:19.000Z</time>
      </trkpt>
      <trkpt lat="46.21635" lon="-1.43923">
        <ele>1.22226</ele>
        <time>2023-06-02T09:46:20.000Z</time>
      </trkpt>
      <trkpt lat="46.21633" lon="-1.43924">
        <ele>1.16922</ele>
        <time>2023-06-02T09:46:21.000Z</time>
      </trkpt>
      <trkpt lat="46.21631" lon="-1.43927">
        <ele>1.1955</ele>
        <time>2023-06-02T09:46:22.000Z</time>
      </trkpt>
      <trkpt lat="46.21631" lon="-1.43931">
        <ele>1.41193</ele>
        <time>2023-06-02T09:46:23.000Z</time>
      </trkpt>
      <trkpt lat="46.21632" lon="-1.43935">
        <ele>1.59304</ele>
        <time>2023-06-02T09:46:24.000Z</time>
      </trkpt>
      <trkpt lat="46.21633" lon="-1.43938">
        <ele>1.77153</ele>
        <time>2023-06-02T09:46:25.000Z</time>
      </trkpt>
      <trkpt lat="46.21635" lon="-1.43941">
        <ele>1.76819</ele>
        <time>2023-06-02T09:46:26.000Z</time>
      </trkpt>
      <trkpt lat="46.21636" lon="-1.43943">
        <ele>1.74415</ele>
        <time>2023-06-02T09:46:27.000Z</time>
      </trkpt>
      <trkpt lat="46.21636" lon="-1.43946">
        <ele>1.97214</ele>
        <time>2023-06-02T09:46:28.000Z</time>
      </trkpt>
      <trkpt lat="46.21635" lon="-1.43949">
        <ele>2.12632</ele>
        <time>2023-06-02T09:46:29.000Z</time>
      </trkpt>
      <trkpt lat="46.21632" lon="-1.43951">
        <ele>2.11778</ele>
        <time>2023-06-02T09:46:31.000Z</time>
      </trkpt>
      <trkpt lat="46.21629" lon="-1.43953">
        <ele>2.13265</ele>
        <time>2023-06-02T09:46:33.000Z</time>
      </trkpt>
      <trkpt lat="46.21626" lon="-1.43953">
        <ele>2.15573</ele>
        <time>2023-06-02T09:46:35.000Z</time>
      </trkpt>
      <trkpt lat="46.21624" lon="-1.43951">
        <ele>2.18773</ele>
        <time>2023-06-02T09:46:36.000Z</time>
      </trkpt>
      <trkpt lat="46.21623" lon="-1.43949">
        <ele>2.21861</ele>
        <time>2023-06-02T09:46:37.000Z</time>
      </trkpt>
      <trkpt lat="46.21622" lon="-1.43946">
        <ele>2.20103</ele>
        <time>2023-06-02T09:46:38.000Z</time>
      </trkpt>
      <trkpt lat="46.21621" lon="-1.43944">
        <ele>2.22866</ele>
        <time>2023-06-02T09:46:39.000Z</time>
      </trkpt>
      <trkpt lat="46.2162" lon="-1.43942">
        <ele>2.27868</ele>
        <time>2023-06-02T09:46:40.000Z</time>
      </trkpt>
      <trkpt lat="46.21618" lon="-1.43941">
        <ele>2.34084</ele>
        <time>2023-06-02T09:46:41.000Z</time>
      </trkpt>
      <trkpt lat="46.21616" lon="-1.43941">
        <ele>2.41295</ele>
        <time>2023-06-02T09:46:42.000Z</time>
      </trkpt>
      <trkpt lat="46.21614" lon="-1.4394">
        <ele>2.47275</ele>
        <time>2023-06-02T09:46:43.000Z</time>
      </trkpt>
      <trkpt lat="46.21611" lon="-1.4394">
        <ele>2.5088</ele>
        <time>2023-06-02T09:46:44.000Z</time>
      </trkpt>
      <trkpt lat="46.21609" lon="-1.43939">
        <ele>2.547</ele>
        <time>2023-06-02T09:46:45.000Z</time>
      </trkpt>
      <trkpt lat="46.21607" lon="-1.43939">
        <ele>2.38927</ele>
        <time>2023-06-02T09:46:46.000Z</time>
      </trkpt>
      <trkpt lat="46.21604" lon="-1.43938">
        <ele>2.2575</ele>
        <time>2023-06-02T09:46:47.000Z</time>
      </trkpt>
      <trkpt lat="46.21602" lon="-1.43937">
        <ele>2.10123</ele>
        <time>2023-06-02T09:46:48.000Z</time>
      </trkpt>
      <trkpt lat="46.216" lon="-1.43936">
        <ele>1.9273</ele>
        <time>2023-06-02T09:46:49.000Z</time>
      </trkpt>
      <trkpt lat="46.21598" lon="-1.43935">
        <ele>1.74683</ele>
        <time>2023-06-02T09:46:50.000Z</time>
      </trkpt>
      <trkpt lat="46.21596" lon="-1.43935">
        <ele>1.51929</ele>
        <time>2023-06-02T09:46:51.000Z</time>
      </trkpt>
      <trkpt lat="46.21594" lon="-1.43936">
        <ele>1.3594</ele>
        <time>2023-06-02T09:46:52.000Z</time>
      </trkpt>
      <trkpt lat="46.21592" lon="-1.43937">
        <ele>1.36092</ele>
        <time>2023-06-02T09:46:53.000Z</time>
      </trkpt>
      <trkpt lat="46.2159" lon="-1.43939">
        <ele>1.39846</ele>
        <time>2023-06-02T09:46:54.000Z</time>
      </trkpt>
      <trkpt lat="46.21588" lon="-1.43942">
        <ele>1.39027</ele>
        <time>2023-06-02T09:46:55.000Z</time>
      </trkpt>
      <trkpt lat="46.21586" lon="-1.43945">
        <ele>1.39211</ele>
        <time>2023-06-02T09:46:56.000Z</time>
      </trkpt>
      <trkpt lat="46.21584" lon="-1.43948">
        <ele>1.39137</ele>
        <time>2023-06-02T09:46:57.000Z</time>
      </trkpt>
      <trkpt lat="46.21583" lon="-1.43952">
        <ele>1.38824</ele>
        <time>2023-06-02T09:46:58.000Z</time>
      </trkpt>
      <trkpt lat="46.21581" lon="-1.43955">
        <ele>1.36794</ele>
        <time>2023-06-02T09:46:59.000Z</time>
      </trkpt>
      <trkpt lat="46.2158" lon="-1.43958">
        <ele>1.32894</ele>
        <time>2023-06-02T09:47:00.000Z</time>
      </trkpt>
      <trkpt lat="46.21579" lon="-1.43961">
        <ele>1.55496</ele>
        <time>2023-06-02T09:47:01.000Z</time>
      </trkpt>
      <trkpt lat="46.21576" lon="-1.43962">
        <ele>1.74703</ele>
        <time>2023-06-02T09:47:03.000Z</time>
      </trkpt>
      <trkpt lat="46.21574" lon="-1.43961">
        <ele>1.88054</ele>
        <time>2023-06-02T09:47:04.000Z</time>
      </trkpt>
      <trkpt lat="46.21573" lon="-1.43959">
        <ele>2.05675</ele>
        <time>2023-06-02T09:47:05.000Z</time>
      </trkpt>
      <trkpt lat="46.21572" lon="-1.43957">
        <ele>2.23608</ele>
        <time>2023-06-02T09:47:06.000Z</time>
      </trkpt>
      <trkpt lat="46.21569" lon="-1.43954">
        <ele>2.39759</ele>
        <time>2023-06-02T09:47:08.000Z</time>
      </trkpt>
      <trkpt lat="46.21566" lon="-1.43952">
        <ele>2.56199</ele>
        <time>2023-06-02T09:47:10.000Z</time>
      </trkpt>
      <trkpt lat="46.21564" lon="-1.4395">
        <ele>2.72626</ele>
        <time>2023-06-02T09:47:12.000Z</time>
      </trkpt>
      <trkpt lat="46.21562" lon="-1.43949">
        <ele>2.89771</ele>
        <time>2023-06-02T09:47:14.000Z</time>
      </trkpt>
      <trkpt lat="46.21559" lon="-1.43949">
        <ele>3.08636</ele>
        <time>2023-06-02T09:48:02.000Z</time>
      </trkpt>
      <trkpt lat="46.21556" lon="-1.43948">
        <ele>3.27376</ele>
        <time>2023-06-02T09:48:03.000Z</time>
      </trkpt>
      <trkpt lat="46.21554" lon="-1.43947">
        <ele>3.4578</ele>
        <time>2023-06-02T09:48:04.000Z</time>
      </trkpt>
      <trkpt lat="46.21551" lon="-1.43945">
        <ele>3.66456</ele>
        <time>2023-06-02T09:48:05.000Z</time>
      </trkpt>
      <trkpt lat="46.21549" lon="-1.43944">
        <ele>3.90044</ele>
        <time>2023-06-02T09:48:06.000Z</time>
      </trkpt>
      <trkpt lat="46.21546" lon="-1.43942">
        <ele>4.16662</ele>
        <time>2023-06-02T09:48:07.000Z</time>
      </trkpt>
      <trkpt lat="46.21544" lon="-1.4394">
        <ele>4.42724</ele>
        <time>2023-06-02T09:48:08.000Z</time>
      </trkpt>
      <trkpt lat="46.21542" lon="-1.43938">
        <ele>4.68483</ele>
        <time>2023-06-02T09:48:09.000Z</time>
      </trkpt>
      <trkpt lat="46.21539" lon="-1.43937">
        <ele>4.96139</ele>
        <time>2023-06-02T09:48:10.000Z</time>
      </trkpt>
      <trkpt lat="46.21536" lon="-1.43935">
        <ele>5.26713</ele>
        <time>2023-06-02T09:48:11.000Z</time>
      </trkpt>
      <trkpt lat="46.21533" lon="-1.43933">
        <ele>5.5219</ele>
        <time>2023-06-02T09:48:12.000Z</time>
      </trkpt>
      <trkpt lat="46.2153" lon="-1.43931">
        <ele>5.49454</ele>
        <time>2023-06-02T09:48:13.000Z</time>
      </trkpt>
      <trkpt lat="46.21527" lon="-1.43929">
        <ele>5.49651</ele>
        <time>2023-06-02T09:48:14.000Z</time>
      </trkpt>
      <trkpt lat="46.21524" lon="-1.43927">
        <ele>5.56395</ele>
        <time>2023-06-02T09:48:15.000Z</time>
      </trkpt>
      <trkpt lat="46.21521" lon="-1.43925">
        <ele>5.60877</ele>
        <time>2023-06-02T09:48:16.000Z</time>
      </trkpt>
      <trkpt lat="46.21517" lon="-1.43923">
        <ele>5.64709</ele>
        <time>2023-06-02T09:48:17.000Z</time>
      </trkpt>
      <trkpt lat="46.21514" lon="-1.43921">
        <ele>5.67207</ele>
        <time>2023-06-02T09:48:18.000Z</time>
      </trkpt>
      <trkpt lat="46.2151" lon="-1.43919">
        <ele>5.68459</ele>
        <time>2023-06-02T09:48:19.000Z</time>
      </trkpt>
      <trkpt lat="46.21507" lon="-1.43917">
        <ele>5.5439</ele>
        <time>2023-06-02T09:48:20.000Z</time>
      </trkpt>
      <trkpt lat="46.21503" lon="-1.43914">
        <ele>5.40981</ele>
        <time>2023-06-02T09:48:21.000Z</time>
      </trkpt>
      <trkpt lat="46.215" lon="-1.43912">
        <ele>5.26102</ele>
        <time>2023-06-02T09:48:22.000Z</time>
      </trkpt>
      <trkpt lat="46.21496" lon="-1.43911">
        <ele>5.10669</ele>
        <time>2023-06-02T09:48:23.000Z</time>
      </trkpt>
      <trkpt lat="46.21492" lon="-1.43909">
        <ele>4.95458</ele>
        <time>2023-06-02T09:48:24.000Z</time>
      </trkpt>
      <trkpt lat="46.21488" lon="-1.43907">
        <ele>4.79028</ele>
        <time>2023-06-02T09:48:25.000Z</time>
      </trkpt>
      <trkpt lat="46.21484" lon="-1.43906">
        <ele>4.60028</ele>
        <time>2023-06-02T09:48:26.000Z</time>
      </trkpt>
      <trkpt lat="46.2148" lon="-1.43904">
        <ele>4.40818</ele>
        <time>2023-06-02T09:48:27.000Z</time>
      </trkpt>
      <trkpt lat="46.21476" lon="-1.43904">
        <ele>4.22096</ele>
        <time>2023-06-02T09:48:28.000Z</time>
      </trkpt>
      <trkpt lat="46.21472" lon="-1.43903">
        <ele>4.03763</ele>
        <time>2023-06-02T09:48:29.000Z</time>
      </trkpt>
      <trkpt lat="46.21468" lon="-1.43904">
        <ele>3.79607</ele>
        <time>2023-06-02T09:48:30.000Z</time>
      </trkpt>
      <trkpt lat="46.21464" lon="-1.43904">
        <ele>3.52219</ele>
        <time>2023-06-02T09:48:31.000Z</time>
      </trkpt>
      <trkpt lat="46.2146" lon="-1.43905">
        <ele>3.30211</ele>
        <time>2023-06-02T09:48:32.000Z</time>
      </trkpt>
      <trkpt lat="46.21456" lon="-1.43906">
        <ele>3.06847</ele>
        <time>2023-06-02T09:48:33.000Z</time>
      </trkpt>
      <trkpt lat="46.21452" lon="-1.43908">
        <ele>2.86414</ele>
        <time>2023-06-02T09:48:34.000Z</time>
      </trkpt>
      <trkpt lat="46.21448" lon="-1.43909">
        <ele>2.67102</ele>
        <time>2023-06-02T09:48:35.000Z</time>
      </trkpt>
      <trkpt lat="46.21444" lon="-1.43912">
        <ele>2.47512</ele>
        <time>2023-06-02T09:48:36.000Z</time>
      </trkpt>
      <trkpt lat="46.21441" lon="-1.43915">
        <ele>2.28546</ele>
        <time>2023-06-02T09:48:37.000Z</time>
      </trkpt>
      <trkpt lat="46.21438" lon="-1.43919">
        <ele>2.11042</ele>
        <time>2023-06-02T09:48:38.000Z</time>
      </trkpt>
      <trkpt lat="46.21435" lon="-1.43924">
        <ele>1.92874</ele>
        <time>2023-06-02T09:48:39.000Z</time>
      </trkpt>
      <trkpt lat="46.21432" lon="-1.4393">
        <ele>1.92379</ele>
        <time>2023-06-02T09:48:40.000Z</time>
      </trkpt>
      <trkpt lat="46.2143" lon="-1.43937">
        <ele>1.91667</ele>
        <time>2023-06-02T09:48:41.000Z</time>
      </trkpt>
      <trkpt lat="46.21428" lon="-1.43942">
        <ele>1.9001</ele>
        <time>2023-06-02T09:48:42.000Z</time>
      </trkpt>
      <trkpt lat="46.21426" lon="-1.43947">
        <ele>1.88905</ele>
        <time>2023-06-02T09:48:43.000Z</time>
      </trkpt>
      <trkpt lat="46.21424" lon="-1.43953">
        <ele>1.88458</ele>
        <time>2023-06-02T09:48:44.000Z</time>
      </trkpt>
      <trkpt lat="46.21422" lon="-1.43959">
        <ele>1.87411</ele>
        <time>2023-06-02T09:48:45.000Z</time>
      </trkpt>
      <trkpt lat="46.21421" lon="-1.43965">
        <ele>1.81746</ele>
        <time>2023-06-02T09:48:46.000Z</time>
      </trkpt>
      <trkpt lat="46.2142" lon="-1.43972">
        <ele>1.776</ele>
        <time>2023-06-02T09:48:47.000Z</time>
      </trkpt>
      <trkpt lat="46.2142" lon="-1.43978">
        <ele>1.73075</ele>
        <time>2023-06-02T09:48:48.000Z</time>
      </trkpt>
      <trkpt lat="46.21421" lon="-1.43985">
        <ele>1.6754</ele>
        <time>2023-06-02T09:48:49.000Z</time>
      </trkpt>
      <trkpt lat="46.21421" lon="-1.43991">
        <ele>1.66378</ele>
        <time>2023-06-02T09:48:50.000Z</time>
      </trkpt>
      <trkpt lat="46.21421" lon="-1.43998">
        <ele>1.66278</ele>
        <time>2023-06-02T09:48:51.000Z</time>
      </trkpt>
      <trkpt lat="46.2142" lon="-1.44005">
        <ele>1.65984</ele>
        <time>2023-06-02T09:48:52.000Z</time>
      </trkpt>
      <trkpt lat="46.2142" lon="-1.44012">
        <ele>1.66385</ele>
        <time>2023-06-02T09:48:53.000Z</time>
      </trkpt>
      <trkpt lat="46.2142" lon="-1.4402">
        <ele>1.63635</ele>
        <time>2023-06-02T09:48:54.000Z</time>
      </trkpt>
      <trkpt lat="46.2142" lon="-1.44027">
        <ele>1.63743</ele>
        <time>2023-06-02T09:48:55.000Z</time>
      </trkpt>
      <trkpt lat="46.2142" lon="-1.44034">
        <ele>1.61526</ele>
        <time>2023-06-02T09:48:56.000Z</time>
      </trkpt>
      <trkpt lat="46.2142" lon="-1.44041">
        <ele>1.56399</ele>
        <time>2023-06-02T09:48:57.000Z</time>
      </trkpt>
      <trkpt lat="46.2142" lon="-1.44048">
        <ele>1.4961</ele>
        <time>2023-06-02T09:48:58.000Z</time>
      </trkpt>
      <trkpt lat="46.21421" lon="-1.44055">
        <ele>1.43629</ele>
        <time>2023-06-02T09:48:59.000Z</time>
      </trkpt>
      <trkpt lat="46.21421" lon="-1.44061">
        <ele>1.36143</ele>
        <time>2023-06-02T09:49:00.000Z</time>
      </trkpt>
      <trkpt lat="46.2142" lon="-1.44066">
        <ele>1.32459</ele>
        <time>2023-06-02T09:49:01.000Z</time>
      </trkpt>
      <trkpt lat="46.2142" lon="-1.44072">
        <ele>1.31122</ele>
        <time>2023-06-02T09:49:02.000Z</time>
      </trkpt>
      <trkpt lat="46.2142" lon="-1.44077">
        <ele>1.40239</ele>
        <time>2023-06-02T09:49:03.000Z</time>
      </trkpt>
      <trkpt lat="46.2142" lon="-1.44082">
        <ele>1.52595</ele>
        <time>2023-06-02T09:49:04.000Z</time>
      </trkpt>
      <trkpt lat="46.21421" lon="-1.44087">
        <ele>1.71707</ele>
        <time>2023-06-02T09:49:05.000Z</time>
      </trkpt>
      <trkpt lat="46.2142" lon="-1.44092">
        <ele>1.66123</ele>
        <time>2023-06-02T09:49:06.000Z</time>
      </trkpt>
      <trkpt lat="46.21417" lon="-1.44094">
        <ele>1.58701</ele>
        <time>2023-06-02T09:49:07.000Z</time>
      </trkpt>
      <trkpt lat="46.21413" lon="-1.44094">
        <ele>1.50892</ele>
        <time>2023-06-02T09:49:08.000Z</time>
      </trkpt>
      <trkpt lat="46.21409" lon="-1.44092">
        <ele>1.50517</ele>
        <time>2023-06-02T09:49:09.000Z</time>
      </trkpt>
      <trkpt lat="46.21405" lon="-1.44092">
        <ele>1.50661</ele>
        <time>2023-06-02T09:49:10.000Z</time>
      </trkpt>
      <trkpt lat="46.21401" lon="-1.44091">
        <ele>1.50572</ele>
        <time>2023-06-02T09:49:11.000Z</time>
      </trkpt>
      <trkpt lat="46.21397" lon="-1.4409">
        <ele>1.52856</ele>
        <time>2023-06-02T09:49:12.000Z</time>
      </trkpt>
      <trkpt lat="46.21393" lon="-1.44089">
        <ele>1.54729</ele>
        <time>2023-06-02T09:49:13.000Z</time>
      </trkpt>
      <trkpt lat="46.21389" lon="-1.44089">
        <ele>1.56294</ele>
        <time>2023-06-02T09:49:14.000Z</time>
      </trkpt>
      <trkpt lat="46.21385" lon="-1.44089">
        <ele>1.53038</ele>
        <time>2023-06-02T09:49:15.000Z</time>
      </trkpt>
      <trkpt lat="46.21381" lon="-1.44088">
        <ele>1.50315</ele>
        <time>2023-06-02T09:49:16.000Z</time>
      </trkpt>
      <trkpt lat="46.21377" lon="-1.44088">
        <ele>1.51406</ele>
        <time>2023-06-02T09:49:17.000Z</time>
      </trkpt>
      <trkpt lat="46.21373" lon="-1.44087">
        <ele>1.53301</ele>
        <time>2023-06-02T09:49:18.000Z</time>
      </trkpt>
      <trkpt lat="46.2137" lon="-1.44087">
        <ele>1.54814</ele>
        <time>2023-06-02T09:49:19.000Z</time>
      </trkpt>
      <trkpt lat="46.21367" lon="-1.44086">
        <ele>1.57327</ele>
        <time>2023-06-02T09:49:20.000Z</time>
      </trkpt>
      <trkpt lat="46.21365" lon="-1.44086">
        <ele>1.58549</ele>
        <time>2023-06-02T09:49:21.000Z</time>
      </trkpt>
      <trkpt lat="46.21362" lon="-1.44086">
        <ele>1.57934</ele>
        <time>2023-06-02T09:49:22.000Z</time>
      </trkpt>
      <trkpt lat="46.21359" lon="-1.44085">
        <ele>1.44883</ele>
        <time>2023-06-02T09:49:23.000Z</time>
      </trkpt>
      <trkpt lat="46.21356" lon="-1.44084">
        <ele>1.24152</ele>
        <time>2023-06-02T09:49:24.000Z</time>
      </trkpt>
      <trkpt lat="46.21353" lon="-1.44083">
        <ele>0.9491</ele>
        <time>2023-06-02T09:49:25.000Z</time>
      </trkpt>
      <trkpt lat="46.21349" lon="-1.44081">
        <ele>0.9452</ele>
        <time>2023-06-02T09:49:26.000Z</time>
      </trkpt>
      <trkpt lat="46.21346" lon="-1.44081">
        <ele>0.99793</ele>
        <time>2023-06-02T09:49:27.000Z</time>
      </trkpt>
      <trkpt lat="46.21341" lon="-1.4408">
        <ele>1.05272</ele>
        <time>2023-06-02T09:49:28.000Z</time>
      </trkpt>
      <trkpt lat="46.21337" lon="-1.4408">
        <ele>1.04064</ele>
        <time>2023-06-02T09:49:29.000Z</time>
      </trkpt>
      <trkpt lat="46.21332" lon="-1.44079">
        <ele>1.01134</ele>
        <time>2023-06-02T09:49:30.000Z</time>
      </trkpt>
      <trkpt lat="46.21327" lon="-1.44078">
        <ele>0.99873</ele>
        <time>2023-06-02T09:49:31.000Z</time>
      </trkpt>
      <trkpt lat="46.21323" lon="-1.44078">
        <ele>0.95225</ele>
        <time>2023-06-02T09:49:32.000Z</time>
      </trkpt>
      <trkpt lat="46.21319" lon="-1.44078">
        <ele>0.92525</ele>
        <time>2023-06-02T09:49:33.000Z</time>
      </trkpt>
      <trkpt lat="46.21315" lon="-1.44078">
        <ele>0.88755</ele>
        <time>2023-06-02T09:49:34.000Z</time>
      </trkpt>
      <trkpt lat="46.2131" lon="-1.44078">
        <ele>0.87078</ele>
        <time>2023-06-02T09:49:35.000Z</time>
      </trkpt>
      <trkpt lat="46.21307" lon="-1.44078">
        <ele>0.84105</ele>
        <time>2023-06-02T09:49:36.000Z</time>
      </trkpt>
      <trkpt lat="46.21303" lon="-1.44077">
        <ele>0.80294</ele>
        <time>2023-06-02T09:49:37.000Z</time>
      </trkpt>
      <trkpt lat="46.21299" lon="-1.44075">
        <ele>0.77287</ele>
        <time>2023-06-02T09:49:38.000Z</time>
      </trkpt>
      <trkpt lat="46.21297" lon="-1.44072">
        <ele>0.74278</ele>
        <time>2023-06-02T09:49:39.000Z</time>
      </trkpt>
      <trkpt lat="46.21295" lon="-1.44069">
        <ele>0.6745</ele>
        <time>2023-06-02T09:49:40.000Z</time>
      </trkpt>
      <trkpt lat="46.21295" lon="-1.44065">
        <ele>0.58053</ele>
        <time>2023-06-02T09:49:41.000Z</time>
      </trkpt>
      <trkpt lat="46.21295" lon="-1.44063">
        <ele>0.48784</ele>
        <time>2023-06-02T09:49:42.000Z</time>
      </trkpt>
      <trkpt lat="46.21297" lon="-1.44059">
        <ele>0.41035</ele>
        <time>2023-06-02T09:49:44.000Z</time>
      </trkpt>
      <trkpt lat="46.21299" lon="-1.44061">
        <ele>0.52041</ele>
        <time>2023-06-02T09:50:04.000Z</time>
      </trkpt>
      <trkpt lat="46.21298" lon="-1.44056">
        <ele>0.65787</ele>
        <time>2023-06-02T09:50:10.000Z</time>
      </trkpt>
      <trkpt lat="46.21298" lon="-1.44053">
        <ele>0.77876</ele>
        <time>2023-06-02T09:50:11.000Z</time>
      </trkpt>
      <trkpt lat="46.21299" lon="-1.4405">
        <ele>0.85696</ele>
        <time>2023-06-02T09:50:12.000Z</time>
      </trkpt>
      <trkpt lat="46.21299" lon="-1.44046">
        <ele>0.97569</ele>
        <time>2023-06-02T09:50:14.000Z</time>
      </trkpt>
      <trkpt lat="46.213" lon="-1.44041">
        <ele>1.05321</ele>
        <time>2023-06-02T09:50:16.000Z</time>
      </trkpt>
      <trkpt lat="46.213" lon="-1.44039">
        <ele>1.13968</ele>
        <time>2023-06-02T09:50:17.000Z</time>
      </trkpt>
      <trkpt lat="46.213" lon="-1.44036">
        <ele>1.20398</ele>
        <time>2023-06-02T09:50:18.000Z</time>
      </trkpt>
      <trkpt lat="46.21301" lon="-1.44033">
        <ele>1.26957</ele>
        <time>2023-06-02T09:50:19.000Z</time>
      </trkpt>
      <trkpt lat="46.21301" lon="-1.44029">
        <ele>1.38006</ele>
        <time>2023-06-02T09:50:20.000Z</time>
      </trkpt>
      <trkpt lat="46.21301" lon="-1.44025">
        <ele>1.47775</ele>
        <time>2023-06-02T09:50:21.000Z</time>
      </trkpt>
      <trkpt lat="46.21301" lon="-1.44021">
        <ele>1.5563</ele>
        <time>2023-06-02T09:50:22.000Z</time>
      </trkpt>
      <trkpt lat="46.21301" lon="-1.44017">
        <ele>1.65038</ele>
        <time>2023-06-02T09:50:23.000Z</time>
      </trkpt>
      <trkpt lat="46.21301" lon="-1.44012">
        <ele>1.73827</ele>
        <time>2023-06-02T09:50:24.000Z</time>
      </trkpt>
      <trkpt lat="46.21301" lon="-1.44008">
        <ele>1.82604</ele>
        <time>2023-06-02T09:50:25.000Z</time>
      </trkpt>
      <trkpt lat="46.21301" lon="-1.44004">
        <ele>1.92497</ele>
        <time>2023-06-02T09:50:26.000Z</time>
      </trkpt>
      <trkpt lat="46.21302" lon="-1.44001">
        <ele>2.05308</ele>
        <time>2023-06-02T09:50:27.000Z</time>
      </trkpt>
      <trkpt lat="46.21303" lon="-1.43997">
        <ele>2.186</ele>
        <time>2023-06-02T09:50:28.000Z</time>
      </trkpt>
      <trkpt lat="46.21304" lon="-1.43993">
        <ele>2.33203</ele>
        <time>2023-06-02T09:50:29.000Z</time>
      </trkpt>
      <trkpt lat="46.21305" lon="-1.43989">
        <ele>2.47316</ele>
        <time>2023-06-02T09:50:30.000Z</time>
      </trkpt>
      <trkpt lat="46.21306" lon="-1.43985">
        <ele>2.47971</ele>
        <time>2023-06-02T09:50:31.000Z</time>
      </trkpt>
      <trkpt lat="46.21307" lon="-1.43981">
        <ele>2.48377</ele>
        <time>2023-06-02T09:50:32.000Z</time>
      </trkpt>
      <trkpt lat="46.21309" lon="-1.43978">
        <ele>2.49269</ele>
        <time>2023-06-02T09:50:33.000Z</time>
      </trkpt>
      <trkpt lat="46.2131" lon="-1.43974">
        <ele>2.49386</ele>
        <time>2023-06-02T09:50:34.000Z</time>
      </trkpt>
      <trkpt lat="46.21311" lon="-1.4397">
        <ele>2.46133</ele>
        <time>2023-06-02T09:50:35.000Z</time>
      </trkpt>
      <trkpt lat="46.21312" lon="-1.43966">
        <ele>2.48377</ele>
        <time>2023-06-02T09:50:36.000Z</time>
      </trkpt>
      <trkpt lat="46.21313" lon="-1.43963">
        <ele>2.51268</ele>
        <time>2023-06-02T09:50:37.000Z</time>
      </trkpt>
      <trkpt lat="46.21314" lon="-1.43959">
        <ele>2.54708</ele>
        <time>2023-06-02T09:50:38.000Z</time>
      </trkpt>
      <trkpt lat="46.21315" lon="-1.43955">
        <ele>2.59023</ele>
        <time>2023-06-02T09:50:39.000Z</time>
      </trkpt>
      <trkpt lat="46.21316" lon="-1.43951">
        <ele>2.58991</ele>
        <time>2023-06-02T09:50:40.000Z</time>
      </trkpt>
      <trkpt lat="46.21317" lon="-1.43948">
        <ele>2.60511</ele>
        <time>2023-06-02T09:50:41.000Z</time>
      </trkpt>
      <trkpt lat="46.21319" lon="-1.43944">
        <ele>2.63942</ele>
        <time>2023-06-02T09:50:42.000Z</time>
      </trkpt>
      <trkpt lat="46.2132" lon="-1.4394">
        <ele>2.65944</ele>
        <time>2023-06-02T09:50:43.000Z</time>
      </trkpt>
      <trkpt lat="46.21321" lon="-1.43936">
        <ele>2.67075</ele>
        <time>2023-06-02T09:50:44.000Z</time>
      </trkpt>
      <trkpt lat="46.21322" lon="-1.43932">
        <ele>2.68223</ele>
        <time>2023-06-02T09:50:45.000Z</time>
      </trkpt>
      <trkpt lat="46.21323" lon="-1.43929">
        <ele>2.6946</ele>
        <time>2023-06-02T09:50:46.000Z</time>
      </trkpt>
      <trkpt lat="46.21324" lon="-1.43926">
        <ele>2.70093</ele>
        <time>2023-06-02T09:50:47.000Z</time>
      </trkpt>
      <trkpt lat="46.21325" lon="-1.43922">
        <ele>2.66487</ele>
        <time>2023-06-02T09:50:48.000Z</time>
      </trkpt>
      <trkpt lat="46.21326" lon="-1.43919">
        <ele>2.60982</ele>
        <time>2023-06-02T09:50:49.000Z</time>
      </trkpt>
      <trkpt lat="46.21327" lon="-1.43915">
        <ele>2.61729</ele>
        <time>2023-06-02T09:50:50.000Z</time>
      </trkpt>
      <trkpt lat="46.21327" lon="-1.43911">
        <ele>2.60017</ele>
        <time>2023-06-02T09:50:51.000Z</time>
      </trkpt>
      <trkpt lat="46.21329" lon="-1.43907">
        <ele>2.59878</ele>
        <time>2023-06-02T09:50:52.000Z</time>
      </trkpt>
      <trkpt lat="46.2133" lon="-1.43904">
        <ele>2.5726</ele>
        <time>2023-06-02T09:50:53.000Z</time>
      </trkpt>
      <trkpt lat="46.21331" lon="-1.439">
        <ele>2.55461</ele>
        <time>2023-06-02T09:50:54.000Z</time>
      </trkpt>
      <trkpt lat="46.21331" lon="-1.43896">
        <ele>2.55535</ele>
        <time>2023-06-02T09:50:55.000Z</time>
      </trkpt>
      <trkpt lat="46.21332" lon="-1.43892">
        <ele>2.56969</ele>
        <time>2023-06-02T09:50:56.000Z</time>
      </trkpt>
      <trkpt lat="46.21333" lon="-1.43888">
        <ele>2.57497</ele>
        <time>2023-06-02T09:50:57.000Z</time>
      </trkpt>
      <trkpt lat="46.21334" lon="-1.43884">
        <ele>2.58571</ele>
        <time>2023-06-02T09:50:58.000Z</time>
      </trkpt>
      <trkpt lat="46.21335" lon="-1.43881">
        <ele>2.61097</ele>
        <time>2023-06-02T09:50:59.000Z</time>
      </trkpt>
      <trkpt lat="46.21336" lon="-1.43877">
        <ele>2.62497</ele>
        <time>2023-06-02T09:51:00.000Z</time>
      </trkpt>
      <trkpt lat="46.21337" lon="-1.43873">
        <ele>2.65578</ele>
        <time>2023-06-02T09:51:01.000Z</time>
      </trkpt>
      <trkpt lat="46.21337" lon="-1.43869">
        <ele>2.67645</ele>
        <time>2023-06-02T09:51:02.000Z</time>
      </trkpt>
      <trkpt lat="46.21337" lon="-1.43865">
        <ele>2.69806</ele>
        <time>2023-06-02T09:51:03.000Z</time>
      </trkpt>
      <trkpt lat="46.21337" lon="-1.43861">
        <ele>2.7127</ele>
        <time>2023-06-02T09:51:04.000Z</time>
      </trkpt>
      <trkpt lat="46.21337" lon="-1.43857">
        <ele>2.72027</ele>
        <time>2023-06-02T09:51:05.000Z</time>
      </trkpt>
      <trkpt lat="46.21338" lon="-1.43853">
        <ele>2.71447</ele>
        <time>2023-06-02T09:51:06.000Z</time>
      </trkpt>
      <trkpt lat="46.21338" lon="-1.43849">
        <ele>2.70848</ele>
        <time>2023-06-02T09:51:07.000Z</time>
      </trkpt>
      <trkpt lat="46.21338" lon="-1.43845">
        <ele>2.75105</ele>
        <time>2023-06-02T09:51:08.000Z</time>
      </trkpt>
      <trkpt lat="46.21338" lon="-1.43841">
        <ele>2.80617</ele>
        <time>2023-06-02T09:51:09.000Z</time>
      </trkpt>
      <trkpt lat="46.21338" lon="-1.43837">
        <ele>2.81241</ele>
        <time>2023-06-02T09:51:10.000Z</time>
      </trkpt>
      <trkpt lat="46.21337" lon="-1.43833">
        <ele>2.81374</ele>
        <time>2023-06-02T09:51:11.000Z</time>
      </trkpt>
      <trkpt lat="46.21337" lon="-1.43828">
        <ele>2.80505</ele>
        <time>2023-06-02T09:51:12.000Z</time>
      </trkpt>
      <trkpt lat="46.21336" lon="-1.43823">
        <ele>2.79982</ele>
        <time>2023-06-02T09:51:13.000Z</time>
      </trkpt>
      <trkpt lat="46.21335" lon="-1.43819">
        <ele>2.78775</ele>
        <time>2023-06-02T09:51:14.000Z</time>
      </trkpt>
      <trkpt lat="46.21333" lon="-1.43814">
        <ele>2.74753</ele>
        <time>2023-06-02T09:51:15.000Z</time>
      </trkpt>
      <trkpt lat="46.21332" lon="-1.4381">
        <ele>2.68856</ele>
        <time>2023-06-02T09:51:16.000Z</time>
      </trkpt>
      <trkpt lat="46.2133" lon="-1.43806">
        <ele>2.63996</ele>
        <time>2023-06-02T09:51:17.000Z</time>
      </trkpt>
      <trkpt lat="46.21328" lon="-1.43802">
        <ele>2.59955</ele>
        <time>2023-06-02T09:51:18.000Z</time>
      </trkpt>
      <trkpt lat="46.21326" lon="-1.43798">
        <ele>2.55805</ele>
        <time>2023-06-02T09:51:19.000Z</time>
      </trkpt>
      <trkpt lat="46.21323" lon="-1.43794">
        <ele>2.52075</ele>
        <time>2023-06-02T09:51:20.000Z</time>
      </trkpt>
      <trkpt lat="46.21321" lon="-1.4379">
        <ele>2.46567</ele>
        <time>2023-06-02T09:51:21.000Z</time>
      </trkpt>
      <trkpt lat="46.21319" lon="-1.43786">
        <ele>2.40027</ele>
        <time>2023-06-02T09:51:22.000Z</time>
      </trkpt>
      <trkpt lat="46.21317" lon="-1.43782">
        <ele>2.34987</ele>
        <time>2023-06-02T09:51:23.000Z</time>
      </trkpt>
      <trkpt lat="46.21315" lon="-1.43779">
        <ele>2.29782</ele>
        <time>2023-06-02T09:51:24.000Z</time>
      </trkpt>
      <trkpt lat="46.21313" lon="-1.43775">
        <ele>2.2424</ele>
        <time>2023-06-02T09:51:25.000Z</time>
      </trkpt>
      <trkpt lat="46.21311" lon="-1.43771">
        <ele>2.1985</ele>
        <time>2023-06-02T09:51:26.000Z</time>
      </trkpt>
      <trkpt lat="46.21309" lon="-1.43767">
        <ele>2.16056</ele>
        <time>2023-06-02T09:51:27.000Z</time>
      </trkpt>
      <trkpt lat="46.21308" lon="-1.43763">
        <ele>2.11875</ele>
        <time>2023-06-02T09:51:28.000Z</time>
      </trkpt>
      <trkpt lat="46.21306" lon="-1.43759">
        <ele>2.08046</ele>
        <time>2023-06-02T09:51:29.000Z</time>
      </trkpt>
      <trkpt lat="46.21304" lon="-1.43756">
        <ele>2.02512</ele>
        <time>2023-06-02T09:51:30.000Z</time>
      </trkpt>
      <trkpt lat="46.21302" lon="-1.43752">
        <ele>1.99231</ele>
        <time>2023-06-02T09:51:31.000Z</time>
      </trkpt>
      <trkpt lat="46.213" lon="-1.43749">
        <ele>1.94918</ele>
        <time>2023-06-02T09:51:32.000Z</time>
      </trkpt>
      <trkpt lat="46.21297" lon="-1.43746">
        <ele>1.91644</ele>
        <time>2023-06-02T09:51:33.000Z</time>
      </trkpt>
      <trkpt lat="46.21294" lon="-1.43746">
        <ele>1.8746</ele>
        <time>2023-06-02T09:51:34.000Z</time>
      </trkpt>
      <trkpt lat="46.21291" lon="-1.43747">
        <ele>1.8088</ele>
        <time>2023-06-02T09:51:35.000Z</time>
      </trkpt>
      <trkpt lat="46.21288" lon="-1.4375">
        <ele>1.72153</ele>
        <time>2023-06-02T09:51:36.000Z</time>
      </trkpt>
      <trkpt lat="46.21285" lon="-1.43753">
        <ele>1.64083</ele>
        <time>2023-06-02T09:51:37.000Z</time>
      </trkpt>
      <trkpt lat="46.21282" lon="-1.43756">
        <ele>1.54507</ele>
        <time>2023-06-02T09:51:38.000Z</time>
      </trkpt>
      <trkpt lat="46.2128" lon="-1.43759">
        <ele>1.44538</ele>
        <time>2023-06-02T09:51:39.000Z</time>
      </trkpt>
      <trkpt lat="46.21277" lon="-1.43762">
        <ele>1.4104</ele>
        <time>2023-06-02T09:51:40.000Z</time>
      </trkpt>
      <trkpt lat="46.21275" lon="-1.43765">
        <ele>1.35668</ele>
        <time>2023-06-02T09:51:41.000Z</time>
      </trkpt>
      <trkpt lat="46.21272" lon="-1.43768">
        <ele>1.31153</ele>
        <time>2023-06-02T09:51:42.000Z</time>
      </trkpt>
      <trkpt lat="46.2127" lon="-1.43771">
        <ele>1.26745</ele>
        <time>2023-06-02T09:51:43.000Z</time>
      </trkpt>
      <trkpt lat="46.21268" lon="-1.43775">
        <ele>1.22634</ele>
        <time>2023-06-02T09:51:44.000Z</time>
      </trkpt>
      <trkpt lat="46.21268" lon="-1.43775">
        <ele>1.22634</ele>
        <time>2023-06-02T09:51:44.000Z</time>
      </trkpt>
      <trkpt lat="46.20806" lon="-1.44154">
        <ele>1.20756</ele>
        <time>2023-06-02T09:54:28.000Z</time>
      </trkpt>
      <trkpt lat="46.20806" lon="-1.44154">
        <ele>1.20756</ele>
        <time>2023-06-02T09:54:28.000Z</time>
      </trkpt>
      <trkpt lat="46.20804" lon="-1.44159">
        <ele>1.16043</ele>
        <time>2023-06-02T09:54:29.000Z</time>
      </trkpt>
      <trkpt lat="46.20801" lon="-1.44163">
        <ele>1.10783</ele>
        <time>2023-06-02T09:54:30.000Z</time>
      </trkpt>
      <trkpt lat="46.20798" lon="-1.44166">
        <ele>1.06085</ele>
        <time>2023-06-02T09:54:31.000Z</time>
      </trkpt>
      <trkpt lat="46.20795" lon="-1.4417">
        <ele>1.01624</ele>
        <time>2023-06-02T09:54:32.000Z</time>
      </trkpt>
      <trkpt lat="46.20792" lon="-1.44174">
        <ele>0.99649</ele>
        <time>2023-06-02T09:54:33.000Z</time>
      </trkpt>
      <trkpt lat="46.20789" lon="-1.44179">
        <ele>0.97432</ele>
        <time>2023-06-02T09:54:34.000Z</time>
      </trkpt>
      <trkpt lat="46.20786" lon="-1.44184">
        <ele>0.96516</ele>
        <time>2023-06-02T09:54:35.000Z</time>
      </trkpt>
      <trkpt lat="46.20783" lon="-1.44189">
        <ele>0.94775</ele>
        <time>2023-06-02T09:54:36.000Z</time>
      </trkpt>
      <trkpt lat="46.20779" lon="-1.44194">
        <ele>0.9602</ele>
        <time>2023-06-02T09:54:37.000Z</time>
      </trkpt>
      <trkpt lat="46.20775" lon="-1.44197">
        <ele>1.00147</ele>
        <time>2023-06-02T09:54:38.000Z</time>
      </trkpt>
      <trkpt lat="46.20772" lon="-1.44202">
        <ele>1.0626</ele>
        <time>2023-06-02T09:54:39.000Z</time>
      </trkpt>
      <trkpt lat="46.2077" lon="-1.44206">
        <ele>1.08574</ele>
        <time>2023-06-02T09:54:40.000Z</time>
      </trkpt>
      <trkpt lat="46.20767" lon="-1.44211">
        <ele>1.13085</ele>
        <time>2023-06-02T09:54:41.000Z</time>
      </trkpt>
      <trkpt lat="46.20764" lon="-1.44216">
        <ele>1.15482</ele>
        <time>2023-06-02T09:54:42.000Z</time>
      </trkpt>
      <trkpt lat="46.20762" lon="-1.4422">
        <ele>1.18528</ele>
        <time>2023-06-02T09:54:43.000Z</time>
      </trkpt>
      <trkpt lat="46.20759" lon="-1.44225">
        <ele>1.22868</ele>
        <time>2023-06-02T09:54:44.000Z</time>
      </trkpt>
      <trkpt lat="46.20756" lon="-1.44229">
        <ele>1.25854</ele>
        <time>2023-06-02T09:54:45.000Z</time>
      </trkpt>
      <trkpt lat="46.20754" lon="-1.44234">
        <ele>1.28899</ele>
        <time>2023-06-02T09:54:46.000Z</time>
      </trkpt>
      <trkpt lat="46.20751" lon="-1.44238">
        <ele>1.35655</ele>
        <time>2023-06-02T09:54:47.000Z</time>
      </trkpt>
      <trkpt lat="46.20748" lon="-1.44242">
        <ele>1.43888</ele>
        <time>2023-06-02T09:54:48.000Z</time>
      </trkpt>
      <trkpt lat="46.20746" lon="-1.44247">
        <ele>1.55514</ele>
        <time>2023-06-02T09:54:49.000Z</time>
      </trkpt>
      <trkpt lat="46.20744" lon="-1.44251">
        <ele>1.66844</ele>
        <time>2023-06-02T09:54:50.000Z</time>
      </trkpt>
      <trkpt lat="46.20742" lon="-1.44256">
        <ele>1.7728</ele>
        <time>2023-06-02T09:54:51.000Z</time>
      </trkpt>
      <trkpt lat="46.20739" lon="-1.44261">
        <ele>1.86839</ele>
        <time>2023-06-02T09:54:52.000Z</time>
      </trkpt>
      <trkpt lat="46.20737" lon="-1.44265">
        <ele>1.93914</ele>
        <time>2023-06-02T09:54:53.000Z</time>
      </trkpt>
      <trkpt lat="46.20734" lon="-1.44269">
        <ele>2.00831</ele>
        <time>2023-06-02T09:54:54.000Z</time>
      </trkpt>
      <trkpt lat="46.20731" lon="-1.44274">
        <ele>2.09959</ele>
        <time>2023-06-02T09:54:55.000Z</time>
      </trkpt>
      <trkpt lat="46.20728" lon="-1.44278">
        <ele>2.19339</ele>
        <time>2023-06-02T09:54:56.000Z</time>
      </trkpt>
      <trkpt lat="46.20725" lon="-1.44283">
        <ele>2.27674</ele>
        <time>2023-06-02T09:54:57.000Z</time>
      </trkpt>
      <trkpt lat="46.20723" lon="-1.44287">
        <ele>2.3363</ele>
        <time>2023-06-02T09:54:58.000Z</time>
      </trkpt>
      <trkpt lat="46.20719" lon="-1.44291">
        <ele>2.37651</ele>
        <time>2023-06-02T09:54:59.000Z</time>
      </trkpt>
      <trkpt lat="46.20716" lon="-1.44295">
        <ele>2.45935</ele>
        <time>2023-06-02T09:55:00.000Z</time>
      </trkpt>
      <trkpt lat="46.20712" lon="-1.44299">
        <ele>2.51084</ele>
        <time>2023-06-02T09:55:01.000Z</time>
      </trkpt>
      <trkpt lat="46.20709" lon="-1.44304">
        <ele>2.59144</ele>
        <time>2023-06-02T09:55:02.000Z</time>
      </trkpt>
      <trkpt lat="46.20705" lon="-1.44308">
        <ele>2.59969</ele>
        <time>2023-06-02T09:55:03.000Z</time>
      </trkpt>
      <trkpt lat="46.20702" lon="-1.44312">
        <ele>2.64156</ele>
        <time>2023-06-02T09:55:04.000Z</time>
      </trkpt>
      <trkpt lat="46.20698" lon="-1.44317">
        <ele>2.6807</ele>
        <time>2023-06-02T09:55:05.000Z</time>
      </trkpt>
      <trkpt lat="46.20695" lon="-1.44321">
        <ele>2.7152</ele>
        <time>2023-06-02T09:55:06.000Z</time>
      </trkpt>
      <trkpt lat="46.20691" lon="-1.44326">
        <ele>2.69305</ele>
        <time>2023-06-02T09:55:07.000Z</time>
      </trkpt>
      <trkpt lat="46.20688" lon="-1.4433">
        <ele>2.66723</ele>
        <time>2023-06-02T09:55:08.000Z</time>
      </trkpt>
      <trkpt lat="46.20684" lon="-1.44334">
        <ele>2.64768</ele>
        <time>2023-06-02T09:55:09.000Z</time>
      </trkpt>
      <trkpt lat="46.20681" lon="-1.44339">
        <ele>2.64836</ele>
        <time>2023-06-02T09:55:10.000Z</time>
      </trkpt>
      <trkpt lat="46.20677" lon="-1.44342">
        <ele>2.64333</ele>
        <time>2023-06-02T09:55:11.000Z</time>
      </trkpt>
      <trkpt lat="46.20675" lon="-1.44348">
        <ele>2.58654</ele>
        <time>2023-06-02T09:55:12.000Z</time>
      </trkpt>
      <trkpt lat="46.20672" lon="-1.44351">
        <ele>2.52926</ele>
        <time>2023-06-02T09:55:13.000Z</time>
      </trkpt>
      <trkpt lat="46.20668" lon="-1.44356">
        <ele>2.45014</ele>
        <time>2023-06-02T09:55:14.000Z</time>
      </trkpt>
      <trkpt lat="46.20664" lon="-1.4436">
        <ele>2.33944</ele>
        <time>2023-06-02T09:55:15.000Z</time>
      </trkpt>
      <trkpt lat="46.20662" lon="-1.44364">
        <ele>2.27625</ele>
        <time>2023-06-02T09:55:16.000Z</time>
      </trkpt>
      <trkpt lat="46.20659" lon="-1.44369">
        <ele>2.20285</ele>
        <time>2023-06-02T09:55:17.000Z</time>
      </trkpt>
      <trkpt lat="46.20655" lon="-1.44372">
        <ele>2.1513</ele>
        <time>2023-06-02T09:55:18.000Z</time>
      </trkpt>
      <trkpt lat="46.20652" lon="-1.44376">
        <ele>2.12403</ele>
        <time>2023-06-02T09:55:19.000Z</time>
      </trkpt>
      <trkpt lat="46.20649" lon="-1.4438">
        <ele>2.07896</ele>
        <time>2023-06-02T09:55:20.000Z</time>
      </trkpt>
      <trkpt lat="46.20647" lon="-1.44385">
        <ele>2.03906</ele>
        <time>2023-06-02T09:55:21.000Z</time>
      </trkpt>
      <trkpt lat="46.20645" lon="-1.4439">
        <ele>2.01585</ele>
        <time>2023-06-02T09:55:22.000Z</time>
      </trkpt>
      <trkpt lat="46.20642" lon="-1.44393">
        <ele>2.00572</ele>
        <time>2023-06-02T09:55:23.000Z</time>
      </trkpt>
      <trkpt lat="46.2064" lon="-1.44398">
        <ele>1.96309</ele>
        <time>2023-06-02T09:55:24.000Z</time>
      </trkpt>
      <trkpt lat="46.20638" lon="-1.44403">
        <ele>1.93662</ele>
        <time>2023-06-02T09:55:25.000Z</time>
      </trkpt>
      <trkpt lat="46.20637" lon="-1.44408">
        <ele>1.92307</ele>
        <time>2023-06-02T09:55:26.000Z</time>
      </trkpt>
      <trkpt lat="46.20638" lon="-1.44414">
        <ele>1.9254</ele>
        <time>2023-06-02T09:55:27.000Z</time>
      </trkpt>
      <trkpt lat="46.20642" lon="-1.44419">
        <ele>1.89981</ele>
        <time>2023-06-02T09:55:28.000Z</time>
      </trkpt>
      <trkpt lat="46.20643" lon="-1.44426">
        <ele>1.85475</ele>
        <time>2023-06-02T09:55:29.000Z</time>
      </trkpt>
      <trkpt lat="46.20645" lon="-1.44432">
        <ele>1.79987</ele>
        <time>2023-06-02T09:55:30.000Z</time>
      </trkpt>
      <trkpt lat="46.20646" lon="-1.44438">
        <ele>1.76121</ele>
        <time>2023-06-02T09:55:31.000Z</time>
      </trkpt>
      <trkpt lat="46.20649" lon="-1.44443">
        <ele>1.75824</ele>
        <time>2023-06-02T09:55:32.000Z</time>
      </trkpt>
      <trkpt lat="46.20651" lon="-1.44448">
        <ele>1.75157</ele>
        <time>2023-06-02T09:55:33.000Z</time>
      </trkpt>
      <trkpt lat="46.20653" lon="-1.44455">
        <ele>1.77033</ele>
        <time>2023-06-02T09:55:34.000Z</time>
      </trkpt>
      <trkpt lat="46.20655" lon="-1.44461">
        <ele>1.78992</ele>
        <time>2023-06-02T09:55:35.000Z</time>
      </trkpt>
      <trkpt lat="46.20657" lon="-1.44468">
        <ele>1.78834</ele>
        <time>2023-06-02T09:55:36.000Z</time>
      </trkpt>
      <trkpt lat="46.20659" lon="-1.44474">
        <ele>1.8014</ele>
        <time>2023-06-02T09:55:37.000Z</time>
      </trkpt>
      <trkpt lat="46.20661" lon="-1.4448">
        <ele>1.81744</ele>
        <time>2023-06-02T09:55:38.000Z</time>
      </trkpt>
      <trkpt lat="46.20663" lon="-1.44486">
        <ele>1.8468</ele>
        <time>2023-06-02T09:55:39.000Z</time>
      </trkpt>
      <trkpt lat="46.20665" lon="-1.44492">
        <ele>1.90368</ele>
        <time>2023-06-02T09:55:40.000Z</time>
      </trkpt>
      <trkpt lat="46.20667" lon="-1.44498">
        <ele>1.96457</ele>
        <time>2023-06-02T09:55:41.000Z</time>
      </trkpt>
      <trkpt lat="46.20668" lon="-1.44504">
        <ele>1.98987</ele>
        <time>2023-06-02T09:55:42.000Z</time>
      </trkpt>
      <trkpt lat="46.20671" lon="-1.44509">
        <ele>1.9896</ele>
        <time>2023-06-02T09:55:43.000Z</time>
      </trkpt>
      <trkpt lat="46.20674" lon="-1.44517">
        <ele>1.95488</ele>
        <time>2023-06-02T09:55:44.000Z</time>
      </trkpt>
      <trkpt lat="46.20675" lon="-1.44523">
        <ele>1.93701</ele>
        <time>2023-06-02T09:55:45.000Z</time>
      </trkpt>
      <trkpt lat="46.20677" lon="-1.44528">
        <ele>1.92134</ele>
        <time>2023-06-02T09:55:46.000Z</time>
      </trkpt>
      <trkpt lat="46.20679" lon="-1.44535">
        <ele>1.90943</ele>
        <time>2023-06-02T09:55:47.000Z</time>
      </trkpt>
      <trkpt lat="46.20682" lon="-1.44541">
        <ele>1.88538</ele>
        <time>2023-06-02T09:55:48.000Z</time>
      </trkpt>
      <trkpt lat="46.20684" lon="-1.44548">
        <ele>1.86198</ele>
        <time>2023-06-02T09:55:49.000Z</time>
      </trkpt>
      <trkpt lat="46.20686" lon="-1.44554">
        <ele>1.8283</ele>
        <time>2023-06-02T09:55:50.000Z</time>
      </trkpt>
      <trkpt lat="46.20689" lon="-1.44561">
        <ele>1.78271</ele>
        <time>2023-06-02T09:55:51.000Z</time>
      </trkpt>
      <trkpt lat="46.20691" lon="-1.44567">
        <ele>1.74474</ele>
        <time>2023-06-02T09:55:52.000Z</time>
      </trkpt>
      <trkpt lat="46.20693" lon="-1.44574">
        <ele>1.72769</ele>
        <time>2023-06-02T09:55:53.000Z</time>
      </trkpt>
      <trkpt lat="46.20695" lon="-1.44581">
        <ele>1.70753</ele>
        <time>2023-06-02T09:55:54.000Z</time>
      </trkpt>
      <trkpt lat="46.20697" lon="-1.44589">
        <ele>1.70011</ele>
        <time>2023-06-02T09:55:55.000Z</time>
      </trkpt>
      <trkpt lat="46.207" lon="-1.44596">
        <ele>1.64096</ele>
        <time>2023-06-02T09:55:56.000Z</time>
      </trkpt>
      <trkpt lat="46.20702" lon="-1.44603">
        <ele>1.58877</ele>
        <time>2023-06-02T09:55:57.000Z</time>
      </trkpt>
      <trkpt lat="46.20704" lon="-1.4461">
        <ele>1.53599</ele>
        <time>2023-06-02T09:55:58.000Z</time>
      </trkpt>
      <trkpt lat="46.20707" lon="-1.44617">
        <ele>1.46634</ele>
        <time>2023-06-02T09:55:59.000Z</time>
      </trkpt>
      <trkpt lat="46.20709" lon="-1.44623">
        <ele>1.36529</ele>
        <time>2023-06-02T09:56:00.000Z</time>
      </trkpt>
      <trkpt lat="46.20711" lon="-1.44631">
        <ele>1.27736</ele>
        <time>2023-06-02T09:56:01.000Z</time>
      </trkpt>
      <trkpt lat="46.20714" lon="-1.44638">
        <ele>1.19433</ele>
        <time>2023-06-02T09:56:02.000Z</time>
      </trkpt>
      <trkpt lat="46.20717" lon="-1.44645">
        <ele>1.12909</ele>
        <time>2023-06-02T09:56:03.000Z</time>
      </trkpt>
      <trkpt lat="46.20719" lon="-1.44652">
        <ele>1.09689</ele>
        <time>2023-06-02T09:56:04.000Z</time>
      </trkpt>
      <trkpt lat="46.20721" lon="-1.44659">
        <ele>1.04889</ele>
        <time>2023-06-02T09:56:05.000Z</time>
      </trkpt>
      <trkpt lat="46.20724" lon="-1.44667">
        <ele>1.00377</ele>
        <time>2023-06-02T09:56:06.000Z</time>
      </trkpt>
      <trkpt lat="46.20726" lon="-1.44674">
        <ele>0.95921</ele>
        <time>2023-06-02T09:56:07.000Z</time>
      </trkpt>
      <trkpt lat="46.20728" lon="-1.44682">
        <ele>0.92479</ele>
        <time>2023-06-02T09:56:08.000Z</time>
      </trkpt>
      <trkpt lat="46.20731" lon="-1.44689">
        <ele>0.88517</ele>
        <time>2023-06-02T09:56:09.000Z</time>
      </trkpt>
      <trkpt lat="46.20733" lon="-1.44697">
        <ele>0.85853</ele>
        <time>2023-06-02T09:56:10.000Z</time>
      </trkpt>
      <trkpt lat="46.20735" lon="-1.44704">
        <ele>0.82638</ele>
        <time>2023-06-02T09:56:11.000Z</time>
      </trkpt>
      <trkpt lat="46.20738" lon="-1.44712">
        <ele>0.79883</ele>
        <time>2023-06-02T09:56:12.000Z</time>
      </trkpt>
      <trkpt lat="46.2074" lon="-1.44719">
        <ele>0.76533</ele>
        <time>2023-06-02T09:56:13.000Z</time>
      </trkpt>
      <trkpt lat="46.20743" lon="-1.44727">
        <ele>0.72369</ele>
        <time>2023-06-02T09:56:14.000Z</time>
      </trkpt>
      <trkpt lat="46.20745" lon="-1.44735">
        <ele>0.68004</ele>
        <time>2023-06-02T09:56:15.000Z</time>
      </trkpt>
      <trkpt lat="46.20748" lon="-1.44742">
        <ele>0.6741</ele>
        <time>2023-06-02T09:56:16.000Z</time>
      </trkpt>
      <trkpt lat="46.2075" lon="-1.44749">
        <ele>0.64558</ele>
        <time>2023-06-02T09:56:17.000Z</time>
      </trkpt>
      <trkpt lat="46.20752" lon="-1.44757">
        <ele>0.61308</ele>
        <time>2023-06-02T09:56:18.000Z</time>
      </trkpt>
      <trkpt lat="46.20755" lon="-1.44764">
        <ele>0.57854</ele>
        <time>2023-06-02T09:56:19.000Z</time>
      </trkpt>
      <trkpt lat="46.20757" lon="-1.44772">
        <ele>0.56137</ele>
        <time>2023-06-02T09:56:20.000Z</time>
      </trkpt>
      <trkpt lat="46.2076" lon="-1.44779">
        <ele>0.53811</ele>
        <time>2023-06-02T09:56:21.000Z</time>
      </trkpt>
      <trkpt lat="46.20762" lon="-1.44786">
        <ele>0.46391</ele>
        <time>2023-06-02T09:56:22.000Z</time>
      </trkpt>
      <trkpt lat="46.20765" lon="-1.44792">
        <ele>0.39866</ele>
        <time>2023-06-02T09:56:23.000Z</time>
      </trkpt>
      <trkpt lat="46.20768" lon="-1.44801">
        <ele>0.3235</ele>
        <time>2023-06-02T09:56:24.000Z</time>
      </trkpt>
      <trkpt lat="46.2077" lon="-1.44808">
        <ele>0.24062</ele>
        <time>2023-06-02T09:56:25.000Z</time>
      </trkpt>
      <trkpt lat="46.20773" lon="-1.44814">
        <ele>0.16714</ele>
        <time>2023-06-02T09:56:26.000Z</time>
      </trkpt>
      <trkpt lat="46.20776" lon="-1.44821">
        <ele>0.08724</ele>
        <time>2023-06-02T09:56:27.000Z</time>
      </trkpt>
      <trkpt lat="46.20778" lon="-1.44828">
        <ele>0.01473</ele>
        <time>2023-06-02T09:56:28.000Z</time>
      </trkpt>
      <trkpt lat="46.2078" lon="-1.44835">
        <ele>-0.04484</ele>
        <time>2023-06-02T09:56:29.000Z</time>
      </trkpt>
      <trkpt lat="46.20782" lon="-1.44842">
        <ele>-0.10017</ele>
        <time>2023-06-02T09:56:30.000Z</time>
      </trkpt>
      <trkpt lat="46.20784" lon="-1.44849">
        <ele>-0.14762</ele>
        <time>2023-06-02T09:56:31.000Z</time>
      </trkpt>
      <trkpt lat="46.20786" lon="-1.44857">
        <ele>-0.19862</ele>
        <time>2023-06-02T09:56:32.000Z</time>
      </trkpt>
      <trkpt lat="46.20789" lon="-1.44864">
        <ele>-0.25128</ele>
        <time>2023-06-02T09:56:33.000Z</time>
      </trkpt>
      <trkpt lat="46.20791" lon="-1.44871">
        <ele>-0.30112</ele>
        <time>2023-06-02T09:56:34.000Z</time>
      </trkpt>
      <trkpt lat="46.20793" lon="-1.44878">
        <ele>-0.35316</ele>
        <time>2023-06-02T09:56:35.000Z</time>
      </trkpt>
      <trkpt lat="46.20795" lon="-1.44886">
        <ele>-0.37126</ele>
        <time>2023-06-02T09:56:36.000Z</time>
      </trkpt>
      <trkpt lat="46.20797" lon="-1.44893">
        <ele>-0.39107</ele>
        <time>2023-06-02T09:56:37.000Z</time>
      </trkpt>
      <trkpt lat="46.20799" lon="-1.44901">
        <ele>-0.38491</ele>
        <time>2023-06-02T09:56:38.000Z</time>
      </trkpt>
      <trkpt lat="46.20801" lon="-1.44908">
        <ele>-0.39274</ele>
        <time>2023-06-02T09:56:39.000Z</time>
      </trkpt>
      <trkpt lat="46.20804" lon="-1.44916">
        <ele>-0.39775</ele>
        <time>2023-06-02T09:56:40.000Z</time>
      </trkpt>
      <trkpt lat="46.20807" lon="-1.44923">
        <ele>-0.40643</ele>
        <time>2023-06-02T09:56:41.000Z</time>
      </trkpt>
      <trkpt lat="46.2081" lon="-1.4493">
        <ele>-0.35732</ele>
        <time>2023-06-02T09:56:42.000Z</time>
      </trkpt>
      <trkpt lat="46.20812" lon="-1.44938">
        <ele>-0.32595</ele>
        <time>2023-06-02T09:56:43.000Z</time>
      </trkpt>
      <trkpt lat="46.20814" lon="-1.44944">
        <ele>-0.26552</ele>
        <time>2023-06-02T09:56:44.000Z</time>
      </trkpt>
      <trkpt lat="46.20817" lon="-1.44952">
        <ele>-0.20068</ele>
        <time>2023-06-02T09:56:45.000Z</time>
      </trkpt>
      <trkpt lat="46.20819" lon="-1.44959">
        <ele>-0.15079</ele>
        <time>2023-06-02T09:56:46.000Z</time>
      </trkpt>
      <trkpt lat="46.20822" lon="-1.44966">
        <ele>-0.09456</ele>
        <time>2023-06-02T09:56:47.000Z</time>
      </trkpt>
      <trkpt lat="46.20824" lon="-1.44973">
        <ele>-0.02846</ele>
        <time>2023-06-02T09:56:48.000Z</time>
      </trkpt>
      <trkpt lat="46.20827" lon="-1.4498">
        <ele>0.03653</ele>
        <time>2023-06-02T09:56:49.000Z</time>
      </trkpt>
      <trkpt lat="46.20829" lon="-1.44988">
        <ele>0.09634</ele>
        <time>2023-06-02T09:56:50.000Z</time>
      </trkpt>
      <trkpt lat="46.20832" lon="-1.44995">
        <ele>0.13949</ele>
        <time>2023-06-02T09:56:51.000Z</time>
      </trkpt>
      <trkpt lat="46.20835" lon="-1.45004">
        <ele>0.19099</ele>
        <time>2023-06-02T09:56:52.000Z</time>
      </trkpt>
      <trkpt lat="46.20837" lon="-1.45011">
        <ele>0.25283</ele>
        <time>2023-06-02T09:56:53.000Z</time>
      </trkpt>
      <trkpt lat="46.2084" lon="-1.45018">
        <ele>0.31116</ele>
        <time>2023-06-02T09:56:54.000Z</time>
      </trkpt>
      <trkpt lat="46.20843" lon="-1.45025">
        <ele>0.34098</ele>
        <time>2023-06-02T09:56:55.000Z</time>
      </trkpt>
      <trkpt lat="46.20845" lon="-1.45032">
        <ele>0.35501</ele>
        <time>2023-06-02T09:56:56.000Z</time>
      </trkpt>
      <trkpt lat="46.20848" lon="-1.45039">
        <ele>0.38495</ele>
        <time>2023-06-02T09:56:57.000Z</time>
      </trkpt>
      <trkpt lat="46.2085" lon="-1.45046">
        <ele>0.38998</ele>
        <time>2023-06-02T09:56:58.000Z</time>
      </trkpt>
      <trkpt lat="46.20852" lon="-1.45053">
        <ele>0.40797</ele>
        <time>2023-06-02T09:56:59.000Z</time>
      </trkpt>
      <trkpt lat="46.20854" lon="-1.45061">
        <ele>0.41569</ele>
        <time>2023-06-02T09:57:00.000Z</time>
      </trkpt>
      <trkpt lat="46.20856" lon="-1.45068">
        <ele>0.44184</ele>
        <time>2023-06-02T09:57:01.000Z</time>
      </trkpt>
      <trkpt lat="46.20859" lon="-1.45075">
        <ele>0.47497</ele>
        <time>2023-06-02T09:57:02.000Z</time>
      </trkpt>
      <trkpt lat="46.20861" lon="-1.45083">
        <ele>0.51414</ele>
        <time>2023-06-02T09:57:03.000Z</time>
      </trkpt>
      <trkpt lat="46.20863" lon="-1.4509">
        <ele>0.548</ele>
        <time>2023-06-02T09:57:04.000Z</time>
      </trkpt>
      <trkpt lat="46.20866" lon="-1.45098">
        <ele>0.56609</ele>
        <time>2023-06-02T09:57:05.000Z</time>
      </trkpt>
      <trkpt lat="46.20869" lon="-1.45106">
        <ele>0.54534</ele>
        <time>2023-06-02T09:57:06.000Z</time>
      </trkpt>
      <trkpt lat="46.20872" lon="-1.45112">
        <ele>0.49422</ele>
        <time>2023-06-02T09:57:07.000Z</time>
      </trkpt>
      <trkpt lat="46.20873" lon="-1.4512">
        <ele>0.45944</ele>
        <time>2023-06-02T09:57:08.000Z</time>
      </trkpt>
      <trkpt lat="46.20876" lon="-1.45127">
        <ele>0.40953</ele>
        <time>2023-06-02T09:57:09.000Z</time>
      </trkpt>
      <trkpt lat="46.20878" lon="-1.45135">
        <ele>0.37247</ele>
        <time>2023-06-02T09:57:10.000Z</time>
      </trkpt>
      <trkpt lat="46.20881" lon="-1.45142">
        <ele>0.35135</ele>
        <time>2023-06-02T09:57:11.000Z</time>
      </trkpt>
      <trkpt lat="46.20884" lon="-1.4515">
        <ele>0.3309</ele>
        <time>2023-06-02T09:57:12.000Z</time>
      </trkpt>
      <trkpt lat="46.20886" lon="-1.45157">
        <ele>0.3087</ele>
        <time>2023-06-02T09:57:13.000Z</time>
      </trkpt>
      <trkpt lat="46.20889" lon="-1.45165">
        <ele>0.30598</ele>
        <time>2023-06-02T09:57:14.000Z</time>
      </trkpt>
      <trkpt lat="46.20891" lon="-1.45171">
        <ele>0.31486</ele>
        <time>2023-06-02T09:57:15.000Z</time>
      </trkpt>
      <trkpt lat="46.20893" lon="-1.45178">
        <ele>0.30388</ele>
        <time>2023-06-02T09:57:16.000Z</time>
      </trkpt>
      <trkpt lat="46.20896" lon="-1.45186">
        <ele>0.3056</ele>
        <time>2023-06-02T09:57:17.000Z</time>
      </trkpt>
      <trkpt lat="46.20898" lon="-1.45193">
        <ele>0.30498</ele>
        <time>2023-06-02T09:57:18.000Z</time>
      </trkpt>
      <trkpt lat="46.20901" lon="-1.45201">
        <ele>0.29477</ele>
        <time>2023-06-02T09:57:19.000Z</time>
      </trkpt>
      <trkpt lat="46.20904" lon="-1.45208">
        <ele>0.27861</ele>
        <time>2023-06-02T09:57:20.000Z</time>
      </trkpt>
      <trkpt lat="46.20906" lon="-1.45216">
        <ele>0.24931</ele>
        <time>2023-06-02T09:57:21.000Z</time>
      </trkpt>
      <trkpt lat="46.20908" lon="-1.45224">
        <ele>0.2319</ele>
        <time>2023-06-02T09:57:22.000Z</time>
      </trkpt>
      <trkpt lat="46.20911" lon="-1.45231">
        <ele>0.19821</ele>
        <time>2023-06-02T09:57:23.000Z</time>
      </trkpt>
      <trkpt lat="46.20913" lon="-1.45239">
        <ele>0.16432</ele>
        <time>2023-06-02T09:57:24.000Z</time>
      </trkpt>
      <trkpt lat="46.20915" lon="-1.45246">
        <ele>0.15305</ele>
        <time>2023-06-02T09:57:25.000Z</time>
      </trkpt>
      <trkpt lat="46.20918" lon="-1.45253">
        <ele>0.18327</ele>
        <time>2023-06-02T09:57:26.000Z</time>
      </trkpt>
      <trkpt lat="46.2092" lon="-1.45261">
        <ele>0.25107</ele>
        <time>2023-06-02T09:57:27.000Z</time>
      </trkpt>
      <trkpt lat="46.20923" lon="-1.45267">
        <ele>0.279</ele>
        <time>2023-06-02T09:57:28.000Z</time>
      </trkpt>
      <trkpt lat="46.20926" lon="-1.45275">
        <ele>0.31162</ele>
        <time>2023-06-02T09:57:29.000Z</time>
      </trkpt>
      <trkpt lat="46.20929" lon="-1.45282">
        <ele>0.34001</ele>
        <time>2023-06-02T09:57:30.000Z</time>
      </trkpt>
      <trkpt lat="46.20931" lon="-1.45289">
        <ele>0.36367</ele>
        <time>2023-06-02T09:57:31.000Z</time>
      </trkpt>
      <trkpt lat="46.20933" lon="-1.45297">
        <ele>0.37754</ele>
        <time>2023-06-02T09:57:32.000Z</time>
      </trkpt>
      <trkpt lat="46.20936" lon="-1.45303">
        <ele>0.36473</ele>
        <time>2023-06-02T09:57:33.000Z</time>
      </trkpt>
      <trkpt lat="46.20938" lon="-1.45311">
        <ele>0.33806</ele>
        <time>2023-06-02T09:57:34.000Z</time>
      </trkpt>
      <trkpt lat="46.2094" lon="-1.45318">
        <ele>0.33385</ele>
        <time>2023-06-02T09:57:35.000Z</time>
      </trkpt>
      <trkpt lat="46.20942" lon="-1.45326">
        <ele>0.33186</ele>
        <time>2023-06-02T09:57:36.000Z</time>
      </trkpt>
      <trkpt lat="46.20945" lon="-1.45333">
        <ele>0.31067</ele>
        <time>2023-06-02T09:57:37.000Z</time>
      </trkpt>
      <trkpt lat="46.20947" lon="-1.4534">
        <ele>0.27309</ele>
        <time>2023-06-02T09:57:38.000Z</time>
      </trkpt>
      <trkpt lat="46.20949" lon="-1.45347">
        <ele>0.24991</ele>
        <time>2023-06-02T09:57:39.000Z</time>
      </trkpt>
      <trkpt lat="46.20952" lon="-1.45355">
        <ele>0.25166</ele>
        <time>2023-06-02T09:57:40.000Z</time>
      </trkpt>
      <trkpt lat="46.20954" lon="-1.45363">
        <ele>0.23948</ele>
        <time>2023-06-02T09:57:41.000Z</time>
      </trkpt>
      <trkpt lat="46.20957" lon="-1.4537">
        <ele>0.22021</ele>
        <time>2023-06-02T09:57:42.000Z</time>
      </trkpt>
      <trkpt lat="46.20958" lon="-1.45377">
        <ele>0.21805</ele>
        <time>2023-06-02T09:57:43.000Z</time>
      </trkpt>
      <trkpt lat="46.20959" lon="-1.45385">
        <ele>0.21105</ele>
        <time>2023-06-02T09:57:44.000Z</time>
      </trkpt>
      <trkpt lat="46.2096" lon="-1.45392">
        <ele>0.18659</ele>
        <time>2023-06-02T09:57:45.000Z</time>
      </trkpt>
      <trkpt lat="46.20962" lon="-1.45401">
        <ele>0.13666</ele>
        <time>2023-06-02T09:57:46.000Z</time>
      </trkpt>
      <trkpt lat="46.20963" lon="-1.45409">
        <ele>0.07422</ele>
        <time>2023-06-02T09:57:47.000Z</time>
      </trkpt>
      <trkpt lat="46.20966" lon="-1.45415">
        <ele>0.01687</ele>
        <time>2023-06-02T09:57:48.000Z</time>
      </trkpt>
      <trkpt lat="46.20969" lon="-1.45422">
        <ele>-0.04609</ele>
        <time>2023-06-02T09:57:49.000Z</time>
      </trkpt>
      <trkpt lat="46.20972" lon="-1.45429">
        <ele>-0.10239</ele>
        <time>2023-06-02T09:57:50.000Z</time>
      </trkpt>
      <trkpt lat="46.20975" lon="-1.45437">
        <ele>-0.15122</ele>
        <time>2023-06-02T09:57:51.000Z</time>
      </trkpt>
      <trkpt lat="46.20978" lon="-1.45445">
        <ele>-0.17835</ele>
        <time>2023-06-02T09:57:52.000Z</time>
      </trkpt>
      <trkpt lat="46.20981" lon="-1.45452">
        <ele>-0.19689</ele>
        <time>2023-06-02T09:57:53.000Z</time>
      </trkpt>
      <trkpt lat="46.20983" lon="-1.45459">
        <ele>-0.23637</ele>
        <time>2023-06-02T09:57:54.000Z</time>
      </trkpt>
      <trkpt lat="46.20986" lon="-1.45467">
        <ele>-0.28832</ele>
        <time>2023-06-02T09:57:55.000Z</time>
      </trkpt>
      <trkpt lat="46.20989" lon="-1.45474">
        <ele>-0.35208</ele>
        <time>2023-06-02T09:57:56.000Z</time>
      </trkpt>
      <trkpt lat="46.20991" lon="-1.45482">
        <ele>-0.40544</ele>
        <time>2023-06-02T09:57:57.000Z</time>
      </trkpt>
      <trkpt lat="46.20994" lon="-1.4549">
        <ele>-0.40727</ele>
        <time>2023-06-02T09:57:58.000Z</time>
      </trkpt>
      <trkpt lat="46.20996" lon="-1.45498">
        <ele>-0.3935</ele>
        <time>2023-06-02T09:57:59.000Z</time>
      </trkpt>
      <trkpt lat="46.20999" lon="-1.45506">
        <ele>-0.38671</ele>
        <time>2023-06-02T09:58:00.000Z</time>
      </trkpt>
      <trkpt lat="46.21002" lon="-1.45514">
        <ele>-0.38037</ele>
        <time>2023-06-02T09:58:01.000Z</time>
      </trkpt>
      <trkpt lat="46.21004" lon="-1.45522">
        <ele>-0.38242</ele>
        <time>2023-06-02T09:58:02.000Z</time>
      </trkpt>
      <trkpt lat="46.21006" lon="-1.4553">
        <ele>-0.38131</ele>
        <time>2023-06-02T09:58:03.000Z</time>
      </trkpt>
      <trkpt lat="46.21008" lon="-1.45538">
        <ele>-0.37057</ele>
        <time>2023-06-02T09:58:04.000Z</time>
      </trkpt>
      <trkpt lat="46.2101" lon="-1.45545">
        <ele>-0.34339</ele>
        <time>2023-06-02T09:58:05.000Z</time>
      </trkpt>
      <trkpt lat="46.21013" lon="-1.45552">
        <ele>-0.28944</ele>
        <time>2023-06-02T09:58:06.000Z</time>
      </trkpt>
      <trkpt lat="46.21015" lon="-1.45559">
        <ele>-0.22951</ele>
        <time>2023-06-02T09:58:07.000Z</time>
      </trkpt>
      <trkpt lat="46.21017" lon="-1.45566">
        <ele>-0.15302</ele>
        <time>2023-06-02T09:58:08.000Z</time>
      </trkpt>
      <trkpt lat="46.21019" lon="-1.45572">
        <ele>-0.07831</ele>
        <time>2023-06-02T09:58:09.000Z</time>
      </trkpt>
      <trkpt lat="46.21021" lon="-1.45579">
        <ele>-0.02316</ele>
        <time>2023-06-02T09:58:10.000Z</time>
      </trkpt>
      <trkpt lat="46.21022" lon="-1.45585">
        <ele>0.02443</ele>
        <time>2023-06-02T09:58:11.000Z</time>
      </trkpt>
      <trkpt lat="46.21024" lon="-1.45591">
        <ele>0.05951</ele>
        <time>2023-06-02T09:58:12.000Z</time>
      </trkpt>
      <trkpt lat="46.21026" lon="-1.45595">
        <ele>0.10609</ele>
        <time>2023-06-02T09:58:13.000Z</time>
      </trkpt>
      <trkpt lat="46.21028" lon="-1.45598">
        <ele>0.16127</ele>
        <time>2023-06-02T09:58:14.000Z</time>
      </trkpt>
      <trkpt lat="46.2103" lon="-1.456">
        <ele>0.23669</ele>
        <time>2023-06-02T09:58:15.000Z</time>
      </trkpt>
      <trkpt lat="46.21033" lon="-1.45601">
        <ele>0.27062</ele>
        <time>2023-06-02T09:58:16.000Z</time>
      </trkpt>
      <trkpt lat="46.21037" lon="-1.45598">
        <ele>0.32322</ele>
        <time>2023-06-02T09:58:18.000Z</time>
      </trkpt>
      <trkpt lat="46.21039" lon="-1.45597">
        <ele>0.34428</ele>
        <time>2023-06-02T09:58:19.000Z</time>
      </trkpt>
      <trkpt lat="46.21041" lon="-1.45594">
        <ele>0.3466</ele>
        <time>2023-06-02T09:58:20.000Z</time>
      </trkpt>
      <trkpt lat="46.21044" lon="-1.45593">
        <ele>0.33703</ele>
        <time>2023-06-02T09:58:21.000Z</time>
      </trkpt>
      <trkpt lat="46.21047" lon="-1.45591">
        <ele>0.32329</ele>
        <time>2023-06-02T09:58:22.000Z</time>
      </trkpt>
      <trkpt lat="46.21051" lon="-1.45589">
        <ele>0.31337</ele>
        <time>2023-06-02T09:58:23.000Z</time>
      </trkpt>
      <trkpt lat="46.21054" lon="-1.45587">
        <ele>0.29854</ele>
        <time>2023-06-02T09:58:24.000Z</time>
      </trkpt>
      <trkpt lat="46.21057" lon="-1.45585">
        <ele>0.28254</ele>
        <time>2023-06-02T09:58:25.000Z</time>
      </trkpt>
      <trkpt lat="46.21061" lon="-1.45583">
        <ele>0.25723</ele>
        <time>2023-06-02T09:58:26.000Z</time>
      </trkpt>
      <trkpt lat="46.21064" lon="-1.45581">
        <ele>0.20416</ele>
        <time>2023-06-02T09:58:27.000Z</time>
      </trkpt>
      <trkpt lat="46.21068" lon="-1.4558">
        <ele>0.15203</ele>
        <time>2023-06-02T09:58:28.000Z</time>
      </trkpt>
      <trkpt lat="46.21072" lon="-1.45579">
        <ele>0.07704</ele>
        <time>2023-06-02T09:58:29.000Z</time>
      </trkpt>
      <trkpt lat="46.21076" lon="-1.45577">
        <ele>0.01767</ele>
        <time>2023-06-02T09:58:30.000Z</time>
      </trkpt>
      <trkpt lat="46.2108" lon="-1.45576">
        <ele>-0.03254</ele>
        <time>2023-06-02T09:58:31.000Z</time>
      </trkpt>
      <trkpt lat="46.21083" lon="-1.45575">
        <ele>-0.05531</ele>
        <time>2023-06-02T09:58:32.000Z</time>
      </trkpt>
      <trkpt lat="46.21087" lon="-1.45574">
        <ele>-0.08561</ele>
        <time>2023-06-02T09:58:33.000Z</time>
      </trkpt>
      <trkpt lat="46.21091" lon="-1.45572">
        <ele>-0.11077</ele>
        <time>2023-06-02T09:58:34.000Z</time>
      </trkpt>
      <trkpt lat="46.21094" lon="-1.45571">
        <ele>-0.16591</ele>
        <time>2023-06-02T09:58:35.000Z</time>
      </trkpt>
      <trkpt lat="46.21098" lon="-1.4557">
        <ele>-0.25239</ele>
        <time>2023-06-02T09:58:36.000Z</time>
      </trkpt>
      <trkpt lat="46.21102" lon="-1.45568">
        <ele>-0.32329</ele>
        <time>2023-06-02T09:58:37.000Z</time>
      </trkpt>
      <trkpt lat="46.21106" lon="-1.45567">
        <ele>-0.45367</ele>
        <time>2023-06-02T09:58:38.000Z</time>
      </trkpt>
      <trkpt lat="46.2111" lon="-1.45566">
        <ele>-0.57928</ele>
        <time>2023-06-02T09:58:39.000Z</time>
      </trkpt>
      <trkpt lat="46.21114" lon="-1.45565">
        <ele>-0.68521</ele>
        <time>2023-06-02T09:58:40.000Z</time>
      </trkpt>
      <trkpt lat="46.21118" lon="-1.45564">
        <ele>-0.79587</ele>
        <time>2023-06-02T09:58:41.000Z</time>
      </trkpt>
      <trkpt lat="46.21122" lon="-1.45563">
        <ele>-0.87917</ele>
        <time>2023-06-02T09:58:42.000Z</time>
      </trkpt>
      <trkpt lat="46.21126" lon="-1.45562">
        <ele>-0.95615</ele>
        <time>2023-06-02T09:58:43.000Z</time>
      </trkpt>
      <trkpt lat="46.2113" lon="-1.45562">
        <ele>-1.03622</ele>
        <time>2023-06-02T09:58:44.000Z</time>
      </trkpt>
      <trkpt lat="46.21133" lon="-1.45561">
        <ele>-1.10799</ele>
        <time>2023-06-02T09:58:45.000Z</time>
      </trkpt>
      <trkpt lat="46.21136" lon="-1.4556">
        <ele>-1.15607</ele>
        <time>2023-06-02T09:58:46.000Z</time>
      </trkpt>
      <trkpt lat="46.21139" lon="-1.4556">
        <ele>-1.192</ele>
        <time>2023-06-02T09:58:47.000Z</time>
      </trkpt>
      <trkpt lat="46.21142" lon="-1.45559">
        <ele>-1.22439</ele>
        <time>2023-06-02T09:58:48.000Z</time>
      </trkpt>
      <trkpt lat="46.21144" lon="-1.45557">
        <ele>-1.24154</ele>
        <time>2023-06-02T09:58:49.000Z</time>
      </trkpt>
      <trkpt lat="46.21146" lon="-1.45555">
        <ele>-1.25392</ele>
        <time>2023-06-02T09:58:50.000Z</time>
      </trkpt>
      <trkpt lat="46.21148" lon="-1.45552">
        <ele>-1.24974</ele>
        <time>2023-06-02T09:58:51.000Z</time>
      </trkpt>
      <trkpt lat="46.21149" lon="-1.45549">
        <ele>-1.25514</ele>
        <time>2023-06-02T09:58:52.000Z</time>
      </trkpt>
      <trkpt lat="46.21149" lon="-1.45546">
        <ele>-1.25679</ele>
        <time>2023-06-02T09:58:53.000Z</time>
      </trkpt>
      <trkpt lat="46.21149" lon="-1.45541">
        <ele>-1.30973</ele>
        <time>2023-06-02T09:58:55.000Z</time>
      </trkpt>
      <trkpt lat="46.21148" lon="-1.45538">
        <ele>-1.31648</ele>
        <time>2023-06-02T09:58:57.000Z</time>
      </trkpt>
      <trkpt lat="46.21147" lon="-1.45534">
        <ele>-1.29436</ele>
        <time>2023-06-02T09:58:59.000Z</time>
      </trkpt>
      <trkpt lat="46.21147" lon="-1.45534">
        <ele>-1.29436</ele>
        <time>2023-06-02T09:58:59.000Z</time>
      </trkpt>
      <trkpt lat="46.21145" lon="-1.45529">
        <ele>-0.98607</ele>
        <time>2023-06-02T12:15:42.434Z</time>
      </trkpt>
      <trkpt lat="46.21145" lon="-1.45529">
        <ele>-0.98607</ele>
        <time>2023-06-02T12:15:42.434Z</time>
      </trkpt>
      <trkpt lat="46.21146" lon="-1.4553">
        <ele>-0.44689</ele>
        <time>2023-06-02T12:16:29.000Z</time>
      </trkpt>
      <trkpt lat="46.21145" lon="-1.45531">
        <ele>-0.16394</ele>
        <time>2023-06-02T12:17:32.000Z</time>
      </trkpt>
      <trkpt lat="46.21144" lon="-1.45529">
        <ele>0.10912</ele>
        <time>2023-06-02T12:18:09.000Z</time>
      </trkpt>
      <trkpt lat="46.21146" lon="-1.45528">
        <ele>0.3654</ele>
        <time>2023-06-02T12:18:40.000Z</time>
      </trkpt>
      <trkpt lat="46.21144" lon="-1.45527">
        <ele>0.59283</ele>
        <time>2023-06-02T12:18:43.000Z</time>
      </trkpt>
      <trkpt lat="46.21143" lon="-1.4553">
        <ele>0.87097</ele>
        <time>2023-06-02T12:18:45.000Z</time>
      </trkpt>
      <trkpt lat="46.21143" lon="-1.45533">
        <ele>1.16282</ele>
        <time>2023-06-02T12:18:47.000Z</time>
      </trkpt>
      <trkpt lat="46.21145" lon="-1.45533">
        <ele>1.43904</ele>
        <time>2023-06-02T12:18:53.000Z</time>
      </trkpt>
      <trkpt lat="46.21144" lon="-1.45537">
        <ele>1.67901</ele>
        <time>2023-06-02T12:23:28.000Z</time>
      </trkpt>
      <trkpt lat="46.21144" lon="-1.4554">
        <ele>1.89948</ele>
        <time>2023-06-02T12:23:30.000Z</time>
      </trkpt>
      <trkpt lat="46.21144" lon="-1.45543">
        <ele>2.1019</ele>
        <time>2023-06-02T12:23:32.000Z</time>
      </trkpt>
      <trkpt lat="46.21145" lon="-1.45545">
        <ele>2.31723</ele>
        <time>2023-06-02T12:23:34.000Z</time>
      </trkpt>
      <trkpt lat="46.21147" lon="-1.45547">
        <ele>2.50867</ele>
        <time>2023-06-02T12:23:37.000Z</time>
      </trkpt>
      <trkpt lat="46.21148" lon="-1.4555">
        <ele>2.68195</ele>
        <time>2023-06-02T12:23:39.000Z</time>
      </trkpt>
      <trkpt lat="46.21147" lon="-1.45553">
        <ele>2.82118</ele>
        <time>2023-06-02T12:23:41.000Z</time>
      </trkpt>
      <trkpt lat="46.21143" lon="-1.45555">
        <ele>2.93873</ele>
        <time>2023-06-02T12:23:43.000Z</time>
      </trkpt>
      <trkpt lat="46.2114" lon="-1.45556">
        <ele>3.11155</ele>
        <time>2023-06-02T12:23:45.000Z</time>
      </trkpt>
      <trkpt lat="46.21137" lon="-1.45557">
        <ele>3.2618</ele>
        <time>2023-06-02T12:23:47.000Z</time>
      </trkpt>
      <trkpt lat="46.21135" lon="-1.45557">
        <ele>3.38659</ele>
        <time>2023-06-02T12:23:48.000Z</time>
      </trkpt>
      <trkpt lat="46.21133" lon="-1.45557">
        <ele>3.26975</ele>
        <time>2023-06-02T12:23:49.000Z</time>
      </trkpt>
      <trkpt lat="46.21129" lon="-1.45557">
        <ele>2.94981</ele>
        <time>2023-06-02T12:23:51.000Z</time>
      </trkpt>
      <trkpt lat="46.21126" lon="-1.45558">
        <ele>2.8749</ele>
        <time>2023-06-02T12:23:53.000Z</time>
      </trkpt>
      <trkpt lat="46.21123" lon="-1.45559">
        <ele>2.79535</ele>
        <time>2023-06-02T12:23:55.000Z</time>
      </trkpt>
      <trkpt lat="46.21121" lon="-1.45559">
        <ele>2.74872</ele>
        <time>2023-06-02T12:23:57.000Z</time>
      </trkpt>
      <trkpt lat="46.21119" lon="-1.45563">
        <ele>2.69847</ele>
        <time>2023-06-02T12:24:05.000Z</time>
      </trkpt>
      <trkpt lat="46.21117" lon="-1.45564">
        <ele>2.5698</ele>
        <time>2023-06-02T12:24:06.000Z</time>
      </trkpt>
      <trkpt lat="46.21114" lon="-1.45565">
        <ele>2.42462</ele>
        <time>2023-06-02T12:24:07.000Z</time>
      </trkpt>
      <trkpt lat="46.21112" lon="-1.45565">
        <ele>2.29105</ele>
        <time>2023-06-02T12:24:08.000Z</time>
      </trkpt>
      <trkpt lat="46.2111" lon="-1.45565">
        <ele>2.17864</ele>
        <time>2023-06-02T12:24:09.000Z</time>
      </trkpt>
      <trkpt lat="46.21108" lon="-1.45565">
        <ele>2.08299</ele>
        <time>2023-06-02T12:24:10.000Z</time>
      </trkpt>
      <trkpt lat="46.21105" lon="-1.45566">
        <ele>1.99087</ele>
        <time>2023-06-02T12:24:11.000Z</time>
      </trkpt>
      <trkpt lat="46.21103" lon="-1.45568">
        <ele>1.88121</ele>
        <time>2023-06-02T12:24:12.000Z</time>
      </trkpt>
      <trkpt lat="46.21102" lon="-1.45569">
        <ele>1.77013</ele>
        <time>2023-06-02T12:24:13.000Z</time>
      </trkpt>
      <trkpt lat="46.211" lon="-1.4557">
        <ele>1.66082</ele>
        <time>2023-06-02T12:24:14.000Z</time>
      </trkpt>
      <trkpt lat="46.21098" lon="-1.45571">
        <ele>1.58257</ele>
        <time>2023-06-02T12:24:15.000Z</time>
      </trkpt>
      <trkpt lat="46.21096" lon="-1.45571">
        <ele>1.54456</ele>
        <time>2023-06-02T12:24:16.000Z</time>
      </trkpt>
      <trkpt lat="46.21094" lon="-1.45571">
        <ele>1.50881</ele>
        <time>2023-06-02T12:24:17.000Z</time>
      </trkpt>
      <trkpt lat="46.21092" lon="-1.45571">
        <ele>1.49704</ele>
        <time>2023-06-02T12:24:18.000Z</time>
      </trkpt>
      <trkpt lat="46.21089" lon="-1.45571">
        <ele>1.48209</ele>
        <time>2023-06-02T12:24:19.000Z</time>
      </trkpt>
      <trkpt lat="46.21087" lon="-1.45572">
        <ele>1.4731</ele>
        <time>2023-06-02T12:24:20.000Z</time>
      </trkpt>
      <trkpt lat="46.21085" lon="-1.45573">
        <ele>1.45841</ele>
        <time>2023-06-02T12:24:21.000Z</time>
      </trkpt>
      <trkpt lat="46.21083" lon="-1.45574">
        <ele>1.44828</ele>
        <time>2023-06-02T12:24:22.000Z</time>
      </trkpt>
      <trkpt lat="46.21081" lon="-1.45575">
        <ele>1.45438</ele>
        <time>2023-06-02T12:24:23.000Z</time>
      </trkpt>
      <trkpt lat="46.21078" lon="-1.45575">
        <ele>1.4461</ele>
        <time>2023-06-02T12:24:24.000Z</time>
      </trkpt>
      <trkpt lat="46.21076" lon="-1.45576">
        <ele>1.45119</ele>
        <time>2023-06-02T12:24:25.000Z</time>
      </trkpt>
      <trkpt lat="46.21074" lon="-1.45577">
        <ele>1.44604</ele>
        <time>2023-06-02T12:24:26.000Z</time>
      </trkpt>
      <trkpt lat="46.21071" lon="-1.45577">
        <ele>1.44619</ele>
        <time>2023-06-02T12:24:27.000Z</time>
      </trkpt>
      <trkpt lat="46.21069" lon="-1.45578">
        <ele>1.42285</ele>
        <time>2023-06-02T12:24:28.000Z</time>
      </trkpt>
      <trkpt lat="46.21067" lon="-1.45579">
        <ele>1.40499</ele>
        <time>2023-06-02T12:24:29.000Z</time>
      </trkpt>
      <trkpt lat="46.21065" lon="-1.4558">
        <ele>1.40891</ele>
        <time>2023-06-02T12:24:30.000Z</time>
      </trkpt>
      <trkpt lat="46.21063" lon="-1.45579">
        <ele>1.40491</ele>
        <time>2023-06-02T12:24:31.000Z</time>
      </trkpt>
      <trkpt lat="46.2106" lon="-1.45581">
        <ele>1.40306</ele>
        <time>2023-06-02T12:24:32.000Z</time>
      </trkpt>
      <trkpt lat="46.21058" lon="-1.45581">
        <ele>1.41257</ele>
        <time>2023-06-02T12:24:33.000Z</time>
      </trkpt>
      <trkpt lat="46.21057" lon="-1.45583">
        <ele>1.41649</ele>
        <time>2023-06-02T12:24:34.000Z</time>
      </trkpt>
      <trkpt lat="46.21055" lon="-1.45585">
        <ele>1.36495</ele>
        <time>2023-06-02T12:24:35.000Z</time>
      </trkpt>
      <trkpt lat="46.21052" lon="-1.45587">
        <ele>1.27349</ele>
        <time>2023-06-02T12:24:36.000Z</time>
      </trkpt>
      <trkpt lat="46.2105" lon="-1.45588">
        <ele>1.1822</ele>
        <time>2023-06-02T12:24:37.000Z</time>
      </trkpt>
      <trkpt lat="46.21048" lon="-1.45589">
        <ele>1.094</ele>
        <time>2023-06-02T12:24:38.000Z</time>
      </trkpt>
      <trkpt lat="46.21045" lon="-1.45591">
        <ele>1.01672</ele>
        <time>2023-06-02T12:24:39.000Z</time>
      </trkpt>
      <trkpt lat="46.21044" lon="-1.45591">
        <ele>0.95031</ele>
        <time>2023-06-02T12:24:40.000Z</time>
      </trkpt>
      <trkpt lat="46.21042" lon="-1.45593">
        <ele>0.89259</ele>
        <time>2023-06-02T12:24:41.000Z</time>
      </trkpt>
      <trkpt lat="46.2104" lon="-1.45595">
        <ele>0.84904</ele>
        <time>2023-06-02T12:24:42.000Z</time>
      </trkpt>
      <trkpt lat="46.21038" lon="-1.45596">
        <ele>0.76316</ele>
        <time>2023-06-02T12:24:43.000Z</time>
      </trkpt>
      <trkpt lat="46.21037" lon="-1.45598">
        <ele>0.68715</ele>
        <time>2023-06-02T12:24:44.000Z</time>
      </trkpt>
      <trkpt lat="46.21034" lon="-1.45599">
        <ele>0.63618</ele>
        <time>2023-06-02T12:24:46.000Z</time>
      </trkpt>
      <trkpt lat="46.21031" lon="-1.45598">
        <ele>0.62137</ele>
        <time>2023-06-02T12:24:57.000Z</time>
      </trkpt>
      <trkpt lat="46.21028" lon="-1.45596">
        <ele>0.60668</ele>
        <time>2023-06-02T12:24:58.000Z</time>
      </trkpt>
      <trkpt lat="46.21025" lon="-1.45593">
        <ele>0.59625</ele>
        <time>2023-06-02T12:24:59.000Z</time>
      </trkpt>
      <trkpt lat="46.21023" lon="-1.45588">
        <ele>0.55504</ele>
        <time>2023-06-02T12:25:00.000Z</time>
      </trkpt>
      <trkpt lat="46.21021" lon="-1.45582">
        <ele>0.49387</ele>
        <time>2023-06-02T12:25:01.000Z</time>
      </trkpt>
      <trkpt lat="46.2102" lon="-1.45577">
        <ele>0.46978</ele>
        <time>2023-06-02T12:25:02.000Z</time>
      </trkpt>
      <trkpt lat="46.21018" lon="-1.45572">
        <ele>0.43362</ele>
        <time>2023-06-02T12:25:03.000Z</time>
      </trkpt>
      <trkpt lat="46.21016" lon="-1.45567">
        <ele>0.42076</ele>
        <time>2023-06-02T12:25:04.000Z</time>
      </trkpt>
      <trkpt lat="46.21015" lon="-1.45561">
        <ele>0.40207</ele>
        <time>2023-06-02T12:25:05.000Z</time>
      </trkpt>
      <trkpt lat="46.21013" lon="-1.45555">
        <ele>0.43466</ele>
        <time>2023-06-02T12:25:06.000Z</time>
      </trkpt>
      <trkpt lat="46.21012" lon="-1.4555">
        <ele>0.48012</ele>
        <time>2023-06-02T12:25:07.000Z</time>
      </trkpt>
      <trkpt lat="46.21011" lon="-1.45544">
        <ele>0.51346</ele>
        <time>2023-06-02T12:25:08.000Z</time>
      </trkpt>
      <trkpt lat="46.21009" lon="-1.45538">
        <ele>0.52844</ele>
        <time>2023-06-02T12:25:09.000Z</time>
      </trkpt>
      <trkpt lat="46.21008" lon="-1.45532">
        <ele>0.56707</ele>
        <time>2023-06-02T12:25:10.000Z</time>
      </trkpt>
      <trkpt lat="46.21006" lon="-1.45526">
        <ele>0.59961</ele>
        <time>2023-06-02T12:25:11.000Z</time>
      </trkpt>
      <trkpt lat="46.21005" lon="-1.45521">
        <ele>0.6183</ele>
        <time>2023-06-02T12:25:12.000Z</time>
      </trkpt>
      <trkpt lat="46.21003" lon="-1.45516">
        <ele>0.60298</ele>
        <time>2023-06-02T12:25:13.000Z</time>
      </trkpt>
      <trkpt lat="46.21002" lon="-1.45511">
        <ele>0.61451</ele>
        <time>2023-06-02T12:25:14.000Z</time>
      </trkpt>
      <trkpt lat="46.21" lon="-1.45506">
        <ele>0.62063</ele>
        <time>2023-06-02T12:25:15.000Z</time>
      </trkpt>
      <trkpt lat="46.20999" lon="-1.45502">
        <ele>0.60825</ele>
        <time>2023-06-02T12:25:16.000Z</time>
      </trkpt>
      <trkpt lat="46.20997" lon="-1.45497">
        <ele>0.58908</ele>
        <time>2023-06-02T12:25:17.000Z</time>
      </trkpt>
      <trkpt lat="46.20995" lon="-1.45493">
        <ele>0.56168</ele>
        <time>2023-06-02T12:25:18.000Z</time>
      </trkpt>
      <trkpt lat="46.20993" lon="-1.45488">
        <ele>0.5593</ele>
        <time>2023-06-02T12:25:19.000Z</time>
      </trkpt>
      <trkpt lat="46.20992" lon="-1.45483">
        <ele>0.58725</ele>
        <time>2023-06-02T12:25:20.000Z</time>
      </trkpt>
      <trkpt lat="46.2099" lon="-1.45479">
        <ele>0.62162</ele>
        <time>2023-06-02T12:25:21.000Z</time>
      </trkpt>
      <trkpt lat="46.20989" lon="-1.45474">
        <ele>0.65462</ele>
        <time>2023-06-02T12:25:22.000Z</time>
      </trkpt>
      <trkpt lat="46.20987" lon="-1.45469">
        <ele>0.69787</ele>
        <time>2023-06-02T12:25:23.000Z</time>
      </trkpt>
      <trkpt lat="46.20986" lon="-1.45465">
        <ele>0.72145</ele>
        <time>2023-06-02T12:25:24.000Z</time>
      </trkpt>
      <trkpt lat="46.20984" lon="-1.4546">
        <ele>0.76266</ele>
        <time>2023-06-02T12:25:25.000Z</time>
      </trkpt>
      <trkpt lat="46.20983" lon="-1.45455">
        <ele>0.80987</ele>
        <time>2023-06-02T12:25:26.000Z</time>
      </trkpt>
      <trkpt lat="46.20981" lon="-1.45451">
        <ele>0.87001</ele>
        <time>2023-06-02T12:25:27.000Z</time>
      </trkpt>
      <trkpt lat="46.20979" lon="-1.45446">
        <ele>0.92273</ele>
        <time>2023-06-02T12:25:28.000Z</time>
      </trkpt>
      <trkpt lat="46.20978" lon="-1.45441">
        <ele>0.97536</ele>
        <time>2023-06-02T12:25:29.000Z</time>
      </trkpt>
      <trkpt lat="46.20976" lon="-1.45437">
        <ele>1.00978</ele>
        <time>2023-06-02T12:25:30.000Z</time>
      </trkpt>
      <trkpt lat="46.20974" lon="-1.45433">
        <ele>1.02633</ele>
        <time>2023-06-02T12:25:31.000Z</time>
      </trkpt>
      <trkpt lat="46.20972" lon="-1.45428">
        <ele>1.04774</ele>
        <time>2023-06-02T12:25:32.000Z</time>
      </trkpt>
      <trkpt lat="46.2097" lon="-1.45424">
        <ele>1.07863</ele>
        <time>2023-06-02T12:25:33.000Z</time>
      </trkpt>
      <trkpt lat="46.20969" lon="-1.4542">
        <ele>1.09896</ele>
        <time>2023-06-02T12:25:34.000Z</time>
      </trkpt>
      <trkpt lat="46.20967" lon="-1.45416">
        <ele>1.10599</ele>
        <time>2023-06-02T12:25:35.000Z</time>
      </trkpt>
      <trkpt lat="46.20966" lon="-1.45412">
        <ele>1.1088</ele>
        <time>2023-06-02T12:25:36.000Z</time>
      </trkpt>
      <trkpt lat="46.20964" lon="-1.45408">
        <ele>1.10235</ele>
        <time>2023-06-02T12:25:37.000Z</time>
      </trkpt>
      <trkpt lat="46.20962" lon="-1.45404">
        <ele>1.11391</ele>
        <time>2023-06-02T12:25:38.000Z</time>
      </trkpt>
      <trkpt lat="46.20961" lon="-1.45399">
        <ele>1.11987</ele>
        <time>2023-06-02T12:25:39.000Z</time>
      </trkpt>
      <trkpt lat="46.2096" lon="-1.45395">
        <ele>1.10989</ele>
        <time>2023-06-02T12:25:40.000Z</time>
      </trkpt>
      <trkpt lat="46.2096" lon="-1.4539">
        <ele>1.11797</ele>
        <time>2023-06-02T12:25:41.000Z</time>
      </trkpt>
      <trkpt lat="46.2096" lon="-1.45386">
        <ele>1.11473</ele>
        <time>2023-06-02T12:25:42.000Z</time>
      </trkpt>
      <trkpt lat="46.2096" lon="-1.45381">
        <ele>1.10232</ele>
        <time>2023-06-02T12:25:43.000Z</time>
      </trkpt>
      <trkpt lat="46.2096" lon="-1.45377">
        <ele>1.08435</ele>
        <time>2023-06-02T12:25:44.000Z</time>
      </trkpt>
      <trkpt lat="46.20959" lon="-1.45373">
        <ele>1.07149</ele>
        <time>2023-06-02T12:25:45.000Z</time>
      </trkpt>
      <trkpt lat="46.20958" lon="-1.45369">
        <ele>1.0433</ele>
        <time>2023-06-02T12:25:46.000Z</time>
      </trkpt>
      <trkpt lat="46.20956" lon="-1.45364">
        <ele>1.00913</ele>
        <time>2023-06-02T12:25:47.000Z</time>
      </trkpt>
      <trkpt lat="46.20955" lon="-1.4536">
        <ele>0.97387</ele>
        <time>2023-06-02T12:25:48.000Z</time>
      </trkpt>
      <trkpt lat="46.20953" lon="-1.45355">
        <ele>0.9463</ele>
        <time>2023-06-02T12:25:49.000Z</time>
      </trkpt>
      <trkpt lat="46.20951" lon="-1.4535">
        <ele>0.88529</ele>
        <time>2023-06-02T12:25:50.000Z</time>
      </trkpt>
      <trkpt lat="46.2095" lon="-1.45346">
        <ele>0.83093</ele>
        <time>2023-06-02T12:25:51.000Z</time>
      </trkpt>
      <trkpt lat="46.20948" lon="-1.45341">
        <ele>0.78334</ele>
        <time>2023-06-02T12:25:52.000Z</time>
      </trkpt>
      <trkpt lat="46.20946" lon="-1.45336">
        <ele>0.73115</ele>
        <time>2023-06-02T12:25:53.000Z</time>
      </trkpt>
      <trkpt lat="46.20944" lon="-1.45332">
        <ele>0.69404</ele>
        <time>2023-06-02T12:25:54.000Z</time>
      </trkpt>
      <trkpt lat="46.20942" lon="-1.45327">
        <ele>0.6875</ele>
        <time>2023-06-02T12:25:55.000Z</time>
      </trkpt>
      <trkpt lat="46.20941" lon="-1.45322">
        <ele>0.69896</ele>
        <time>2023-06-02T12:25:56.000Z</time>
      </trkpt>
      <trkpt lat="46.20939" lon="-1.45317">
        <ele>0.6885</ele>
        <time>2023-06-02T12:25:57.000Z</time>
      </trkpt>
      <trkpt lat="46.20938" lon="-1.45313">
        <ele>0.66645</ele>
        <time>2023-06-02T12:25:58.000Z</time>
      </trkpt>
      <trkpt lat="46.20936" lon="-1.45308">
        <ele>0.62992</ele>
        <time>2023-06-02T12:25:59.000Z</time>
      </trkpt>
      <trkpt lat="46.20935" lon="-1.45304">
        <ele>0.60698</ele>
        <time>2023-06-02T12:26:00.000Z</time>
      </trkpt>
      <trkpt lat="46.20934" lon="-1.45299">
        <ele>0.5534</ele>
        <time>2023-06-02T12:26:01.000Z</time>
      </trkpt>
      <trkpt lat="46.20932" lon="-1.45294">
        <ele>0.49915</ele>
        <time>2023-06-02T12:26:02.000Z</time>
      </trkpt>
      <trkpt lat="46.20931" lon="-1.4529">
        <ele>0.46341</ele>
        <time>2023-06-02T12:26:03.000Z</time>
      </trkpt>
      <trkpt lat="46.20929" lon="-1.45285">
        <ele>0.43854</ele>
        <time>2023-06-02T12:26:04.000Z</time>
      </trkpt>
      <trkpt lat="46.20927" lon="-1.45281">
        <ele>0.40197</ele>
        <time>2023-06-02T12:26:05.000Z</time>
      </trkpt>
      <trkpt lat="46.20926" lon="-1.45277">
        <ele>0.37193</ele>
        <time>2023-06-02T12:26:06.000Z</time>
      </trkpt>
      <trkpt lat="46.20925" lon="-1.45272">
        <ele>0.34324</ele>
        <time>2023-06-02T12:26:07.000Z</time>
      </trkpt>
      <trkpt lat="46.20923" lon="-1.45267">
        <ele>0.31516</ele>
        <time>2023-06-02T12:26:08.000Z</time>
      </trkpt>
      <trkpt lat="46.20922" lon="-1.45262">
        <ele>0.28429</ele>
        <time>2023-06-02T12:26:09.000Z</time>
      </trkpt>
      <trkpt lat="46.2092" lon="-1.45257">
        <ele>0.28527</ele>
        <time>2023-06-02T12:26:10.000Z</time>
      </trkpt>
      <trkpt lat="46.20919" lon="-1.45252">
        <ele>0.28318</ele>
        <time>2023-06-02T12:26:11.000Z</time>
      </trkpt>
      <trkpt lat="46.20917" lon="-1.45248">
        <ele>0.28514</ele>
        <time>2023-06-02T12:26:12.000Z</time>
      </trkpt>
      <trkpt lat="46.20915" lon="-1.45243">
        <ele>0.30743</ele>
        <time>2023-06-02T12:26:13.000Z</time>
      </trkpt>
      <trkpt lat="46.20914" lon="-1.45238">
        <ele>0.30836</ele>
        <time>2023-06-02T12:26:14.000Z</time>
      </trkpt>
      <trkpt lat="46.20912" lon="-1.45233">
        <ele>0.29948</ele>
        <time>2023-06-02T12:26:15.000Z</time>
      </trkpt>
      <trkpt lat="46.2091" lon="-1.45228">
        <ele>0.28533</ele>
        <time>2023-06-02T12:26:16.000Z</time>
      </trkpt>
      <trkpt lat="46.20908" lon="-1.45223">
        <ele>0.28816</ele>
        <time>2023-06-02T12:26:17.000Z</time>
      </trkpt>
      <trkpt lat="46.20907" lon="-1.45218">
        <ele>0.2944</ele>
        <time>2023-06-02T12:26:18.000Z</time>
      </trkpt>
      <trkpt lat="46.20905" lon="-1.45213">
        <ele>0.29773</ele>
        <time>2023-06-02T12:26:19.000Z</time>
      </trkpt>
      <trkpt lat="46.20903" lon="-1.45208">
        <ele>0.29524</ele>
        <time>2023-06-02T12:26:20.000Z</time>
      </trkpt>
      <trkpt lat="46.20901" lon="-1.45203">
        <ele>0.31071</ele>
        <time>2023-06-02T12:26:21.000Z</time>
      </trkpt>
      <trkpt lat="46.209" lon="-1.45198">
        <ele>0.33503</ele>
        <time>2023-06-02T12:26:22.000Z</time>
      </trkpt>
      <trkpt lat="46.20898" lon="-1.45193">
        <ele>0.33792</ele>
        <time>2023-06-02T12:26:23.000Z</time>
      </trkpt>
      <trkpt lat="46.20896" lon="-1.45188">
        <ele>0.34784</ele>
        <time>2023-06-02T12:26:24.000Z</time>
      </trkpt>
      <trkpt lat="46.20895" lon="-1.45183">
        <ele>0.35293</ele>
        <time>2023-06-02T12:26:25.000Z</time>
      </trkpt>
      <trkpt lat="46.20893" lon="-1.45178">
        <ele>0.35473</ele>
        <time>2023-06-02T12:26:26.000Z</time>
      </trkpt>
      <trkpt lat="46.20891" lon="-1.45173">
        <ele>0.35933</ele>
        <time>2023-06-02T12:26:27.000Z</time>
      </trkpt>
      <trkpt lat="46.20889" lon="-1.45167">
        <ele>0.3697</ele>
        <time>2023-06-02T12:26:28.000Z</time>
      </trkpt>
      <trkpt lat="46.20887" lon="-1.45162">
        <ele>0.383</ele>
        <time>2023-06-02T12:26:29.000Z</time>
      </trkpt>
      <trkpt lat="46.20885" lon="-1.45157">
        <ele>0.40756</ele>
        <time>2023-06-02T12:26:30.000Z</time>
      </trkpt>
      <trkpt lat="46.20883" lon="-1.45151">
        <ele>0.4362</ele>
        <time>2023-06-02T12:26:31.000Z</time>
      </trkpt>
      <trkpt lat="46.20882" lon="-1.45146">
        <ele>0.46868</ele>
        <time>2023-06-02T12:26:32.000Z</time>
      </trkpt>
      <trkpt lat="46.2088" lon="-1.4514">
        <ele>0.49733</ele>
        <time>2023-06-02T12:26:33.000Z</time>
      </trkpt>
      <trkpt lat="46.20879" lon="-1.45135">
        <ele>0.53704</ele>
        <time>2023-06-02T12:26:34.000Z</time>
      </trkpt>
      <trkpt lat="46.20877" lon="-1.4513">
        <ele>0.57686</ele>
        <time>2023-06-02T12:26:35.000Z</time>
      </trkpt>
      <trkpt lat="46.20876" lon="-1.45125">
        <ele>0.61121</ele>
        <time>2023-06-02T12:26:36.000Z</time>
      </trkpt>
      <trkpt lat="46.20874" lon="-1.4512">
        <ele>0.66334</ele>
        <time>2023-06-02T12:26:37.000Z</time>
      </trkpt>
      <trkpt lat="46.20872" lon="-1.45115">
        <ele>0.70857</ele>
        <time>2023-06-02T12:26:38.000Z</time>
      </trkpt>
      <trkpt lat="46.2087" lon="-1.4511">
        <ele>0.75949</ele>
        <time>2023-06-02T12:26:39.000Z</time>
      </trkpt>
      <trkpt lat="46.20869" lon="-1.45105">
        <ele>0.8065</ele>
        <time>2023-06-02T12:26:40.000Z</time>
      </trkpt>
      <trkpt lat="46.20867" lon="-1.451">
        <ele>0.85299</ele>
        <time>2023-06-02T12:26:41.000Z</time>
      </trkpt>
      <trkpt lat="46.20865" lon="-1.45094">
        <ele>0.8935</ele>
        <time>2023-06-02T12:26:42.000Z</time>
      </trkpt>
      <trkpt lat="46.20864" lon="-1.45089">
        <ele>0.94505</ele>
        <time>2023-06-02T12:26:43.000Z</time>
      </trkpt>
      <trkpt lat="46.20862" lon="-1.45084">
        <ele>0.9805</ele>
        <time>2023-06-02T12:26:44.000Z</time>
      </trkpt>
      <trkpt lat="46.2086" lon="-1.45079">
        <ele>1.00907</ele>
        <time>2023-06-02T12:26:45.000Z</time>
      </trkpt>
      <trkpt lat="46.20859" lon="-1.45074">
        <ele>1.05453</ele>
        <time>2023-06-02T12:26:46.000Z</time>
      </trkpt>
      <trkpt lat="46.20857" lon="-1.45069">
        <ele>1.08799</ele>
        <time>2023-06-02T12:26:47.000Z</time>
      </trkpt>
      <trkpt lat="46.20855" lon="-1.45064">
        <ele>1.13131</ele>
        <time>2023-06-02T12:26:48.000Z</time>
      </trkpt>
      <trkpt lat="46.20854" lon="-1.45059">
        <ele>1.16574</ele>
        <time>2023-06-02T12:26:49.000Z</time>
      </trkpt>
      <trkpt lat="46.20852" lon="-1.45053">
        <ele>1.19259</ele>
        <time>2023-06-02T12:26:50.000Z</time>
      </trkpt>
      <trkpt lat="46.2085" lon="-1.45048">
        <ele>1.2113</ele>
        <time>2023-06-02T12:26:51.000Z</time>
      </trkpt>
      <trkpt lat="46.20849" lon="-1.45042">
        <ele>1.22757</ele>
        <time>2023-06-02T12:26:52.000Z</time>
      </trkpt>
      <trkpt lat="46.20847" lon="-1.45037">
        <ele>1.24188</ele>
        <time>2023-06-02T12:26:53.000Z</time>
      </trkpt>
      <trkpt lat="46.20845" lon="-1.45031">
        <ele>1.26515</ele>
        <time>2023-06-02T12:26:54.000Z</time>
      </trkpt>
      <trkpt lat="46.20843" lon="-1.45025">
        <ele>1.27776</ele>
        <time>2023-06-02T12:26:55.000Z</time>
      </trkpt>
      <trkpt lat="46.20841" lon="-1.4502">
        <ele>1.28004</ele>
        <time>2023-06-02T12:26:56.000Z</time>
      </trkpt>
      <trkpt lat="46.20839" lon="-1.45014">
        <ele>1.27054</ele>
        <time>2023-06-02T12:26:57.000Z</time>
      </trkpt>
      <trkpt lat="46.20837" lon="-1.45009">
        <ele>1.26668</ele>
        <time>2023-06-02T12:26:58.000Z</time>
      </trkpt>
      <trkpt lat="46.20835" lon="-1.45003">
        <ele>1.26939</ele>
        <time>2023-06-02T12:26:59.000Z</time>
      </trkpt>
      <trkpt lat="46.20833" lon="-1.44998">
        <ele>1.28208</ele>
        <time>2023-06-02T12:27:00.000Z</time>
      </trkpt>
      <trkpt lat="46.20831" lon="-1.44992">
        <ele>1.29178</ele>
        <time>2023-06-02T12:27:01.000Z</time>
      </trkpt>
      <trkpt lat="46.20829" lon="-1.44987">
        <ele>1.29801</ele>
        <time>2023-06-02T12:27:02.000Z</time>
      </trkpt>
      <trkpt lat="46.20827" lon="-1.44981">
        <ele>1.30228</ele>
        <time>2023-06-02T12:27:03.000Z</time>
      </trkpt>
      <trkpt lat="46.20825" lon="-1.44976">
        <ele>1.31582</ele>
        <time>2023-06-02T12:27:04.000Z</time>
      </trkpt>
      <trkpt lat="46.20823" lon="-1.4497">
        <ele>1.3396</ele>
        <time>2023-06-02T12:27:05.000Z</time>
      </trkpt>
      <trkpt lat="46.2082" lon="-1.44965">
        <ele>1.32586</ele>
        <time>2023-06-02T12:27:06.000Z</time>
      </trkpt>
      <trkpt lat="46.20818" lon="-1.44959">
        <ele>1.32367</ele>
        <time>2023-06-02T12:27:07.000Z</time>
      </trkpt>
      <trkpt lat="46.20816" lon="-1.44954">
        <ele>1.31311</ele>
        <time>2023-06-02T12:27:08.000Z</time>
      </trkpt>
      <trkpt lat="46.20813" lon="-1.44947">
        <ele>1.30325</ele>
        <time>2023-06-02T12:27:09.000Z</time>
      </trkpt>
      <trkpt lat="46.20812" lon="-1.44942">
        <ele>1.293</ele>
        <time>2023-06-02T12:27:10.000Z</time>
      </trkpt>
      <trkpt lat="46.2081" lon="-1.44936">
        <ele>1.2871</ele>
        <time>2023-06-02T12:27:11.000Z</time>
      </trkpt>
      <trkpt lat="46.20808" lon="-1.4493">
        <ele>1.28986</ele>
        <time>2023-06-02T12:27:12.000Z</time>
      </trkpt>
      <trkpt lat="46.20806" lon="-1.44924">
        <ele>1.29621</ele>
        <time>2023-06-02T12:27:13.000Z</time>
      </trkpt>
      <trkpt lat="46.20804" lon="-1.44918">
        <ele>1.29264</ele>
        <time>2023-06-02T12:27:14.000Z</time>
      </trkpt>
      <trkpt lat="46.20802" lon="-1.44913">
        <ele>1.27739</ele>
        <time>2023-06-02T12:27:15.000Z</time>
      </trkpt>
      <trkpt lat="46.20801" lon="-1.44907">
        <ele>1.28291</ele>
        <time>2023-06-02T12:27:16.000Z</time>
      </trkpt>
      <trkpt lat="46.20799" lon="-1.44901">
        <ele>1.27891</ele>
        <time>2023-06-02T12:27:17.000Z</time>
      </trkpt>
      <trkpt lat="46.20798" lon="-1.44895">
        <ele>1.28664</ele>
        <time>2023-06-02T12:27:18.000Z</time>
      </trkpt>
      <trkpt lat="46.20797" lon="-1.44889">
        <ele>1.28817</ele>
        <time>2023-06-02T12:27:19.000Z</time>
      </trkpt>
      <trkpt lat="46.20795" lon="-1.44883">
        <ele>1.3001</ele>
        <time>2023-06-02T12:27:20.000Z</time>
      </trkpt>
      <trkpt lat="46.20794" lon="-1.44878">
        <ele>1.31351</ele>
        <time>2023-06-02T12:27:21.000Z</time>
      </trkpt>
      <trkpt lat="46.20792" lon="-1.44872">
        <ele>1.32444</ele>
        <time>2023-06-02T12:27:22.000Z</time>
      </trkpt>
      <trkpt lat="46.20789" lon="-1.44866">
        <ele>1.35097</ele>
        <time>2023-06-02T12:27:23.000Z</time>
      </trkpt>
      <trkpt lat="46.20787" lon="-1.4486">
        <ele>1.36825</ele>
        <time>2023-06-02T12:27:24.000Z</time>
      </trkpt>
      <trkpt lat="46.20786" lon="-1.44855">
        <ele>1.38228</ele>
        <time>2023-06-02T12:27:25.000Z</time>
      </trkpt>
      <trkpt lat="46.20784" lon="-1.4485">
        <ele>1.40526</ele>
        <time>2023-06-02T12:27:26.000Z</time>
      </trkpt>
      <trkpt lat="46.20781" lon="-1.44844">
        <ele>1.40814</ele>
        <time>2023-06-02T12:27:27.000Z</time>
      </trkpt>
      <trkpt lat="46.20779" lon="-1.44837">
        <ele>1.38904</ele>
        <time>2023-06-02T12:27:28.000Z</time>
      </trkpt>
      <trkpt lat="46.20777" lon="-1.44831">
        <ele>1.38062</ele>
        <time>2023-06-02T12:27:29.000Z</time>
      </trkpt>
      <trkpt lat="46.20775" lon="-1.44825">
        <ele>1.37562</ele>
        <time>2023-06-02T12:27:30.000Z</time>
      </trkpt>
      <trkpt lat="46.20773" lon="-1.44819">
        <ele>1.36001</ele>
        <time>2023-06-02T12:27:31.000Z</time>
      </trkpt>
      <trkpt lat="46.20771" lon="-1.44813">
        <ele>1.34007</ele>
        <time>2023-06-02T12:27:32.000Z</time>
      </trkpt>
      <trkpt lat="46.20769" lon="-1.44807">
        <ele>1.31118</ele>
        <time>2023-06-02T12:27:33.000Z</time>
      </trkpt>
      <trkpt lat="46.20767" lon="-1.448">
        <ele>1.28098</ele>
        <time>2023-06-02T12:27:34.000Z</time>
      </trkpt>
      <trkpt lat="46.20765" lon="-1.44794">
        <ele>1.27145</ele>
        <time>2023-06-02T12:27:35.000Z</time>
      </trkpt>
      <trkpt lat="46.20763" lon="-1.44788">
        <ele>1.26383</ele>
        <time>2023-06-02T12:27:36.000Z</time>
      </trkpt>
      <trkpt lat="46.20761" lon="-1.44781">
        <ele>1.26989</ele>
        <time>2023-06-02T12:27:37.000Z</time>
      </trkpt>
      <trkpt lat="46.20759" lon="-1.44774">
        <ele>1.2713</ele>
        <time>2023-06-02T12:27:38.000Z</time>
      </trkpt>
      <trkpt lat="46.20757" lon="-1.44766">
        <ele>1.25885</ele>
        <time>2023-06-02T12:27:39.000Z</time>
      </trkpt>
      <trkpt lat="46.20755" lon="-1.4476">
        <ele>1.24152</ele>
        <time>2023-06-02T12:27:40.000Z</time>
      </trkpt>
      <trkpt lat="46.20753" lon="-1.44753">
        <ele>1.20076</ele>
        <time>2023-06-02T12:27:41.000Z</time>
      </trkpt>
      <trkpt lat="46.2075" lon="-1.44747">
        <ele>1.16932</ele>
        <time>2023-06-02T12:27:42.000Z</time>
      </trkpt>
      <trkpt lat="46.20748" lon="-1.4474">
        <ele>1.1227</ele>
        <time>2023-06-02T12:27:43.000Z</time>
      </trkpt>
      <trkpt lat="46.20745" lon="-1.44733">
        <ele>1.09408</ele>
        <time>2023-06-02T12:27:44.000Z</time>
      </trkpt>
      <trkpt lat="46.20742" lon="-1.44726">
        <ele>1.05886</ele>
        <time>2023-06-02T12:27:45.000Z</time>
      </trkpt>
      <trkpt lat="46.20741" lon="-1.44719">
        <ele>1.03091</ele>
        <time>2023-06-02T12:27:46.000Z</time>
      </trkpt>
      <trkpt lat="46.20739" lon="-1.44712">
        <ele>1.0206</ele>
        <time>2023-06-02T12:27:47.000Z</time>
      </trkpt>
      <trkpt lat="46.20737" lon="-1.44705">
        <ele>1.03397</ele>
        <time>2023-06-02T12:27:48.000Z</time>
      </trkpt>
      <trkpt lat="46.20734" lon="-1.44698">
        <ele>1.04871</ele>
        <time>2023-06-02T12:27:49.000Z</time>
      </trkpt>
      <trkpt lat="46.20733" lon="-1.44691">
        <ele>1.05884</ele>
        <time>2023-06-02T12:27:50.000Z</time>
      </trkpt>
      <trkpt lat="46.2073" lon="-1.44684">
        <ele>1.0719</ele>
        <time>2023-06-02T12:27:51.000Z</time>
      </trkpt>
      <trkpt lat="46.20728" lon="-1.44677">
        <ele>1.08639</ele>
        <time>2023-06-02T12:27:52.000Z</time>
      </trkpt>
      <trkpt lat="46.20726" lon="-1.4467">
        <ele>1.08252</ele>
        <time>2023-06-02T12:27:53.000Z</time>
      </trkpt>
      <trkpt lat="46.20724" lon="-1.44662">
        <ele>1.08283</ele>
        <time>2023-06-02T12:27:54.000Z</time>
      </trkpt>
      <trkpt lat="46.20722" lon="-1.44655">
        <ele>1.07485</ele>
        <time>2023-06-02T12:27:55.000Z</time>
      </trkpt>
      <trkpt lat="46.20719" lon="-1.44649">
        <ele>1.05877</ele>
        <time>2023-06-02T12:27:56.000Z</time>
      </trkpt>
      <trkpt lat="46.20716" lon="-1.44642">
        <ele>1.03836</ele>
        <time>2023-06-02T12:27:57.000Z</time>
      </trkpt>
      <trkpt lat="46.20713" lon="-1.44634">
        <ele>1.00206</ele>
        <time>2023-06-02T12:27:58.000Z</time>
      </trkpt>
      <trkpt lat="46.20711" lon="-1.44627">
        <ele>0.97208</ele>
        <time>2023-06-02T12:27:59.000Z</time>
      </trkpt>
      <trkpt lat="46.20708" lon="-1.4462">
        <ele>0.90753</ele>
        <time>2023-06-02T12:28:00.000Z</time>
      </trkpt>
      <trkpt lat="46.20706" lon="-1.44613">
        <ele>0.86262</ele>
        <time>2023-06-02T12:28:01.000Z</time>
      </trkpt>
      <trkpt lat="46.20703" lon="-1.44607">
        <ele>0.80203</ele>
        <time>2023-06-02T12:28:02.000Z</time>
      </trkpt>
      <trkpt lat="46.20701" lon="-1.446">
        <ele>0.7515</ele>
        <time>2023-06-02T12:28:03.000Z</time>
      </trkpt>
      <trkpt lat="46.20699" lon="-1.44593">
        <ele>0.69991</ele>
        <time>2023-06-02T12:28:04.000Z</time>
      </trkpt>
      <trkpt lat="46.20696" lon="-1.44587">
        <ele>0.65815</ele>
        <time>2023-06-02T12:28:05.000Z</time>
      </trkpt>
      <trkpt lat="46.20693" lon="-1.44579">
        <ele>0.59416</ele>
        <time>2023-06-02T12:28:06.000Z</time>
      </trkpt>
      <trkpt lat="46.2069" lon="-1.44572">
        <ele>0.52904</ele>
        <time>2023-06-02T12:28:07.000Z</time>
      </trkpt>
      <trkpt lat="46.20688" lon="-1.44565">
        <ele>0.4628</ele>
        <time>2023-06-02T12:28:08.000Z</time>
      </trkpt>
      <trkpt lat="46.20687" lon="-1.44559">
        <ele>0.37519</ele>
        <time>2023-06-02T12:28:09.000Z</time>
      </trkpt>
      <trkpt lat="46.20685" lon="-1.44553">
        <ele>0.28636</ele>
        <time>2023-06-02T12:28:10.000Z</time>
      </trkpt>
      <trkpt lat="46.20683" lon="-1.44546">
        <ele>0.22047</ele>
        <time>2023-06-02T12:28:11.000Z</time>
      </trkpt>
      <trkpt lat="46.2068" lon="-1.44539">
        <ele>0.14415</ele>
        <time>2023-06-02T12:28:12.000Z</time>
      </trkpt>
      <trkpt lat="46.20678" lon="-1.44533">
        <ele>0.1102</ele>
        <time>2023-06-02T12:28:13.000Z</time>
      </trkpt>
      <trkpt lat="46.20677" lon="-1.44527">
        <ele>0.08776</ele>
        <time>2023-06-02T12:28:14.000Z</time>
      </trkpt>
      <trkpt lat="46.20675" lon="-1.4452">
        <ele>0.08689</ele>
        <time>2023-06-02T12:28:15.000Z</time>
      </trkpt>
      <trkpt lat="46.20672" lon="-1.44514">
        <ele>0.04527</ele>
        <time>2023-06-02T12:28:16.000Z</time>
      </trkpt>
      <trkpt lat="46.2067" lon="-1.44508">
        <ele>0.00947</ele>
        <time>2023-06-02T12:28:17.000Z</time>
      </trkpt>
      <trkpt lat="46.20668" lon="-1.44502">
        <ele>-0.00928</ele>
        <time>2023-06-02T12:28:18.000Z</time>
      </trkpt>
      <trkpt lat="46.20666" lon="-1.44496">
        <ele>-0.02072</ele>
        <time>2023-06-02T12:28:19.000Z</time>
      </trkpt>
      <trkpt lat="46.20663" lon="-1.44489">
        <ele>0.00497</ele>
        <time>2023-06-02T12:28:20.000Z</time>
      </trkpt>
      <trkpt lat="46.20662" lon="-1.44483">
        <ele>0.04316</ele>
        <time>2023-06-02T12:28:21.000Z</time>
      </trkpt>
      <trkpt lat="46.2066" lon="-1.44476">
        <ele>0.09982</ele>
        <time>2023-06-02T12:28:22.000Z</time>
      </trkpt>
      <trkpt lat="46.20658" lon="-1.44469">
        <ele>0.16169</ele>
        <time>2023-06-02T12:28:23.000Z</time>
      </trkpt>
      <trkpt lat="46.20656" lon="-1.44463">
        <ele>0.20339</ele>
        <time>2023-06-02T12:28:24.000Z</time>
      </trkpt>
      <trkpt lat="46.20654" lon="-1.44457">
        <ele>0.24996</ele>
        <time>2023-06-02T12:28:25.000Z</time>
      </trkpt>
      <trkpt lat="46.20651" lon="-1.44451">
        <ele>0.32089</ele>
        <time>2023-06-02T12:28:26.000Z</time>
      </trkpt>
      <trkpt lat="46.2065" lon="-1.44445">
        <ele>0.4007</ele>
        <time>2023-06-02T12:28:27.000Z</time>
      </trkpt>
      <trkpt lat="46.20647" lon="-1.44439">
        <ele>0.47323</ele>
        <time>2023-06-02T12:28:28.000Z</time>
      </trkpt>
      <trkpt lat="46.20645" lon="-1.44433">
        <ele>0.555</ele>
        <time>2023-06-02T12:28:29.000Z</time>
      </trkpt>
      <trkpt lat="46.20644" lon="-1.44428">
        <ele>0.65848</ele>
        <time>2023-06-02T12:28:30.000Z</time>
      </trkpt>
      <trkpt lat="46.20641" lon="-1.44423">
        <ele>0.73769</ele>
        <time>2023-06-02T12:28:31.000Z</time>
      </trkpt>
      <trkpt lat="46.2064" lon="-1.44418">
        <ele>0.82199</ele>
        <time>2023-06-02T12:28:32.000Z</time>
      </trkpt>
      <trkpt lat="46.20638" lon="-1.44413">
        <ele>0.89321</ele>
        <time>2023-06-02T12:28:33.000Z</time>
      </trkpt>
      <trkpt lat="46.20637" lon="-1.44408">
        <ele>0.95428</ele>
        <time>2023-06-02T12:28:34.000Z</time>
      </trkpt>
      <trkpt lat="46.20636" lon="-1.44402">
        <ele>1.00412</ele>
        <time>2023-06-02T12:28:35.000Z</time>
      </trkpt>
      <trkpt lat="46.20634" lon="-1.44397">
        <ele>1.0801</ele>
        <time>2023-06-02T12:28:36.000Z</time>
      </trkpt>
      <trkpt lat="46.20631" lon="-1.44391">
        <ele>1.14163</ele>
        <time>2023-06-02T12:28:37.000Z</time>
      </trkpt>
      <trkpt lat="46.2063" lon="-1.44386">
        <ele>1.19045</ele>
        <time>2023-06-02T12:28:38.000Z</time>
      </trkpt>
      <trkpt lat="46.20629" lon="-1.4438">
        <ele>1.24924</ele>
        <time>2023-06-02T12:28:39.000Z</time>
      </trkpt>
      <trkpt lat="46.20627" lon="-1.44374">
        <ele>1.30344</ele>
        <time>2023-06-02T12:28:40.000Z</time>
      </trkpt>
      <trkpt lat="46.20625" lon="-1.44368">
        <ele>1.35385</ele>
        <time>2023-06-02T12:28:41.000Z</time>
      </trkpt>
      <trkpt lat="46.20622" lon="-1.44363">
        <ele>1.38212</ele>
        <time>2023-06-02T12:28:42.000Z</time>
      </trkpt>
      <trkpt lat="46.20621" lon="-1.44357">
        <ele>1.39954</ele>
        <time>2023-06-02T12:28:43.000Z</time>
      </trkpt>
      <trkpt lat="46.2062" lon="-1.44351">
        <ele>1.4171</ele>
        <time>2023-06-02T12:28:44.000Z</time>
      </trkpt>
      <trkpt lat="46.20618" lon="-1.44345">
        <ele>1.43458</ele>
        <time>2023-06-02T12:28:45.000Z</time>
      </trkpt>
      <trkpt lat="46.20616" lon="-1.44339">
        <ele>1.42817</ele>
        <time>2023-06-02T12:28:46.000Z</time>
      </trkpt>
      <trkpt lat="46.20614" lon="-1.44333">
        <ele>1.40919</ele>
        <time>2023-06-02T12:28:47.000Z</time>
      </trkpt>
      <trkpt lat="46.20612" lon="-1.44328">
        <ele>1.37538</ele>
        <time>2023-06-02T12:28:48.000Z</time>
      </trkpt>
      <trkpt lat="46.2061" lon="-1.44323">
        <ele>1.35171</ele>
        <time>2023-06-02T12:28:49.000Z</time>
      </trkpt>
      <trkpt lat="46.20608" lon="-1.44317">
        <ele>1.32129</ele>
        <time>2023-06-02T12:28:50.000Z</time>
      </trkpt>
      <trkpt lat="46.20607" lon="-1.44311">
        <ele>1.29572</ele>
        <time>2023-06-02T12:28:51.000Z</time>
      </trkpt>
      <trkpt lat="46.20605" lon="-1.44306">
        <ele>1.26821</ele>
        <time>2023-06-02T12:28:52.000Z</time>
      </trkpt>
      <trkpt lat="46.20603" lon="-1.44301">
        <ele>1.24336</ele>
        <time>2023-06-02T12:28:53.000Z</time>
      </trkpt>
      <trkpt lat="46.20601" lon="-1.44296">
        <ele>1.22422</ele>
        <time>2023-06-02T12:28:54.000Z</time>
      </trkpt>
      <trkpt lat="46.20599" lon="-1.4429">
        <ele>1.20477</ele>
        <time>2023-06-02T12:28:55.000Z</time>
      </trkpt>
      <trkpt lat="46.20598" lon="-1.44285">
        <ele>1.20583</ele>
        <time>2023-06-02T12:28:56.000Z</time>
      </trkpt>
      <trkpt lat="46.20596" lon="-1.4428">
        <ele>1.21585</ele>
        <time>2023-06-02T12:28:57.000Z</time>
      </trkpt>
      <trkpt lat="46.20593" lon="-1.44274">
        <ele>1.24251</ele>
        <time>2023-06-02T12:28:58.000Z</time>
      </trkpt>
      <trkpt lat="46.20591" lon="-1.44269">
        <ele>1.24853</ele>
        <time>2023-06-02T12:28:59.000Z</time>
      </trkpt>
      <trkpt lat="46.20589" lon="-1.44264">
        <ele>1.24622</ele>
        <time>2023-06-02T12:29:00.000Z</time>
      </trkpt>
      <trkpt lat="46.20587" lon="-1.44258">
        <ele>1.24057</ele>
        <time>2023-06-02T12:29:01.000Z</time>
      </trkpt>
      <trkpt lat="46.20585" lon="-1.44253">
        <ele>1.24716</ele>
        <time>2023-06-02T12:29:02.000Z</time>
      </trkpt>
      <trkpt lat="46.20583" lon="-1.44247">
        <ele>1.26713</ele>
        <time>2023-06-02T12:29:03.000Z</time>
      </trkpt>
      <trkpt lat="46.20581" lon="-1.44242">
        <ele>1.27312</ele>
        <time>2023-06-02T12:29:04.000Z</time>
      </trkpt>
      <trkpt lat="46.20579" lon="-1.44236">
        <ele>1.27219</ele>
        <time>2023-06-02T12:29:05.000Z</time>
      </trkpt>
      <trkpt lat="46.20577" lon="-1.44231">
        <ele>1.29251</ele>
        <time>2023-06-02T12:29:06.000Z</time>
      </trkpt>
      <trkpt lat="46.20575" lon="-1.44225">
        <ele>1.33017</ele>
        <time>2023-06-02T12:29:07.000Z</time>
      </trkpt>
      <trkpt lat="46.20574" lon="-1.4422">
        <ele>1.38698</ele>
        <time>2023-06-02T12:29:08.000Z</time>
      </trkpt>
      <trkpt lat="46.20572" lon="-1.44214">
        <ele>1.43422</ele>
        <time>2023-06-02T12:29:09.000Z</time>
      </trkpt>
      <trkpt lat="46.2057" lon="-1.44209">
        <ele>1.4815</ele>
        <time>2023-06-02T12:29:10.000Z</time>
      </trkpt>
      <trkpt lat="46.20568" lon="-1.44204">
        <ele>1.54219</ele>
        <time>2023-06-02T12:29:11.000Z</time>
      </trkpt>
      <trkpt lat="46.20565" lon="-1.44199">
        <ele>1.59716</ele>
        <time>2023-06-02T12:29:12.000Z</time>
      </trkpt>
      <trkpt lat="46.20563" lon="-1.44193">
        <ele>1.63991</ele>
        <time>2023-06-02T12:29:13.000Z</time>
      </trkpt>
      <trkpt lat="46.20561" lon="-1.44188">
        <ele>1.67403</ele>
        <time>2023-06-02T12:29:14.000Z</time>
      </trkpt>
      <trkpt lat="46.20559" lon="-1.44183">
        <ele>1.68876</ele>
        <time>2023-06-02T12:29:15.000Z</time>
      </trkpt>
      <trkpt lat="46.20557" lon="-1.44177">
        <ele>1.68313</ele>
        <time>2023-06-02T12:29:16.000Z</time>
      </trkpt>
      <trkpt lat="46.20555" lon="-1.44172">
        <ele>1.66831</ele>
        <time>2023-06-02T12:29:17.000Z</time>
      </trkpt>
      <trkpt lat="46.20553" lon="-1.44166">
        <ele>1.64989</ele>
        <time>2023-06-02T12:29:18.000Z</time>
      </trkpt>
      <trkpt lat="46.20551" lon="-1.44161">
        <ele>1.64814</ele>
        <time>2023-06-02T12:29:19.000Z</time>
      </trkpt>
      <trkpt lat="46.20549" lon="-1.44155">
        <ele>1.64363</ele>
        <time>2023-06-02T12:29:20.000Z</time>
      </trkpt>
      <trkpt lat="46.20546" lon="-1.4415">
        <ele>1.61789</ele>
        <time>2023-06-02T12:29:21.000Z</time>
      </trkpt>
      <trkpt lat="46.20544" lon="-1.44144">
        <ele>1.58462</ele>
        <time>2023-06-02T12:29:22.000Z</time>
      </trkpt>
      <trkpt lat="46.20541" lon="-1.44139">
        <ele>1.53692</ele>
        <time>2023-06-02T12:29:23.000Z</time>
      </trkpt>
      <trkpt lat="46.20539" lon="-1.44133">
        <ele>1.51787</ele>
        <time>2023-06-02T12:29:24.000Z</time>
      </trkpt>
      <trkpt lat="46.20537" lon="-1.44128">
        <ele>1.51357</ele>
        <time>2023-06-02T12:29:25.000Z</time>
      </trkpt>
      <trkpt lat="46.20535" lon="-1.44122">
        <ele>1.51156</ele>
        <time>2023-06-02T12:29:26.000Z</time>
      </trkpt>
      <trkpt lat="46.20533" lon="-1.44117">
        <ele>1.49898</ele>
        <time>2023-06-02T12:29:27.000Z</time>
      </trkpt>
      <trkpt lat="46.20531" lon="-1.44111">
        <ele>1.4808</ele>
        <time>2023-06-02T12:29:28.000Z</time>
      </trkpt>
      <trkpt lat="46.20528" lon="-1.44106">
        <ele>1.46993</ele>
        <time>2023-06-02T12:29:29.000Z</time>
      </trkpt>
      <trkpt lat="46.20526" lon="-1.441">
        <ele>1.44465</ele>
        <time>2023-06-02T12:29:30.000Z</time>
      </trkpt>
      <trkpt lat="46.20524" lon="-1.44095">
        <ele>1.4145</ele>
        <time>2023-06-02T12:29:31.000Z</time>
      </trkpt>
      <trkpt lat="46.20522" lon="-1.44089">
        <ele>1.38462</ele>
        <time>2023-06-02T12:29:32.000Z</time>
      </trkpt>
      <trkpt lat="46.2052" lon="-1.44084">
        <ele>1.35831</ele>
        <time>2023-06-02T12:29:33.000Z</time>
      </trkpt>
      <trkpt lat="46.20517" lon="-1.44078">
        <ele>1.32124</ele>
        <time>2023-06-02T12:29:34.000Z</time>
      </trkpt>
      <trkpt lat="46.20515" lon="-1.44072">
        <ele>1.30625</ele>
        <time>2023-06-02T12:29:35.000Z</time>
      </trkpt>
      <trkpt lat="46.20512" lon="-1.44067">
        <ele>1.29786</ele>
        <time>2023-06-02T12:29:36.000Z</time>
      </trkpt>
      <trkpt lat="46.2051" lon="-1.44061">
        <ele>1.30288</ele>
        <time>2023-06-02T12:29:37.000Z</time>
      </trkpt>
      <trkpt lat="46.20508" lon="-1.44055">
        <ele>1.30058</ele>
        <time>2023-06-02T12:29:38.000Z</time>
      </trkpt>
      <trkpt lat="46.20505" lon="-1.4405">
        <ele>1.29245</ele>
        <time>2023-06-02T12:29:39.000Z</time>
      </trkpt>
      <trkpt lat="46.20503" lon="-1.44044">
        <ele>1.27678</ele>
        <time>2023-06-02T12:29:40.000Z</time>
      </trkpt>
      <trkpt lat="46.20501" lon="-1.44039">
        <ele>1.28256</ele>
        <time>2023-06-02T12:29:41.000Z</time>
      </trkpt>
      <trkpt lat="46.20498" lon="-1.44033">
        <ele>1.28852</ele>
        <time>2023-06-02T12:29:42.000Z</time>
      </trkpt>
      <trkpt lat="46.20496" lon="-1.44028">
        <ele>1.30248</ele>
        <time>2023-06-02T12:29:43.000Z</time>
      </trkpt>
      <trkpt lat="46.20494" lon="-1.44023">
        <ele>1.31252</ele>
        <time>2023-06-02T12:29:44.000Z</time>
      </trkpt>
      <trkpt lat="46.20492" lon="-1.44018">
        <ele>1.3069</ele>
        <time>2023-06-02T12:29:45.000Z</time>
      </trkpt>
      <trkpt lat="46.2049" lon="-1.44012">
        <ele>1.29986</ele>
        <time>2023-06-02T12:29:46.000Z</time>
      </trkpt>
      <trkpt lat="46.20488" lon="-1.44007">
        <ele>1.28805</ele>
        <time>2023-06-02T12:29:47.000Z</time>
      </trkpt>
      <trkpt lat="46.20486" lon="-1.44002">
        <ele>1.29712</ele>
        <time>2023-06-02T12:29:48.000Z</time>
      </trkpt>
      <trkpt lat="46.20484" lon="-1.43996">
        <ele>1.29661</ele>
        <time>2023-06-02T12:29:49.000Z</time>
      </trkpt>
      <trkpt lat="46.20482" lon="-1.43991">
        <ele>1.29833</ele>
        <time>2023-06-02T12:29:50.000Z</time>
      </trkpt>
      <trkpt lat="46.20479" lon="-1.43985">
        <ele>1.28927</ele>
        <time>2023-06-02T12:29:51.000Z</time>
      </trkpt>
      <trkpt lat="46.20477" lon="-1.43979">
        <ele>1.21959</ele>
        <time>2023-06-02T12:29:52.000Z</time>
      </trkpt>
      <trkpt lat="46.20475" lon="-1.43973">
        <ele>1.17295</ele>
        <time>2023-06-02T12:29:53.000Z</time>
      </trkpt>
      <trkpt lat="46.20473" lon="-1.43968">
        <ele>1.14483</ele>
        <time>2023-06-02T12:29:54.000Z</time>
      </trkpt>
      <trkpt lat="46.2047" lon="-1.43962">
        <ele>1.11512</ele>
        <time>2023-06-02T12:29:55.000Z</time>
      </trkpt>
      <trkpt lat="46.20468" lon="-1.43956">
        <ele>1.09911</ele>
        <time>2023-06-02T12:29:56.000Z</time>
      </trkpt>
      <trkpt lat="46.20466" lon="-1.4395">
        <ele>1.1003</ele>
        <time>2023-06-02T12:29:57.000Z</time>
      </trkpt>
      <trkpt lat="46.20464" lon="-1.43945">
        <ele>1.10109</ele>
        <time>2023-06-02T12:29:58.000Z</time>
      </trkpt>
      <trkpt lat="46.20461" lon="-1.43939">
        <ele>1.09615</ele>
        <time>2023-06-02T12:29:59.000Z</time>
      </trkpt>
      <trkpt lat="46.20459" lon="-1.43933">
        <ele>1.09596</ele>
        <time>2023-06-02T12:30:00.000Z</time>
      </trkpt>
      <trkpt lat="46.20456" lon="-1.43928">
        <ele>1.08569</ele>
        <time>2023-06-02T12:30:01.000Z</time>
      </trkpt>
      <trkpt lat="46.20454" lon="-1.43922">
        <ele>1.05623</ele>
        <time>2023-06-02T12:30:02.000Z</time>
      </trkpt>
      <trkpt lat="46.20452" lon="-1.43916">
        <ele>1.02495</ele>
        <time>2023-06-02T12:30:03.000Z</time>
      </trkpt>
      <trkpt lat="46.20449" lon="-1.4391">
        <ele>0.99744</ele>
        <time>2023-06-02T12:30:04.000Z</time>
      </trkpt>
      <trkpt lat="46.20447" lon="-1.43904">
        <ele>0.9664</ele>
        <time>2023-06-02T12:30:05.000Z</time>
      </trkpt>
      <trkpt lat="46.20445" lon="-1.43898">
        <ele>0.95602</ele>
        <time>2023-06-02T12:30:06.000Z</time>
      </trkpt>
      <trkpt lat="46.20443" lon="-1.43892">
        <ele>0.93823</ele>
        <time>2023-06-02T12:30:07.000Z</time>
      </trkpt>
      <trkpt lat="46.20441" lon="-1.43887">
        <ele>0.91283</ele>
        <time>2023-06-02T12:30:08.000Z</time>
      </trkpt>
      <trkpt lat="46.20438" lon="-1.43881">
        <ele>0.89107</ele>
        <time>2023-06-02T12:30:09.000Z</time>
      </trkpt>
      <trkpt lat="46.20436" lon="-1.43876">
        <ele>0.8653</ele>
        <time>2023-06-02T12:30:10.000Z</time>
      </trkpt>
      <trkpt lat="46.20434" lon="-1.4387">
        <ele>0.8299</ele>
        <time>2023-06-02T12:30:11.000Z</time>
      </trkpt>
      <trkpt lat="46.20432" lon="-1.43865">
        <ele>0.86555</ele>
        <time>2023-06-02T12:30:12.000Z</time>
      </trkpt>
      <trkpt lat="46.2043" lon="-1.43859">
        <ele>0.87602</ele>
        <time>2023-06-02T12:30:13.000Z</time>
      </trkpt>
      <trkpt lat="46.20428" lon="-1.43853">
        <ele>0.85651</ele>
        <time>2023-06-02T12:30:14.000Z</time>
      </trkpt>
      <trkpt lat="46.20425" lon="-1.43847">
        <ele>0.83653</ele>
        <time>2023-06-02T12:30:15.000Z</time>
      </trkpt>
      <trkpt lat="46.20423" lon="-1.43842">
        <ele>0.77228</ele>
        <time>2023-06-02T12:30:16.000Z</time>
      </trkpt>
      <trkpt lat="46.20421" lon="-1.43836">
        <ele>0.68126</ele>
        <time>2023-06-02T12:30:17.000Z</time>
      </trkpt>
      <trkpt lat="46.20418" lon="-1.4383">
        <ele>0.59779</ele>
        <time>2023-06-02T12:30:18.000Z</time>
      </trkpt>
      <trkpt lat="46.20416" lon="-1.43825">
        <ele>0.52792</ele>
        <time>2023-06-02T12:30:19.000Z</time>
      </trkpt>
      <trkpt lat="46.20414" lon="-1.43819">
        <ele>0.46148</ele>
        <time>2023-06-02T12:30:20.000Z</time>
      </trkpt>
      <trkpt lat="46.20412" lon="-1.43815">
        <ele>0.39218</ele>
        <time>2023-06-02T12:30:21.000Z</time>
      </trkpt>
      <trkpt lat="46.2041" lon="-1.4381">
        <ele>0.36775</ele>
        <time>2023-06-02T12:30:22.000Z</time>
      </trkpt>
      <trkpt lat="46.20408" lon="-1.43805">
        <ele>0.33809</ele>
        <time>2023-06-02T12:30:23.000Z</time>
      </trkpt>
      <trkpt lat="46.20406" lon="-1.43799">
        <ele>0.31038</ele>
        <time>2023-06-02T12:30:24.000Z</time>
      </trkpt>
      <trkpt lat="46.20404" lon="-1.43793">
        <ele>0.29055</ele>
        <time>2023-06-02T12:30:25.000Z</time>
      </trkpt>
      <trkpt lat="46.20402" lon="-1.43788">
        <ele>0.25027</ele>
        <time>2023-06-02T12:30:26.000Z</time>
      </trkpt>
      <trkpt lat="46.204" lon="-1.43782">
        <ele>0.20521</ele>
        <time>2023-06-02T12:30:27.000Z</time>
      </trkpt>
      <trkpt lat="46.20397" lon="-1.43775">
        <ele>0.13678</ele>
        <time>2023-06-02T12:30:28.000Z</time>
      </trkpt>
      <trkpt lat="46.20395" lon="-1.43769">
        <ele>0.05093</ele>
        <time>2023-06-02T12:30:29.000Z</time>
      </trkpt>
      <trkpt lat="46.20392" lon="-1.43763">
        <ele>0.00241</ele>
        <time>2023-06-02T12:30:30.000Z</time>
      </trkpt>
      <trkpt lat="46.2039" lon="-1.43757">
        <ele>-0.04174</ele>
        <time>2023-06-02T12:30:31.000Z</time>
      </trkpt>
      <trkpt lat="46.20387" lon="-1.43751">
        <ele>-0.09471</ele>
        <time>2023-06-02T12:30:32.000Z</time>
      </trkpt>
      <trkpt lat="46.20385" lon="-1.43746">
        <ele>-0.14465</ele>
        <time>2023-06-02T12:30:33.000Z</time>
      </trkpt>
      <trkpt lat="46.20383" lon="-1.4374">
        <ele>-0.1652</ele>
        <time>2023-06-02T12:30:34.000Z</time>
      </trkpt>
      <trkpt lat="46.2038" lon="-1.43734">
        <ele>-0.19035</ele>
        <time>2023-06-02T12:30:35.000Z</time>
      </trkpt>
      <trkpt lat="46.20378" lon="-1.43729">
        <ele>-0.18262</ele>
        <time>2023-06-02T12:30:36.000Z</time>
      </trkpt>
      <trkpt lat="46.20376" lon="-1.43723">
        <ele>-0.16636</ele>
        <time>2023-06-02T12:30:37.000Z</time>
      </trkpt>
      <trkpt lat="46.20374" lon="-1.43717">
        <ele>-0.16406</ele>
        <time>2023-06-02T12:30:38.000Z</time>
      </trkpt>
      <trkpt lat="46.20372" lon="-1.43711">
        <ele>-0.17138</ele>
        <time>2023-06-02T12:30:39.000Z</time>
      </trkpt>
      <trkpt lat="46.2037" lon="-1.43705">
        <ele>-0.17345</ele>
        <time>2023-06-02T12:30:40.000Z</time>
      </trkpt>
      <trkpt lat="46.20368" lon="-1.43699">
        <ele>-0.16081</ele>
        <time>2023-06-02T12:30:41.000Z</time>
      </trkpt>
      <trkpt lat="46.20367" lon="-1.43694">
        <ele>-0.17073</ele>
        <time>2023-06-02T12:30:42.000Z</time>
      </trkpt>
      <trkpt lat="46.20365" lon="-1.43689">
        <ele>-0.15675</ele>
        <time>2023-06-02T12:30:43.000Z</time>
      </trkpt>
      <trkpt lat="46.20362" lon="-1.43682">
        <ele>-0.16245</ele>
        <time>2023-06-02T12:30:44.000Z</time>
      </trkpt>
      <trkpt lat="46.2036" lon="-1.43676">
        <ele>-0.17753</ele>
        <time>2023-06-02T12:30:45.000Z</time>
      </trkpt>
      <trkpt lat="46.20358" lon="-1.43671">
        <ele>-0.16688</ele>
        <time>2023-06-02T12:30:46.000Z</time>
      </trkpt>
      <trkpt lat="46.20356" lon="-1.43665">
        <ele>-0.13883</ele>
        <time>2023-06-02T12:30:47.000Z</time>
      </trkpt>
      <trkpt lat="46.20353" lon="-1.43659">
        <ele>-0.09454</ele>
        <time>2023-06-02T12:30:48.000Z</time>
      </trkpt>
      <trkpt lat="46.20351" lon="-1.43653">
        <ele>-0.02758</ele>
        <time>2023-06-02T12:30:49.000Z</time>
      </trkpt>
      <trkpt lat="46.20349" lon="-1.43647">
        <ele>-0.00532</ele>
        <time>2023-06-02T12:30:50.000Z</time>
      </trkpt>
      <trkpt lat="46.20346" lon="-1.43641">
        <ele>0.02345</ele>
        <time>2023-06-02T12:30:51.000Z</time>
      </trkpt>
      <trkpt lat="46.20343" lon="-1.43634">
        <ele>0.03304</ele>
        <time>2023-06-02T12:30:52.000Z</time>
      </trkpt>
      <trkpt lat="46.2034" lon="-1.43628">
        <ele>0.04993</ele>
        <time>2023-06-02T12:30:53.000Z</time>
      </trkpt>
      <trkpt lat="46.20337" lon="-1.43622">
        <ele>0.053</ele>
        <time>2023-06-02T12:30:54.000Z</time>
      </trkpt>
      <trkpt lat="46.20332" lon="-1.43614">
        <ele>0.05305</ele>
        <time>2023-06-02T12:30:55.000Z</time>
      </trkpt>
      <trkpt lat="46.20327" lon="-1.43605">
        <ele>0.07548</ele>
        <time>2023-06-02T12:30:56.000Z</time>
      </trkpt>
      <trkpt lat="46.20326" lon="-1.43599">
        <ele>0.11611</ele>
        <time>2023-06-02T12:30:57.000Z</time>
      </trkpt>
      <trkpt lat="46.20324" lon="-1.43594">
        <ele>0.11654</ele>
        <time>2023-06-02T12:30:58.000Z</time>
      </trkpt>
      <trkpt lat="46.20321" lon="-1.43588">
        <ele>0.1082</ele>
        <time>2023-06-02T12:30:59.000Z</time>
      </trkpt>
      <trkpt lat="46.20318" lon="-1.43581">
        <ele>0.0929</ele>
        <time>2023-06-02T12:31:00.000Z</time>
      </trkpt>
      <trkpt lat="46.20316" lon="-1.43575">
        <ele>0.07851</ele>
        <time>2023-06-02T12:31:01.000Z</time>
      </trkpt>
      <trkpt lat="46.20315" lon="-1.43569">
        <ele>0.05648</ele>
        <time>2023-06-02T12:31:02.000Z</time>
      </trkpt>
      <trkpt lat="46.20312" lon="-1.43563">
        <ele>0.02094</ele>
        <time>2023-06-02T12:31:03.000Z</time>
      </trkpt>
      <trkpt lat="46.2031" lon="-1.43558">
        <ele>0.03754</ele>
        <time>2023-06-02T12:31:04.000Z</time>
      </trkpt>
      <trkpt lat="46.20307" lon="-1.43552">
        <ele>0.0679</ele>
        <time>2023-06-02T12:31:05.000Z</time>
      </trkpt>
      <trkpt lat="46.20304" lon="-1.43546">
        <ele>0.0577</ele>
        <time>2023-06-02T12:31:06.000Z</time>
      </trkpt>
      <trkpt lat="46.20302" lon="-1.4354">
        <ele>0.04896</ele>
        <time>2023-06-02T12:31:07.000Z</time>
      </trkpt>
      <trkpt lat="46.203" lon="-1.43535">
        <ele>0.05886</ele>
        <time>2023-06-02T12:31:08.000Z</time>
      </trkpt>
      <trkpt lat="46.20298" lon="-1.43529">
        <ele>0.08717</ele>
        <time>2023-06-02T12:31:09.000Z</time>
      </trkpt>
      <trkpt lat="46.20296" lon="-1.43524">
        <ele>0.13052</ele>
        <time>2023-06-02T12:31:10.000Z</time>
      </trkpt>
      <trkpt lat="46.20294" lon="-1.43518">
        <ele>0.18493</ele>
        <time>2023-06-02T12:31:11.000Z</time>
      </trkpt>
      <trkpt lat="46.20292" lon="-1.43512">
        <ele>0.25598</ele>
        <time>2023-06-02T12:31:12.000Z</time>
      </trkpt>
      <trkpt lat="46.20288" lon="-1.43507">
        <ele>0.29332</ele>
        <time>2023-06-02T12:31:13.000Z</time>
      </trkpt>
      <trkpt lat="46.20286" lon="-1.43501">
        <ele>0.3318</ele>
        <time>2023-06-02T12:31:14.000Z</time>
      </trkpt>
      <trkpt lat="46.20285" lon="-1.43496">
        <ele>0.36171</ele>
        <time>2023-06-02T12:31:15.000Z</time>
      </trkpt>
      <trkpt lat="46.20283" lon="-1.4349">
        <ele>0.38394</ele>
        <time>2023-06-02T12:31:16.000Z</time>
      </trkpt>
      <trkpt lat="46.2028" lon="-1.43484">
        <ele>0.38059</ele>
        <time>2023-06-02T12:31:17.000Z</time>
      </trkpt>
      <trkpt lat="46.20277" lon="-1.43478">
        <ele>0.40739</ele>
        <time>2023-06-02T12:31:18.000Z</time>
      </trkpt>
      <trkpt lat="46.20274" lon="-1.43472">
        <ele>0.44094</ele>
        <time>2023-06-02T12:31:19.000Z</time>
      </trkpt>
      <trkpt lat="46.20272" lon="-1.43467">
        <ele>0.51354</ele>
        <time>2023-06-02T12:31:20.000Z</time>
      </trkpt>
      <trkpt lat="46.20269" lon="-1.43461">
        <ele>0.57</ele>
        <time>2023-06-02T12:31:21.000Z</time>
      </trkpt>
      <trkpt lat="46.20267" lon="-1.43455">
        <ele>0.63563</ele>
        <time>2023-06-02T12:31:22.000Z</time>
      </trkpt>
      <trkpt lat="46.20264" lon="-1.43449">
        <ele>0.69219</ele>
        <time>2023-06-02T12:31:23.000Z</time>
      </trkpt>
      <trkpt lat="46.20262" lon="-1.43443">
        <ele>0.71152</ele>
        <time>2023-06-02T12:31:24.000Z</time>
      </trkpt>
      <trkpt lat="46.2026" lon="-1.43437">
        <ele>0.70525</ele>
        <time>2023-06-02T12:31:25.000Z</time>
      </trkpt>
      <trkpt lat="46.20257" lon="-1.4343">
        <ele>0.69186</ele>
        <time>2023-06-02T12:31:26.000Z</time>
      </trkpt>
      <trkpt lat="46.20255" lon="-1.43424">
        <ele>0.68646</ele>
        <time>2023-06-02T12:31:27.000Z</time>
      </trkpt>
      <trkpt lat="46.20254" lon="-1.43419">
        <ele>0.65667</ele>
        <time>2023-06-02T12:31:28.000Z</time>
      </trkpt>
      <trkpt lat="46.20251" lon="-1.43413">
        <ele>0.61625</ele>
        <time>2023-06-02T12:31:29.000Z</time>
      </trkpt>
      <trkpt lat="46.20249" lon="-1.43407">
        <ele>0.56393</ele>
        <time>2023-06-02T12:31:30.000Z</time>
      </trkpt>
      <trkpt lat="46.20247" lon="-1.43401">
        <ele>0.50898</ele>
        <time>2023-06-02T12:31:31.000Z</time>
      </trkpt>
      <trkpt lat="46.20245" lon="-1.43395">
        <ele>0.45921</ele>
        <time>2023-06-02T12:31:32.000Z</time>
      </trkpt>
      <trkpt lat="46.20242" lon="-1.43389">
        <ele>0.41527</ele>
        <time>2023-06-02T12:31:33.000Z</time>
      </trkpt>
      <trkpt lat="46.2024" lon="-1.43383">
        <ele>0.37073</ele>
        <time>2023-06-02T12:31:34.000Z</time>
      </trkpt>
      <trkpt lat="46.20238" lon="-1.43376">
        <ele>0.32827</ele>
        <time>2023-06-02T12:31:35.000Z</time>
      </trkpt>
      <trkpt lat="46.20235" lon="-1.4337">
        <ele>0.25117</ele>
        <time>2023-06-02T12:31:36.000Z</time>
      </trkpt>
      <trkpt lat="46.20233" lon="-1.43364">
        <ele>0.19035</ele>
        <time>2023-06-02T12:31:37.000Z</time>
      </trkpt>
      <trkpt lat="46.2023" lon="-1.43357">
        <ele>0.15341</ele>
        <time>2023-06-02T12:31:38.000Z</time>
      </trkpt>
      <trkpt lat="46.20228" lon="-1.43352">
        <ele>0.12569</ele>
        <time>2023-06-02T12:31:39.000Z</time>
      </trkpt>
      <trkpt lat="46.20225" lon="-1.43346">
        <ele>0.07388</ele>
        <time>2023-06-02T12:31:40.000Z</time>
      </trkpt>
      <trkpt lat="46.20223" lon="-1.4334">
        <ele>0.03526</ele>
        <time>2023-06-02T12:31:41.000Z</time>
      </trkpt>
      <trkpt lat="46.20221" lon="-1.43333">
        <ele>0.00161</ele>
        <time>2023-06-02T12:31:42.000Z</time>
      </trkpt>
      <trkpt lat="46.20219" lon="-1.43327">
        <ele>-0.03186</ele>
        <time>2023-06-02T12:31:43.000Z</time>
      </trkpt>
      <trkpt lat="46.20216" lon="-1.43321">
        <ele>-0.05729</ele>
        <time>2023-06-02T12:31:44.000Z</time>
      </trkpt>
      <trkpt lat="46.20214" lon="-1.43315">
        <ele>-0.04546</ele>
        <time>2023-06-02T12:31:45.000Z</time>
      </trkpt>
      <trkpt lat="46.20211" lon="-1.43308">
        <ele>-0.00346</ele>
        <time>2023-06-02T12:31:46.000Z</time>
      </trkpt>
      <trkpt lat="46.20209" lon="-1.43302">
        <ele>0.03772</ele>
        <time>2023-06-02T12:31:47.000Z</time>
      </trkpt>
      <trkpt lat="46.20205" lon="-1.43296">
        <ele>0.04756</ele>
        <time>2023-06-02T12:31:48.000Z</time>
      </trkpt>
      <trkpt lat="46.20203" lon="-1.4329">
        <ele>0.04855</ele>
        <time>2023-06-02T12:31:49.000Z</time>
      </trkpt>
      <trkpt lat="46.202" lon="-1.43284">
        <ele>0.03237</ele>
        <time>2023-06-02T12:31:50.000Z</time>
      </trkpt>
      <trkpt lat="46.20197" lon="-1.43277">
        <ele>0.00974</ele>
        <time>2023-06-02T12:31:51.000Z</time>
      </trkpt>
      <trkpt lat="46.20195" lon="-1.43271">
        <ele>0.03238</ele>
        <time>2023-06-02T12:31:52.000Z</time>
      </trkpt>
      <trkpt lat="46.20193" lon="-1.43265">
        <ele>0.06836</ele>
        <time>2023-06-02T12:31:53.000Z</time>
      </trkpt>
      <trkpt lat="46.2019" lon="-1.43259">
        <ele>0.10871</ele>
        <time>2023-06-02T12:31:54.000Z</time>
      </trkpt>
      <trkpt lat="46.20188" lon="-1.43254">
        <ele>0.16975</ele>
        <time>2023-06-02T12:31:55.000Z</time>
      </trkpt>
      <trkpt lat="46.20185" lon="-1.43248">
        <ele>0.20865</ele>
        <time>2023-06-02T12:31:56.000Z</time>
      </trkpt>
      <trkpt lat="46.20183" lon="-1.43242">
        <ele>0.22849</ele>
        <time>2023-06-02T12:31:57.000Z</time>
      </trkpt>
      <trkpt lat="46.2018" lon="-1.43235">
        <ele>0.29166</ele>
        <time>2023-06-02T12:31:58.000Z</time>
      </trkpt>
      <trkpt lat="46.20177" lon="-1.43229">
        <ele>0.34388</ele>
        <time>2023-06-02T12:31:59.000Z</time>
      </trkpt>
      <trkpt lat="46.20175" lon="-1.43222">
        <ele>0.3856</ele>
        <time>2023-06-02T12:32:00.000Z</time>
      </trkpt>
      <trkpt lat="46.20172" lon="-1.43216">
        <ele>0.42569</ele>
        <time>2023-06-02T12:32:01.000Z</time>
      </trkpt>
      <trkpt lat="46.2017" lon="-1.43209">
        <ele>0.47317</ele>
        <time>2023-06-02T12:32:02.000Z</time>
      </trkpt>
      <trkpt lat="46.20168" lon="-1.43203">
        <ele>0.52891</ele>
        <time>2023-06-02T12:32:03.000Z</time>
      </trkpt>
      <trkpt lat="46.20165" lon="-1.43197">
        <ele>0.57804</ele>
        <time>2023-06-02T12:32:04.000Z</time>
      </trkpt>
      <trkpt lat="46.20163" lon="-1.43191">
        <ele>0.57178</ele>
        <time>2023-06-02T12:32:05.000Z</time>
      </trkpt>
      <trkpt lat="46.20161" lon="-1.43185">
        <ele>0.59611</ele>
        <time>2023-06-02T12:32:06.000Z</time>
      </trkpt>
      <trkpt lat="46.20159" lon="-1.43179">
        <ele>0.61749</ele>
        <time>2023-06-02T12:32:07.000Z</time>
      </trkpt>
      <trkpt lat="46.20156" lon="-1.43173">
        <ele>0.68574</ele>
        <time>2023-06-02T12:32:08.000Z</time>
      </trkpt>
      <trkpt lat="46.20154" lon="-1.43167">
        <ele>0.76662</ele>
        <time>2023-06-02T12:32:09.000Z</time>
      </trkpt>
      <trkpt lat="46.20152" lon="-1.43161">
        <ele>0.84403</ele>
        <time>2023-06-02T12:32:10.000Z</time>
      </trkpt>
      <trkpt lat="46.2015" lon="-1.43155">
        <ele>0.92889</ele>
        <time>2023-06-02T12:32:11.000Z</time>
      </trkpt>
      <trkpt lat="46.20148" lon="-1.4315">
        <ele>0.96192</ele>
        <time>2023-06-02T12:32:12.000Z</time>
      </trkpt>
      <trkpt lat="46.20146" lon="-1.43144">
        <ele>1.00089</ele>
        <time>2023-06-02T12:32:13.000Z</time>
      </trkpt>
      <trkpt lat="46.20143" lon="-1.43138">
        <ele>1.04927</ele>
        <time>2023-06-02T12:32:14.000Z</time>
      </trkpt>
      <trkpt lat="46.2014" lon="-1.43132">
        <ele>1.0948</ele>
        <time>2023-06-02T12:32:15.000Z</time>
      </trkpt>
      <trkpt lat="46.20138" lon="-1.43127">
        <ele>1.17791</ele>
        <time>2023-06-02T12:32:16.000Z</time>
      </trkpt>
      <trkpt lat="46.20136" lon="-1.43121">
        <ele>1.2587</ele>
        <time>2023-06-02T12:32:17.000Z</time>
      </trkpt>
      <trkpt lat="46.20134" lon="-1.43115">
        <ele>1.27291</ele>
        <time>2023-06-02T12:32:18.000Z</time>
      </trkpt>
      <trkpt lat="46.20132" lon="-1.43108">
        <ele>1.27496</ele>
        <time>2023-06-02T12:32:19.000Z</time>
      </trkpt>
      <trkpt lat="46.2013" lon="-1.43102">
        <ele>1.27181</ele>
        <time>2023-06-02T12:32:20.000Z</time>
      </trkpt>
      <trkpt lat="46.20127" lon="-1.43096">
        <ele>1.26369</ele>
        <time>2023-06-02T12:32:21.000Z</time>
      </trkpt>
      <trkpt lat="46.20124" lon="-1.4309">
        <ele>1.22721</ele>
        <time>2023-06-02T12:32:22.000Z</time>
      </trkpt>
      <trkpt lat="46.20122" lon="-1.43084">
        <ele>1.18187</ele>
        <time>2023-06-02T12:32:23.000Z</time>
      </trkpt>
      <trkpt lat="46.2012" lon="-1.43078">
        <ele>1.10021</ele>
        <time>2023-06-02T12:32:24.000Z</time>
      </trkpt>
      <trkpt lat="46.20117" lon="-1.43071">
        <ele>1.05784</ele>
        <time>2023-06-02T12:32:25.000Z</time>
      </trkpt>
      <trkpt lat="46.20115" lon="-1.43066">
        <ele>0.97467</ele>
        <time>2023-06-02T12:32:26.000Z</time>
      </trkpt>
      <trkpt lat="46.20112" lon="-1.43059">
        <ele>0.87626</ele>
        <time>2023-06-02T12:32:27.000Z</time>
      </trkpt>
      <trkpt lat="46.2011" lon="-1.43053">
        <ele>0.77356</ele>
        <time>2023-06-02T12:32:28.000Z</time>
      </trkpt>
      <trkpt lat="46.20107" lon="-1.43047">
        <ele>0.6478</ele>
        <time>2023-06-02T12:32:29.000Z</time>
      </trkpt>
      <trkpt lat="46.20105" lon="-1.43041">
        <ele>0.57525</ele>
        <time>2023-06-02T12:32:30.000Z</time>
      </trkpt>
      <trkpt lat="46.20102" lon="-1.43034">
        <ele>0.49184</ele>
        <time>2023-06-02T12:32:31.000Z</time>
      </trkpt>
      <trkpt lat="46.201" lon="-1.43028">
        <ele>0.41096</ele>
        <time>2023-06-02T12:32:32.000Z</time>
      </trkpt>
      <trkpt lat="46.20097" lon="-1.43023">
        <ele>0.32142</ele>
        <time>2023-06-02T12:32:33.000Z</time>
      </trkpt>
      <trkpt lat="46.20095" lon="-1.43017">
        <ele>0.22973</ele>
        <time>2023-06-02T12:32:34.000Z</time>
      </trkpt>
      <trkpt lat="46.20093" lon="-1.4301">
        <ele>0.14808</ele>
        <time>2023-06-02T12:32:35.000Z</time>
      </trkpt>
      <trkpt lat="46.2009" lon="-1.43004">
        <ele>0.06526</ele>
        <time>2023-06-02T12:32:36.000Z</time>
      </trkpt>
      <trkpt lat="46.20088" lon="-1.42998">
        <ele>-0.00553</ele>
        <time>2023-06-02T12:32:37.000Z</time>
      </trkpt>
      <trkpt lat="46.20086" lon="-1.42992">
        <ele>-0.05438</ele>
        <time>2023-06-02T12:32:38.000Z</time>
      </trkpt>
      <trkpt lat="46.20083" lon="-1.42986">
        <ele>-0.09009</ele>
        <time>2023-06-02T12:32:39.000Z</time>
      </trkpt>
      <trkpt lat="46.20081" lon="-1.42979">
        <ele>-0.11777</ele>
        <time>2023-06-02T12:32:40.000Z</time>
      </trkpt>
      <trkpt lat="46.20079" lon="-1.42973">
        <ele>-0.14951</ele>
        <time>2023-06-02T12:32:41.000Z</time>
      </trkpt>
      <trkpt lat="46.20076" lon="-1.42966">
        <ele>-0.15406</ele>
        <time>2023-06-02T12:32:42.000Z</time>
      </trkpt>
      <trkpt lat="46.20073" lon="-1.4296">
        <ele>-0.14762</ele>
        <time>2023-06-02T12:32:43.000Z</time>
      </trkpt>
      <trkpt lat="46.2007" lon="-1.42954">
        <ele>-0.14577</ele>
        <time>2023-06-02T12:32:44.000Z</time>
      </trkpt>
      <trkpt lat="46.20068" lon="-1.42947">
        <ele>-0.14157</ele>
        <time>2023-06-02T12:32:45.000Z</time>
      </trkpt>
      <trkpt lat="46.20065" lon="-1.42941">
        <ele>-0.13516</ele>
        <time>2023-06-02T12:32:46.000Z</time>
      </trkpt>
      <trkpt lat="46.20063" lon="-1.42934">
        <ele>-0.08381</ele>
        <time>2023-06-02T12:32:47.000Z</time>
      </trkpt>
      <trkpt lat="46.2006" lon="-1.42928">
        <ele>-0.04757</ele>
        <time>2023-06-02T12:32:48.000Z</time>
      </trkpt>
      <trkpt lat="46.20057" lon="-1.42921">
        <ele>-0.00958</ele>
        <time>2023-06-02T12:32:49.000Z</time>
      </trkpt>
      <trkpt lat="46.20055" lon="-1.42914">
        <ele>0.00756</ele>
        <time>2023-06-02T12:32:50.000Z</time>
      </trkpt>
      <trkpt lat="46.20053" lon="-1.42907">
        <ele>0.0408</ele>
        <time>2023-06-02T12:32:51.000Z</time>
      </trkpt>
      <trkpt lat="46.2005" lon="-1.42901">
        <ele>0.06685</ele>
        <time>2023-06-02T12:32:52.000Z</time>
      </trkpt>
      <trkpt lat="46.20048" lon="-1.42895">
        <ele>0.10435</ele>
        <time>2023-06-02T12:32:53.000Z</time>
      </trkpt>
      <trkpt lat="46.20045" lon="-1.42888">
        <ele>0.13462</ele>
        <time>2023-06-02T12:32:54.000Z</time>
      </trkpt>
      <trkpt lat="46.20042" lon="-1.42881">
        <ele>0.1553</ele>
        <time>2023-06-02T12:32:55.000Z</time>
      </trkpt>
      <trkpt lat="46.2004" lon="-1.42875">
        <ele>0.15347</ele>
        <time>2023-06-02T12:32:56.000Z</time>
      </trkpt>
      <trkpt lat="46.20038" lon="-1.42868">
        <ele>0.12744</ele>
        <time>2023-06-02T12:32:57.000Z</time>
      </trkpt>
      <trkpt lat="46.20035" lon="-1.42862">
        <ele>0.13868</ele>
        <time>2023-06-02T12:32:58.000Z</time>
      </trkpt>
      <trkpt lat="46.20032" lon="-1.42855">
        <ele>0.15964</ele>
        <time>2023-06-02T12:32:59.000Z</time>
      </trkpt>
      <trkpt lat="46.20029" lon="-1.42849">
        <ele>0.19745</ele>
        <time>2023-06-02T12:33:00.000Z</time>
      </trkpt>
      <trkpt lat="46.20027" lon="-1.42842">
        <ele>0.23525</ele>
        <time>2023-06-02T12:33:01.000Z</time>
      </trkpt>
      <trkpt lat="46.20024" lon="-1.42836">
        <ele>0.25999</ele>
        <time>2023-06-02T12:33:02.000Z</time>
      </trkpt>
      <trkpt lat="46.20022" lon="-1.42829">
        <ele>0.2809</ele>
        <time>2023-06-02T12:33:03.000Z</time>
      </trkpt>
      <trkpt lat="46.20019" lon="-1.42823">
        <ele>0.33611</ele>
        <time>2023-06-02T12:33:04.000Z</time>
      </trkpt>
      <trkpt lat="46.20017" lon="-1.42816">
        <ele>0.38503</ele>
        <time>2023-06-02T12:33:05.000Z</time>
      </trkpt>
      <trkpt lat="46.20013" lon="-1.42809">
        <ele>0.41316</ele>
        <time>2023-06-02T12:33:06.000Z</time>
      </trkpt>
      <trkpt lat="46.2001" lon="-1.42802">
        <ele>0.4093</ele>
        <time>2023-06-02T12:33:07.000Z</time>
      </trkpt>
      <trkpt lat="46.20008" lon="-1.42795">
        <ele>0.43993</ele>
        <time>2023-06-02T12:33:08.000Z</time>
      </trkpt>
      <trkpt lat="46.20005" lon="-1.42789">
        <ele>0.46214</ele>
        <time>2023-06-02T12:33:09.000Z</time>
      </trkpt>
      <trkpt lat="46.20002" lon="-1.42783">
        <ele>0.47799</ele>
        <time>2023-06-02T12:33:10.000Z</time>
      </trkpt>
      <trkpt lat="46.2" lon="-1.42777">
        <ele>0.48304</ele>
        <time>2023-06-02T12:33:11.000Z</time>
      </trkpt>
      <trkpt lat="46.19998" lon="-1.42771">
        <ele>0.50995</ele>
        <time>2023-06-02T12:33:12.000Z</time>
      </trkpt>
      <trkpt lat="46.19996" lon="-1.42767">
        <ele>0.5279</ele>
        <time>2023-06-02T12:33:13.000Z</time>
      </trkpt>
      <trkpt lat="46.19994" lon="-1.42762">
        <ele>0.56991</ele>
        <time>2023-06-02T12:33:14.000Z</time>
      </trkpt>
      <trkpt lat="46.19993" lon="-1.42759">
        <ele>0.56054</ele>
        <time>2023-06-02T12:33:15.000Z</time>
      </trkpt>
      <trkpt lat="46.19991" lon="-1.42754">
        <ele>0.63827</ele>
        <time>2023-06-02T12:33:16.000Z</time>
      </trkpt>
      <trkpt lat="46.19989" lon="-1.4275">
        <ele>0.72235</ele>
        <time>2023-06-02T12:33:17.000Z</time>
      </trkpt>
      <trkpt lat="46.19986" lon="-1.42747">
        <ele>0.76405</ele>
        <time>2023-06-02T12:33:18.000Z</time>
      </trkpt>
      <trkpt lat="46.19984" lon="-1.42744">
        <ele>0.75102</ele>
        <time>2023-06-02T12:33:19.000Z</time>
      </trkpt>
      <trkpt lat="46.1998" lon="-1.42742">
        <ele>0.71505</ele>
        <time>2023-06-02T12:33:20.000Z</time>
      </trkpt>
      <trkpt lat="46.19975" lon="-1.4274">
        <ele>0.65904</ele>
        <time>2023-06-02T12:33:21.000Z</time>
      </trkpt>
      <trkpt lat="46.19971" lon="-1.42739">
        <ele>0.62791</ele>
        <time>2023-06-02T12:33:22.000Z</time>
      </trkpt>
      <trkpt lat="46.19966" lon="-1.42738">
        <ele>0.59389</ele>
        <time>2023-06-02T12:33:23.000Z</time>
      </trkpt>
      <trkpt lat="46.19962" lon="-1.42737">
        <ele>0.58648</ele>
        <time>2023-06-02T12:33:24.000Z</time>
      </trkpt>
      <trkpt lat="46.19958" lon="-1.42737">
        <ele>0.55384</ele>
        <time>2023-06-02T12:33:25.000Z</time>
      </trkpt>
      <trkpt lat="46.19954" lon="-1.42738">
        <ele>0.58282</ele>
        <time>2023-06-02T12:33:26.000Z</time>
      </trkpt>
      <trkpt lat="46.19949" lon="-1.42741">
        <ele>0.62815</ele>
        <time>2023-06-02T12:33:27.000Z</time>
      </trkpt>
      <trkpt lat="46.19945" lon="-1.42742">
        <ele>0.66182</ele>
        <time>2023-06-02T12:33:28.000Z</time>
      </trkpt>
      <trkpt lat="46.1994" lon="-1.42745">
        <ele>0.70737</ele>
        <time>2023-06-02T12:33:29.000Z</time>
      </trkpt>
      <trkpt lat="46.19936" lon="-1.42747">
        <ele>0.74296</ele>
        <time>2023-06-02T12:33:30.000Z</time>
      </trkpt>
      <trkpt lat="46.19931" lon="-1.42747">
        <ele>0.75304</ele>
        <time>2023-06-02T12:33:31.000Z</time>
      </trkpt>
      <trkpt lat="46.19927" lon="-1.42749">
        <ele>0.75593</ele>
        <time>2023-06-02T12:33:32.000Z</time>
      </trkpt>
      <trkpt lat="46.19923" lon="-1.42749">
        <ele>0.77096</ele>
        <time>2023-06-02T12:33:33.000Z</time>
      </trkpt>
      <trkpt lat="46.19919" lon="-1.4275">
        <ele>0.75986</ele>
        <time>2023-06-02T12:33:34.000Z</time>
      </trkpt>
      <trkpt lat="46.19913" lon="-1.4275">
        <ele>0.7715</ele>
        <time>2023-06-02T12:33:35.000Z</time>
      </trkpt>
      <trkpt lat="46.19908" lon="-1.4275">
        <ele>0.71418</ele>
        <time>2023-06-02T12:33:36.000Z</time>
      </trkpt>
      <trkpt lat="46.19904" lon="-1.42749">
        <ele>0.65534</ele>
        <time>2023-06-02T12:33:37.000Z</time>
      </trkpt>
      <trkpt lat="46.199" lon="-1.42748">
        <ele>0.58325</ele>
        <time>2023-06-02T12:33:38.000Z</time>
      </trkpt>
      <trkpt lat="46.19896" lon="-1.42745">
        <ele>0.54074</ele>
        <time>2023-06-02T12:33:39.000Z</time>
      </trkpt>
      <trkpt lat="46.19892" lon="-1.42741">
        <ele>0.49224</ele>
        <time>2023-06-02T12:33:40.000Z</time>
      </trkpt>
      <trkpt lat="46.19889" lon="-1.42737">
        <ele>0.486</ele>
        <time>2023-06-02T12:33:41.000Z</time>
      </trkpt>
      <trkpt lat="46.19887" lon="-1.42733">
        <ele>0.47337</ele>
        <time>2023-06-02T12:33:42.000Z</time>
      </trkpt>
      <trkpt lat="46.19884" lon="-1.42728">
        <ele>0.47633</ele>
        <time>2023-06-02T12:33:43.000Z</time>
      </trkpt>
      <trkpt lat="46.19884" lon="-1.42724">
        <ele>0.43417</ele>
        <time>2023-06-02T12:33:44.000Z</time>
      </trkpt>
      <trkpt lat="46.19882" lon="-1.42719">
        <ele>0.44091</ele>
        <time>2023-06-02T12:33:45.000Z</time>
      </trkpt>
      <trkpt lat="46.1988" lon="-1.42713">
        <ele>0.41624</ele>
        <time>2023-06-02T12:33:46.000Z</time>
      </trkpt>
      <trkpt lat="46.19878" lon="-1.42708">
        <ele>0.36032</ele>
        <time>2023-06-02T12:33:47.000Z</time>
      </trkpt>
      <trkpt lat="46.19877" lon="-1.42702">
        <ele>0.32072</ele>
        <time>2023-06-02T12:33:48.000Z</time>
      </trkpt>
      <trkpt lat="46.19875" lon="-1.42697">
        <ele>0.28435</ele>
        <time>2023-06-02T12:33:49.000Z</time>
      </trkpt>
      <trkpt lat="46.19874" lon="-1.42691">
        <ele>0.26837</ele>
        <time>2023-06-02T12:33:50.000Z</time>
      </trkpt>
      <trkpt lat="46.19873" lon="-1.42685">
        <ele>0.26436</ele>
        <time>2023-06-02T12:33:51.000Z</time>
      </trkpt>
      <trkpt lat="46.19873" lon="-1.42679">
        <ele>0.23881</ele>
        <time>2023-06-02T12:33:52.000Z</time>
      </trkpt>
      <trkpt lat="46.19872" lon="-1.42673">
        <ele>0.27155</ele>
        <time>2023-06-02T12:33:53.000Z</time>
      </trkpt>
      <trkpt lat="46.19871" lon="-1.42667">
        <ele>0.28098</ele>
        <time>2023-06-02T12:33:54.000Z</time>
      </trkpt>
      <trkpt lat="46.1987" lon="-1.42661">
        <ele>0.31074</ele>
        <time>2023-06-02T12:33:55.000Z</time>
      </trkpt>
      <trkpt lat="46.19868" lon="-1.42655">
        <ele>0.31493</ele>
        <time>2023-06-02T12:33:56.000Z</time>
      </trkpt>
      <trkpt lat="46.19867" lon="-1.4265">
        <ele>0.33223</ele>
        <time>2023-06-02T12:33:57.000Z</time>
      </trkpt>
      <trkpt lat="46.19865" lon="-1.42646">
        <ele>0.36442</ele>
        <time>2023-06-02T12:33:58.000Z</time>
      </trkpt>
      <trkpt lat="46.19864" lon="-1.42642">
        <ele>0.42819</ele>
        <time>2023-06-02T12:33:59.000Z</time>
      </trkpt>
      <trkpt lat="46.19862" lon="-1.42639">
        <ele>0.5029</ele>
        <time>2023-06-02T12:34:00.000Z</time>
      </trkpt>
      <trkpt lat="46.1986" lon="-1.42635">
        <ele>0.54175</ele>
        <time>2023-06-02T12:34:01.000Z</time>
      </trkpt>
      <trkpt lat="46.19857" lon="-1.42633">
        <ele>0.55371</ele>
        <time>2023-06-02T12:34:02.000Z</time>
      </trkpt>
      <trkpt lat="46.19855" lon="-1.4263">
        <ele>0.53487</ele>
        <time>2023-06-02T12:34:03.000Z</time>
      </trkpt>
      <trkpt lat="46.19853" lon="-1.42628">
        <ele>0.59235</ele>
        <time>2023-06-02T12:34:04.000Z</time>
      </trkpt>
      <trkpt lat="46.19851" lon="-1.42627">
        <ele>0.59444</ele>
        <time>2023-06-02T12:34:05.000Z</time>
      </trkpt>
      <trkpt lat="46.19849" lon="-1.42626">
        <ele>0.58618</ele>
        <time>2023-06-02T12:34:06.000Z</time>
      </trkpt>
      <trkpt lat="46.19847" lon="-1.42624">
        <ele>0.58104</ele>
        <time>2023-06-02T12:34:07.000Z</time>
      </trkpt>
      <trkpt lat="46.19845" lon="-1.42621">
        <ele>0.5456</ele>
        <time>2023-06-02T12:34:09.000Z</time>
      </trkpt>
      <trkpt lat="46.19843" lon="-1.42619">
        <ele>0.51215</ele>
        <time>2023-06-02T12:34:10.000Z</time>
      </trkpt>
      <trkpt lat="46.19841" lon="-1.42618">
        <ele>0.44122</ele>
        <time>2023-06-02T12:34:11.000Z</time>
      </trkpt>
      <trkpt lat="46.19839" lon="-1.42619">
        <ele>0.39283</ele>
        <time>2023-06-02T12:34:13.000Z</time>
      </trkpt>
      <trkpt lat="46.19837" lon="-1.42623">
        <ele>0.34575</ele>
        <time>2023-06-02T12:34:15.000Z</time>
      </trkpt>
      <trkpt lat="46.19836" lon="-1.42626">
        <ele>0.22763</ele>
        <time>2023-06-02T12:34:16.000Z</time>
      </trkpt>
      <trkpt lat="46.19833" lon="-1.42627">
        <ele>0.13348</ele>
        <time>2023-06-02T12:34:17.000Z</time>
      </trkpt>
      <trkpt lat="46.1983" lon="-1.42626">
        <ele>0.03492</ele>
        <time>2023-06-02T12:34:18.000Z</time>
      </trkpt>
      <trkpt lat="46.19828" lon="-1.42624">
        <ele>-0.02596</ele>
        <time>2023-06-02T12:34:19.000Z</time>
      </trkpt>
      <trkpt lat="46.19827" lon="-1.42621">
        <ele>-0.09287</ele>
        <time>2023-06-02T12:34:20.000Z</time>
      </trkpt>
      <trkpt lat="46.19827" lon="-1.42618">
        <ele>-0.1691</ele>
        <time>2023-06-02T12:34:21.000Z</time>
      </trkpt>
      <trkpt lat="46.19829" lon="-1.42614">
        <ele>-0.25781</ele>
        <time>2023-06-02T12:34:22.000Z</time>
      </trkpt>
      <trkpt lat="46.19831" lon="-1.42611">
        <ele>-0.34503</ele>
        <time>2023-06-02T12:34:23.000Z</time>
      </trkpt>
      <trkpt lat="46.19832" lon="-1.42608">
        <ele>-0.41495</ele>
        <time>2023-06-02T12:34:24.000Z</time>
      </trkpt>
      <trkpt lat="46.19832" lon="-1.42605">
        <ele>-0.45135</ele>
        <time>2023-06-02T12:34:25.000Z</time>
      </trkpt>
      <trkpt lat="46.19832" lon="-1.42602">
        <ele>-0.45634</ele>
        <time>2023-06-02T12:34:26.000Z</time>
      </trkpt>
      <trkpt lat="46.1983" lon="-1.426">
        <ele>-0.52738</ele>
        <time>2023-06-02T12:34:27.000Z</time>
      </trkpt>
      <trkpt lat="46.19828" lon="-1.42598">
        <ele>-0.57476</ele>
        <time>2023-06-02T12:34:28.000Z</time>
      </trkpt>
      <trkpt lat="46.19826" lon="-1.42596">
        <ele>-0.61657</ele>
        <time>2023-06-02T12:34:29.000Z</time>
      </trkpt>
      <trkpt lat="46.19824" lon="-1.42593">
        <ele>-0.65999</ele>
        <time>2023-06-02T12:34:30.000Z</time>
      </trkpt>
      <trkpt lat="46.19821" lon="-1.4259">
        <ele>-0.70819</ele>
        <time>2023-06-02T12:34:31.000Z</time>
      </trkpt>
      <trkpt lat="46.19818" lon="-1.42586">
        <ele>-0.75897</ele>
        <time>2023-06-02T12:34:32.000Z</time>
      </trkpt>
      <trkpt lat="46.19816" lon="-1.42583">
        <ele>-0.78964</ele>
        <time>2023-06-02T12:34:33.000Z</time>
      </trkpt>
      <trkpt lat="46.19813" lon="-1.42579">
        <ele>-0.82181</ele>
        <time>2023-06-02T12:34:34.000Z</time>
      </trkpt>
      <trkpt lat="46.19811" lon="-1.42576">
        <ele>-0.85992</ele>
        <time>2023-06-02T12:34:35.000Z</time>
      </trkpt>
      <trkpt lat="46.19808" lon="-1.42573">
        <ele>-0.8964</ele>
        <time>2023-06-02T12:34:36.000Z</time>
      </trkpt>
      <trkpt lat="46.19806" lon="-1.42569">
        <ele>-0.89067</ele>
        <time>2023-06-02T12:34:37.000Z</time>
      </trkpt>
      <trkpt lat="46.19803" lon="-1.42566">
        <ele>-0.8925</ele>
        <time>2023-06-02T12:34:38.000Z</time>
      </trkpt>
      <trkpt lat="46.198" lon="-1.42563">
        <ele>-0.90719</ele>
        <time>2023-06-02T12:34:39.000Z</time>
      </trkpt>
      <trkpt lat="46.19798" lon="-1.4256">
        <ele>-0.91556</ele>
        <time>2023-06-02T12:34:40.000Z</time>
      </trkpt>
      <trkpt lat="46.19795" lon="-1.42558">
        <ele>-0.91138</ele>
        <time>2023-06-02T12:34:41.000Z</time>
      </trkpt>
      <trkpt lat="46.19793" lon="-1.42555">
        <ele>-0.90718</ele>
        <time>2023-06-02T12:34:42.000Z</time>
      </trkpt>
      <trkpt lat="46.19791" lon="-1.42553">
        <ele>-0.91806</ele>
        <time>2023-06-02T12:34:43.000Z</time>
      </trkpt>
      <trkpt lat="46.19789" lon="-1.4255">
        <ele>-0.94446</ele>
        <time>2023-06-02T12:34:44.000Z</time>
      </trkpt>
      <trkpt lat="46.19788" lon="-1.42547">
        <ele>-0.9795</ele>
        <time>2023-06-02T12:34:45.000Z</time>
      </trkpt>
      <trkpt lat="46.19786" lon="-1.42544">
        <ele>-1.03518</ele>
        <time>2023-06-02T12:34:46.000Z</time>
      </trkpt>
      <trkpt lat="46.19785" lon="-1.4254">
        <ele>-1.07263</ele>
        <time>2023-06-02T12:34:47.000Z</time>
      </trkpt>
      <trkpt lat="46.19783" lon="-1.42538">
        <ele>-1.11217</ele>
        <time>2023-06-02T12:34:48.000Z</time>
      </trkpt>
      <trkpt lat="46.19781" lon="-1.42535">
        <ele>-1.15133</ele>
        <time>2023-06-02T12:34:49.000Z</time>
      </trkpt>
      <trkpt lat="46.19779" lon="-1.42532">
        <ele>-1.17057</ele>
        <time>2023-06-02T12:34:50.000Z</time>
      </trkpt>
      <trkpt lat="46.19777" lon="-1.4253">
        <ele>-1.18324</ele>
        <time>2023-06-02T12:34:51.000Z</time>
      </trkpt>
      <trkpt lat="46.19775" lon="-1.42527">
        <ele>-1.18403</ele>
        <time>2023-06-02T12:34:52.000Z</time>
      </trkpt>
      <trkpt lat="46.19773" lon="-1.42524">
        <ele>-1.19194</ele>
        <time>2023-06-02T12:34:53.000Z</time>
      </trkpt>
      <trkpt lat="46.19771" lon="-1.42522">
        <ele>-1.21972</ele>
        <time>2023-06-02T12:34:54.000Z</time>
      </trkpt>
      <trkpt lat="46.19769" lon="-1.42519">
        <ele>-1.21074</ele>
        <time>2023-06-02T12:34:55.000Z</time>
      </trkpt>
      <trkpt lat="46.19766" lon="-1.42517">
        <ele>-1.1886</ele>
        <time>2023-06-02T12:34:56.000Z</time>
      </trkpt>
      <trkpt lat="46.19764" lon="-1.42515">
        <ele>-1.20594</ele>
        <time>2023-06-02T12:34:57.000Z</time>
      </trkpt>
      <trkpt lat="46.19762" lon="-1.42512">
        <ele>-1.21064</ele>
        <time>2023-06-02T12:34:58.000Z</time>
      </trkpt>
      <trkpt lat="46.19761" lon="-1.42509">
        <ele>-1.20415</ele>
        <time>2023-06-02T12:34:59.000Z</time>
      </trkpt>
      <trkpt lat="46.19759" lon="-1.42506">
        <ele>-1.20017</ele>
        <time>2023-06-02T12:35:00.000Z</time>
      </trkpt>
      <trkpt lat="46.19757" lon="-1.42504">
        <ele>-1.18188</ele>
        <time>2023-06-02T12:35:01.000Z</time>
      </trkpt>
      <trkpt lat="46.19755" lon="-1.42502">
        <ele>-1.15668</ele>
        <time>2023-06-02T12:35:02.000Z</time>
      </trkpt>
      <trkpt lat="46.19753" lon="-1.42499">
        <ele>-1.11906</ele>
        <time>2023-06-02T12:35:03.000Z</time>
      </trkpt>
      <trkpt lat="46.19751" lon="-1.42497">
        <ele>-1.04707</ele>
        <time>2023-06-02T12:35:04.000Z</time>
      </trkpt>
      <trkpt lat="46.19749" lon="-1.42494">
        <ele>-0.9956</ele>
        <time>2023-06-02T12:35:05.000Z</time>
      </trkpt>
      <trkpt lat="46.19747" lon="-1.42492">
        <ele>-0.9211</ele>
        <time>2023-06-02T12:35:06.000Z</time>
      </trkpt>
      <trkpt lat="46.19745" lon="-1.42489">
        <ele>-0.83858</ele>
        <time>2023-06-02T12:35:07.000Z</time>
      </trkpt>
      <trkpt lat="46.19744" lon="-1.42487">
        <ele>-0.74069</ele>
        <time>2023-06-02T12:35:08.000Z</time>
      </trkpt>
      <trkpt lat="46.19743" lon="-1.42483">
        <ele>-0.65005</ele>
        <time>2023-06-02T12:35:09.000Z</time>
      </trkpt>
      <trkpt lat="46.19744" lon="-1.42478">
        <ele>-0.55704</ele>
        <time>2023-06-02T12:35:10.000Z</time>
      </trkpt>
      <trkpt lat="46.19745" lon="-1.42474">
        <ele>-0.46082</ele>
        <time>2023-06-02T12:35:11.000Z</time>
      </trkpt>
      <trkpt lat="46.19747" lon="-1.4247">
        <ele>-0.40976</ele>
        <time>2023-06-02T12:35:12.000Z</time>
      </trkpt>
      <trkpt lat="46.1975" lon="-1.42467">
        <ele>-0.3449</ele>
        <time>2023-06-02T12:35:13.000Z</time>
      </trkpt>
      <trkpt lat="46.19752" lon="-1.42463">
        <ele>-0.25778</ele>
        <time>2023-06-02T12:35:14.000Z</time>
      </trkpt>
      <trkpt lat="46.19754" lon="-1.42459">
        <ele>-0.19628</ele>
        <time>2023-06-02T12:35:15.000Z</time>
      </trkpt>
      <trkpt lat="46.19756" lon="-1.42456">
        <ele>-0.12751</ele>
        <time>2023-06-02T12:35:16.000Z</time>
      </trkpt>
      <trkpt lat="46.19758" lon="-1.42452">
        <ele>-0.05596</ele>
        <time>2023-06-02T12:35:17.000Z</time>
      </trkpt>
      <trkpt lat="46.1976" lon="-1.42449">
        <ele>0.02154</ele>
        <time>2023-06-02T12:35:18.000Z</time>
      </trkpt>
      <trkpt lat="46.19761" lon="-1.42445">
        <ele>0.11841</ele>
        <time>2023-06-02T12:35:19.000Z</time>
      </trkpt>
      <trkpt lat="46.19762" lon="-1.42442">
        <ele>0.23271</ele>
        <time>2023-06-02T12:35:20.000Z</time>
      </trkpt>
      <trkpt lat="46.19764" lon="-1.42439">
        <ele>0.31313</ele>
        <time>2023-06-02T12:35:21.000Z</time>
      </trkpt>
      <trkpt lat="46.19765" lon="-1.42436">
        <ele>0.3738</ele>
        <time>2023-06-02T12:35:22.000Z</time>
      </trkpt>
      <trkpt lat="46.19766" lon="-1.42432">
        <ele>0.43644</ele>
        <time>2023-06-02T12:35:23.000Z</time>
      </trkpt>
      <trkpt lat="46.19767" lon="-1.42429">
        <ele>0.48909</ele>
        <time>2023-06-02T12:35:24.000Z</time>
      </trkpt>
      <trkpt lat="46.19767" lon="-1.42425">
        <ele>0.55825</ele>
        <time>2023-06-02T12:35:25.000Z</time>
      </trkpt>
      <trkpt lat="46.19766" lon="-1.42422">
        <ele>0.60295</ele>
        <time>2023-06-02T12:35:26.000Z</time>
      </trkpt>
      <trkpt lat="46.19764" lon="-1.4242">
        <ele>0.61219</ele>
        <time>2023-06-02T12:35:27.000Z</time>
      </trkpt>
      <trkpt lat="46.19762" lon="-1.42418">
        <ele>0.61112</ele>
        <time>2023-06-02T12:35:28.000Z</time>
      </trkpt>
      <trkpt lat="46.1976" lon="-1.42417">
        <ele>0.57312</ele>
        <time>2023-06-02T12:35:29.000Z</time>
      </trkpt>
      <trkpt lat="46.19758" lon="-1.42414">
        <ele>0.50404</ele>
        <time>2023-06-02T12:35:30.000Z</time>
      </trkpt>
      <trkpt lat="46.19756" lon="-1.42412">
        <ele>0.4402</ele>
        <time>2023-06-02T12:35:31.000Z</time>
      </trkpt>
      <trkpt lat="46.19754" lon="-1.42409">
        <ele>0.46859</ele>
        <time>2023-06-02T12:35:32.000Z</time>
      </trkpt>
      <trkpt lat="46.19752" lon="-1.42407">
        <ele>0.50654</ele>
        <time>2023-06-02T12:35:33.000Z</time>
      </trkpt>
      <trkpt lat="46.1975" lon="-1.42404">
        <ele>0.55532</ele>
        <time>2023-06-02T12:35:34.000Z</time>
      </trkpt>
      <trkpt lat="46.19748" lon="-1.42402">
        <ele>0.63745</ele>
        <time>2023-06-02T12:35:35.000Z</time>
      </trkpt>
      <trkpt lat="46.19746" lon="-1.424">
        <ele>0.71947</ele>
        <time>2023-06-02T12:35:36.000Z</time>
      </trkpt>
      <trkpt lat="46.19744" lon="-1.42397">
        <ele>0.78536</ele>
        <time>2023-06-02T12:35:37.000Z</time>
      </trkpt>
      <trkpt lat="46.19742" lon="-1.42394">
        <ele>0.85124</ele>
        <time>2023-06-02T12:35:38.000Z</time>
      </trkpt>
      <trkpt lat="46.1974" lon="-1.42391">
        <ele>0.90222</ele>
        <time>2023-06-02T12:35:39.000Z</time>
      </trkpt>
      <trkpt lat="46.19738" lon="-1.42389">
        <ele>0.94536</ele>
        <time>2023-06-02T12:35:40.000Z</time>
      </trkpt>
      <trkpt lat="46.19736" lon="-1.42386">
        <ele>1.01384</ele>
        <time>2023-06-02T12:35:41.000Z</time>
      </trkpt>
      <trkpt lat="46.19734" lon="-1.42384">
        <ele>1.08123</ele>
        <time>2023-06-02T12:35:42.000Z</time>
      </trkpt>
      <trkpt lat="46.19732" lon="-1.42381">
        <ele>1.14611</ele>
        <time>2023-06-02T12:35:43.000Z</time>
      </trkpt>
      <trkpt lat="46.19729" lon="-1.42379">
        <ele>1.21972</ele>
        <time>2023-06-02T12:35:44.000Z</time>
      </trkpt>
      <trkpt lat="46.19727" lon="-1.42376">
        <ele>1.28538</ele>
        <time>2023-06-02T12:35:45.000Z</time>
      </trkpt>
      <trkpt lat="46.19725" lon="-1.42374">
        <ele>1.3621</ele>
        <time>2023-06-02T12:35:46.000Z</time>
      </trkpt>
      <trkpt lat="46.19723" lon="-1.42372">
        <ele>1.46844</ele>
        <time>2023-06-02T12:35:47.000Z</time>
      </trkpt>
      <trkpt lat="46.1972" lon="-1.4237">
        <ele>1.56778</ele>
        <time>2023-06-02T12:35:48.000Z</time>
      </trkpt>
      <trkpt lat="46.19717" lon="-1.42368">
        <ele>1.70091</ele>
        <time>2023-06-02T12:35:49.000Z</time>
      </trkpt>
      <trkpt lat="46.19715" lon="-1.42365">
        <ele>1.84782</ele>
        <time>2023-06-02T12:35:50.000Z</time>
      </trkpt>
      <trkpt lat="46.19713" lon="-1.42362">
        <ele>1.92702</ele>
        <time>2023-06-02T12:35:51.000Z</time>
      </trkpt>
      <trkpt lat="46.19711" lon="-1.4236">
        <ele>1.93249</ele>
        <time>2023-06-02T12:35:52.000Z</time>
      </trkpt>
      <trkpt lat="46.19709" lon="-1.42357">
        <ele>1.99115</ele>
        <time>2023-06-02T12:35:53.000Z</time>
      </trkpt>
      <trkpt lat="46.19707" lon="-1.42354">
        <ele>2.01935</ele>
        <time>2023-06-02T12:35:54.000Z</time>
      </trkpt>
      <trkpt lat="46.19705" lon="-1.42351">
        <ele>2.0383</ele>
        <time>2023-06-02T12:35:55.000Z</time>
      </trkpt>
      <trkpt lat="46.19703" lon="-1.42347">
        <ele>2.04855</ele>
        <time>2023-06-02T12:35:56.000Z</time>
      </trkpt>
      <trkpt lat="46.19701" lon="-1.42344">
        <ele>2.10268</ele>
        <time>2023-06-02T12:35:57.000Z</time>
      </trkpt>
      <trkpt lat="46.19699" lon="-1.42341">
        <ele>2.12735</ele>
        <time>2023-06-02T12:35:58.000Z</time>
      </trkpt>
      <trkpt lat="46.19697" lon="-1.42337">
        <ele>2.13897</ele>
        <time>2023-06-02T12:35:59.000Z</time>
      </trkpt>
      <trkpt lat="46.19695" lon="-1.42333">
        <ele>2.1635</ele>
        <time>2023-06-02T12:36:00.000Z</time>
      </trkpt>
      <trkpt lat="46.19693" lon="-1.4233">
        <ele>2.17345</ele>
        <time>2023-06-02T12:36:01.000Z</time>
      </trkpt>
      <trkpt lat="46.19692" lon="-1.42326">
        <ele>2.17819</ele>
        <time>2023-06-02T12:36:02.000Z</time>
      </trkpt>
      <trkpt lat="46.1969" lon="-1.42322">
        <ele>2.15543</ele>
        <time>2023-06-02T12:36:03.000Z</time>
      </trkpt>
      <trkpt lat="46.19688" lon="-1.42318">
        <ele>2.09545</ele>
        <time>2023-06-02T12:36:04.000Z</time>
      </trkpt>
      <trkpt lat="46.19686" lon="-1.42315">
        <ele>2.03261</ele>
        <time>2023-06-02T12:36:05.000Z</time>
      </trkpt>
      <trkpt lat="46.19684" lon="-1.42311">
        <ele>1.98567</ele>
        <time>2023-06-02T12:36:06.000Z</time>
      </trkpt>
      <trkpt lat="46.19682" lon="-1.42307">
        <ele>1.95358</ele>
        <time>2023-06-02T12:36:07.000Z</time>
      </trkpt>
      <trkpt lat="46.1968" lon="-1.42304">
        <ele>1.90207</ele>
        <time>2023-06-02T12:36:08.000Z</time>
      </trkpt>
      <trkpt lat="46.19678" lon="-1.423">
        <ele>1.83996</ele>
        <time>2023-06-02T12:36:09.000Z</time>
      </trkpt>
      <trkpt lat="46.19676" lon="-1.42296">
        <ele>1.78217</ele>
        <time>2023-06-02T12:36:10.000Z</time>
      </trkpt>
      <trkpt lat="46.19674" lon="-1.42292">
        <ele>1.80765</ele>
        <time>2023-06-02T12:36:11.000Z</time>
      </trkpt>
      <trkpt lat="46.19672" lon="-1.42288">
        <ele>1.84325</ele>
        <time>2023-06-02T12:36:12.000Z</time>
      </trkpt>
      <trkpt lat="46.1967" lon="-1.42284">
        <ele>1.81381</ele>
        <time>2023-06-02T12:36:13.000Z</time>
      </trkpt>
      <trkpt lat="46.19669" lon="-1.4228">
        <ele>1.79123</ele>
        <time>2023-06-02T12:36:14.000Z</time>
      </trkpt>
      <trkpt lat="46.19667" lon="-1.42276">
        <ele>1.75846</ele>
        <time>2023-06-02T12:36:15.000Z</time>
      </trkpt>
      <trkpt lat="46.19665" lon="-1.42272">
        <ele>1.71205</ele>
        <time>2023-06-02T12:36:16.000Z</time>
      </trkpt>
      <trkpt lat="46.19664" lon="-1.42268">
        <ele>1.6095</ele>
        <time>2023-06-02T12:36:17.000Z</time>
      </trkpt>
      <trkpt lat="46.19662" lon="-1.42264">
        <ele>1.53238</ele>
        <time>2023-06-02T12:36:18.000Z</time>
      </trkpt>
      <trkpt lat="46.19661" lon="-1.4226">
        <ele>1.46645</ele>
        <time>2023-06-02T12:36:19.000Z</time>
      </trkpt>
      <trkpt lat="46.1966" lon="-1.42256">
        <ele>1.39218</ele>
        <time>2023-06-02T12:36:20.000Z</time>
      </trkpt>
      <trkpt lat="46.19658" lon="-1.42252">
        <ele>1.30536</ele>
        <time>2023-06-02T12:36:21.000Z</time>
      </trkpt>
      <trkpt lat="46.19656" lon="-1.42248">
        <ele>1.22575</ele>
        <time>2023-06-02T12:36:22.000Z</time>
      </trkpt>
      <trkpt lat="46.19655" lon="-1.42244">
        <ele>1.21643</ele>
        <time>2023-06-02T12:36:23.000Z</time>
      </trkpt>
      <trkpt lat="46.19653" lon="-1.4224">
        <ele>1.21495</ele>
        <time>2023-06-02T12:36:24.000Z</time>
      </trkpt>
      <trkpt lat="46.19652" lon="-1.42236">
        <ele>1.23703</ele>
        <time>2023-06-02T12:36:25.000Z</time>
      </trkpt>
      <trkpt lat="46.19652" lon="-1.42231">
        <ele>1.21586</ele>
        <time>2023-06-02T12:36:26.000Z</time>
      </trkpt>
      <trkpt lat="46.19652" lon="-1.42227">
        <ele>1.18084</ele>
        <time>2023-06-02T12:36:27.000Z</time>
      </trkpt>
      <trkpt lat="46.19652" lon="-1.42222">
        <ele>1.17747</ele>
        <time>2023-06-02T12:36:28.000Z</time>
      </trkpt>
      <trkpt lat="46.19652" lon="-1.42218">
        <ele>1.19364</ele>
        <time>2023-06-02T12:36:29.000Z</time>
      </trkpt>
      <trkpt lat="46.19652" lon="-1.42214">
        <ele>1.21649</ele>
        <time>2023-06-02T12:36:30.000Z</time>
      </trkpt>
      <trkpt lat="46.19651" lon="-1.4221">
        <ele>1.20792</ele>
        <time>2023-06-02T12:36:31.000Z</time>
      </trkpt>
      <trkpt lat="46.19651" lon="-1.42205">
        <ele>1.2195</ele>
        <time>2023-06-02T12:36:32.000Z</time>
      </trkpt>
      <trkpt lat="46.19651" lon="-1.42201">
        <ele>1.24461</ele>
        <time>2023-06-02T12:36:33.000Z</time>
      </trkpt>
      <trkpt lat="46.19651" lon="-1.42196">
        <ele>1.27386</ele>
        <time>2023-06-02T12:36:34.000Z</time>
      </trkpt>
      <trkpt lat="46.19651" lon="-1.42192">
        <ele>1.27599</ele>
        <time>2023-06-02T12:36:35.000Z</time>
      </trkpt>
      <trkpt lat="46.1965" lon="-1.42188">
        <ele>1.29507</ele>
        <time>2023-06-02T12:36:36.000Z</time>
      </trkpt>
      <trkpt lat="46.19649" lon="-1.42183">
        <ele>1.30781</ele>
        <time>2023-06-02T12:36:37.000Z</time>
      </trkpt>
      <trkpt lat="46.19649" lon="-1.42179">
        <ele>1.32517</ele>
        <time>2023-06-02T12:36:38.000Z</time>
      </trkpt>
      <trkpt lat="46.19649" lon="-1.42175">
        <ele>1.44025</ele>
        <time>2023-06-02T12:36:39.000Z</time>
      </trkpt>
      <trkpt lat="46.19649" lon="-1.4217">
        <ele>1.55575</ele>
        <time>2023-06-02T12:36:40.000Z</time>
      </trkpt>
      <trkpt lat="46.19649" lon="-1.42166">
        <ele>1.69543</ele>
        <time>2023-06-02T12:36:41.000Z</time>
      </trkpt>
      <trkpt lat="46.19649" lon="-1.42163">
        <ele>1.85247</ele>
        <time>2023-06-02T12:36:42.000Z</time>
      </trkpt>
      <trkpt lat="46.19648" lon="-1.42159">
        <ele>1.98911</ele>
        <time>2023-06-02T12:36:43.000Z</time>
      </trkpt>
      <trkpt lat="46.19648" lon="-1.42155">
        <ele>2.13304</ele>
        <time>2023-06-02T12:36:44.000Z</time>
      </trkpt>
      <trkpt lat="46.19648" lon="-1.42151">
        <ele>2.23157</ele>
        <time>2023-06-02T12:36:45.000Z</time>
      </trkpt>
      <trkpt lat="46.19647" lon="-1.42147">
        <ele>2.34496</ele>
        <time>2023-06-02T12:36:46.000Z</time>
      </trkpt>
      <trkpt lat="46.19647" lon="-1.42143">
        <ele>2.48479</ele>
        <time>2023-06-02T12:36:47.000Z</time>
      </trkpt>
      <trkpt lat="46.19647" lon="-1.42138">
        <ele>2.62003</ele>
        <time>2023-06-02T12:36:48.000Z</time>
      </trkpt>
      <trkpt lat="46.19647" lon="-1.42134">
        <ele>2.75683</ele>
        <time>2023-06-02T12:36:49.000Z</time>
      </trkpt>
      <trkpt lat="46.19646" lon="-1.42129">
        <ele>2.89205</ele>
        <time>2023-06-02T12:36:50.000Z</time>
      </trkpt>
      <trkpt lat="46.19646" lon="-1.42124">
        <ele>3.04723</ele>
        <time>2023-06-02T12:36:51.000Z</time>
      </trkpt>
      <trkpt lat="46.19645" lon="-1.42119">
        <ele>3.19138</ele>
        <time>2023-06-02T12:36:52.000Z</time>
      </trkpt>
      <trkpt lat="46.19645" lon="-1.42114">
        <ele>3.33355</ele>
        <time>2023-06-02T12:36:53.000Z</time>
      </trkpt>
      <trkpt lat="46.19644" lon="-1.42109">
        <ele>3.46098</ele>
        <time>2023-06-02T12:36:54.000Z</time>
      </trkpt>
      <trkpt lat="46.19643" lon="-1.42104">
        <ele>3.61383</ele>
        <time>2023-06-02T12:36:55.000Z</time>
      </trkpt>
      <trkpt lat="46.19642" lon="-1.42098">
        <ele>3.73754</ele>
        <time>2023-06-02T12:36:56.000Z</time>
      </trkpt>
      <trkpt lat="46.19642" lon="-1.42094">
        <ele>3.89663</ele>
        <time>2023-06-02T12:36:57.000Z</time>
      </trkpt>
      <trkpt lat="46.1964" lon="-1.42089">
        <ele>4.05003</ele>
        <time>2023-06-02T12:36:58.000Z</time>
      </trkpt>
      <trkpt lat="46.19639" lon="-1.42084">
        <ele>4.11596</ele>
        <time>2023-06-02T12:36:59.000Z</time>
      </trkpt>
      <trkpt lat="46.19638" lon="-1.42079">
        <ele>4.18253</ele>
        <time>2023-06-02T12:37:00.000Z</time>
      </trkpt>
      <trkpt lat="46.19637" lon="-1.42074">
        <ele>4.22959</ele>
        <time>2023-06-02T12:37:01.000Z</time>
      </trkpt>
      <trkpt lat="46.19635" lon="-1.42069">
        <ele>4.2768</ele>
        <time>2023-06-02T12:37:02.000Z</time>
      </trkpt>
      <trkpt lat="46.19634" lon="-1.42064">
        <ele>4.29715</ele>
        <time>2023-06-02T12:37:03.000Z</time>
      </trkpt>
      <trkpt lat="46.19633" lon="-1.42059">
        <ele>4.34179</ele>
        <time>2023-06-02T12:37:04.000Z</time>
      </trkpt>
      <trkpt lat="46.19632" lon="-1.42055">
        <ele>4.40497</ele>
        <time>2023-06-02T12:37:05.000Z</time>
      </trkpt>
      <trkpt lat="46.1963" lon="-1.4205">
        <ele>4.4696</ele>
        <time>2023-06-02T12:37:06.000Z</time>
      </trkpt>
      <trkpt lat="46.19629" lon="-1.42046">
        <ele>4.48736</ele>
        <time>2023-06-02T12:37:07.000Z</time>
      </trkpt>
      <trkpt lat="46.19628" lon="-1.42041">
        <ele>4.49621</ele>
        <time>2023-06-02T12:37:08.000Z</time>
      </trkpt>
      <trkpt lat="46.19627" lon="-1.42037">
        <ele>4.50511</ele>
        <time>2023-06-02T12:37:09.000Z</time>
      </trkpt>
      <trkpt lat="46.19626" lon="-1.42032">
        <ele>4.49859</ele>
        <time>2023-06-02T12:37:10.000Z</time>
      </trkpt>
      <trkpt lat="46.19625" lon="-1.42028">
        <ele>4.46132</ele>
        <time>2023-06-02T12:37:11.000Z</time>
      </trkpt>
      <trkpt lat="46.19624" lon="-1.42023">
        <ele>4.41534</ele>
        <time>2023-06-02T12:37:12.000Z</time>
      </trkpt>
      <trkpt lat="46.19622" lon="-1.42019">
        <ele>4.35102</ele>
        <time>2023-06-02T12:37:13.000Z</time>
      </trkpt>
      <trkpt lat="46.19622" lon="-1.42014">
        <ele>4.29774</ele>
        <time>2023-06-02T12:37:14.000Z</time>
      </trkpt>
      <trkpt lat="46.19621" lon="-1.4201">
        <ele>4.2438</ele>
        <time>2023-06-02T12:37:15.000Z</time>
      </trkpt>
      <trkpt lat="46.1962" lon="-1.42006">
        <ele>4.21936</ele>
        <time>2023-06-02T12:37:16.000Z</time>
      </trkpt>
      <trkpt lat="46.19619" lon="-1.42002">
        <ele>4.17353</ele>
        <time>2023-06-02T12:37:17.000Z</time>
      </trkpt>
      <trkpt lat="46.19618" lon="-1.41998">
        <ele>4.11496</ele>
        <time>2023-06-02T12:37:18.000Z</time>
      </trkpt>
      <trkpt lat="46.19618" lon="-1.41995">
        <ele>4.0407</ele>
        <time>2023-06-02T12:37:19.000Z</time>
      </trkpt>
      <trkpt lat="46.19617" lon="-1.41992">
        <ele>3.93677</ele>
        <time>2023-06-02T12:37:20.000Z</time>
      </trkpt>
      <trkpt lat="46.19616" lon="-1.4199">
        <ele>3.85077</ele>
        <time>2023-06-02T12:37:21.000Z</time>
      </trkpt>
      <trkpt lat="46.19615" lon="-1.41988">
        <ele>3.76259</ele>
        <time>2023-06-02T12:37:22.000Z</time>
      </trkpt>
      <trkpt lat="46.19613" lon="-1.41986">
        <ele>3.66421</ele>
        <time>2023-06-02T12:37:23.000Z</time>
      </trkpt>
      <trkpt lat="46.1961" lon="-1.41986">
        <ele>3.55394</ele>
        <time>2023-06-02T12:37:24.000Z</time>
      </trkpt>
      <trkpt lat="46.19607" lon="-1.41986">
        <ele>3.43662</ele>
        <time>2023-06-02T12:37:25.000Z</time>
      </trkpt>
      <trkpt lat="46.19604" lon="-1.41987">
        <ele>3.32344</ele>
        <time>2023-06-02T12:37:26.000Z</time>
      </trkpt>
      <trkpt lat="46.19601" lon="-1.41989">
        <ele>3.21509</ele>
        <time>2023-06-02T12:37:27.000Z</time>
      </trkpt>
      <trkpt lat="46.19598" lon="-1.41991">
        <ele>3.13509</ele>
        <time>2023-06-02T12:37:28.000Z</time>
      </trkpt>
      <trkpt lat="46.19595" lon="-1.41994">
        <ele>3.04767</ele>
        <time>2023-06-02T12:37:29.000Z</time>
      </trkpt>
      <trkpt lat="46.19593" lon="-1.41997">
        <ele>2.96947</ele>
        <time>2023-06-02T12:37:30.000Z</time>
      </trkpt>
      <trkpt lat="46.1959" lon="-1.42">
        <ele>2.9321</ele>
        <time>2023-06-02T12:37:31.000Z</time>
      </trkpt>
      <trkpt lat="46.19587" lon="-1.42003">
        <ele>2.91485</ele>
        <time>2023-06-02T12:37:32.000Z</time>
      </trkpt>
      <trkpt lat="46.19585" lon="-1.42006">
        <ele>2.91406</ele>
        <time>2023-06-02T12:37:33.000Z</time>
      </trkpt>
      <trkpt lat="46.19582" lon="-1.42009">
        <ele>2.91347</ele>
        <time>2023-06-02T12:37:34.000Z</time>
      </trkpt>
      <trkpt lat="46.19579" lon="-1.42012">
        <ele>2.88253</ele>
        <time>2023-06-02T12:37:35.000Z</time>
      </trkpt>
      <trkpt lat="46.19577" lon="-1.42015">
        <ele>2.83326</ele>
        <time>2023-06-02T12:37:36.000Z</time>
      </trkpt>
      <trkpt lat="46.19574" lon="-1.42019">
        <ele>2.7983</ele>
        <time>2023-06-02T12:37:37.000Z</time>
      </trkpt>
      <trkpt lat="46.19572" lon="-1.42022">
        <ele>2.77668</ele>
        <time>2023-06-02T12:37:38.000Z</time>
      </trkpt>
      <trkpt lat="46.1957" lon="-1.42025">
        <ele>2.73833</ele>
        <time>2023-06-02T12:37:39.000Z</time>
      </trkpt>
      <trkpt lat="46.19568" lon="-1.42028">
        <ele>2.71579</ele>
        <time>2023-06-02T12:37:40.000Z</time>
      </trkpt>
      <trkpt lat="46.19565" lon="-1.42031">
        <ele>2.69089</ele>
        <time>2023-06-02T12:37:41.000Z</time>
      </trkpt>
      <trkpt lat="46.19563" lon="-1.42034">
        <ele>2.67938</ele>
        <time>2023-06-02T12:37:42.000Z</time>
      </trkpt>
      <trkpt lat="46.19561" lon="-1.42038">
        <ele>2.67884</ele>
        <time>2023-06-02T12:37:43.000Z</time>
      </trkpt>
      <trkpt lat="46.19559" lon="-1.42042">
        <ele>2.65972</ele>
        <time>2023-06-02T12:37:44.000Z</time>
      </trkpt>
      <trkpt lat="46.19557" lon="-1.42046">
        <ele>2.61362</ele>
        <time>2023-06-02T12:37:45.000Z</time>
      </trkpt>
      <trkpt lat="46.19554" lon="-1.42049">
        <ele>2.56028</ele>
        <time>2023-06-02T12:37:46.000Z</time>
      </trkpt>
      <trkpt lat="46.19552" lon="-1.42052">
        <ele>2.54327</ele>
        <time>2023-06-02T12:37:47.000Z</time>
      </trkpt>
      <trkpt lat="46.19549" lon="-1.42055">
        <ele>2.52433</ele>
        <time>2023-06-02T12:37:48.000Z</time>
      </trkpt>
      <trkpt lat="46.19545" lon="-1.42055">
        <ele>2.50862</ele>
        <time>2023-06-02T12:37:49.000Z</time>
      </trkpt>
      <trkpt lat="46.19542" lon="-1.42054">
        <ele>2.51737</ele>
        <time>2023-06-02T12:37:50.000Z</time>
      </trkpt>
      <trkpt lat="46.19539" lon="-1.42051">
        <ele>2.51988</ele>
        <time>2023-06-02T12:37:51.000Z</time>
      </trkpt>
      <trkpt lat="46.19537" lon="-1.42047">
        <ele>2.49627</ele>
        <time>2023-06-02T12:37:52.000Z</time>
      </trkpt>
      <trkpt lat="46.19536" lon="-1.42042">
        <ele>2.45501</ele>
        <time>2023-06-02T12:37:53.000Z</time>
      </trkpt>
      <trkpt lat="46.19535" lon="-1.42037">
        <ele>2.41152</ele>
        <time>2023-06-02T12:37:54.000Z</time>
      </trkpt>
      <trkpt lat="46.19534" lon="-1.42031">
        <ele>2.40368</ele>
        <time>2023-06-02T12:37:55.000Z</time>
      </trkpt>
      <trkpt lat="46.19534" lon="-1.42025">
        <ele>2.40302</ele>
        <time>2023-06-02T12:37:56.000Z</time>
      </trkpt>
      <trkpt lat="46.19534" lon="-1.4202">
        <ele>2.42117</ele>
        <time>2023-06-02T12:37:57.000Z</time>
      </trkpt>
      <trkpt lat="46.19533" lon="-1.42014">
        <ele>2.433</ele>
        <time>2023-06-02T12:37:58.000Z</time>
      </trkpt>
      <trkpt lat="46.19533" lon="-1.42008">
        <ele>2.47325</ele>
        <time>2023-06-02T12:37:59.000Z</time>
      </trkpt>
      <trkpt lat="46.19533" lon="-1.42003">
        <ele>2.5277</ele>
        <time>2023-06-02T12:38:00.000Z</time>
      </trkpt>
      <trkpt lat="46.19533" lon="-1.41998">
        <ele>2.58211</ele>
        <time>2023-06-02T12:38:01.000Z</time>
      </trkpt>
      <trkpt lat="46.19532" lon="-1.41993">
        <ele>2.61716</ele>
        <time>2023-06-02T12:38:02.000Z</time>
      </trkpt>
      <trkpt lat="46.19532" lon="-1.41988">
        <ele>2.6483</ele>
        <time>2023-06-02T12:38:03.000Z</time>
      </trkpt>
      <trkpt lat="46.19532" lon="-1.41984">
        <ele>2.68947</ele>
        <time>2023-06-02T12:38:04.000Z</time>
      </trkpt>
      <trkpt lat="46.19532" lon="-1.41979">
        <ele>2.77761</ele>
        <time>2023-06-02T12:38:05.000Z</time>
      </trkpt>
      <trkpt lat="46.19532" lon="-1.41974">
        <ele>2.88388</ele>
        <time>2023-06-02T12:38:06.000Z</time>
      </trkpt>
      <trkpt lat="46.19532" lon="-1.41969">
        <ele>2.94265</ele>
        <time>2023-06-02T12:38:07.000Z</time>
      </trkpt>
      <trkpt lat="46.19532" lon="-1.41964">
        <ele>2.97882</ele>
        <time>2023-06-02T12:38:08.000Z</time>
      </trkpt>
      <trkpt lat="46.19532" lon="-1.41959">
        <ele>3.02556</ele>
        <time>2023-06-02T12:38:09.000Z</time>
      </trkpt>
      <trkpt lat="46.19532" lon="-1.41954">
        <ele>3.04441</ele>
        <time>2023-06-02T12:38:10.000Z</time>
      </trkpt>
      <trkpt lat="46.19533" lon="-1.4195">
        <ele>3.04466</ele>
        <time>2023-06-02T12:38:11.000Z</time>
      </trkpt>
      <trkpt lat="46.19533" lon="-1.41945">
        <ele>3.0482</ele>
        <time>2023-06-02T12:38:12.000Z</time>
      </trkpt>
      <trkpt lat="46.19533" lon="-1.4194">
        <ele>3.05538</ele>
        <time>2023-06-02T12:38:13.000Z</time>
      </trkpt>
      <trkpt lat="46.19532" lon="-1.41936">
        <ele>3.0717</ele>
        <time>2023-06-02T12:38:14.000Z</time>
      </trkpt>
      <trkpt lat="46.1953" lon="-1.41932">
        <ele>3.08565</ele>
        <time>2023-06-02T12:38:15.000Z</time>
      </trkpt>
      <trkpt lat="46.19527" lon="-1.41929">
        <ele>3.11234</ele>
        <time>2023-06-02T12:38:16.000Z</time>
      </trkpt>
      <trkpt lat="46.19523" lon="-1.41928">
        <ele>3.12717</ele>
        <time>2023-06-02T12:38:17.000Z</time>
      </trkpt>
      <trkpt lat="46.1952" lon="-1.41928">
        <ele>3.17922</ele>
        <time>2023-06-02T12:38:18.000Z</time>
      </trkpt>
      <trkpt lat="46.19516" lon="-1.41928">
        <ele>3.20221</ele>
        <time>2023-06-02T12:38:19.000Z</time>
      </trkpt>
      <trkpt lat="46.19513" lon="-1.41927">
        <ele>3.21053</ele>
        <time>2023-06-02T12:38:20.000Z</time>
      </trkpt>
      <trkpt lat="46.19509" lon="-1.41927">
        <ele>3.18844</ele>
        <time>2023-06-02T12:38:21.000Z</time>
      </trkpt>
      <trkpt lat="46.19506" lon="-1.41927">
        <ele>3.18246</ele>
        <time>2023-06-02T12:38:22.000Z</time>
      </trkpt>
      <trkpt lat="46.19502" lon="-1.41927">
        <ele>3.17414</ele>
        <time>2023-06-02T12:38:23.000Z</time>
      </trkpt>
      <trkpt lat="46.19498" lon="-1.41927">
        <ele>3.15453</ele>
        <time>2023-06-02T12:38:24.000Z</time>
      </trkpt>
      <trkpt lat="46.19495" lon="-1.41927">
        <ele>3.12397</ele>
        <time>2023-06-02T12:38:25.000Z</time>
      </trkpt>
      <trkpt lat="46.19491" lon="-1.41926">
        <ele>3.08082</ele>
        <time>2023-06-02T12:38:26.000Z</time>
      </trkpt>
      <trkpt lat="46.19487" lon="-1.41926">
        <ele>3.04913</ele>
        <time>2023-06-02T12:38:27.000Z</time>
      </trkpt>
      <trkpt lat="46.19484" lon="-1.41926">
        <ele>3.00776</ele>
        <time>2023-06-02T12:38:28.000Z</time>
      </trkpt>
      <trkpt lat="46.1948" lon="-1.41926">
        <ele>2.9503</ele>
        <time>2023-06-02T12:38:29.000Z</time>
      </trkpt>
      <trkpt lat="46.19477" lon="-1.41926">
        <ele>2.89858</ele>
        <time>2023-06-02T12:38:30.000Z</time>
      </trkpt>
      <trkpt lat="46.19473" lon="-1.41926">
        <ele>2.855</ele>
        <time>2023-06-02T12:38:31.000Z</time>
      </trkpt>
      <trkpt lat="46.1947" lon="-1.41926">
        <ele>2.82529</ele>
        <time>2023-06-02T12:38:32.000Z</time>
      </trkpt>
      <trkpt lat="46.19466" lon="-1.41926">
        <ele>2.78711</ele>
        <time>2023-06-02T12:38:33.000Z</time>
      </trkpt>
      <trkpt lat="46.19463" lon="-1.41926">
        <ele>2.75278</ele>
        <time>2023-06-02T12:38:34.000Z</time>
      </trkpt>
      <trkpt lat="46.19459" lon="-1.41925">
        <ele>2.72191</ele>
        <time>2023-06-02T12:38:35.000Z</time>
      </trkpt>
      <trkpt lat="46.19456" lon="-1.41924">
        <ele>2.67715</ele>
        <time>2023-06-02T12:38:36.000Z</time>
      </trkpt>
      <trkpt lat="46.19452" lon="-1.41924">
        <ele>2.62477</ele>
        <time>2023-06-02T12:38:37.000Z</time>
      </trkpt>
      <trkpt lat="46.19449" lon="-1.41923">
        <ele>2.54371</ele>
        <time>2023-06-02T12:38:38.000Z</time>
      </trkpt>
      <trkpt lat="46.19445" lon="-1.41922">
        <ele>2.48166</ele>
        <time>2023-06-02T12:38:39.000Z</time>
      </trkpt>
      <trkpt lat="46.19442" lon="-1.41921">
        <ele>2.43793</ele>
        <time>2023-06-02T12:38:40.000Z</time>
      </trkpt>
      <trkpt lat="46.19439" lon="-1.4192">
        <ele>2.43127</ele>
        <time>2023-06-02T12:38:41.000Z</time>
      </trkpt>
      <trkpt lat="46.19436" lon="-1.41919">
        <ele>2.41396</ele>
        <time>2023-06-02T12:38:42.000Z</time>
      </trkpt>
      <trkpt lat="46.19432" lon="-1.41918">
        <ele>2.39556</ele>
        <time>2023-06-02T12:38:43.000Z</time>
      </trkpt>
      <trkpt lat="46.19429" lon="-1.41917">
        <ele>2.40479</ele>
        <time>2023-06-02T12:38:44.000Z</time>
      </trkpt>
      <trkpt lat="46.19426" lon="-1.41916">
        <ele>2.41683</ele>
        <time>2023-06-02T12:38:45.000Z</time>
      </trkpt>
      <trkpt lat="46.19422" lon="-1.41915">
        <ele>2.42948</ele>
        <time>2023-06-02T12:38:46.000Z</time>
      </trkpt>
      <trkpt lat="46.19418" lon="-1.41913">
        <ele>2.43636</ele>
        <time>2023-06-02T12:38:47.000Z</time>
      </trkpt>
      <trkpt lat="46.19415" lon="-1.41912">
        <ele>2.46175</ele>
        <time>2023-06-02T12:38:48.000Z</time>
      </trkpt>
      <trkpt lat="46.19411" lon="-1.4191">
        <ele>2.49958</ele>
        <time>2023-06-02T12:38:49.000Z</time>
      </trkpt>
      <trkpt lat="46.19409" lon="-1.41909">
        <ele>2.52992</ele>
        <time>2023-06-02T12:38:50.000Z</time>
      </trkpt>
      <trkpt lat="46.19406" lon="-1.41907">
        <ele>2.56354</ele>
        <time>2023-06-02T12:38:51.000Z</time>
      </trkpt>
      <trkpt lat="46.19404" lon="-1.41905">
        <ele>2.55881</ele>
        <time>2023-06-02T12:38:53.000Z</time>
      </trkpt>
      <trkpt lat="46.19401" lon="-1.41902">
        <ele>2.54795</ele>
        <time>2023-06-02T12:38:55.000Z</time>
      </trkpt>
      <trkpt lat="46.194" lon="-1.41901">
        <ele>2.52544</ele>
        <time>2023-06-02T12:38:56.000Z</time>
      </trkpt>
      <trkpt lat="46.19398" lon="-1.41899">
        <ele>2.49245</ele>
        <time>2023-06-02T12:38:57.000Z</time>
      </trkpt>
      <trkpt lat="46.19396" lon="-1.41897">
        <ele>2.4699</ele>
        <time>2023-06-02T12:38:58.000Z</time>
      </trkpt>
      <trkpt lat="46.19395" lon="-1.41895">
        <ele>2.46637</ele>
        <time>2023-06-02T12:38:59.000Z</time>
      </trkpt>
      <trkpt lat="46.19396" lon="-1.41891">
        <ele>2.45406</ele>
        <time>2023-06-02T12:39:00.000Z</time>
      </trkpt>
      <trkpt lat="46.19397" lon="-1.41887">
        <ele>2.44472</ele>
        <time>2023-06-02T12:39:01.000Z</time>
      </trkpt>
      <trkpt lat="46.19399" lon="-1.41883">
        <ele>2.40593</ele>
        <time>2023-06-02T12:39:02.000Z</time>
      </trkpt>
      <trkpt lat="46.19401" lon="-1.41879">
        <ele>2.35462</ele>
        <time>2023-06-02T12:39:03.000Z</time>
      </trkpt>
      <trkpt lat="46.19403" lon="-1.41875">
        <ele>2.29715</ele>
        <time>2023-06-02T12:39:04.000Z</time>
      </trkpt>
      <trkpt lat="46.19405" lon="-1.41871">
        <ele>2.2551</ele>
        <time>2023-06-02T12:39:05.000Z</time>
      </trkpt>
      <trkpt lat="46.19408" lon="-1.41866">
        <ele>2.19169</ele>
        <time>2023-06-02T12:39:06.000Z</time>
      </trkpt>
      <trkpt lat="46.1941" lon="-1.41861">
        <ele>2.13625</ele>
        <time>2023-06-02T12:39:07.000Z</time>
      </trkpt>
      <trkpt lat="46.19412" lon="-1.41856">
        <ele>2.07674</ele>
        <time>2023-06-02T12:39:08.000Z</time>
      </trkpt>
      <trkpt lat="46.19413" lon="-1.41852">
        <ele>2.02384</ele>
        <time>2023-06-02T12:39:09.000Z</time>
      </trkpt>
      <trkpt lat="46.19414" lon="-1.41846">
        <ele>1.95748</ele>
        <time>2023-06-02T12:39:10.000Z</time>
      </trkpt>
      <trkpt lat="46.19416" lon="-1.41841">
        <ele>1.89976</ele>
        <time>2023-06-02T12:39:11.000Z</time>
      </trkpt>
      <trkpt lat="46.19417" lon="-1.41835">
        <ele>1.83393</ele>
        <time>2023-06-02T12:39:12.000Z</time>
      </trkpt>
      <trkpt lat="46.19418" lon="-1.4183">
        <ele>1.7738</ele>
        <time>2023-06-02T12:39:13.000Z</time>
      </trkpt>
      <trkpt lat="46.19419" lon="-1.41824">
        <ele>1.77929</ele>
        <time>2023-06-02T12:39:14.000Z</time>
      </trkpt>
      <trkpt lat="46.19419" lon="-1.41818">
        <ele>1.80288</ele>
        <time>2023-06-02T12:39:15.000Z</time>
      </trkpt>
      <trkpt lat="46.19419" lon="-1.41812">
        <ele>1.81657</ele>
        <time>2023-06-02T12:39:16.000Z</time>
      </trkpt>
      <trkpt lat="46.19419" lon="-1.41806">
        <ele>1.82445</ele>
        <time>2023-06-02T12:39:17.000Z</time>
      </trkpt>
      <trkpt lat="46.19419" lon="-1.418">
        <ele>1.80874</ele>
        <time>2023-06-02T12:39:18.000Z</time>
      </trkpt>
      <trkpt lat="46.19419" lon="-1.41794">
        <ele>1.78394</ele>
        <time>2023-06-02T12:39:19.000Z</time>
      </trkpt>
      <trkpt lat="46.19419" lon="-1.41788">
        <ele>1.76345</ele>
        <time>2023-06-02T12:39:20.000Z</time>
      </trkpt>
      <trkpt lat="46.19418" lon="-1.41782">
        <ele>1.74209</ele>
        <time>2023-06-02T12:39:21.000Z</time>
      </trkpt>
      <trkpt lat="46.19417" lon="-1.41776">
        <ele>1.73061</ele>
        <time>2023-06-02T12:39:22.000Z</time>
      </trkpt>
      <trkpt lat="46.19416" lon="-1.4177">
        <ele>1.72078</ele>
        <time>2023-06-02T12:39:23.000Z</time>
      </trkpt>
      <trkpt lat="46.19416" lon="-1.41764">
        <ele>1.72625</ele>
        <time>2023-06-02T12:39:24.000Z</time>
      </trkpt>
      <trkpt lat="46.19415" lon="-1.41758">
        <ele>1.72472</ele>
        <time>2023-06-02T12:39:25.000Z</time>
      </trkpt>
      <trkpt lat="46.19414" lon="-1.41753">
        <ele>1.75119</ele>
        <time>2023-06-02T12:39:26.000Z</time>
      </trkpt>
      <trkpt lat="46.19413" lon="-1.41747">
        <ele>1.77685</ele>
        <time>2023-06-02T12:39:27.000Z</time>
      </trkpt>
      <trkpt lat="46.19412" lon="-1.41741">
        <ele>1.79808</ele>
        <time>2023-06-02T12:39:28.000Z</time>
      </trkpt>
      <trkpt lat="46.19411" lon="-1.41736">
        <ele>1.81352</ele>
        <time>2023-06-02T12:39:29.000Z</time>
      </trkpt>
      <trkpt lat="46.1941" lon="-1.4173">
        <ele>1.84</ele>
        <time>2023-06-02T12:39:30.000Z</time>
      </trkpt>
      <trkpt lat="46.19409" lon="-1.41724">
        <ele>1.85945</ele>
        <time>2023-06-02T12:39:31.000Z</time>
      </trkpt>
      <trkpt lat="46.19408" lon="-1.41719">
        <ele>1.9038</ele>
        <time>2023-06-02T12:39:32.000Z</time>
      </trkpt>
      <trkpt lat="46.19406" lon="-1.41714">
        <ele>1.92154</ele>
        <time>2023-06-02T12:39:33.000Z</time>
      </trkpt>
      <trkpt lat="46.19404" lon="-1.41708">
        <ele>1.92211</ele>
        <time>2023-06-02T12:39:34.000Z</time>
      </trkpt>
      <trkpt lat="46.19401" lon="-1.41703">
        <ele>1.90554</ele>
        <time>2023-06-02T12:39:35.000Z</time>
      </trkpt>
      <trkpt lat="46.19399" lon="-1.41698">
        <ele>1.90029</ele>
        <time>2023-06-02T12:39:36.000Z</time>
      </trkpt>
      <trkpt lat="46.19396" lon="-1.41693">
        <ele>1.90439</ele>
        <time>2023-06-02T12:39:37.000Z</time>
      </trkpt>
      <trkpt lat="46.19394" lon="-1.41687">
        <ele>1.92189</ele>
        <time>2023-06-02T12:39:38.000Z</time>
      </trkpt>
      <trkpt lat="46.19391" lon="-1.41682">
        <ele>1.92984</ele>
        <time>2023-06-02T12:39:39.000Z</time>
      </trkpt>
      <trkpt lat="46.19389" lon="-1.41678">
        <ele>1.94273</ele>
        <time>2023-06-02T12:39:40.000Z</time>
      </trkpt>
      <trkpt lat="46.19387" lon="-1.41673">
        <ele>1.96581</ele>
        <time>2023-06-02T12:39:41.000Z</time>
      </trkpt>
      <trkpt lat="46.19385" lon="-1.41668">
        <ele>2.00416</ele>
        <time>2023-06-02T12:39:42.000Z</time>
      </trkpt>
      <trkpt lat="46.19383" lon="-1.41663">
        <ele>2.04417</ele>
        <time>2023-06-02T12:39:43.000Z</time>
      </trkpt>
      <trkpt lat="46.19381" lon="-1.41658">
        <ele>2.0795</ele>
        <time>2023-06-02T12:39:44.000Z</time>
      </trkpt>
      <trkpt lat="46.19379" lon="-1.41652">
        <ele>2.11583</ele>
        <time>2023-06-02T12:39:45.000Z</time>
      </trkpt>
      <trkpt lat="46.19378" lon="-1.41647">
        <ele>2.15791</ele>
        <time>2023-06-02T12:39:46.000Z</time>
      </trkpt>
      <trkpt lat="46.19377" lon="-1.41641">
        <ele>2.19958</ele>
        <time>2023-06-02T12:39:47.000Z</time>
      </trkpt>
      <trkpt lat="46.19376" lon="-1.41635">
        <ele>2.26094</ele>
        <time>2023-06-02T12:39:48.000Z</time>
      </trkpt>
      <trkpt lat="46.19376" lon="-1.41629">
        <ele>2.29999</ele>
        <time>2023-06-02T12:39:49.000Z</time>
      </trkpt>
      <trkpt lat="46.19374" lon="-1.41623">
        <ele>2.33905</ele>
        <time>2023-06-02T12:39:50.000Z</time>
      </trkpt>
      <trkpt lat="46.19374" lon="-1.41616">
        <ele>2.35846</ele>
        <time>2023-06-02T12:39:51.000Z</time>
      </trkpt>
      <trkpt lat="46.19373" lon="-1.4161">
        <ele>2.37542</ele>
        <time>2023-06-02T12:39:52.000Z</time>
      </trkpt>
      <trkpt lat="46.19372" lon="-1.41603">
        <ele>2.41603</ele>
        <time>2023-06-02T12:39:53.000Z</time>
      </trkpt>
      <trkpt lat="46.19371" lon="-1.41596">
        <ele>2.44499</ele>
        <time>2023-06-02T12:39:54.000Z</time>
      </trkpt>
      <trkpt lat="46.19369" lon="-1.41589">
        <ele>2.4775</ele>
        <time>2023-06-02T12:39:55.000Z</time>
      </trkpt>
      <trkpt lat="46.19368" lon="-1.41582">
        <ele>2.50901</ele>
        <time>2023-06-02T12:39:56.000Z</time>
      </trkpt>
      <trkpt lat="46.19367" lon="-1.41575">
        <ele>2.54617</ele>
        <time>2023-06-02T12:39:57.000Z</time>
      </trkpt>
      <trkpt lat="46.19367" lon="-1.41568">
        <ele>2.57783</ele>
        <time>2023-06-02T12:39:58.000Z</time>
      </trkpt>
      <trkpt lat="46.19367" lon="-1.41561">
        <ele>2.60297</ele>
        <time>2023-06-02T12:39:59.000Z</time>
      </trkpt>
      <trkpt lat="46.19366" lon="-1.41553">
        <ele>2.644</ele>
        <time>2023-06-02T12:40:00.000Z</time>
      </trkpt>
      <trkpt lat="46.19365" lon="-1.41547">
        <ele>2.65409</ele>
        <time>2023-06-02T12:40:01.000Z</time>
      </trkpt>
      <trkpt lat="46.19365" lon="-1.4154">
        <ele>2.65043</ele>
        <time>2023-06-02T12:40:02.000Z</time>
      </trkpt>
      <trkpt lat="46.19365" lon="-1.41533">
        <ele>2.63943</ele>
        <time>2023-06-02T12:40:03.000Z</time>
      </trkpt>
      <trkpt lat="46.19365" lon="-1.41527">
        <ele>2.60612</ele>
        <time>2023-06-02T12:40:04.000Z</time>
      </trkpt>
      <trkpt lat="46.19364" lon="-1.4152">
        <ele>2.56657</ele>
        <time>2023-06-02T12:40:05.000Z</time>
      </trkpt>
      <trkpt lat="46.19363" lon="-1.41514">
        <ele>2.50548</ele>
        <time>2023-06-02T12:40:06.000Z</time>
      </trkpt>
      <trkpt lat="46.19362" lon="-1.41507">
        <ele>2.41725</ele>
        <time>2023-06-02T12:40:07.000Z</time>
      </trkpt>
      <trkpt lat="46.19361" lon="-1.41501">
        <ele>2.32633</ele>
        <time>2023-06-02T12:40:08.000Z</time>
      </trkpt>
      <trkpt lat="46.19359" lon="-1.41493">
        <ele>2.25239</ele>
        <time>2023-06-02T12:40:09.000Z</time>
      </trkpt>
      <trkpt lat="46.19357" lon="-1.41487">
        <ele>2.16781</ele>
        <time>2023-06-02T12:40:10.000Z</time>
      </trkpt>
      <trkpt lat="46.19355" lon="-1.41481">
        <ele>2.10054</ele>
        <time>2023-06-02T12:40:11.000Z</time>
      </trkpt>
      <trkpt lat="46.19354" lon="-1.41474">
        <ele>2.02554</ele>
        <time>2023-06-02T12:40:12.000Z</time>
      </trkpt>
      <trkpt lat="46.19351" lon="-1.41468">
        <ele>1.9287</ele>
        <time>2023-06-02T12:40:13.000Z</time>
      </trkpt>
      <trkpt lat="46.19349" lon="-1.41462">
        <ele>1.82508</ele>
        <time>2023-06-02T12:40:14.000Z</time>
      </trkpt>
      <trkpt lat="46.19347" lon="-1.41455">
        <ele>1.73327</ele>
        <time>2023-06-02T12:40:15.000Z</time>
      </trkpt>
      <trkpt lat="46.19346" lon="-1.41448">
        <ele>1.6522</ele>
        <time>2023-06-02T12:40:16.000Z</time>
      </trkpt>
      <trkpt lat="46.19345" lon="-1.41441">
        <ele>1.5667</ele>
        <time>2023-06-02T12:40:17.000Z</time>
      </trkpt>
      <trkpt lat="46.19344" lon="-1.41435">
        <ele>1.47085</ele>
        <time>2023-06-02T12:40:18.000Z</time>
      </trkpt>
      <trkpt lat="46.19343" lon="-1.41427">
        <ele>1.3746</ele>
        <time>2023-06-02T12:40:19.000Z</time>
      </trkpt>
      <trkpt lat="46.19342" lon="-1.4142">
        <ele>1.26581</ele>
        <time>2023-06-02T12:40:20.000Z</time>
      </trkpt>
      <trkpt lat="46.19341" lon="-1.41413">
        <ele>1.21081</ele>
        <time>2023-06-02T12:40:21.000Z</time>
      </trkpt>
      <trkpt lat="46.19341" lon="-1.41406">
        <ele>1.1658</ele>
        <time>2023-06-02T12:40:22.000Z</time>
      </trkpt>
      <trkpt lat="46.1934" lon="-1.41399">
        <ele>1.13201</ele>
        <time>2023-06-02T12:40:23.000Z</time>
      </trkpt>
      <trkpt lat="46.19339" lon="-1.41391">
        <ele>1.10185</ele>
        <time>2023-06-02T12:40:24.000Z</time>
      </trkpt>
      <trkpt lat="46.19339" lon="-1.41384">
        <ele>1.09406</ele>
        <time>2023-06-02T12:40:25.000Z</time>
      </trkpt>
      <trkpt lat="46.1934" lon="-1.41376">
        <ele>1.06306</ele>
        <time>2023-06-02T12:40:26.000Z</time>
      </trkpt>
      <trkpt lat="46.1934" lon="-1.41368">
        <ele>1.04905</ele>
        <time>2023-06-02T12:40:27.000Z</time>
      </trkpt>
      <trkpt lat="46.1934" lon="-1.4136">
        <ele>0.99965</ele>
        <time>2023-06-02T12:40:28.000Z</time>
      </trkpt>
      <trkpt lat="46.19341" lon="-1.41354">
        <ele>0.96018</ele>
        <time>2023-06-02T12:40:29.000Z</time>
      </trkpt>
      <trkpt lat="46.19342" lon="-1.41347">
        <ele>0.95778</ele>
        <time>2023-06-02T12:40:30.000Z</time>
      </trkpt>
      <trkpt lat="46.19344" lon="-1.4134">
        <ele>0.9424</ele>
        <time>2023-06-02T12:40:31.000Z</time>
      </trkpt>
      <trkpt lat="46.19347" lon="-1.41334">
        <ele>0.95383</ele>
        <time>2023-06-02T12:40:32.000Z</time>
      </trkpt>
      <trkpt lat="46.19349" lon="-1.41329">
        <ele>0.97149</ele>
        <time>2023-06-02T12:40:33.000Z</time>
      </trkpt>
      <trkpt lat="46.19352" lon="-1.41323">
        <ele>1.00093</ele>
        <time>2023-06-02T12:40:34.000Z</time>
      </trkpt>
      <trkpt lat="46.19355" lon="-1.41317">
        <ele>1.05419</ele>
        <time>2023-06-02T12:40:35.000Z</time>
      </trkpt>
      <trkpt lat="46.19358" lon="-1.41311">
        <ele>1.12848</ele>
        <time>2023-06-02T12:40:36.000Z</time>
      </trkpt>
      <trkpt lat="46.1936" lon="-1.41306">
        <ele>1.20652</ele>
        <time>2023-06-02T12:40:37.000Z</time>
      </trkpt>
      <trkpt lat="46.19364" lon="-1.413">
        <ele>1.30103</ele>
        <time>2023-06-02T12:40:38.000Z</time>
      </trkpt>
      <trkpt lat="46.19366" lon="-1.41295">
        <ele>1.39323</ele>
        <time>2023-06-02T12:40:39.000Z</time>
      </trkpt>
      <trkpt lat="46.19369" lon="-1.41288">
        <ele>1.49047</ele>
        <time>2023-06-02T12:40:40.000Z</time>
      </trkpt>
      <trkpt lat="46.1937" lon="-1.41281">
        <ele>1.52761</ele>
        <time>2023-06-02T12:40:41.000Z</time>
      </trkpt>
      <trkpt lat="46.19372" lon="-1.41276">
        <ele>1.55084</ele>
        <time>2023-06-02T12:40:42.000Z</time>
      </trkpt>
      <trkpt lat="46.19374" lon="-1.41269">
        <ele>1.56947</ele>
        <time>2023-06-02T12:40:43.000Z</time>
      </trkpt>
      <trkpt lat="46.19375" lon="-1.41263">
        <ele>1.59973</ele>
        <time>2023-06-02T12:40:44.000Z</time>
      </trkpt>
      <trkpt lat="46.19376" lon="-1.41256">
        <ele>1.60927</ele>
        <time>2023-06-02T12:40:45.000Z</time>
      </trkpt>
      <trkpt lat="46.19378" lon="-1.4125">
        <ele>1.64864</ele>
        <time>2023-06-02T12:40:46.000Z</time>
      </trkpt>
      <trkpt lat="46.19379" lon="-1.41244">
        <ele>1.68518</ele>
        <time>2023-06-02T12:40:47.000Z</time>
      </trkpt>
      <trkpt lat="46.1938" lon="-1.41237">
        <ele>1.76287</ele>
        <time>2023-06-02T12:40:48.000Z</time>
      </trkpt>
      <trkpt lat="46.19381" lon="-1.4123">
        <ele>1.83212</ele>
        <time>2023-06-02T12:40:49.000Z</time>
      </trkpt>
      <trkpt lat="46.19381" lon="-1.41223">
        <ele>1.88703</ele>
        <time>2023-06-02T12:40:50.000Z</time>
      </trkpt>
      <trkpt lat="46.19382" lon="-1.41215">
        <ele>1.95732</ele>
        <time>2023-06-02T12:40:51.000Z</time>
      </trkpt>
      <trkpt lat="46.19384" lon="-1.41208">
        <ele>1.99194</ele>
        <time>2023-06-02T12:40:52.000Z</time>
      </trkpt>
      <trkpt lat="46.19385" lon="-1.412">
        <ele>2.03545</ele>
        <time>2023-06-02T12:40:53.000Z</time>
      </trkpt>
      <trkpt lat="46.19385" lon="-1.41193">
        <ele>2.06994</ele>
        <time>2023-06-02T12:40:54.000Z</time>
      </trkpt>
      <trkpt lat="46.19386" lon="-1.41185">
        <ele>2.08459</ele>
        <time>2023-06-02T12:40:55.000Z</time>
      </trkpt>
      <trkpt lat="46.19387" lon="-1.41179">
        <ele>2.06015</ele>
        <time>2023-06-02T12:40:56.000Z</time>
      </trkpt>
      <trkpt lat="46.19388" lon="-1.41172">
        <ele>2.03255</ele>
        <time>2023-06-02T12:40:57.000Z</time>
      </trkpt>
      <trkpt lat="46.19389" lon="-1.41165">
        <ele>2.01632</ele>
        <time>2023-06-02T12:40:58.000Z</time>
      </trkpt>
      <trkpt lat="46.1939" lon="-1.41158">
        <ele>2.02509</ele>
        <time>2023-06-02T12:40:59.000Z</time>
      </trkpt>
      <trkpt lat="46.19392" lon="-1.41151">
        <ele>2.0155</ele>
        <time>2023-06-02T12:41:00.000Z</time>
      </trkpt>
      <trkpt lat="46.19394" lon="-1.41144">
        <ele>2.01264</ele>
        <time>2023-06-02T12:41:01.000Z</time>
      </trkpt>
      <trkpt lat="46.19395" lon="-1.41138">
        <ele>2.0065</ele>
        <time>2023-06-02T12:41:02.000Z</time>
      </trkpt>
      <trkpt lat="46.19397" lon="-1.41132">
        <ele>2.0037</ele>
        <time>2023-06-02T12:41:03.000Z</time>
      </trkpt>
      <trkpt lat="46.194" lon="-1.41125">
        <ele>1.99857</ele>
        <time>2023-06-02T12:41:04.000Z</time>
      </trkpt>
      <trkpt lat="46.19402" lon="-1.41119">
        <ele>2.01386</ele>
        <time>2023-06-02T12:41:05.000Z</time>
      </trkpt>
      <trkpt lat="46.19404" lon="-1.41112">
        <ele>2.03237</ele>
        <time>2023-06-02T12:41:06.000Z</time>
      </trkpt>
      <trkpt lat="46.19406" lon="-1.41106">
        <ele>2.06369</ele>
        <time>2023-06-02T12:41:07.000Z</time>
      </trkpt>
      <trkpt lat="46.19407" lon="-1.41099">
        <ele>2.08181</ele>
        <time>2023-06-02T12:41:08.000Z</time>
      </trkpt>
      <trkpt lat="46.1941" lon="-1.41092">
        <ele>2.10125</ele>
        <time>2023-06-02T12:41:09.000Z</time>
      </trkpt>
      <trkpt lat="46.19412" lon="-1.41085">
        <ele>2.12464</ele>
        <time>2023-06-02T12:41:10.000Z</time>
      </trkpt>
      <trkpt lat="46.19413" lon="-1.41079">
        <ele>2.14357</ele>
        <time>2023-06-02T12:41:11.000Z</time>
      </trkpt>
      <trkpt lat="46.19415" lon="-1.41072">
        <ele>2.15579</ele>
        <time>2023-06-02T12:41:12.000Z</time>
      </trkpt>
      <trkpt lat="46.19415" lon="-1.41066">
        <ele>2.1402</ele>
        <time>2023-06-02T12:41:13.000Z</time>
      </trkpt>
      <trkpt lat="46.19417" lon="-1.41059">
        <ele>2.12174</ele>
        <time>2023-06-02T12:41:14.000Z</time>
      </trkpt>
      <trkpt lat="46.19416" lon="-1.41052">
        <ele>2.1079</ele>
        <time>2023-06-02T12:41:15.000Z</time>
      </trkpt>
      <trkpt lat="46.19416" lon="-1.41046">
        <ele>2.12082</ele>
        <time>2023-06-02T12:41:16.000Z</time>
      </trkpt>
      <trkpt lat="46.19415" lon="-1.41039">
        <ele>2.13439</ele>
        <time>2023-06-02T12:41:17.000Z</time>
      </trkpt>
      <trkpt lat="46.19414" lon="-1.41032">
        <ele>2.13436</ele>
        <time>2023-06-02T12:41:18.000Z</time>
      </trkpt>
      <trkpt lat="46.19411" lon="-1.41026">
        <ele>2.07225</ele>
        <time>2023-06-02T12:41:19.000Z</time>
      </trkpt>
      <trkpt lat="46.1941" lon="-1.41019">
        <ele>2.02809</ele>
        <time>2023-06-02T12:41:20.000Z</time>
      </trkpt>
      <trkpt lat="46.19408" lon="-1.41012">
        <ele>2.01726</ele>
        <time>2023-06-02T12:41:21.000Z</time>
      </trkpt>
      <trkpt lat="46.19406" lon="-1.41005">
        <ele>2.01394</ele>
        <time>2023-06-02T12:41:22.000Z</time>
      </trkpt>
      <trkpt lat="46.19404" lon="-1.41">
        <ele>2.01507</ele>
        <time>2023-06-02T12:41:23.000Z</time>
      </trkpt>
      <trkpt lat="46.19403" lon="-1.40993">
        <ele>2.02737</ele>
        <time>2023-06-02T12:41:24.000Z</time>
      </trkpt>
      <trkpt lat="46.19402" lon="-1.40987">
        <ele>2.03625</ele>
        <time>2023-06-02T12:41:25.000Z</time>
      </trkpt>
      <trkpt lat="46.194" lon="-1.40979">
        <ele>2.02674</ele>
        <time>2023-06-02T12:41:26.000Z</time>
      </trkpt>
      <trkpt lat="46.19398" lon="-1.40973">
        <ele>2.01541</ele>
        <time>2023-06-02T12:41:27.000Z</time>
      </trkpt>
      <trkpt lat="46.19397" lon="-1.40966">
        <ele>1.99601</ele>
        <time>2023-06-02T12:41:28.000Z</time>
      </trkpt>
      <trkpt lat="46.19395" lon="-1.40959">
        <ele>1.9818</ele>
        <time>2023-06-02T12:41:29.000Z</time>
      </trkpt>
      <trkpt lat="46.19393" lon="-1.40951">
        <ele>1.933</ele>
        <time>2023-06-02T12:41:30.000Z</time>
      </trkpt>
      <trkpt lat="46.1939" lon="-1.40944">
        <ele>1.83778</ele>
        <time>2023-06-02T12:41:31.000Z</time>
      </trkpt>
      <trkpt lat="46.19388" lon="-1.40937">
        <ele>1.76313</ele>
        <time>2023-06-02T12:41:32.000Z</time>
      </trkpt>
      <trkpt lat="46.19387" lon="-1.40931">
        <ele>1.71894</ele>
        <time>2023-06-02T12:41:33.000Z</time>
      </trkpt>
      <trkpt lat="46.19385" lon="-1.40924">
        <ele>1.68862</ele>
        <time>2023-06-02T12:41:34.000Z</time>
      </trkpt>
      <trkpt lat="46.19383" lon="-1.40917">
        <ele>1.65952</ele>
        <time>2023-06-02T12:41:35.000Z</time>
      </trkpt>
      <trkpt lat="46.19382" lon="-1.4091">
        <ele>1.63186</ele>
        <time>2023-06-02T12:41:36.000Z</time>
      </trkpt>
      <trkpt lat="46.19381" lon="-1.40904">
        <ele>1.61857</ele>
        <time>2023-06-02T12:41:37.000Z</time>
      </trkpt>
      <trkpt lat="46.19379" lon="-1.40896">
        <ele>1.59801</ele>
        <time>2023-06-02T12:41:38.000Z</time>
      </trkpt>
      <trkpt lat="46.19378" lon="-1.40889">
        <ele>1.62328</ele>
        <time>2023-06-02T12:41:39.000Z</time>
      </trkpt>
      <trkpt lat="46.19376" lon="-1.40883">
        <ele>1.61146</ele>
        <time>2023-06-02T12:41:40.000Z</time>
      </trkpt>
      <trkpt lat="46.19375" lon="-1.40876">
        <ele>1.59587</ele>
        <time>2023-06-02T12:41:41.000Z</time>
      </trkpt>
      <trkpt lat="46.19373" lon="-1.40869">
        <ele>1.58489</ele>
        <time>2023-06-02T12:41:42.000Z</time>
      </trkpt>
      <trkpt lat="46.19372" lon="-1.40862">
        <ele>1.57903</ele>
        <time>2023-06-02T12:41:43.000Z</time>
      </trkpt>
      <trkpt lat="46.19371" lon="-1.40855">
        <ele>1.56024</ele>
        <time>2023-06-02T12:41:44.000Z</time>
      </trkpt>
      <trkpt lat="46.19369" lon="-1.40847">
        <ele>1.45734</ele>
        <time>2023-06-02T12:41:45.000Z</time>
      </trkpt>
      <trkpt lat="46.19368" lon="-1.4084">
        <ele>1.38647</ele>
        <time>2023-06-02T12:41:46.000Z</time>
      </trkpt>
      <trkpt lat="46.19366" lon="-1.40833">
        <ele>1.30565</ele>
        <time>2023-06-02T12:41:47.000Z</time>
      </trkpt>
      <trkpt lat="46.19364" lon="-1.40826">
        <ele>1.23379</ele>
        <time>2023-06-02T12:41:48.000Z</time>
      </trkpt>
      <trkpt lat="46.19363" lon="-1.40818">
        <ele>1.17448</ele>
        <time>2023-06-02T12:41:49.000Z</time>
      </trkpt>
      <trkpt lat="46.19361" lon="-1.40812">
        <ele>1.11819</ele>
        <time>2023-06-02T12:41:50.000Z</time>
      </trkpt>
      <trkpt lat="46.19359" lon="-1.40805">
        <ele>1.09754</ele>
        <time>2023-06-02T12:41:51.000Z</time>
      </trkpt>
      <trkpt lat="46.19357" lon="-1.40797">
        <ele>1.07379</ele>
        <time>2023-06-02T12:41:52.000Z</time>
      </trkpt>
      <trkpt lat="46.19356" lon="-1.4079">
        <ele>1.07096</ele>
        <time>2023-06-02T12:41:53.000Z</time>
      </trkpt>
      <trkpt lat="46.19354" lon="-1.40783">
        <ele>1.05823</ele>
        <time>2023-06-02T12:41:54.000Z</time>
      </trkpt>
      <trkpt lat="46.1935" lon="-1.40776">
        <ele>0.98815</ele>
        <time>2023-06-02T12:41:55.000Z</time>
      </trkpt>
      <trkpt lat="46.19347" lon="-1.40771">
        <ele>0.84398</ele>
        <time>2023-06-02T12:41:56.000Z</time>
      </trkpt>
      <trkpt lat="46.19345" lon="-1.40763">
        <ele>0.67883</ele>
        <time>2023-06-02T12:41:57.000Z</time>
      </trkpt>
      <trkpt lat="46.19343" lon="-1.40756">
        <ele>0.51257</ele>
        <time>2023-06-02T12:41:58.000Z</time>
      </trkpt>
      <trkpt lat="46.1934" lon="-1.40748">
        <ele>0.30986</ele>
        <time>2023-06-02T12:41:59.000Z</time>
      </trkpt>
      <trkpt lat="46.19338" lon="-1.4074">
        <ele>0.11428</ele>
        <time>2023-06-02T12:42:00.000Z</time>
      </trkpt>
      <trkpt lat="46.19336" lon="-1.40733">
        <ele>-0.07723</ele>
        <time>2023-06-02T12:42:01.000Z</time>
      </trkpt>
      <trkpt lat="46.19335" lon="-1.40725">
        <ele>-0.24924</ele>
        <time>2023-06-02T12:42:02.000Z</time>
      </trkpt>
      <trkpt lat="46.19333" lon="-1.40718">
        <ele>-0.42527</ele>
        <time>2023-06-02T12:42:03.000Z</time>
      </trkpt>
      <trkpt lat="46.19331" lon="-1.4071">
        <ele>-0.61129</ele>
        <time>2023-06-02T12:42:04.000Z</time>
      </trkpt>
      <trkpt lat="46.19329" lon="-1.40702">
        <ele>-0.71415</ele>
        <time>2023-06-02T12:42:05.000Z</time>
      </trkpt>
      <trkpt lat="46.19328" lon="-1.40695">
        <ele>-0.82369</ele>
        <time>2023-06-02T12:42:06.000Z</time>
      </trkpt>
      <trkpt lat="46.19326" lon="-1.40687">
        <ele>-0.92111</ele>
        <time>2023-06-02T12:42:07.000Z</time>
      </trkpt>
      <trkpt lat="46.19324" lon="-1.40679">
        <ele>-1.02202</ele>
        <time>2023-06-02T12:42:08.000Z</time>
      </trkpt>
      <trkpt lat="46.19323" lon="-1.40672">
        <ele>-1.11045</ele>
        <time>2023-06-02T12:42:09.000Z</time>
      </trkpt>
      <trkpt lat="46.19321" lon="-1.40664">
        <ele>-1.19421</ele>
        <time>2023-06-02T12:42:10.000Z</time>
      </trkpt>
      <trkpt lat="46.1932" lon="-1.40657">
        <ele>-1.16554</ele>
        <time>2023-06-02T12:42:11.000Z</time>
      </trkpt>
      <trkpt lat="46.19318" lon="-1.40649">
        <ele>-1.15327</ele>
        <time>2023-06-02T12:42:12.000Z</time>
      </trkpt>
      <trkpt lat="46.19317" lon="-1.40642">
        <ele>-1.17117</ele>
        <time>2023-06-02T12:42:13.000Z</time>
      </trkpt>
      <trkpt lat="46.19316" lon="-1.40635">
        <ele>-1.1894</ele>
        <time>2023-06-02T12:42:14.000Z</time>
      </trkpt>
      <trkpt lat="46.19315" lon="-1.40627">
        <ele>-1.17546</ele>
        <time>2023-06-02T12:42:15.000Z</time>
      </trkpt>
      <trkpt lat="46.19314" lon="-1.40619">
        <ele>-1.09354</ele>
        <time>2023-06-02T12:42:16.000Z</time>
      </trkpt>
      <trkpt lat="46.19312" lon="-1.40611">
        <ele>-1.00213</ele>
        <time>2023-06-02T12:42:17.000Z</time>
      </trkpt>
      <trkpt lat="46.1931" lon="-1.40604">
        <ele>-0.90111</ele>
        <time>2023-06-02T12:42:18.000Z</time>
      </trkpt>
      <trkpt lat="46.19308" lon="-1.40595">
        <ele>-0.75684</ele>
        <time>2023-06-02T12:42:19.000Z</time>
      </trkpt>
      <trkpt lat="46.19306" lon="-1.40587">
        <ele>-0.5957</ele>
        <time>2023-06-02T12:42:20.000Z</time>
      </trkpt>
      <trkpt lat="46.19304" lon="-1.4058">
        <ele>-0.43961</ele>
        <time>2023-06-02T12:42:21.000Z</time>
      </trkpt>
      <trkpt lat="46.19303" lon="-1.40572">
        <ele>-0.29096</ele>
        <time>2023-06-02T12:42:22.000Z</time>
      </trkpt>
      <trkpt lat="46.19301" lon="-1.40564">
        <ele>-0.15665</ele>
        <time>2023-06-02T12:42:23.000Z</time>
      </trkpt>
      <trkpt lat="46.19299" lon="-1.40556">
        <ele>-0.0235</ele>
        <time>2023-06-02T12:42:24.000Z</time>
      </trkpt>
      <trkpt lat="46.19297" lon="-1.40548">
        <ele>0.10063</ele>
        <time>2023-06-02T12:42:25.000Z</time>
      </trkpt>
      <trkpt lat="46.19294" lon="-1.40539">
        <ele>0.19625</ele>
        <time>2023-06-02T12:42:26.000Z</time>
      </trkpt>
      <trkpt lat="46.19293" lon="-1.40532">
        <ele>0.2874</ele>
        <time>2023-06-02T12:42:27.000Z</time>
      </trkpt>
      <trkpt lat="46.19291" lon="-1.40525">
        <ele>0.37738</ele>
        <time>2023-06-02T12:42:28.000Z</time>
      </trkpt>
      <trkpt lat="46.19288" lon="-1.40516">
        <ele>0.42904</ele>
        <time>2023-06-02T12:42:29.000Z</time>
      </trkpt>
      <trkpt lat="46.19286" lon="-1.40508">
        <ele>0.52809</ele>
        <time>2023-06-02T12:42:30.000Z</time>
      </trkpt>
      <trkpt lat="46.19285" lon="-1.405">
        <ele>0.51843</ele>
        <time>2023-06-02T12:42:31.000Z</time>
      </trkpt>
      <trkpt lat="46.19283" lon="-1.40492">
        <ele>0.51622</ele>
        <time>2023-06-02T12:42:32.000Z</time>
      </trkpt>
      <trkpt lat="46.19281" lon="-1.40485">
        <ele>0.54041</ele>
        <time>2023-06-02T12:42:33.000Z</time>
      </trkpt>
      <trkpt lat="46.19279" lon="-1.40477">
        <ele>0.55873</ele>
        <time>2023-06-02T12:42:34.000Z</time>
      </trkpt>
      <trkpt lat="46.19277" lon="-1.40469">
        <ele>0.59032</ele>
        <time>2023-06-02T12:42:35.000Z</time>
      </trkpt>
      <trkpt lat="46.19274" lon="-1.40463">
        <ele>0.60282</ele>
        <time>2023-06-02T12:42:36.000Z</time>
      </trkpt>
      <trkpt lat="46.19272" lon="-1.40455">
        <ele>0.59447</ele>
        <time>2023-06-02T12:42:37.000Z</time>
      </trkpt>
      <trkpt lat="46.1927" lon="-1.40449">
        <ele>0.5454</ele>
        <time>2023-06-02T12:42:38.000Z</time>
      </trkpt>
      <trkpt lat="46.19269" lon="-1.40441">
        <ele>0.4939</ele>
        <time>2023-06-02T12:42:39.000Z</time>
      </trkpt>
      <trkpt lat="46.19268" lon="-1.40433">
        <ele>0.44785</ele>
        <time>2023-06-02T12:42:40.000Z</time>
      </trkpt>
      <trkpt lat="46.19267" lon="-1.40425">
        <ele>0.38913</ele>
        <time>2023-06-02T12:42:41.000Z</time>
      </trkpt>
      <trkpt lat="46.19265" lon="-1.40418">
        <ele>0.33741</ele>
        <time>2023-06-02T12:42:42.000Z</time>
      </trkpt>
      <trkpt lat="46.19262" lon="-1.4041">
        <ele>0.30389</ele>
        <time>2023-06-02T12:42:43.000Z</time>
      </trkpt>
      <trkpt lat="46.1926" lon="-1.40403">
        <ele>0.22395</ele>
        <time>2023-06-02T12:42:44.000Z</time>
      </trkpt>
      <trkpt lat="46.19258" lon="-1.40396">
        <ele>0.163</ele>
        <time>2023-06-02T12:42:45.000Z</time>
      </trkpt>
      <trkpt lat="46.19257" lon="-1.40389">
        <ele>0.12299</ele>
        <time>2023-06-02T12:42:46.000Z</time>
      </trkpt>
      <trkpt lat="46.19255" lon="-1.40381">
        <ele>0.08085</ele>
        <time>2023-06-02T12:42:47.000Z</time>
      </trkpt>
      <trkpt lat="46.19253" lon="-1.40372">
        <ele>0.0633</ele>
        <time>2023-06-02T12:42:48.000Z</time>
      </trkpt>
      <trkpt lat="46.19252" lon="-1.40364">
        <ele>0.06672</ele>
        <time>2023-06-02T12:42:49.000Z</time>
      </trkpt>
      <trkpt lat="46.1925" lon="-1.40356">
        <ele>0.01671</ele>
        <time>2023-06-02T12:42:50.000Z</time>
      </trkpt>
      <trkpt lat="46.19247" lon="-1.40348">
        <ele>-0.03373</ele>
        <time>2023-06-02T12:42:51.000Z</time>
      </trkpt>
      <trkpt lat="46.19245" lon="-1.40341">
        <ele>-0.00955</ele>
        <time>2023-06-02T12:42:52.000Z</time>
      </trkpt>
      <trkpt lat="46.19243" lon="-1.40333">
        <ele>0.00363</ele>
        <time>2023-06-02T12:42:53.000Z</time>
      </trkpt>
      <trkpt lat="46.1924" lon="-1.40324">
        <ele>0.01115</ele>
        <time>2023-06-02T12:42:54.000Z</time>
      </trkpt>
      <trkpt lat="46.19238" lon="-1.40316">
        <ele>0.03014</ele>
        <time>2023-06-02T12:42:55.000Z</time>
      </trkpt>
      <trkpt lat="46.19236" lon="-1.40308">
        <ele>0.06568</ele>
        <time>2023-06-02T12:42:56.000Z</time>
      </trkpt>
      <trkpt lat="46.19234" lon="-1.40301">
        <ele>0.11956</ele>
        <time>2023-06-02T12:42:57.000Z</time>
      </trkpt>
      <trkpt lat="46.19231" lon="-1.40293">
        <ele>0.19756</ele>
        <time>2023-06-02T12:42:58.000Z</time>
      </trkpt>
      <trkpt lat="46.1923" lon="-1.40286">
        <ele>0.25664</ele>
        <time>2023-06-02T12:42:59.000Z</time>
      </trkpt>
      <trkpt lat="46.19227" lon="-1.40278">
        <ele>0.29856</ele>
        <time>2023-06-02T12:43:00.000Z</time>
      </trkpt>
      <trkpt lat="46.19225" lon="-1.40271">
        <ele>0.33389</ele>
        <time>2023-06-02T12:43:01.000Z</time>
      </trkpt>
      <trkpt lat="46.19224" lon="-1.40263">
        <ele>0.36559</ele>
        <time>2023-06-02T12:43:02.000Z</time>
      </trkpt>
      <trkpt lat="46.19222" lon="-1.40255">
        <ele>0.38156</ele>
        <time>2023-06-02T12:43:03.000Z</time>
      </trkpt>
      <trkpt lat="46.1922" lon="-1.40247">
        <ele>0.52383</ele>
        <time>2023-06-02T12:43:04.000Z</time>
      </trkpt>
      <trkpt lat="46.19217" lon="-1.40239">
        <ele>0.62479</ele>
        <time>2023-06-02T12:43:05.000Z</time>
      </trkpt>
      <trkpt lat="46.19215" lon="-1.40231">
        <ele>0.61793</ele>
        <time>2023-06-02T12:43:06.000Z</time>
      </trkpt>
      <trkpt lat="46.19214" lon="-1.40224">
        <ele>0.64043</ele>
        <time>2023-06-02T12:43:07.000Z</time>
      </trkpt>
      <trkpt lat="46.19212" lon="-1.40216">
        <ele>0.61951</ele>
        <time>2023-06-02T12:43:08.000Z</time>
      </trkpt>
      <trkpt lat="46.1921" lon="-1.40208">
        <ele>0.66932</ele>
        <time>2023-06-02T12:43:09.000Z</time>
      </trkpt>
      <trkpt lat="46.19209" lon="-1.402">
        <ele>0.74573</ele>
        <time>2023-06-02T12:43:10.000Z</time>
      </trkpt>
      <trkpt lat="46.19207" lon="-1.40192">
        <ele>0.82304</ele>
        <time>2023-06-02T12:43:11.000Z</time>
      </trkpt>
      <trkpt lat="46.19206" lon="-1.40184">
        <ele>0.84477</ele>
        <time>2023-06-02T12:43:12.000Z</time>
      </trkpt>
      <trkpt lat="46.19204" lon="-1.40177">
        <ele>0.85851</ele>
        <time>2023-06-02T12:43:13.000Z</time>
      </trkpt>
      <trkpt lat="46.192" lon="-1.40169">
        <ele>0.87336</ele>
        <time>2023-06-02T12:43:14.000Z</time>
      </trkpt>
      <trkpt lat="46.19197" lon="-1.40161">
        <ele>0.87762</ele>
        <time>2023-06-02T12:43:15.000Z</time>
      </trkpt>
      <trkpt lat="46.19196" lon="-1.40153">
        <ele>0.88504</ele>
        <time>2023-06-02T12:43:16.000Z</time>
      </trkpt>
      <trkpt lat="46.19193" lon="-1.40146">
        <ele>0.89633</ele>
        <time>2023-06-02T12:43:17.000Z</time>
      </trkpt>
      <trkpt lat="46.19191" lon="-1.40138">
        <ele>0.93219</ele>
        <time>2023-06-02T12:43:18.000Z</time>
      </trkpt>
      <trkpt lat="46.1919" lon="-1.40131">
        <ele>0.97012</ele>
        <time>2023-06-02T12:43:19.000Z</time>
      </trkpt>
      <trkpt lat="46.19189" lon="-1.40124">
        <ele>1.03052</ele>
        <time>2023-06-02T12:43:20.000Z</time>
      </trkpt>
      <trkpt lat="46.19187" lon="-1.40116">
        <ele>1.10101</ele>
        <time>2023-06-02T12:43:21.000Z</time>
      </trkpt>
      <trkpt lat="46.19184" lon="-1.40108">
        <ele>1.1542</ele>
        <time>2023-06-02T12:43:22.000Z</time>
      </trkpt>
      <trkpt lat="46.19182" lon="-1.401">
        <ele>1.20706</ele>
        <time>2023-06-02T12:43:23.000Z</time>
      </trkpt>
      <trkpt lat="46.1918" lon="-1.40093">
        <ele>1.19269</ele>
        <time>2023-06-02T12:43:24.000Z</time>
      </trkpt>
      <trkpt lat="46.19178" lon="-1.40085">
        <ele>1.18613</ele>
        <time>2023-06-02T12:43:25.000Z</time>
      </trkpt>
      <trkpt lat="46.19176" lon="-1.40077">
        <ele>1.27394</ele>
        <time>2023-06-02T12:43:26.000Z</time>
      </trkpt>
      <trkpt lat="46.19174" lon="-1.40069">
        <ele>1.31273</ele>
        <time>2023-06-02T12:43:27.000Z</time>
      </trkpt>
      <trkpt lat="46.19171" lon="-1.40062">
        <ele>1.37017</ele>
        <time>2023-06-02T12:43:28.000Z</time>
      </trkpt>
      <trkpt lat="46.19169" lon="-1.40054">
        <ele>1.36923</ele>
        <time>2023-06-02T12:43:29.000Z</time>
      </trkpt>
      <trkpt lat="46.19167" lon="-1.40046">
        <ele>1.36156</ele>
        <time>2023-06-02T12:43:30.000Z</time>
      </trkpt>
      <trkpt lat="46.19164" lon="-1.40039">
        <ele>1.35253</ele>
        <time>2023-06-02T12:43:31.000Z</time>
      </trkpt>
      <trkpt lat="46.19161" lon="-1.40032">
        <ele>1.33226</ele>
        <time>2023-06-02T12:43:32.000Z</time>
      </trkpt>
      <trkpt lat="46.19158" lon="-1.40024">
        <ele>1.30611</ele>
        <time>2023-06-02T12:43:33.000Z</time>
      </trkpt>
      <trkpt lat="46.19156" lon="-1.40017">
        <ele>1.27403</ele>
        <time>2023-06-02T12:43:34.000Z</time>
      </trkpt>
      <trkpt lat="46.19154" lon="-1.40009">
        <ele>1.25325</ele>
        <time>2023-06-02T12:43:35.000Z</time>
      </trkpt>
      <trkpt lat="46.19151" lon="-1.40002">
        <ele>1.18542</ele>
        <time>2023-06-02T12:43:36.000Z</time>
      </trkpt>
      <trkpt lat="46.1915" lon="-1.39995">
        <ele>1.12561</ele>
        <time>2023-06-02T12:43:37.000Z</time>
      </trkpt>
      <trkpt lat="46.19149" lon="-1.39987">
        <ele>1.0586</ele>
        <time>2023-06-02T12:43:38.000Z</time>
      </trkpt>
      <trkpt lat="46.19146" lon="-1.39981">
        <ele>0.92937</ele>
        <time>2023-06-02T12:43:39.000Z</time>
      </trkpt>
      <trkpt lat="46.19144" lon="-1.39973">
        <ele>0.83909</ele>
        <time>2023-06-02T12:43:40.000Z</time>
      </trkpt>
      <trkpt lat="46.19143" lon="-1.39967">
        <ele>0.74055</ele>
        <time>2023-06-02T12:43:41.000Z</time>
      </trkpt>
      <trkpt lat="46.19141" lon="-1.3996">
        <ele>0.64189</ele>
        <time>2023-06-02T12:43:42.000Z</time>
      </trkpt>
      <trkpt lat="46.19139" lon="-1.39952">
        <ele>0.55283</ele>
        <time>2023-06-02T12:43:43.000Z</time>
      </trkpt>
      <trkpt lat="46.19135" lon="-1.39945">
        <ele>0.46656</ele>
        <time>2023-06-02T12:43:44.000Z</time>
      </trkpt>
      <trkpt lat="46.19133" lon="-1.39938">
        <ele>0.40599</ele>
        <time>2023-06-02T12:43:45.000Z</time>
      </trkpt>
      <trkpt lat="46.19132" lon="-1.39931">
        <ele>0.35264</ele>
        <time>2023-06-02T12:43:46.000Z</time>
      </trkpt>
      <trkpt lat="46.1913" lon="-1.39923">
        <ele>0.31861</ele>
        <time>2023-06-02T12:43:47.000Z</time>
      </trkpt>
      <trkpt lat="46.19128" lon="-1.39916">
        <ele>0.30457</ele>
        <time>2023-06-02T12:43:48.000Z</time>
      </trkpt>
      <trkpt lat="46.19125" lon="-1.3991">
        <ele>0.28341</ele>
        <time>2023-06-02T12:43:49.000Z</time>
      </trkpt>
      <trkpt lat="46.19123" lon="-1.39902">
        <ele>0.2721</ele>
        <time>2023-06-02T12:43:50.000Z</time>
      </trkpt>
      <trkpt lat="46.19121" lon="-1.39895">
        <ele>0.27441</ele>
        <time>2023-06-02T12:43:51.000Z</time>
      </trkpt>
      <trkpt lat="46.1912" lon="-1.39889">
        <ele>0.27682</ele>
        <time>2023-06-02T12:43:52.000Z</time>
      </trkpt>
      <trkpt lat="46.19117" lon="-1.39882">
        <ele>0.26792</ele>
        <time>2023-06-02T12:43:53.000Z</time>
      </trkpt>
      <trkpt lat="46.19115" lon="-1.39875">
        <ele>0.28949</ele>
        <time>2023-06-02T12:43:54.000Z</time>
      </trkpt>
      <trkpt lat="46.19112" lon="-1.39869">
        <ele>0.31314</ele>
        <time>2023-06-02T12:43:55.000Z</time>
      </trkpt>
      <trkpt lat="46.19111" lon="-1.39863">
        <ele>0.39145</ele>
        <time>2023-06-02T12:43:56.000Z</time>
      </trkpt>
      <trkpt lat="46.19108" lon="-1.39855">
        <ele>0.47064</ele>
        <time>2023-06-02T12:43:57.000Z</time>
      </trkpt>
      <trkpt lat="46.19106" lon="-1.39848">
        <ele>0.56423</ele>
        <time>2023-06-02T12:43:58.000Z</time>
      </trkpt>
      <trkpt lat="46.19103" lon="-1.39841">
        <ele>0.69268</ele>
        <time>2023-06-02T12:43:59.000Z</time>
      </trkpt>
      <trkpt lat="46.19101" lon="-1.39835">
        <ele>0.76675</ele>
        <time>2023-06-02T12:44:00.000Z</time>
      </trkpt>
      <trkpt lat="46.19098" lon="-1.39828">
        <ele>0.85028</ele>
        <time>2023-06-02T12:44:01.000Z</time>
      </trkpt>
      <trkpt lat="46.19096" lon="-1.39821">
        <ele>0.94654</ele>
        <time>2023-06-02T12:44:02.000Z</time>
      </trkpt>
      <trkpt lat="46.19092" lon="-1.39815">
        <ele>1.01611</ele>
        <time>2023-06-02T12:44:03.000Z</time>
      </trkpt>
      <trkpt lat="46.19089" lon="-1.39808">
        <ele>1.07597</ele>
        <time>2023-06-02T12:44:04.000Z</time>
      </trkpt>
      <trkpt lat="46.19087" lon="-1.39801">
        <ele>1.20344</ele>
        <time>2023-06-02T12:44:05.000Z</time>
      </trkpt>
      <trkpt lat="46.19085" lon="-1.39794">
        <ele>1.32003</ele>
        <time>2023-06-02T12:44:06.000Z</time>
      </trkpt>
      <trkpt lat="46.19083" lon="-1.39788">
        <ele>1.43855</ele>
        <time>2023-06-02T12:44:07.000Z</time>
      </trkpt>
      <trkpt lat="46.19081" lon="-1.3978">
        <ele>1.54133</ele>
        <time>2023-06-02T12:44:08.000Z</time>
      </trkpt>
      <trkpt lat="46.1908" lon="-1.39773">
        <ele>1.64163</ele>
        <time>2023-06-02T12:44:09.000Z</time>
      </trkpt>
      <trkpt lat="46.19077" lon="-1.39767">
        <ele>1.74617</ele>
        <time>2023-06-02T12:44:10.000Z</time>
      </trkpt>
      <trkpt lat="46.19075" lon="-1.3976">
        <ele>1.82667</ele>
        <time>2023-06-02T12:44:11.000Z</time>
      </trkpt>
      <trkpt lat="46.19073" lon="-1.39754">
        <ele>1.89076</ele>
        <time>2023-06-02T12:44:12.000Z</time>
      </trkpt>
      <trkpt lat="46.19071" lon="-1.39747">
        <ele>1.97476</ele>
        <time>2023-06-02T12:44:13.000Z</time>
      </trkpt>
      <trkpt lat="46.19068" lon="-1.39742">
        <ele>2.03612</ele>
        <time>2023-06-02T12:44:14.000Z</time>
      </trkpt>
      <trkpt lat="46.19065" lon="-1.39735">
        <ele>2.09363</ele>
        <time>2023-06-02T12:44:15.000Z</time>
      </trkpt>
      <trkpt lat="46.19063" lon="-1.39729">
        <ele>2.11855</ele>
        <time>2023-06-02T12:44:16.000Z</time>
      </trkpt>
      <trkpt lat="46.19061" lon="-1.39723">
        <ele>2.12786</ele>
        <time>2023-06-02T12:44:17.000Z</time>
      </trkpt>
      <trkpt lat="46.19059" lon="-1.39716">
        <ele>2.12142</ele>
        <time>2023-06-02T12:44:18.000Z</time>
      </trkpt>
      <trkpt lat="46.19056" lon="-1.3971">
        <ele>2.16638</ele>
        <time>2023-06-02T12:44:19.000Z</time>
      </trkpt>
      <trkpt lat="46.19053" lon="-1.39703">
        <ele>2.22343</ele>
        <time>2023-06-02T12:44:20.000Z</time>
      </trkpt>
      <trkpt lat="46.19051" lon="-1.39697">
        <ele>2.28095</ele>
        <time>2023-06-02T12:44:21.000Z</time>
      </trkpt>
      <trkpt lat="46.19047" lon="-1.39691">
        <ele>2.33214</ele>
        <time>2023-06-02T12:44:22.000Z</time>
      </trkpt>
      <trkpt lat="46.19045" lon="-1.39684">
        <ele>2.39582</ele>
        <time>2023-06-02T12:44:23.000Z</time>
      </trkpt>
      <trkpt lat="46.19043" lon="-1.39677">
        <ele>2.48133</ele>
        <time>2023-06-02T12:44:24.000Z</time>
      </trkpt>
      <trkpt lat="46.19041" lon="-1.3967">
        <ele>2.43711</ele>
        <time>2023-06-02T12:44:25.000Z</time>
      </trkpt>
      <trkpt lat="46.1904" lon="-1.39664">
        <ele>2.45484</ele>
        <time>2023-06-02T12:44:26.000Z</time>
      </trkpt>
      <trkpt lat="46.19037" lon="-1.39657">
        <ele>2.45615</ele>
        <time>2023-06-02T12:44:27.000Z</time>
      </trkpt>
      <trkpt lat="46.19035" lon="-1.39651">
        <ele>2.45574</ele>
        <time>2023-06-02T12:44:28.000Z</time>
      </trkpt>
      <trkpt lat="46.19033" lon="-1.39645">
        <ele>2.43884</ele>
        <time>2023-06-02T12:44:29.000Z</time>
      </trkpt>
      <trkpt lat="46.19032" lon="-1.39639">
        <ele>2.35801</ele>
        <time>2023-06-02T12:44:30.000Z</time>
      </trkpt>
      <trkpt lat="46.1903" lon="-1.39633">
        <ele>2.27407</ele>
        <time>2023-06-02T12:44:31.000Z</time>
      </trkpt>
      <trkpt lat="46.19029" lon="-1.39626">
        <ele>2.20547</ele>
        <time>2023-06-02T12:44:32.000Z</time>
      </trkpt>
      <trkpt lat="46.19026" lon="-1.3962">
        <ele>2.11278</ele>
        <time>2023-06-02T12:44:33.000Z</time>
      </trkpt>
      <trkpt lat="46.19024" lon="-1.39614">
        <ele>2.0805</ele>
        <time>2023-06-02T12:44:34.000Z</time>
      </trkpt>
      <trkpt lat="46.19022" lon="-1.39607">
        <ele>2.04487</ele>
        <time>2023-06-02T12:44:35.000Z</time>
      </trkpt>
      <trkpt lat="46.1902" lon="-1.39601">
        <ele>2.02236</ele>
        <time>2023-06-02T12:44:36.000Z</time>
      </trkpt>
      <trkpt lat="46.19017" lon="-1.39595">
        <ele>1.99809</ele>
        <time>2023-06-02T12:44:37.000Z</time>
      </trkpt>
      <trkpt lat="46.19014" lon="-1.39589">
        <ele>1.98516</ele>
        <time>2023-06-02T12:44:38.000Z</time>
      </trkpt>
      <trkpt lat="46.19011" lon="-1.39583">
        <ele>1.97942</ele>
        <time>2023-06-02T12:44:39.000Z</time>
      </trkpt>
      <trkpt lat="46.19009" lon="-1.39576">
        <ele>1.96181</ele>
        <time>2023-06-02T12:44:40.000Z</time>
      </trkpt>
      <trkpt lat="46.19006" lon="-1.39569">
        <ele>1.951</ele>
        <time>2023-06-02T12:44:41.000Z</time>
      </trkpt>
      <trkpt lat="46.19004" lon="-1.39563">
        <ele>1.93564</ele>
        <time>2023-06-02T12:44:42.000Z</time>
      </trkpt>
      <trkpt lat="46.19001" lon="-1.39556">
        <ele>1.96267</ele>
        <time>2023-06-02T12:44:43.000Z</time>
      </trkpt>
      <trkpt lat="46.18998" lon="-1.39549">
        <ele>1.99758</ele>
        <time>2023-06-02T12:44:44.000Z</time>
      </trkpt>
      <trkpt lat="46.18996" lon="-1.39543">
        <ele>2.09358</ele>
        <time>2023-06-02T12:44:45.000Z</time>
      </trkpt>
      <trkpt lat="46.18993" lon="-1.39537">
        <ele>2.13985</ele>
        <time>2023-06-02T12:44:46.000Z</time>
      </trkpt>
      <trkpt lat="46.18991" lon="-1.39531">
        <ele>2.18388</ele>
        <time>2023-06-02T12:44:47.000Z</time>
      </trkpt>
      <trkpt lat="46.1899" lon="-1.39524">
        <ele>2.24011</ele>
        <time>2023-06-02T12:44:48.000Z</time>
      </trkpt>
      <trkpt lat="46.18988" lon="-1.39518">
        <ele>2.31508</ele>
        <time>2023-06-02T12:44:49.000Z</time>
      </trkpt>
      <trkpt lat="46.18985" lon="-1.39512">
        <ele>2.45582</ele>
        <time>2023-06-02T12:44:50.000Z</time>
      </trkpt>
      <trkpt lat="46.18982" lon="-1.39506">
        <ele>2.61813</ele>
        <time>2023-06-02T12:44:51.000Z</time>
      </trkpt>
      <trkpt lat="46.1898" lon="-1.39501">
        <ele>2.77228</ele>
        <time>2023-06-02T12:44:52.000Z</time>
      </trkpt>
      <trkpt lat="46.18977" lon="-1.39495">
        <ele>2.96549</ele>
        <time>2023-06-02T12:44:53.000Z</time>
      </trkpt>
      <trkpt lat="46.18975" lon="-1.39489">
        <ele>3.10163</ele>
        <time>2023-06-02T12:44:54.000Z</time>
      </trkpt>
      <trkpt lat="46.18972" lon="-1.39483">
        <ele>3.20838</ele>
        <time>2023-06-02T12:44:55.000Z</time>
      </trkpt>
      <trkpt lat="46.18969" lon="-1.39476">
        <ele>3.32048</ele>
        <time>2023-06-02T12:44:56.000Z</time>
      </trkpt>
      <trkpt lat="46.18967" lon="-1.3947">
        <ele>3.39927</ele>
        <time>2023-06-02T12:44:57.000Z</time>
      </trkpt>
      <trkpt lat="46.18965" lon="-1.39464">
        <ele>3.4693</ele>
        <time>2023-06-02T12:44:58.000Z</time>
      </trkpt>
      <trkpt lat="46.18962" lon="-1.39458">
        <ele>3.49769</ele>
        <time>2023-06-02T12:44:59.000Z</time>
      </trkpt>
      <trkpt lat="46.1896" lon="-1.39452">
        <ele>3.58082</ele>
        <time>2023-06-02T12:45:00.000Z</time>
      </trkpt>
      <trkpt lat="46.18958" lon="-1.39446">
        <ele>3.64922</ele>
        <time>2023-06-02T12:45:01.000Z</time>
      </trkpt>
      <trkpt lat="46.18955" lon="-1.3944">
        <ele>3.74458</ele>
        <time>2023-06-02T12:45:02.000Z</time>
      </trkpt>
      <trkpt lat="46.18953" lon="-1.39434">
        <ele>3.80809</ele>
        <time>2023-06-02T12:45:03.000Z</time>
      </trkpt>
      <trkpt lat="46.18951" lon="-1.39429">
        <ele>3.84237</ele>
        <time>2023-06-02T12:45:04.000Z</time>
      </trkpt>
      <trkpt lat="46.18949" lon="-1.39424">
        <ele>3.87955</ele>
        <time>2023-06-02T12:45:05.000Z</time>
      </trkpt>
      <trkpt lat="46.18948" lon="-1.39419">
        <ele>3.91207</ele>
        <time>2023-06-02T12:45:06.000Z</time>
      </trkpt>
      <trkpt lat="46.18946" lon="-1.39414">
        <ele>3.96157</ele>
        <time>2023-06-02T12:45:07.000Z</time>
      </trkpt>
      <trkpt lat="46.18945" lon="-1.39409">
        <ele>4.00373</ele>
        <time>2023-06-02T12:45:08.000Z</time>
      </trkpt>
      <trkpt lat="46.18943" lon="-1.39405">
        <ele>4.0333</ele>
        <time>2023-06-02T12:45:09.000Z</time>
      </trkpt>
      <trkpt lat="46.1894" lon="-1.39401">
        <ele>3.97025</ele>
        <time>2023-06-02T12:45:10.000Z</time>
      </trkpt>
      <trkpt lat="46.18938" lon="-1.39396">
        <ele>3.88148</ele>
        <time>2023-06-02T12:45:11.000Z</time>
      </trkpt>
      <trkpt lat="46.18937" lon="-1.39393">
        <ele>3.79593</ele>
        <time>2023-06-02T12:45:12.000Z</time>
      </trkpt>
      <trkpt lat="46.18936" lon="-1.39388">
        <ele>3.69605</ele>
        <time>2023-06-02T12:45:13.000Z</time>
      </trkpt>
      <trkpt lat="46.18935" lon="-1.39386">
        <ele>3.6547</ele>
        <time>2023-06-02T12:45:14.000Z</time>
      </trkpt>
      <trkpt lat="46.18934" lon="-1.39383">
        <ele>3.63607</ele>
        <time>2023-06-02T12:45:15.000Z</time>
      </trkpt>
      <trkpt lat="46.18933" lon="-1.3938">
        <ele>3.61872</ele>
        <time>2023-06-02T12:45:16.000Z</time>
      </trkpt>
      <trkpt lat="46.18933" lon="-1.39378">
        <ele>3.62577</ele>
        <time>2023-06-02T12:45:17.000Z</time>
      </trkpt>
      <trkpt lat="46.18932" lon="-1.39375">
        <ele>3.58916</ele>
        <time>2023-06-02T12:45:18.000Z</time>
      </trkpt>
      <trkpt lat="46.18931" lon="-1.39372">
        <ele>3.56141</ele>
        <time>2023-06-02T12:45:19.000Z</time>
      </trkpt>
      <trkpt lat="46.1893" lon="-1.39368">
        <ele>3.47879</ele>
        <time>2023-06-02T12:45:20.000Z</time>
      </trkpt>
      <trkpt lat="46.1893" lon="-1.39365">
        <ele>3.40846</ele>
        <time>2023-06-02T12:45:21.000Z</time>
      </trkpt>
      <trkpt lat="46.18929" lon="-1.39361">
        <ele>3.34544</ele>
        <time>2023-06-02T12:45:22.000Z</time>
      </trkpt>
      <trkpt lat="46.18928" lon="-1.39358">
        <ele>3.27082</ele>
        <time>2023-06-02T12:45:23.000Z</time>
      </trkpt>
      <trkpt lat="46.18927" lon="-1.39355">
        <ele>3.20583</ele>
        <time>2023-06-02T12:45:24.000Z</time>
      </trkpt>
      <trkpt lat="46.18926" lon="-1.39352">
        <ele>3.13648</ele>
        <time>2023-06-02T12:45:25.000Z</time>
      </trkpt>
      <trkpt lat="46.18924" lon="-1.39349">
        <ele>3.05727</ele>
        <time>2023-06-02T12:45:26.000Z</time>
      </trkpt>
      <trkpt lat="46.18923" lon="-1.39345">
        <ele>2.98994</ele>
        <time>2023-06-02T12:45:27.000Z</time>
      </trkpt>
      <trkpt lat="46.18922" lon="-1.39342">
        <ele>2.9207</ele>
        <time>2023-06-02T12:45:28.000Z</time>
      </trkpt>
      <trkpt lat="46.18921" lon="-1.39339">
        <ele>2.86257</ele>
        <time>2023-06-02T12:45:29.000Z</time>
      </trkpt>
      <trkpt lat="46.18919" lon="-1.39336">
        <ele>2.89679</ele>
        <time>2023-06-02T12:45:30.000Z</time>
      </trkpt>
      <trkpt lat="46.18918" lon="-1.39333">
        <ele>2.92624</ele>
        <time>2023-06-02T12:45:31.000Z</time>
      </trkpt>
      <trkpt lat="46.18916" lon="-1.39331">
        <ele>2.97012</ele>
        <time>2023-06-02T12:45:32.000Z</time>
      </trkpt>
      <trkpt lat="46.18916" lon="-1.39327">
        <ele>3.00251</ele>
        <time>2023-06-02T12:45:33.000Z</time>
      </trkpt>
      <trkpt lat="46.18915" lon="-1.39324">
        <ele>2.97124</ele>
        <time>2023-06-02T12:45:34.000Z</time>
      </trkpt>
      <trkpt lat="46.18915" lon="-1.39321">
        <ele>2.95031</ele>
        <time>2023-06-02T12:45:35.000Z</time>
      </trkpt>
      <trkpt lat="46.18914" lon="-1.39318">
        <ele>2.90758</ele>
        <time>2023-06-02T12:45:36.000Z</time>
      </trkpt>
      <trkpt lat="46.18912" lon="-1.39314">
        <ele>2.87674</ele>
        <time>2023-06-02T12:45:37.000Z</time>
      </trkpt>
      <trkpt lat="46.18911" lon="-1.39311">
        <ele>2.90275</ele>
        <time>2023-06-02T12:45:38.000Z</time>
      </trkpt>
      <trkpt lat="46.1891" lon="-1.39308">
        <ele>2.92841</ele>
        <time>2023-06-02T12:45:39.000Z</time>
      </trkpt>
      <trkpt lat="46.18909" lon="-1.39304">
        <ele>2.9391</ele>
        <time>2023-06-02T12:45:40.000Z</time>
      </trkpt>
      <trkpt lat="46.18907" lon="-1.393">
        <ele>2.94182</ele>
        <time>2023-06-02T12:45:41.000Z</time>
      </trkpt>
      <trkpt lat="46.18906" lon="-1.39297">
        <ele>2.90693</ele>
        <time>2023-06-02T12:45:42.000Z</time>
      </trkpt>
      <trkpt lat="46.18905" lon="-1.39293">
        <ele>2.88572</ele>
        <time>2023-06-02T12:45:43.000Z</time>
      </trkpt>
      <trkpt lat="46.18903" lon="-1.3929">
        <ele>2.87067</ele>
        <time>2023-06-02T12:45:44.000Z</time>
      </trkpt>
      <trkpt lat="46.18902" lon="-1.39286">
        <ele>2.83969</ele>
        <time>2023-06-02T12:45:45.000Z</time>
      </trkpt>
      <trkpt lat="46.18901" lon="-1.39282">
        <ele>2.80624</ele>
        <time>2023-06-02T12:45:46.000Z</time>
      </trkpt>
      <trkpt lat="46.18901" lon="-1.39278">
        <ele>2.75792</ele>
        <time>2023-06-02T12:45:47.000Z</time>
      </trkpt>
      <trkpt lat="46.189" lon="-1.39274">
        <ele>2.70821</ele>
        <time>2023-06-02T12:45:48.000Z</time>
      </trkpt>
      <trkpt lat="46.18899" lon="-1.3927">
        <ele>2.63351</ele>
        <time>2023-06-02T12:45:49.000Z</time>
      </trkpt>
      <trkpt lat="46.18899" lon="-1.39265">
        <ele>2.55621</ele>
        <time>2023-06-02T12:45:50.000Z</time>
      </trkpt>
      <trkpt lat="46.18898" lon="-1.39261">
        <ele>2.50937</ele>
        <time>2023-06-02T12:45:51.000Z</time>
      </trkpt>
      <trkpt lat="46.18897" lon="-1.39257">
        <ele>2.45019</ele>
        <time>2023-06-02T12:45:52.000Z</time>
      </trkpt>
      <trkpt lat="46.18896" lon="-1.39252">
        <ele>2.41397</ele>
        <time>2023-06-02T12:45:53.000Z</time>
      </trkpt>
      <trkpt lat="46.18896" lon="-1.39248">
        <ele>2.38639</ele>
        <time>2023-06-02T12:45:54.000Z</time>
      </trkpt>
      <trkpt lat="46.18895" lon="-1.39243">
        <ele>2.3565</ele>
        <time>2023-06-02T12:45:55.000Z</time>
      </trkpt>
      <trkpt lat="46.18895" lon="-1.39239">
        <ele>2.34654</ele>
        <time>2023-06-02T12:45:56.000Z</time>
      </trkpt>
      <trkpt lat="46.18894" lon="-1.39234">
        <ele>2.33273</ele>
        <time>2023-06-02T12:45:57.000Z</time>
      </trkpt>
      <trkpt lat="46.18894" lon="-1.3923">
        <ele>2.28906</ele>
        <time>2023-06-02T12:45:58.000Z</time>
      </trkpt>
      <trkpt lat="46.18893" lon="-1.39225">
        <ele>2.25833</ele>
        <time>2023-06-02T12:45:59.000Z</time>
      </trkpt>
      <trkpt lat="46.18893" lon="-1.3922">
        <ele>2.242</ele>
        <time>2023-06-02T12:46:00.000Z</time>
      </trkpt>
      <trkpt lat="46.18892" lon="-1.39216">
        <ele>2.24536</ele>
        <time>2023-06-02T12:46:01.000Z</time>
      </trkpt>
      <trkpt lat="46.18892" lon="-1.39211">
        <ele>2.23993</ele>
        <time>2023-06-02T12:46:02.000Z</time>
      </trkpt>
      <trkpt lat="46.18891" lon="-1.39206">
        <ele>2.24935</ele>
        <time>2023-06-02T12:46:03.000Z</time>
      </trkpt>
      <trkpt lat="46.18891" lon="-1.39201">
        <ele>2.2545</ele>
        <time>2023-06-02T12:46:04.000Z</time>
      </trkpt>
      <trkpt lat="46.1889" lon="-1.39196">
        <ele>2.27676</ele>
        <time>2023-06-02T12:46:05.000Z</time>
      </trkpt>
      <trkpt lat="46.1889" lon="-1.39191">
        <ele>2.27861</ele>
        <time>2023-06-02T12:46:06.000Z</time>
      </trkpt>
      <trkpt lat="46.1889" lon="-1.39186">
        <ele>2.27622</ele>
        <time>2023-06-02T12:46:07.000Z</time>
      </trkpt>
      <trkpt lat="46.18889" lon="-1.39181">
        <ele>2.2603</ele>
        <time>2023-06-02T12:46:08.000Z</time>
      </trkpt>
      <trkpt lat="46.18889" lon="-1.39176">
        <ele>2.26889</ele>
        <time>2023-06-02T12:46:09.000Z</time>
      </trkpt>
      <trkpt lat="46.18888" lon="-1.39171">
        <ele>2.2745</ele>
        <time>2023-06-02T12:46:10.000Z</time>
      </trkpt>
      <trkpt lat="46.18888" lon="-1.39166">
        <ele>2.2771</ele>
        <time>2023-06-02T12:46:11.000Z</time>
      </trkpt>
      <trkpt lat="46.18888" lon="-1.39162">
        <ele>2.28014</ele>
        <time>2023-06-02T12:46:12.000Z</time>
      </trkpt>
      <trkpt lat="46.18888" lon="-1.39156">
        <ele>2.24383</ele>
        <time>2023-06-02T12:46:13.000Z</time>
      </trkpt>
      <trkpt lat="46.18887" lon="-1.39151">
        <ele>2.18845</ele>
        <time>2023-06-02T12:46:14.000Z</time>
      </trkpt>
      <trkpt lat="46.18887" lon="-1.39146">
        <ele>2.13523</ele>
        <time>2023-06-02T12:46:15.000Z</time>
      </trkpt>
      <trkpt lat="46.18887" lon="-1.39141">
        <ele>2.11223</ele>
        <time>2023-06-02T12:46:16.000Z</time>
      </trkpt>
      <trkpt lat="46.18887" lon="-1.39136">
        <ele>2.0971</ele>
        <time>2023-06-02T12:46:17.000Z</time>
      </trkpt>
      <trkpt lat="46.18887" lon="-1.3913">
        <ele>2.08883</ele>
        <time>2023-06-02T12:46:18.000Z</time>
      </trkpt>
      <trkpt lat="46.18886" lon="-1.39125">
        <ele>2.08864</ele>
        <time>2023-06-02T12:46:19.000Z</time>
      </trkpt>
      <trkpt lat="46.18886" lon="-1.3912">
        <ele>2.09778</ele>
        <time>2023-06-02T12:46:20.000Z</time>
      </trkpt>
      <trkpt lat="46.18886" lon="-1.39115">
        <ele>2.10591</ele>
        <time>2023-06-02T12:46:21.000Z</time>
      </trkpt>
      <trkpt lat="46.18886" lon="-1.3911">
        <ele>2.13487</ele>
        <time>2023-06-02T12:46:22.000Z</time>
      </trkpt>
      <trkpt lat="46.18886" lon="-1.39105">
        <ele>2.1271</ele>
        <time>2023-06-02T12:46:23.000Z</time>
      </trkpt>
      <trkpt lat="46.18886" lon="-1.391">
        <ele>2.11424</ele>
        <time>2023-06-02T12:46:24.000Z</time>
      </trkpt>
      <trkpt lat="46.18885" lon="-1.39095">
        <ele>2.09347</ele>
        <time>2023-06-02T12:46:25.000Z</time>
      </trkpt>
      <trkpt lat="46.18885" lon="-1.3909">
        <ele>2.09846</ele>
        <time>2023-06-02T12:46:26.000Z</time>
      </trkpt>
      <trkpt lat="46.18885" lon="-1.39084">
        <ele>2.12671</ele>
        <time>2023-06-02T12:46:27.000Z</time>
      </trkpt>
      <trkpt lat="46.18885" lon="-1.39079">
        <ele>2.17382</ele>
        <time>2023-06-02T12:46:28.000Z</time>
      </trkpt>
      <trkpt lat="46.18885" lon="-1.39074">
        <ele>2.2285</ele>
        <time>2023-06-02T12:46:29.000Z</time>
      </trkpt>
      <trkpt lat="46.18884" lon="-1.39068">
        <ele>2.27689</ele>
        <time>2023-06-02T12:46:30.000Z</time>
      </trkpt>
      <trkpt lat="46.18884" lon="-1.39063">
        <ele>2.33567</ele>
        <time>2023-06-02T12:46:31.000Z</time>
      </trkpt>
      <trkpt lat="46.18883" lon="-1.39057">
        <ele>2.38181</ele>
        <time>2023-06-02T12:46:32.000Z</time>
      </trkpt>
      <trkpt lat="46.18883" lon="-1.39052">
        <ele>2.44655</ele>
        <time>2023-06-02T12:46:33.000Z</time>
      </trkpt>
      <trkpt lat="46.18882" lon="-1.39046">
        <ele>2.51968</ele>
        <time>2023-06-02T12:46:34.000Z</time>
      </trkpt>
      <trkpt lat="46.18882" lon="-1.39041">
        <ele>2.59248</ele>
        <time>2023-06-02T12:46:35.000Z</time>
      </trkpt>
      <trkpt lat="46.18882" lon="-1.39036">
        <ele>2.61819</ele>
        <time>2023-06-02T12:46:36.000Z</time>
      </trkpt>
      <trkpt lat="46.18882" lon="-1.39031">
        <ele>2.68963</ele>
        <time>2023-06-02T12:46:37.000Z</time>
      </trkpt>
      <trkpt lat="46.18881" lon="-1.39026">
        <ele>2.76788</ele>
        <time>2023-06-02T12:46:38.000Z</time>
      </trkpt>
      <trkpt lat="46.1888" lon="-1.39021">
        <ele>2.85256</ele>
        <time>2023-06-02T12:46:39.000Z</time>
      </trkpt>
      <trkpt lat="46.1888" lon="-1.39016">
        <ele>2.92703</ele>
        <time>2023-06-02T12:46:40.000Z</time>
      </trkpt>
      <trkpt lat="46.1888" lon="-1.39011">
        <ele>2.9773</ele>
        <time>2023-06-02T12:46:41.000Z</time>
      </trkpt>
      <trkpt lat="46.1888" lon="-1.39006">
        <ele>3.01831</ele>
        <time>2023-06-02T12:46:42.000Z</time>
      </trkpt>
      <trkpt lat="46.1888" lon="-1.39001">
        <ele>3.08117</ele>
        <time>2023-06-02T12:46:43.000Z</time>
      </trkpt>
      <trkpt lat="46.1888" lon="-1.38996">
        <ele>3.15584</ele>
        <time>2023-06-02T12:46:44.000Z</time>
      </trkpt>
      <trkpt lat="46.18879" lon="-1.38991">
        <ele>3.2304</ele>
        <time>2023-06-02T12:46:45.000Z</time>
      </trkpt>
      <trkpt lat="46.18879" lon="-1.38986">
        <ele>3.30746</ele>
        <time>2023-06-02T12:46:46.000Z</time>
      </trkpt>
      <trkpt lat="46.18879" lon="-1.38982">
        <ele>3.37318</ele>
        <time>2023-06-02T12:46:47.000Z</time>
      </trkpt>
      <trkpt lat="46.18879" lon="-1.38978">
        <ele>3.43113</ele>
        <time>2023-06-02T12:46:48.000Z</time>
      </trkpt>
      <trkpt lat="46.18878" lon="-1.38974">
        <ele>3.48326</ele>
        <time>2023-06-02T12:46:49.000Z</time>
      </trkpt>
      <trkpt lat="46.18878" lon="-1.3897">
        <ele>3.5077</ele>
        <time>2023-06-02T12:46:50.000Z</time>
      </trkpt>
      <trkpt lat="46.18878" lon="-1.38966">
        <ele>3.52481</ele>
        <time>2023-06-02T12:46:51.000Z</time>
      </trkpt>
      <trkpt lat="46.18877" lon="-1.38962">
        <ele>3.5534</ele>
        <time>2023-06-02T12:46:52.000Z</time>
      </trkpt>
      <trkpt lat="46.18877" lon="-1.38959">
        <ele>3.58271</ele>
        <time>2023-06-02T12:46:53.000Z</time>
      </trkpt>
      <trkpt lat="46.18877" lon="-1.38955">
        <ele>3.61772</ele>
        <time>2023-06-02T12:46:54.000Z</time>
      </trkpt>
      <trkpt lat="46.18877" lon="-1.38952">
        <ele>3.63691</ele>
        <time>2023-06-02T12:46:55.000Z</time>
      </trkpt>
      <trkpt lat="46.18876" lon="-1.38948">
        <ele>3.62556</ele>
        <time>2023-06-02T12:46:57.000Z</time>
      </trkpt>
      <trkpt lat="46.18873" lon="-1.38946">
        <ele>3.50033</ele>
        <time>2023-06-02T12:46:59.000Z</time>
      </trkpt>
      <trkpt lat="46.1887" lon="-1.38946">
        <ele>3.35474</ele>
        <time>2023-06-02T12:47:01.000Z</time>
      </trkpt>
      <trkpt lat="46.18867" lon="-1.38946">
        <ele>3.20944</ele>
        <time>2023-06-02T12:47:03.000Z</time>
      </trkpt>
      <trkpt lat="46.18864" lon="-1.38945">
        <ele>3.07603</ele>
        <time>2023-06-02T12:47:05.000Z</time>
      </trkpt>
    </trkseg>
  </trk>
</gpx>